Wetterdaten: Freitag, 13.04.2018
Datum Zeit Temp. A. Pool Temp. Feuchte A. Luftdruck Regen Wind Richtung Richtung Sonnenschein ET UV Solar Taupunkt Windchill Windben Empfang
13.04.2018 00:00 15,2 C 10,6 C 62 % 1000,7 hPa 0,0 l/m 20,4 km/h (4 Bft) O 94 0 min 0,000 mm 0,0 UV-I 0 W/m 8,0 C 9,9 C 27,4 km/h (4 Bft) 100,00 %
13.04.2018 00:01 15,2 C 10,6 C 61 % 1000,6 hPa 0,0 l/m 23,0 km/h (4 Bft) O-SO 106 0 min 0,000 mm 0,0 UV-I 0 W/m 7,7 C 9,3 C 30,6 km/h (5 Bft) 95,24 %
13.04.2018 00:02 15,2 C 10,6 C 62 % 1000,7 hPa 0,0 l/m 22,2 km/h (4 Bft) O 96 0 min 0,000 mm 0,0 UV-I 0 W/m 8,0 C 9,5 C 30,6 km/h (5 Bft) 100,00 %
13.04.2018 00:03 15,2 C 10,6 C 62 % 1000,6 hPa 0,0 l/m 27,0 km/h (4 Bft) O 88 0 min 0,000 mm 0,0 UV-I 0 W/m 8,0 C 8,5 C 38,6 km/h (5 Bft) 100,00 %
13.04.2018 00:04 15,2 C 10,6 C 62 % 1000,7 hPa 0,0 l/m 23,3 km/h (4 Bft) O-SO 117 0 min 0,000 mm 0,0 UV-I 0 W/m 8,0 C 9,2 C 30,6 km/h (5 Bft) 93,33 %
13.04.2018 00:05 15,2 C 10,6 C 61 % 1000,6 hPa 0,0 l/m 22,1 km/h (4 Bft) O 90 0 min 0,000 mm 0,0 UV-I 0 W/m 7,7 C 9,5 C 37,0 km/h (5 Bft) 100,00 %
13.04.2018 00:06 15,3 C 10,6 C 61 % 1000,6 hPa 0,0 l/m 23,7 km/h (4 Bft) O 90 0 min 0,000 mm 0,0 UV-I 0 W/m 7,8 C 9,3 C 30,6 km/h (5 Bft) 100,00 %
13.04.2018 00:07 15,3 C 10,6 C 61 % 1000,6 hPa 0,0 l/m 23,5 km/h (4 Bft) O 88 0 min 0,000 mm 0,0 UV-I 0 W/m 7,8 C 9,3 C 32,2 km/h (5 Bft) 100,00 %
13.04.2018 00:08 15,3 C 10,6 C 61 % 1000,6 hPa 0,0 l/m 22,6 km/h (4 Bft) O 88 0 min 0,000 mm 0,0 UV-I 0 W/m 7,8 C 9,5 C 30,6 km/h (5 Bft) 100,00 %
13.04.2018 00:09 15,3 C 10,6 C 61 % 1000,6 hPa 0,0 l/m 24,5 km/h (4 Bft) O-NO 78 0 min 0,000 mm 0,0 UV-I 0 W/m 7,8 C 9,1 C 30,6 km/h (5 Bft) 100,00 %
13.04.2018 00:10 15,3 C 10,6 C 61 % 1000,6 hPa 0,0 l/m 23,1 km/h (4 Bft) O 90 0 min 0,000 mm 0,0 UV-I 0 W/m 7,8 C 9,4 C 27,4 km/h (4 Bft) 100,00 %
13.04.2018 00:11 15,3 C 10,6 C 61 % 1000,5 hPa 0,0 l/m 22,6 km/h (4 Bft) O-SO 119 0 min 0,000 mm 0,0 UV-I 0 W/m 7,8 C 9,5 C 30,6 km/h (5 Bft) 100,00 %
13.04.2018 00:12 15,2 C 10,6 C 61 % 1000,5 hPa 0,0 l/m 23,3 km/h (4 Bft) O 97 0 min 0,000 mm 0,0 UV-I 0 W/m 7,7 C 9,2 C 32,2 km/h (5 Bft) 96,30 %
13.04.2018 00:13 15,3 C 10,6 C 61 % 1000,5 hPa 0,0 l/m 20,2 km/h (4 Bft) O-SO 118 0 min 0,000 mm 0,0 UV-I 0 W/m 7,8 C 10,1 C 27,4 km/h (4 Bft) 100,00 %
13.04.2018 00:14 15,3 C 10,6 C 61 % 1000,4 hPa 0,0 l/m 18,9 km/h (3 Bft) O 94 0 min 0,000 mm 0,0 UV-I 0 W/m 7,8 C 10,4 C 29,0 km/h (5 Bft) 99,01 %
13.04.2018 00:15 15,3 C 10,6 C 61 % 1000,4 hPa 0,0 l/m 23,2 km/h (4 Bft) O-SO 111 0 min 0,000 mm 0,0 UV-I 0 W/m 7,8 C 9,4 C 32,2 km/h (5 Bft) 97,56 %
13.04.2018 00:16 15,2 C 10,6 C 61 % 1000,4 hPa 0,0 l/m 23,9 km/h (4 Bft) O-SO 111 0 min 0,000 mm 0,0 UV-I 0 W/m 7,7 C 9,1 C 35,4 km/h (5 Bft) 100,00 %
13.04.2018 00:17 15,3 C 10,6 C 61 % 1000,4 hPa 0,0 l/m 22,9 km/h (4 Bft) O 93 0 min 0,000 mm 0,0 UV-I 0 W/m 7,8 C 9,5 C 29,0 km/h (5 Bft) 100,00 %
13.04.2018 00:18 15,3 C 10,6 C 61 % 1000,5 hPa 0,0 l/m 21,3 km/h (4 Bft) O-SO 105 0 min 0,000 mm 0,0 UV-I 0 W/m 7,8 C 9,8 C 29,0 km/h (5 Bft) 100,00 %
13.04.2018 00:19 15,3 C 10,6 C 61 % 1000,5 hPa 0,0 l/m 20,0 km/h (4 Bft) O-SO 121 0 min 0,000 mm 0,0 UV-I 0 W/m 7,8 C 10,1 C 25,7 km/h (4 Bft) 96,15 %
13.04.2018 00:20 15,3 C 10,6 C 61 % 1000,5 hPa 0,0 l/m 18,3 km/h (3 Bft) SO 125 0 min 0,000 mm 0,0 UV-I 0 W/m 7,8 C 10,6 C 20,9 km/h (4 Bft) 100,00 %
13.04.2018 00:21 15,3 C 10,6 C 61 % 1000,5 hPa 0,0 l/m 20,8 km/h (4 Bft) O 99 0 min 0,000 mm 0,0 UV-I 0 W/m 7,8 C 9,9 C 30,6 km/h (5 Bft) 100,00 %
13.04.2018 00:22 15,3 C 10,6 C 61 % 1000,5 hPa 0,0 l/m 21,2 km/h (4 Bft) O 94 0 min 0,000 mm 0,0 UV-I 0 W/m 7,8 C 9,8 C 29,0 km/h (5 Bft) 100,00 %
13.04.2018 00:23 15,3 C 10,6 C 61 % 1000,5 hPa 0,0 l/m 21,6 km/h (4 Bft) O 91 0 min 0,000 mm 0,0 UV-I 0 W/m 7,8 C 9,7 C 27,4 km/h (4 Bft) 100,00 %
13.04.2018 00:24 15,3 C 10,6 C 61 % 1000,5 hPa 0,0 l/m 19,0 km/h (3 Bft) O-SO 102 0 min 0,000 mm 0,0 UV-I 0 W/m 7,8 C 10,4 C 24,1 km/h (4 Bft) 100,00 %
13.04.2018 00:25 15,3 C 10,6 C 61 % 1000,5 hPa 0,0 l/m 21,2 km/h (4 Bft) O 93 0 min 0,000 mm 0,0 UV-I 0 W/m 7,8 C 9,8 C 25,7 km/h (4 Bft) 100,00 %
13.04.2018 00:26 15,3 C 10,6 C 61 % 1000,5 hPa 0,0 l/m 20,0 km/h (4 Bft) O 88 0 min 0,000 mm 0,0 UV-I 0 W/m 7,8 C 10,1 C 25,7 km/h (4 Bft) 100,00 %
13.04.2018 00:27 15,3 C 10,6 C 61 % 1000,5 hPa 0,0 l/m 22,2 km/h (4 Bft) O-SO 110 0 min 0,000 mm 0,0 UV-I 0 W/m 7,8 C 9,6 C 27,4 km/h (4 Bft) 100,00 %
13.04.2018 00:28 15,3 C 10,6 C 61 % 1000,5 hPa 0,0 l/m 17,8 km/h (3 Bft) O-SO 104 0 min 0,000 mm 0,0 UV-I 0 W/m 7,8 C 10,7 C 20,9 km/h (4 Bft) 100,00 %
13.04.2018 00:29 15,2 C 10,6 C 62 % 1000,5 hPa 0,0 l/m 17,2 km/h (3 Bft) O 91 0 min 0,000 mm 0,0 UV-I 0 W/m 8,0 C 10,8 C 24,1 km/h (4 Bft) 100,00 %
13.04.2018 00:30 15,2 C 10,6 C 62 % 1000,5 hPa 0,0 l/m 19,4 km/h (3 Bft) O-SO 108 0 min 0,000 mm 0,0 UV-I 0 W/m 8,0 C 10,2 C 29,0 km/h (5 Bft) 100,00 %
13.04.2018 00:31 15,2 C 10,6 C 62 % 1000,5 hPa 0,0 l/m 16,0 km/h (3 Bft) O 88 0 min 0,000 mm 0,0 UV-I 0 W/m 8,0 C 11,1 C 20,9 km/h (4 Bft) 100,00 %
13.04.2018 00:32 15,1 C 10,6 C 62 % 1000,5 hPa 0,0 l/m 17,4 km/h (3 Bft) O 98 0 min 0,000 mm 0,0 UV-I 0 W/m 7,9 C 10,6 C 24,1 km/h (4 Bft) 100,00 %
13.04.2018 00:33 15,1 C 10,6 C 62 % 1000,5 hPa 0,0 l/m 19,3 km/h (3 Bft) O 93 0 min 0,000 mm 0,0 UV-I 0 W/m 7,9 C 10,1 C 25,7 km/h (4 Bft) 100,00 %
13.04.2018 00:34 15,1 C 10,6 C 62 % 1000,5 hPa 0,0 l/m 18,2 km/h (3 Bft) O-SO 106 0 min 0,000 mm 0,0 UV-I 0 W/m 7,9 C 10,4 C 20,9 km/h (4 Bft) 100,00 %
13.04.2018 00:35 15,1 C 10,6 C 62 % 1000,5 hPa 0,0 l/m 15,9 km/h (3 Bft) O 100 0 min 0,000 mm 0,0 UV-I 0 W/m 7,9 C 11,0 C 22,5 km/h (4 Bft) 100,00 %
13.04.2018 00:36 15,0 C 10,6 C 63 % 1000,5 hPa 0,0 l/m 17,4 km/h (3 Bft) O-SO 104 0 min 0,000 mm 0,0 UV-I 0 W/m 8,0 C 10,5 C 20,9 km/h (4 Bft) 100,00 %
13.04.2018 00:37 14,9 C 10,6 C 63 % 1000,5 hPa 0,0 l/m 19,7 km/h (3 Bft) O 84 0 min 0,000 mm 0,0 UV-I 0 W/m 7,9 C 9,7 C 25,7 km/h (4 Bft) 100,00 %
13.04.2018 00:38 14,8 C 10,6 C 63 % 1000,6 hPa 0,0 l/m 19,5 km/h (3 Bft) O 96 0 min 0,000 mm 0,0 UV-I 0 W/m 7,8 C 9,6 C 25,7 km/h (4 Bft) 100,00 %
13.04.2018 00:39 14,8 C 10,6 C 64 % 1000,5 hPa 0,0 l/m 16,8 km/h (3 Bft) O 93 0 min 0,000 mm 0,0 UV-I 0 W/m 8,1 C 10,4 C 24,1 km/h (4 Bft) 100,00 %
13.04.2018 00:40 14,8 C 10,6 C 64 % 1000,5 hPa 0,0 l/m 18,7 km/h (3 Bft) O 92 0 min 0,000 mm 0,0 UV-I 0 W/m 8,1 C 9,8 C 24,1 km/h (4 Bft) 100,00 %
13.04.2018 00:41 14,7 C 10,6 C 64 % 1000,5 hPa 0,0 l/m 19,6 km/h (3 Bft) SO 130 0 min 0,000 mm 0,0 UV-I 0 W/m 8,0 C 9,5 C 24,1 km/h (4 Bft) 81,82 %
13.04.2018 00:42 14,7 C 10,6 C 64 % 1000,5 hPa 0,0 l/m 16,9 km/h (3 Bft) O 97 0 min 0,000 mm 0,0 UV-I 0 W/m 8,0 C 10,2 C 20,9 km/h (4 Bft) 100,00 %
13.04.2018 00:43 14,7 C 10,6 C 64 % 1000,5 hPa 0,0 l/m 16,6 km/h (3 Bft) O 79 0 min 0,000 mm 0,0 UV-I 0 W/m 8,0 C 10,3 C 20,9 km/h (4 Bft) 100,00 %
13.04.2018 00:44 14,7 C 10,6 C 65 % 1000,5 hPa 0,0 l/m 16,3 km/h (3 Bft) O-NO 64 0 min 0,000 mm 0,0 UV-I 0 W/m 8,2 C 10,4 C 19,3 km/h (3 Bft) 100,00 %
13.04.2018 00:45 14,6 C 10,6 C 65 % 1000,6 hPa 0,0 l/m 16,2 km/h (3 Bft) O 81 0 min 0,000 mm 0,0 UV-I 0 W/m 8,1 C 10,3 C 20,9 km/h (4 Bft) 100,00 %
13.04.2018 00:46 14,5 C 10,6 C 65 % 1000,6 hPa 0,0 l/m 16,9 km/h (3 Bft) O 101 0 min 0,000 mm 0,0 UV-I 0 W/m 8,0 C 10,0 C 20,9 km/h (4 Bft) 100,00 %
13.04.2018 00:47 14,4 C 10,6 C 66 % 1000,6 hPa 0,0 l/m 15,0 km/h (3 Bft) O-SO 114 0 min 0,000 mm 0,0 UV-I 0 W/m 8,1 C 10,5 C 17,7 km/h (3 Bft) 100,00 %
13.04.2018 00:48 14,3 C 10,6 C 66 % 1000,6 hPa 0,0 l/m 13,4 km/h (3 Bft) O 86 0 min 0,000 mm 0,0 UV-I 0 W/m 8,0 C 10,9 C 19,3 km/h (3 Bft) 100,00 %
13.04.2018 00:49 14,3 C 10,6 C 66 % 1000,5 hPa 0,0 l/m 15,8 km/h (3 Bft) O 96 0 min 0,000 mm 0,0 UV-I 0 W/m 8,0 C 10,1 C 17,7 km/h (3 Bft) 100,00 %
13.04.2018 00:50 14,3 C 10,6 C 66 % 1000,5 hPa 0,0 l/m 16,5 km/h (3 Bft) O-NO 78 0 min 0,000 mm 0,0 UV-I 0 W/m 8,0 C 9,9 C 19,3 km/h (3 Bft) 100,00 %
13.04.2018 00:51 14,3 C 10,6 C 66 % 1000,5 hPa 0,0 l/m 16,6 km/h (3 Bft) O 87 0 min 0,000 mm 0,0 UV-I 0 W/m 8,0 C 9,8 C 20,9 km/h (4 Bft) 100,00 %
13.04.2018 00:52 14,4 C 10,6 C 65 % 1000,5 hPa 0,0 l/m 16,2 km/h (3 Bft) O-NO 75 0 min 0,000 mm 0,0 UV-I 0 W/m 7,9 C 10,1 C 19,3 km/h (3 Bft) 100,00 %
13.04.2018 00:53 14,4 C 10,6 C 65 % 1000,4 hPa 0,0 l/m 15,1 km/h (3 Bft) O-NO 74 0 min 0,000 mm 0,0 UV-I 0 W/m 7,9 C 10,4 C 20,9 km/h (4 Bft) 96,55 %
13.04.2018 00:54 14,4 C 10,6 C 65 % 1000,5 hPa 0,0 l/m 18,3 km/h (3 Bft) O 85 0 min 0,000 mm 0,0 UV-I 0 W/m 7,9 C 9,4 C 27,4 km/h (4 Bft) 100,00 %
13.04.2018 00:55 14,4 C 10,6 C 65 % 1000,5 hPa 0,0 l/m 16,5 km/h (3 Bft) O 86 0 min 0,000 mm 0,0 UV-I 0 W/m 7,9 C 10,0 C 20,9 km/h (4 Bft) 100,00 %
13.04.2018 00:56 14,4 C 10,6 C 65 % 1000,5 hPa 0,0 l/m 14,6 km/h (3 Bft) O 101 0 min 0,000 mm 0,0 UV-I 0 W/m 7,9 C 10,6 C 17,7 km/h (3 Bft) 100,00 %
13.04.2018 00:57 14,4 C 10,6 C 65 % 1000,5 hPa 0,0 l/m 15,0 km/h (3 Bft) O 89 0 min 0,000 mm 0,0 UV-I 0 W/m 7,9 C 10,5 C 22,5 km/h (4 Bft) 100,00 %
13.04.2018 00:58 14,4 C 10,6 C 65 % 1000,5 hPa 0,0 l/m 14,4 km/h (3 Bft) O 82 0 min 0,000 mm 0,0 UV-I 0 W/m 7,9 C 10,7 C 19,3 km/h (3 Bft) 100,00 %
13.04.2018 00:59 14,4 C 10,6 C 65 % 1000,6 hPa 0,0 l/m 15,6 km/h (3 Bft) O-SO 102 0 min 0,000 mm 0,0 UV-I 0 W/m 7,9 C 10,3 C 20,9 km/h (4 Bft) 100,00 %
13.04.2018 01:00 14,4 C 10,6 C 65 % 1000,6 hPa 0,0 l/m 14,8 km/h (3 Bft) O 88 0 min 0,102 mm 0,0 UV-I 0 W/m 7,9 C 10,5 C 20,9 km/h (4 Bft) 100,00 %
13.04.2018 01:01 14,4 C 10,6 C 65 % 1000,6 hPa 0,0 l/m 16,6 km/h (3 Bft) O-SO 110 0 min 0,000 mm 0,0 UV-I 0 W/m 7,9 C 9,9 C 20,9 km/h (4 Bft) 100,00 %
13.04.2018 01:02 14,5 C 10,6 C 65 % 1000,6 hPa 0,0 l/m 13,0 km/h (3 Bft) O-SO 107 0 min 0,000 mm 0,0 UV-I 0 W/m 8,0 C 11,3 C 17,7 km/h (3 Bft) 100,00 %
13.04.2018 01:03 14,5 C 10,6 C 64 % 1000,6 hPa 0,0 l/m 16,2 km/h (3 Bft) O 80 0 min 0,000 mm 0,0 UV-I 0 W/m 7,8 C 10,2 C 22,5 km/h (4 Bft) 100,00 %
13.04.2018 01:04 14,6 C 10,6 C 64 % 1000,6 hPa 0,0 l/m 16,1 km/h (3 Bft) O 93 0 min 0,000 mm 0,0 UV-I 0 W/m 7,9 C 10,3 C 22,5 km/h (4 Bft) 100,00 %
13.04.2018 01:05 14,6 C 10,6 C 64 % 1000,6 hPa 0,0 l/m 16,5 km/h (3 Bft) O-SO 115 0 min 0,000 mm 0,0 UV-I 0 W/m 7,9 C 10,2 C 20,9 km/h (4 Bft) 100,00 %
13.04.2018 01:06 14,6 C 10,6 C 64 % 1000,6 hPa 0,0 l/m 14,1 km/h (3 Bft) O-SO 109 0 min 0,000 mm 0,0 UV-I 0 W/m 7,9 C 11,0 C 20,9 km/h (4 Bft) 96,15 %
13.04.2018 01:07 14,6 C 10,6 C 64 % 1000,6 hPa 0,0 l/m 14,0 km/h (3 Bft) O 92 0 min 0,000 mm 0,0 UV-I 0 W/m 7,9 C 11,1 C 24,1 km/h (4 Bft) 100,00 %
13.04.2018 01:08 14,6 C 10,6 C 64 % 1000,5 hPa 0,0 l/m 18,7 km/h (3 Bft) O-SO 120 0 min 0,000 mm 0,0 UV-I 0 W/m 7,9 C 9,6 C 24,1 km/h (4 Bft) 96,55 %
13.04.2018 01:09 14,6 C 10,6 C 64 % 1000,5 hPa 0,0 l/m 15,5 km/h (3 Bft) O-SO 103 0 min 0,000 mm 0,0 UV-I 0 W/m 7,9 C 10,5 C 22,5 km/h (4 Bft) 96,30 %
13.04.2018 01:10 14,6 C 10,6 C 64 % 1000,5 hPa 0,0 l/m 15,4 km/h (3 Bft) O-NO 77 0 min 0,000 mm 0,0 UV-I 0 W/m 7,9 C 10,6 C 19,3 km/h (3 Bft) 100,00 %
13.04.2018 01:11 14,6 C 10,6 C 64 % 1000,5 hPa 0,0 l/m 8,8 km/h (2 Bft) O 96 0 min 0,000 mm 0,0 UV-I 0 W/m 7,9 C 13,3 C 16,1 km/h (3 Bft) 91,67 %
13.04.2018 01:12 14,5 C 10,6 C 64 % 1000,5 hPa 0,0 l/m 12,4 km/h (3 Bft) O 89 0 min 0,000 mm 0,0 UV-I 0 W/m 7,8 C 11,5 C 19,3 km/h (3 Bft) 100,00 %
13.04.2018 01:13 14,6 C 10,6 C 64 % 1000,5 hPa 0,0 l/m 20,0 km/h (4 Bft) O-SO 105 0 min 0,000 mm 0,0 UV-I 0 W/m 7,9 C 9,2 C 27,4 km/h (4 Bft) 91,67 %
13.04.2018 01:14 14,6 C 10,6 C 64 % 1000,5 hPa 0,0 l/m 15,8 km/h (3 Bft) O 93 0 min 0,000 mm 0,0 UV-I 0 W/m 7,9 C 10,4 C 20,9 km/h (4 Bft) 100,00 %
13.04.2018 01:15 14,7 C 10,6 C 63 % 1000,5 hPa 0,0 l/m 21,2 km/h (4 Bft) O-SO 104 0 min 0,000 mm 0,0 UV-I 0 W/m 7,7 C 9,1 C 25,7 km/h (4 Bft) 92,31 %
13.04.2018 01:16 14,8 C 10,6 C 63 % 1000,5 hPa 0,0 l/m 22,7 km/h (4 Bft) O 89 0 min 0,000 mm 0,0 UV-I 0 W/m 7,8 C 8,8 C 32,2 km/h (5 Bft) 95,83 %
13.04.2018 01:17 14,9 C 10,6 C 63 % 1000,4 hPa 0,0 l/m 23,3 km/h (4 Bft) O-SO 108 0 min 0,000 mm 0,0 UV-I 0 W/m 7,9 C 8,8 C 30,6 km/h (5 Bft) 95,65 %
13.04.2018 01:18 15,0 C 10,6 C 63 % 1000,4 hPa 0,0 l/m 22,4 km/h (4 Bft) O-SO 111 0 min 0,000 mm 0,0 UV-I 0 W/m 8,0 C 9,2 C 25,7 km/h (4 Bft) 95,83 %
13.04.2018 01:19 15,1 C 10,6 C 62 % 1000,4 hPa 0,0 l/m 25,2 km/h (4 Bft) O-SO 109 0 min 0,000 mm 0,0 UV-I 0 W/m 7,9 C 8,7 C 32,2 km/h (5 Bft) 96,15 %
13.04.2018 01:20 15,1 C 10,6 C 63 % 1000,5 hPa 0,0 l/m 21,0 km/h (4 Bft) O-SO 107 0 min 0,000 mm 0,0 UV-I 0 W/m 8,1 C 9,6 C 27,4 km/h (4 Bft) 93,33 %
13.04.2018 01:21 15,1 C 10,6 C 63 % 1000,6 hPa 0,0 l/m 23,5 km/h (4 Bft) O 96 0 min 0,000 mm 0,0 UV-I 0 W/m 8,1 C 9,1 C 27,4 km/h (4 Bft) 100,00 %
13.04.2018 01:22 15,1 C 10,6 C 63 % 1000,7 hPa 0,0 l/m 24,6 km/h (4 Bft) O 101 0 min 0,000 mm 0,0 UV-I 0 W/m 8,1 C 8,8 C 32,2 km/h (5 Bft) 96,30 %
13.04.2018 01:23 15,1 C 10,6 C 62 % 1000,7 hPa 0,0 l/m 20,5 km/h (4 Bft) O 94 0 min 0,000 mm 0,0 UV-I 0 W/m 7,9 C 9,8 C 27,4 km/h (4 Bft) 92,31 %
13.04.2018 01:24 15,1 C 10,6 C 62 % 1000,7 hPa 0,0 l/m 24,1 km/h (4 Bft) O 80 0 min 0,000 mm 0,0 UV-I 0 W/m 7,9 C 8,9 C 37,0 km/h (5 Bft) 100,00 %
13.04.2018 01:25 15,1 C 10,6 C 63 % 1000,7 hPa 0,0 l/m 18,9 km/h (3 Bft) O 101 0 min 0,000 mm 0,0 UV-I 0 W/m 8,1 C 10,2 C 25,7 km/h (4 Bft) 88,46 %
13.04.2018 01:26 15,0 C 10,6 C 63 % 1000,8 hPa 0,0 l/m 23,0 km/h (4 Bft) O-SO 117 0 min 0,000 mm 0,0 UV-I 0 W/m 8,0 C 9,0 C 25,7 km/h (4 Bft) 100,00 %
13.04.2018 01:27 15,0 C 10,6 C 63 % 1000,8 hPa 0,0 l/m 23,8 km/h (4 Bft) O-SO 102 0 min 0,000 mm 0,0 UV-I 0 W/m 8,0 C 8,9 C 30,6 km/h (5 Bft) 96,15 %
13.04.2018 01:28 14,9 C 10,6 C 63 % 1000,8 hPa 0,0 l/m 16,5 km/h (3 Bft) O 97 0 min 0,000 mm 0,0 UV-I 0 W/m 7,9 C 10,6 C 24,1 km/h (4 Bft) 100,00 %
13.04.2018 01:29 14,9 C 10,6 C 63 % 1000,9 hPa 0,0 l/m 21,2 km/h (4 Bft) O-SO 113 0 min 0,000 mm 0,0 UV-I 0 W/m 7,9 C 9,3 C 32,2 km/h (5 Bft) 95,65 %
13.04.2018 01:30 14,9 C 10,6 C 64 % 1000,8 hPa 0,0 l/m 20,2 km/h (4 Bft) O 95 0 min 0,000 mm 0,0 UV-I 0 W/m 8,2 C 9,6 C 27,4 km/h (4 Bft) 95,83 %
13.04.2018 01:31 14,8 C 10,6 C 64 % 1000,9 hPa 0,0 l/m 21,4 km/h (4 Bft) O 101 0 min 0,000 mm 0,0 UV-I 0 W/m 8,1 C 9,1 C 32,2 km/h (5 Bft) 100,00 %
13.04.2018 01:32 14,9 C 10,6 C 64 % 1000,8 hPa 0,0 l/m 20,0 km/h (4 Bft) O-SO 104 0 min 0,000 mm 0,0 UV-I 0 W/m 8,2 C 9,6 C 25,7 km/h (4 Bft) 100,00 %
13.04.2018 01:33 14,8 C 10,6 C 64 % 1000,9 hPa 0,0 l/m 20,4 km/h (4 Bft) O 99 0 min 0,000 mm 0,0 UV-I 0 W/m 8,1 C 9,4 C 24,1 km/h (4 Bft) 95,65 %
13.04.2018 01:34 14,8 C 10,6 C 64 % 1000,8 hPa 0,0 l/m 24,5 km/h (4 Bft) O-SO 107 0 min 0,000 mm 0,0 UV-I 0 W/m 8,1 C 8,4 C 30,6 km/h (5 Bft) 96,30 %
13.04.2018 01:35 14,8 C 10,6 C 64 % 1000,8 hPa 0,0 l/m 21,1 km/h (4 Bft) O-SO 120 0 min 0,000 mm 0,0 UV-I 0 W/m 8,1 C 9,2 C 25,7 km/h (4 Bft) 100,00 %
13.04.2018 01:36 14,8 C 10,6 C 64 % 1000,8 hPa 0,0 l/m 20,3 km/h (4 Bft) O 94 0 min 0,000 mm 0,0 UV-I 0 W/m 8,1 C 9,4 C 29,0 km/h (5 Bft) 93,33 %
13.04.2018 01:37 14,8 C 10,6 C 64 % 1000,9 hPa 0,0 l/m 19,4 km/h (3 Bft) O 91 0 min 0,000 mm 0,0 UV-I 0 W/m 8,1 C 9,6 C 25,7 km/h (4 Bft) 100,00 %
13.04.2018 01:38 14,8 C 10,6 C 65 % 1000,9 hPa 0,0 l/m 22,5 km/h (4 Bft) O 101 0 min 0,000 mm 0,0 UV-I 0 W/m 8,3 C 8,9 C 27,4 km/h (4 Bft) 96,15 %
13.04.2018 01:39 14,8 C 10,6 C 65 % 1000,8 hPa 0,0 l/m 22,5 km/h (4 Bft) O 101 0 min 0,000 mm 0,0 UV-I 0 W/m 8,3 C 8,9 C 29,0 km/h (5 Bft) 95,83 %
13.04.2018 01:40 14,8 C 10,6 C 65 % 1000,8 hPa 0,0 l/m 21,1 km/h (4 Bft) O 98 0 min 0,000 mm 0,0 UV-I 0 W/m 8,3 C 9,2 C 29,0 km/h (5 Bft) 100,00 %
13.04.2018 01:41 14,8 C 10,6 C 65 % 1000,8 hPa 0,0 l/m 23,8 km/h (4 Bft) O 88 0 min 0,000 mm 0,0 UV-I 0 W/m 8,3 C 8,6 C 30,6 km/h (5 Bft) 100,00 %
13.04.2018 01:42 14,8 C 10,6 C 65 % 1000,7 hPa 0,0 l/m 23,5 km/h (4 Bft) O-NO 76 0 min 0,000 mm 0,0 UV-I 0 W/m 8,3 C 8,7 C 27,4 km/h (4 Bft) 100,00 %
13.04.2018 01:43 14,8 C 10,6 C 65 % 1000,7 hPa 0,0 l/m 24,1 km/h (4 Bft) O 81 0 min 0,000 mm 0,0 UV-I 0 W/m 8,3 C 8,5 C 30,6 km/h (5 Bft) 100,00 %
13.04.2018 01:44 14,7 C 10,6 C 65 % 1000,7 hPa 0,0 l/m 17,6 km/h (3 Bft) O 92 0 min 0,000 mm 0,0 UV-I 0 W/m 8,2 C 10,0 C 24,1 km/h (4 Bft) 100,00 %
13.04.2018 01:45 14,7 C 10,0 C 65 % 1000,6 hPa 0,0 l/m 20,2 km/h (4 Bft) O-NO 74 0 min 0,000 mm 0,0 UV-I 0 W/m 8,2 C 9,3 C 24,1 km/h (4 Bft) 100,00 %
13.04.2018 01:46 14,7 C 10,6 C 66 % 1000,6 hPa 0,0 l/m 18,9 km/h (3 Bft) O-NO 69 0 min 0,000 mm 0,0 UV-I 0 W/m 8,4 C 9,7 C 27,4 km/h (4 Bft) 100,00 %
13.04.2018 01:47 14,6 C 10,6 C 66 % 1000,6 hPa 0,0 l/m 18,7 km/h (3 Bft) O-NO 69 0 min 0,000 mm 0,0 UV-I 0 W/m 8,3 C 9,6 C 25,7 km/h (4 Bft) 97,56 %
13.04.2018 01:48 14,6 C 10,6 C 66 % 1000,5 hPa 0,0 l/m 15,1 km/h (3 Bft) O 80 0 min 0,000 mm 0,0 UV-I 0 W/m 8,3 C 10,7 C 19,3 km/h (3 Bft) 100,00 %
13.04.2018 01:49 14,6 C 10,6 C 66 % 1000,5 hPa 0,0 l/m 15,5 km/h (3 Bft) O-NO 65 0 min 0,000 mm 0,0 UV-I 0 W/m 8,3 C 10,5 C 20,9 km/h (4 Bft) 100,00 %
13.04.2018 01:50 14,5 C 10,6 C 66 % 1000,5 hPa 0,0 l/m 21,1 km/h (4 Bft) O 92 0 min 0,000 mm 0,0 UV-I 0 W/m 8,2 C 8,8 C 25,7 km/h (4 Bft) 100,00 %
13.04.2018 01:51 14,5 C 10,6 C 66 % 1000,5 hPa 0,0 l/m 15,9 km/h (3 Bft) O 84 0 min 0,000 mm 0,0 UV-I 0 W/m 8,2 C 10,3 C 19,3 km/h (3 Bft) 100,00 %
13.04.2018 01:52 14,4 C 10,6 C 66 % 1000,5 hPa 0,0 l/m 17,4 km/h (3 Bft) O-NO 67 0 min 0,000 mm 0,0 UV-I 0 W/m 8,1 C 9,7 C 20,9 km/h (4 Bft) 100,00 %
13.04.2018 01:53 14,4 C 10,6 C 67 % 1000,5 hPa 0,0 l/m 17,3 km/h (3 Bft) O 98 0 min 0,000 mm 0,0 UV-I 0 W/m 8,4 C 9,7 C 20,9 km/h (4 Bft) 98,66 %
13.04.2018 01:54 14,3 C 10,6 C 67 % 1000,4 hPa 0,0 l/m 15,9 km/h (3 Bft) O 95 0 min 0,000 mm 0,0 UV-I 0 W/m 8,3 C 10,0 C 17,7 km/h (3 Bft) 97,87 %
13.04.2018 01:55 14,3 C 10,6 C 67 % 1000,4 hPa 0,0 l/m 13,9 km/h (3 Bft) O-NO 57 0 min 0,000 mm 0,0 UV-I 0 W/m 8,3 C 10,7 C 17,7 km/h (3 Bft) 100,00 %
13.04.2018 01:56 14,2 C 10,6 C 67 % 1000,3 hPa 0,0 l/m 15,8 km/h (3 Bft) O-NO 77 0 min 0,000 mm 0,0 UV-I 0 W/m 8,2 C 10,0 C 20,9 km/h (4 Bft) 100,00 %
13.04.2018 01:57 14,2 C 10,6 C 67 % 1000,3 hPa 0,0 l/m 14,6 km/h (3 Bft) O 82 0 min 0,000 mm 0,0 UV-I 0 W/m 8,2 C 10,4 C 20,9 km/h (4 Bft) 100,00 %
13.04.2018 01:58 14,2 C 10,6 C 68 % 1000,3 hPa 0,0 l/m 16,9 km/h (3 Bft) O-NO 76 0 min 0,000 mm 0,0 UV-I 0 W/m 8,4 C 9,6 C 20,9 km/h (4 Bft) 100,00 %
13.04.2018 01:59 14,2 C 10,6 C 68 % 1000,3 hPa 0,0 l/m 16,3 km/h (3 Bft) O 80 0 min 0,000 mm 0,0 UV-I 0 W/m 8,4 C 9,8 C 20,9 km/h (4 Bft) 100,00 %
13.04.2018 02:00 14,2 C 10,6 C 68 % 1000,3 hPa 0,0 l/m 15,9 km/h (3 Bft) O-NO 74 0 min 0,000 mm 0,0 UV-I 0 W/m 8,4 C 9,9 C 19,3 km/h (3 Bft) 100,00 %
13.04.2018 02:01 14,2 C 10,6 C 68 % 1000,3 hPa 0,0 l/m 15,2 km/h (3 Bft) O 82 0 min 0,076 mm 0,0 UV-I 0 W/m 8,4 C 10,2 C 20,9 km/h (4 Bft) 100,00 %
13.04.2018 02:02 14,1 C 10,6 C 68 % 1000,3 hPa 0,0 l/m 16,6 km/h (3 Bft) O-NO 61 0 min 0,000 mm 0,0 UV-I 0 W/m 8,3 C 9,6 C 20,9 km/h (4 Bft) 100,00 %
13.04.2018 02:03 14,1 C 10,6 C 68 % 1000,3 hPa 0,0 l/m 14,8 km/h (3 Bft) O-NO 65 0 min 0,000 mm 0,0 UV-I 0 W/m 8,3 C 10,2 C 19,3 km/h (3 Bft) 100,00 %
13.04.2018 02:04 14,1 C 10,6 C 68 % 1000,4 hPa 0,0 l/m 17,7 km/h (3 Bft) O-NO 68 0 min 0,000 mm 0,0 UV-I 0 W/m 8,3 C 9,2 C 19,3 km/h (3 Bft) 100,00 %
13.04.2018 02:05 14,1 C 10,6 C 68 % 1000,4 hPa 0,0 l/m 17,4 km/h (3 Bft) O-NO 66 0 min 0,000 mm 0,0 UV-I 0 W/m 8,3 C 9,3 C 20,9 km/h (4 Bft) 95,65 %
13.04.2018 02:06 14,1 C 10,6 C 68 % 1000,4 hPa 0,0 l/m 16,0 km/h (3 Bft) O-NO 78 0 min 0,000 mm 0,0 UV-I 0 W/m 8,3 C 9,8 C 19,3 km/h (3 Bft) 100,00 %
13.04.2018 02:07 14,1 C 10,6 C 68 % 1000,4 hPa 0,0 l/m 15,4 km/h (3 Bft) O-NO 74 0 min 0,000 mm 0,0 UV-I 0 W/m 8,3 C 10,0 C 19,3 km/h (3 Bft) 100,00 %
13.04.2018 02:08 14,1 C 10,6 C 69 % 1000,5 hPa 0,0 l/m 18,0 km/h (3 Bft) O-NO 70 0 min 0,000 mm 0,0 UV-I 0 W/m 8,5 C 9,1 C 20,9 km/h (4 Bft) 100,00 %
13.04.2018 02:09 14,0 C 10,6 C 69 % 1000,4 hPa 0,0 l/m 18,4 km/h (3 Bft) O 92 0 min 0,000 mm 0,0 UV-I 0 W/m 8,4 C 8,9 C 22,5 km/h (4 Bft) 100,00 %
13.04.2018 02:10 14,0 C 10,6 C 69 % 1000,4 hPa 0,0 l/m 16,6 km/h (3 Bft) O 91 0 min 0,000 mm 0,0 UV-I 0 W/m 8,4 C 9,4 C 20,9 km/h (4 Bft) 100,00 %
13.04.2018 02:11 14,0 C 10,6 C 69 % 1000,5 hPa 0,0 l/m 18,9 km/h (3 Bft) O-NO 57 0 min 0,000 mm 0,0 UV-I 0 W/m 8,4 C 8,8 C 22,5 km/h (4 Bft) 100,00 %
13.04.2018 02:12 14,0 C 10,6 C 69 % 1000,4 hPa 0,0 l/m 16,2 km/h (3 Bft) O-NO 78 0 min 0,000 mm 0,0 UV-I 0 W/m 8,4 C 9,6 C 19,3 km/h (3 Bft) 100,00 %
13.04.2018 02:13 14,0 C 10,6 C 69 % 1000,4 hPa 0,0 l/m 15,0 km/h (3 Bft) O-NO 71 0 min 0,000 mm 0,0 UV-I 0 W/m 8,4 C 10,0 C 17,7 km/h (3 Bft) 100,00 %
13.04.2018 02:14 14,0 C 10,6 C 69 % 1000,3 hPa 0,0 l/m 14,9 km/h (3 Bft) O 80 0 min 0,000 mm 0,0 UV-I 0 W/m 8,4 C 10,0 C 24,1 km/h (4 Bft) 100,00 %
13.04.2018 02:15 14,1 C 10,6 C 69 % 1000,3 hPa 0,0 l/m 18,5 km/h (3 Bft) O 81 0 min 0,000 mm 0,0 UV-I 0 W/m 8,5 C 9,0 C 20,9 km/h (4 Bft) 100,00 %
13.04.2018 02:16 14,0 C 10,6 C 69 % 1000,3 hPa 0,0 l/m 16,4 km/h (3 Bft) O 100 0 min 0,000 mm 0,0 UV-I 0 W/m 8,4 C 9,5 C 22,5 km/h (4 Bft) 100,00 %
13.04.2018 02:17 13,9 C 10,6 C 69 % 1000,3 hPa 0,0 l/m 16,6 km/h (3 Bft) O 94 0 min 0,000 mm 0,0 UV-I 0 W/m 8,3 C 9,3 C 22,5 km/h (4 Bft) 100,00 %
13.04.2018 02:18 13,9 C 10,6 C 69 % 1000,2 hPa 0,0 l/m 13,8 km/h (3 Bft) O-SO 102 0 min 0,000 mm 0,0 UV-I 0 W/m 8,3 C 10,3 C 20,9 km/h (4 Bft) 96,55 %
13.04.2018 02:19 13,8 C 10,6 C 69 % 1000,2 hPa 0,0 l/m 19,5 km/h (3 Bft) O-SO 103 0 min 0,000 mm 0,0 UV-I 0 W/m 8,2 C 8,3 C 24,1 km/h (4 Bft) 100,00 %
13.04.2018 02:20 13,9 C 10,6 C 69 % 1000,1 hPa 0,0 l/m 18,5 km/h (3 Bft) O 94 0 min 0,000 mm 0,0 UV-I 0 W/m 8,3 C 8,7 C 25,7 km/h (4 Bft) 100,00 %
13.04.2018 02:21 13,9 C 10,6 C 69 % 1000,2 hPa 0,0 l/m 20,0 km/h (4 Bft) O 98 0 min 0,000 mm 0,0 UV-I 0 W/m 8,3 C 8,3 C 24,1 km/h (4 Bft) 100,00 %
13.04.2018 02:22 13,9 C 10,6 C 69 % 1000,2 hPa 0,0 l/m 18,2 km/h (3 Bft) O-SO 117 0 min 0,000 mm 0,0 UV-I 0 W/m 8,3 C 8,8 C 24,1 km/h (4 Bft) 96,55 %
13.04.2018 02:23 14,0 C 10,6 C 69 % 1000,2 hPa 0,0 l/m 21,4 km/h (4 Bft) O 92 0 min 0,000 mm 0,0 UV-I 0 W/m 8,4 C 8,1 C 27,4 km/h (4 Bft) 100,00 %
13.04.2018 02:24 14,1 C 10,6 C 68 % 1000,1 hPa 0,0 l/m 17,5 km/h (3 Bft) O-SO 115 0 min 0,000 mm 0,0 UV-I 0 W/m 8,3 C 9,3 C 22,5 km/h (4 Bft) 100,00 %
13.04.2018 02:25 14,2 C 10,6 C 68 % 1000,0 hPa 0,0 l/m 18,7 km/h (3 Bft) O 101 0 min 0,000 mm 0,0 UV-I 0 W/m 8,4 C 9,1 C 24,1 km/h (4 Bft) 96,30 %
13.04.2018 02:26 14,2 C 10,6 C 68 % 1000,1 hPa 0,0 l/m 17,5 km/h (3 Bft) O-SO 115 0 min 0,000 mm 0,0 UV-I 0 W/m 8,4 C 9,4 C 24,1 km/h (4 Bft) 100,00 %
13.04.2018 02:27 14,2 C 10,6 C 68 % 1000,1 hPa 0,0 l/m 22,0 km/h (4 Bft) O 90 0 min 0,000 mm 0,0 UV-I 0 W/m 8,4 C 8,2 C 27,4 km/h (4 Bft) 100,00 %
13.04.2018 02:28 14,2 C 10,6 C 68 % 1000,0 hPa 0,0 l/m 19,8 km/h (3 Bft) O 82 0 min 0,000 mm 0,0 UV-I 0 W/m 8,4 C 8,8 C 24,1 km/h (4 Bft) 100,00 %
13.04.2018 02:29 14,2 C 10,6 C 68 % 1000,1 hPa 0,0 l/m 20,8 km/h (4 Bft) O 82 0 min 0,000 mm 0,0 UV-I 0 W/m 8,4 C 8,5 C 25,7 km/h (4 Bft) 100,00 %
13.04.2018 02:30 14,2 C 10,6 C 68 % 1000,1 hPa 0,0 l/m 18,3 km/h (3 Bft) O-SO 106 0 min 0,000 mm 0,0 UV-I 0 W/m 8,4 C 9,2 C 25,7 km/h (4 Bft) 100,00 %
13.04.2018 02:31 14,2 C 10,6 C 68 % 1000,0 hPa 0,0 l/m 19,8 km/h (3 Bft) O 82 0 min 0,000 mm 0,0 UV-I 0 W/m 8,4 C 8,8 C 29,0 km/h (5 Bft) 100,00 %
13.04.2018 02:32 14,1 C 10,6 C 68 % 1000,1 hPa 0,0 l/m 18,2 km/h (3 Bft) O 94 0 min 0,000 mm 0,0 UV-I 0 W/m 8,3 C 9,1 C 24,1 km/h (4 Bft) 100,00 %
13.04.2018 02:33 14,1 C 10,6 C 68 % 1000,0 hPa 0,0 l/m 19,7 km/h (3 Bft) O 92 0 min 0,000 mm 0,0 UV-I 0 W/m 8,3 C 8,7 C 24,1 km/h (4 Bft) 100,00 %
13.04.2018 02:34 14,1 C 10,6 C 68 % 1000,0 hPa 0,0 l/m 17,2 km/h (3 Bft) O 82 0 min 0,000 mm 0,0 UV-I 0 W/m 8,3 C 9,4 C 24,1 km/h (4 Bft) 100,00 %
13.04.2018 02:35 14,1 C 10,6 C 68 % 1000,0 hPa 0,0 l/m 16,9 km/h (3 Bft) O-SO 103 0 min 0,000 mm 0,0 UV-I 0 W/m 8,3 C 9,5 C 27,4 km/h (4 Bft) 100,00 %
13.04.2018 02:36 14,1 C 10,6 C 68 % 1000,0 hPa 0,0 l/m 19,5 km/h (3 Bft) O 84 0 min 0,000 mm 0,0 UV-I 0 W/m 8,3 C 8,7 C 27,4 km/h (4 Bft) 100,00 %
13.04.2018 02:37 14,1 C 10,6 C 68 % 1000,1 hPa 0,0 l/m 18,3 km/h (3 Bft) O-NO 59 0 min 0,000 mm 0,0 UV-I 0 W/m 8,3 C 9,1 C 27,4 km/h (4 Bft) 96,15 %
13.04.2018 02:38 14,2 C 10,6 C 68 % 1000,2 hPa 0,0 l/m 22,3 km/h (4 Bft) O-SO 103 0 min 0,000 mm 0,0 UV-I 0 W/m 8,4 C 8,1 C 29,0 km/h (5 Bft) 100,00 %
13.04.2018 02:39 14,2 C 10,6 C 68 % 1000,2 hPa 0,0 l/m 17,3 km/h (3 Bft) O-SO 105 0 min 0,000 mm 0,0 UV-I 0 W/m 8,4 C 9,5 C 22,5 km/h (4 Bft) 100,00 %
13.04.2018 02:40 14,2 C 10,6 C 68 % 1000,3 hPa 0,0 l/m 20,5 km/h (4 Bft) O 96 0 min 0,000 mm 0,0 UV-I 0 W/m 8,4 C 8,6 C 25,7 km/h (4 Bft) 100,00 %
13.04.2018 02:41 14,2 C 10,6 C 68 % 1000,3 hPa 0,0 l/m 17,5 km/h (3 Bft) O 101 0 min 0,000 mm 0,0 UV-I 0 W/m 8,4 C 9,4 C 24,1 km/h (4 Bft) 100,00 %
13.04.2018 02:42 14,2 C 10,6 C 68 % 1000,3 hPa 0,0 l/m 19,2 km/h (3 Bft) O 100 0 min 0,000 mm 0,0 UV-I 0 W/m 8,4 C 8,9 C 24,1 km/h (4 Bft) 95,83 %
13.04.2018 02:43 14,2 C 10,6 C 68 % 1000,3 hPa 0,0 l/m 23,1 km/h (4 Bft) O 92 0 min 0,000 mm 0,0 UV-I 0 W/m 8,4 C 7,9 C 27,4 km/h (4 Bft) 100,00 %
13.04.2018 02:44 14,2 C 10,6 C 67 % 1000,2 hPa 0,0 l/m 19,2 km/h (3 Bft) O-SO 121 0 min 0,000 mm 0,0 UV-I 0 W/m 8,2 C 8,9 C 25,7 km/h (4 Bft) 100,00 %
13.04.2018 02:45 14,3 C 10,6 C 67 % 1000,2 hPa 0,0 l/m 21,9 km/h (4 Bft) O-SO 111 0 min 0,000 mm 0,0 UV-I 0 W/m 8,3 C 8,4 C 30,6 km/h (5 Bft) 100,00 %
13.04.2018 02:46 14,3 C 10,6 C 67 % 1000,2 hPa 0,0 l/m 23,8 km/h (4 Bft) O-NO 78 0 min 0,000 mm 0,0 UV-I 0 W/m 8,3 C 7,9 C 27,4 km/h (4 Bft) 100,00 %
13.04.2018 02:47 14,3 C 10,6 C 67 % 1000,1 hPa 0,0 l/m 22,4 km/h (4 Bft) O 96 0 min 0,000 mm 0,0 UV-I 0 W/m 8,3 C 8,2 C 30,6 km/h (5 Bft) 100,00 %
13.04.2018 02:48 14,3 C 10,6 C 67 % 1000,1 hPa 0,0 l/m 25,8 km/h (4 Bft) O 80 0 min 0,000 mm 0,0 UV-I 0 W/m 8,3 C 7,5 C 29,0 km/h (5 Bft) 100,00 %
13.04.2018 02:49 14,3 C 10,6 C 67 % 1000,1 hPa 0,0 l/m 19,3 km/h (3 Bft) O-SO 106 0 min 0,000 mm 0,0 UV-I 0 W/m 8,3 C 9,0 C 27,4 km/h (4 Bft) 96,67 %
13.04.2018 02:50 14,3 C 10,6 C 67 % 1000,1 hPa 0,0 l/m 20,0 km/h (4 Bft) O-SO 112 0 min 0,000 mm 0,0 UV-I 0 W/m 8,3 C 8,8 C 29,0 km/h (5 Bft) 100,00 %
13.04.2018 02:51 14,3 C 10,6 C 67 % 1000,1 hPa 0,0 l/m 24,8 km/h (4 Bft) O 90 0 min 0,000 mm 0,0 UV-I 0 W/m 8,3 C 7,7 C 32,2 km/h (5 Bft) 95,65 %
13.04.2018 02:52 14,3 C 10,6 C 67 % 1000,0 hPa 0,0 l/m 21,3 km/h (4 Bft) O 99 0 min 0,000 mm 0,0 UV-I 0 W/m 8,3 C 8,5 C 30,6 km/h (5 Bft) 95,83 %
13.04.2018 02:53 14,3 C 10,6 C 67 % 1000,0 hPa 0,0 l/m 22,3 km/h (4 Bft) O-SO 107 0 min 0,000 mm 0,0 UV-I 0 W/m 8,3 C 8,3 C 30,6 km/h (5 Bft) 100,00 %
13.04.2018 02:54 14,3 C 10,6 C 67 % 999,9 hPa 0,0 l/m 18,7 km/h (3 Bft) O 82 0 min 0,000 mm 0,0 UV-I 0 W/m 8,3 C 9,2 C 24,1 km/h (4 Bft) 95,83 %
13.04.2018 02:55 14,3 C 10,6 C 67 % 999,9 hPa 0,0 l/m 23,0 km/h (4 Bft) O-SO 112 0 min 0,000 mm 0,0 UV-I 0 W/m 8,3 C 8,1 C 30,6 km/h (5 Bft) 100,00 %
13.04.2018 02:56 14,2 C 10,6 C 67 % 1000,0 hPa 0,0 l/m 19,2 km/h (3 Bft) O 101 0 min 0,000 mm 0,0 UV-I 0 W/m 8,2 C 8,9 C 24,1 km/h (4 Bft) 92,31 %
13.04.2018 02:57 14,2 C 10,6 C 67 % 1000,0 hPa 0,0 l/m 17,5 km/h (3 Bft) O-SO 112 0 min 0,000 mm 0,0 UV-I 0 W/m 8,2 C 9,4 C 24,1 km/h (4 Bft) 100,00 %
13.04.2018 02:58 14,2 C 10,6 C 67 % 1000,0 hPa 0,0 l/m 22,2 km/h (4 Bft) O-SO 121 0 min 0,000 mm 0,0 UV-I 0 W/m 8,2 C 8,2 C 27,4 km/h (4 Bft) 96,15 %
13.04.2018 02:59 14,3 C 10,6 C 67 % 999,9 hPa 0,0 l/m 16,4 km/h (3 Bft) SO 131 0 min 0,000 mm 0,0 UV-I 0 W/m 8,3 C 9,9 C 24,1 km/h (4 Bft) 100,00 %
13.04.2018 03:00 14,3 C 10,6 C 67 % 999,9 hPa 0,0 l/m 15,1 km/h (3 Bft) O-SO 118 0 min 0,076 mm 0,0 UV-I 0 W/m 8,3 C 10,3 C 19,3 km/h (3 Bft) 85,71 %
13.04.2018 03:01 14,3 C 10,6 C 67 % 999,9 hPa 0,0 l/m 14,4 km/h (3 Bft) O 101 0 min 0,000 mm 0,0 UV-I 0 W/m 8,3 C 10,6 C 20,9 km/h (4 Bft) 100,00 %
13.04.2018 03:02 14,3 C 10,6 C 67 % 999,8 hPa 0,0 l/m 14,8 km/h (3 Bft) O-SO 121 0 min 0,000 mm 0,0 UV-I 0 W/m 8,3 C 10,4 C 24,1 km/h (4 Bft) 91,67 %
13.04.2018 03:03 14,3 C 10,6 C 67 % 999,8 hPa 0,0 l/m 20,6 km/h (4 Bft) O-SO 104 0 min 0,000 mm 0,0 UV-I 0 W/m 8,3 C 8,7 C 29,0 km/h (5 Bft) 100,00 %
13.04.2018 03:04 14,3 C 10,6 C 67 % 999,7 hPa 0,0 l/m 18,4 km/h (3 Bft) O 93 0 min 0,000 mm 0,0 UV-I 0 W/m 8,3 C 9,3 C 25,7 km/h (4 Bft) 92,31 %
13.04.2018 03:05 14,3 C 10,6 C 67 % 999,7 hPa 0,0 l/m 18,8 km/h (3 Bft) O 100 0 min 0,000 mm 0,0 UV-I 0 W/m 8,3 C 9,2 C 24,1 km/h (4 Bft) 96,30 %
13.04.2018 03:06 14,3 C 10,6 C 67 % 999,7 hPa 0,0 l/m 9,7 km/h (2 Bft) O-SO 107 0 min 0,000 mm 0,0 UV-I 0 W/m 8,3 C 12,5 C 14,5 km/h (3 Bft) 85,71 %
13.04.2018 03:07 14,2 C 10,6 C 67 % 999,7 hPa 0,0 l/m 11,3 km/h (2 Bft) O 98 0 min 0,000 mm 0,0 UV-I 0 W/m 8,2 C 11,6 C 14,5 km/h (3 Bft) 91,67 %
13.04.2018 03:08 14,2 C 10,6 C 67 % 999,7 hPa 0,0 l/m 14,8 km/h (3 Bft) O-SO 119 0 min 0,000 mm 0,0 UV-I 0 W/m 8,2 C 10,3 C 19,3 km/h (3 Bft) 91,67 %
13.04.2018 03:09 14,2 C 10,6 C 67 % 999,7 hPa 0,0 l/m 14,1 km/h (3 Bft) O-SO 103 0 min 0,000 mm 0,0 UV-I 0 W/m 8,2 C 10,5 C 16,1 km/h (3 Bft) 92,31 %
13.04.2018 03:10 14,2 C 10,6 C 67 % 999,7 hPa 0,0 l/m 14,7 km/h (3 Bft) O 98 0 min 0,000 mm 0,0 UV-I 0 W/m 8,2 C 10,3 C 24,1 km/h (4 Bft) 100,00 %
13.04.2018 03:11 14,2 C 10,6 C 67 % 999,7 hPa 0,0 l/m 13,5 km/h (3 Bft) O-SO 108 0 min 0,000 mm 0,0 UV-I 0 W/m 8,2 C 10,8 C 17,7 km/h (3 Bft) 92,31 %
13.04.2018 03:12 14,2 C 10,6 C 67 % 999,7 hPa 0,0 l/m 19,4 km/h (3 Bft) O 100 0 min 0,000 mm 0,0 UV-I 0 W/m 8,2 C 8,9 C 24,1 km/h (4 Bft) 100,00 %
13.04.2018 03:14 14,2 C 10,6 C 67 % 999,7 hPa 0,0 l/m 18,2 km/h (3 Bft) O-SO 107 0 min 0,000 mm 0,0 UV-I 0 W/m 8,2 C 9,2 C 27,4 km/h (4 Bft) 91,38 %
13.04.2018 03:15 14,2 C 10,6 C 67 % 999,7 hPa 0,0 l/m 16,9 km/h (3 Bft) O 94 0 min 0,000 mm 0,0 UV-I 0 W/m 8,2 C 9,6 C 24,1 km/h (4 Bft) 100,00 %
13.04.2018 03:16 14,2 C 10,6 C 67 % 999,6 hPa 0,0 l/m 15,6 km/h (3 Bft) O 94 0 min 0,000 mm 0,0 UV-I 0 W/m 8,2 C 10,0 C 27,4 km/h (4 Bft) 96,30 %
13.04.2018 03:17 14,2 C 10,6 C 67 % 999,6 hPa 0,0 l/m 15,8 km/h (3 Bft) O-SO 114 0 min 0,000 mm 0,0 UV-I 0 W/m 8,2 C 10,0 C 20,9 km/h (4 Bft) 100,00 %
13.04.2018 03:18 14,2 C 10,6 C 68 % 999,6 hPa 0,0 l/m 15,9 km/h (3 Bft) O 100 0 min 0,000 mm 0,0 UV-I 0 W/m 8,4 C 9,9 C 20,9 km/h (4 Bft) 93,33 %
13.04.2018 03:19 14,2 C 10,6 C 68 % 999,6 hPa 0,0 l/m 11,9 km/h (2 Bft) O 86 0 min 0,000 mm 0,0 UV-I 0 W/m 8,4 C 11,4 C 17,7 km/h (3 Bft) 100,00 %
13.04.2018 03:20 14,2 C 10,6 C 68 % 999,6 hPa 0,0 l/m 12,0 km/h (2 Bft) O 82 0 min 0,000 mm 0,0 UV-I 0 W/m 8,4 C 11,4 C 19,3 km/h (3 Bft) 92,59 %
13.04.2018 03:21 14,1 C 10,6 C 68 % 999,6 hPa 0,0 l/m 12,3 km/h (3 Bft) O 95 0 min 0,000 mm 0,0 UV-I 0 W/m 8,3 C 11,1 C 24,1 km/h (4 Bft) 100,00 %
13.04.2018 03:22 14,1 C 10,6 C 68 % 999,7 hPa 0,0 l/m 14,7 km/h (3 Bft) O 80 0 min 0,000 mm 0,0 UV-I 0 W/m 8,3 C 10,2 C 17,7 km/h (3 Bft) 87,50 %
13.04.2018 03:23 14,1 C 10,6 C 68 % 999,7 hPa 0,0 l/m 15,9 km/h (3 Bft) O 101 0 min 0,000 mm 0,0 UV-I 0 W/m 8,3 C 9,8 C 17,7 km/h (3 Bft) 100,00 %
13.04.2018 03:24 14,1 C 10,6 C 68 % 999,8 hPa 0,0 l/m 13,3 km/h (3 Bft) O 93 0 min 0,000 mm 0,0 UV-I 0 W/m 8,3 C 10,7 C 20,9 km/h (4 Bft) 93,94 %
13.04.2018 03:25 14,1 C 10,6 C 68 % 999,8 hPa 0,0 l/m 14,3 km/h (3 Bft) O-SO 111 0 min 0,000 mm 0,0 UV-I 0 W/m 8,3 C 10,3 C 17,7 km/h (3 Bft) 95,65 %
13.04.2018 03:26 14,1 C 10,6 C 68 % 999,8 hPa 0,0 l/m 12,6 km/h (3 Bft) O-SO 103 0 min 0,000 mm 0,0 UV-I 0 W/m 8,3 C 11,0 C 16,1 km/h (3 Bft) 91,67 %
13.04.2018 03:27 14,0 C 10,6 C 68 % 999,8 hPa 0,0 l/m 7,4 km/h (2 Bft) O-NO 62 0 min 0,000 mm 0,0 UV-I 0 W/m 8,2 C 13,4 C 11,3 km/h (2 Bft) 93,75 %
13.04.2018 03:28 14,0 C 10,6 C 68 % 999,8 hPa 0,0 l/m 7,5 km/h (2 Bft) O-SO 121 0 min 0,000 mm 0,0 UV-I 0 W/m 8,2 C 13,3 C 12,9 km/h (3 Bft) 100,00 %
13.04.2018 03:29 14,0 C 10,6 C 68 % 999,8 hPa 0,0 l/m 10,4 km/h (2 Bft) O-SO 116 0 min 0,000 mm 0,0 UV-I 0 W/m 8,2 C 11,8 C 17,7 km/h (3 Bft) 88,46 %
13.04.2018 03:30 14,0 C 10,6 C 68 % 999,8 hPa 0,0 l/m 11,0 km/h (2 Bft) O-SO 104 0 min 0,000 mm 0,0 UV-I 0 W/m 8,2 C 11,6 C 14,5 km/h (3 Bft) 98,22 %
13.04.2018 03:31 14,0 C 10,6 C 68 % 999,9 hPa 0,0 l/m 9,1 km/h (2 Bft) O 94 0 min 0,000 mm 0,0 UV-I 0 W/m 8,2 C 12,5 C 12,9 km/h (3 Bft) 95,56 %
13.04.2018 03:32 13,9 C 10,6 C 68 % 999,9 hPa 0,0 l/m 8,2 km/h (2 Bft) O-NO 59 0 min 0,000 mm 0,0 UV-I 0 W/m 8,1 C 12,8 C 11,3 km/h (2 Bft) 96,15 %
13.04.2018 03:33 13,9 C 10,6 C 69 % 999,9 hPa 0,0 l/m 10,2 km/h (2 Bft) O 91 0 min 0,000 mm 0,0 UV-I 0 W/m 8,3 C 11,8 C 14,5 km/h (3 Bft) 93,33 %
13.04.2018 03:34 13,9 C 10,6 C 69 % 999,9 hPa 0,0 l/m 12,6 km/h (3 Bft) O-SO 121 0 min 0,000 mm 0,0 UV-I 0 W/m 8,3 C 10,8 C 16,1 km/h (3 Bft) 96,15 %
13.04.2018 03:35 13,9 C 10,6 C 69 % 999,9 hPa 0,0 l/m 11,8 km/h (2 Bft) O 98 0 min 0,000 mm 0,0 UV-I 0 W/m 8,3 C 11,1 C 16,1 km/h (3 Bft) 96,30 %
13.04.2018 03:36 13,9 C 10,6 C 69 % 999,8 hPa 0,0 l/m 11,1 km/h (2 Bft) O-SO 103 0 min 0,000 mm 0,0 UV-I 0 W/m 8,3 C 11,4 C 14,5 km/h (3 Bft) 100,00 %
13.04.2018 03:37 13,9 C 10,6 C 69 % 999,8 hPa 0,0 l/m 8,9 km/h (2 Bft) O 87 0 min 0,000 mm 0,0 UV-I 0 W/m 8,3 C 12,5 C 11,3 km/h (2 Bft) 93,94 %
13.04.2018 03:38 13,9 C 10,6 C 69 % 999,8 hPa 0,0 l/m 7,9 km/h (2 Bft) O-SO 105 0 min 0,000 mm 0,0 UV-I 0 W/m 8,3 C 13,0 C 12,9 km/h (3 Bft) 92,31 %
13.04.2018 03:39 13,9 C 10,6 C 69 % 999,8 hPa 0,0 l/m 6,3 km/h (2 Bft) O-SO 115 0 min 0,000 mm 0,0 UV-I 0 W/m 8,3 C 13,9 C 9,7 km/h (2 Bft) 100,00 %
13.04.2018 03:40 13,9 C 10,6 C 68 % 999,8 hPa 0,0 l/m 10,1 km/h (2 Bft) O 89 0 min 0,000 mm 0,0 UV-I 0 W/m 8,1 C 11,9 C 12,9 km/h (3 Bft) 92,86 %
13.04.2018 03:41 13,9 C 10,6 C 68 % 999,7 hPa 0,0 l/m 6,6 km/h (2 Bft) O-SO 102 0 min 0,000 mm 0,0 UV-I 0 W/m 8,1 C 13,8 C 12,9 km/h (3 Bft) 95,83 %
13.04.2018 03:42 13,9 C 10,6 C 68 % 999,8 hPa 0,0 l/m 7,4 km/h (2 Bft) O-SO 118 0 min 0,000 mm 0,0 UV-I 0 W/m 8,1 C 13,3 C 12,9 km/h (3 Bft) 96,15 %
13.04.2018 03:43 13,9 C 10,6 C 68 % 999,7 hPa 0,0 l/m 8,1 km/h (2 Bft) O-SO 107 0 min 0,000 mm 0,0 UV-I 0 W/m 8,1 C 12,9 C 11,3 km/h (2 Bft) 95,83 %
13.04.2018 03:44 13,8 C 10,6 C 69 % 999,7 hPa 0,0 l/m 9,3 km/h (2 Bft) O-SO 105 0 min 0,000 mm 0,0 UV-I 0 W/m 8,2 C 12,1 C 12,9 km/h (3 Bft) 96,15 %
13.04.2018 03:45 13,8 C 10,6 C 69 % 999,7 hPa 0,0 l/m 6,9 km/h (2 Bft) SO 146 0 min 0,000 mm 0,0 UV-I 0 W/m 8,2 C 13,5 C 12,9 km/h (3 Bft) 93,33 %
13.04.2018 03:46 13,8 C 10,6 C 69 % 999,7 hPa 0,0 l/m 4,5 km/h (1 Bft) SO 134 0 min 0,000 mm 0,0 UV-I 0 W/m 8,2 C 13,8 C 8,0 km/h (2 Bft) 96,30 %
13.04.2018 03:47 13,8 C 10,6 C 69 % 999,7 hPa 0,0 l/m 6,2 km/h (2 Bft) O-SO 121 0 min 0,000 mm 0,0 UV-I 0 W/m 8,2 C 13,8 C 8,0 km/h (2 Bft) 100,00 %
13.04.2018 03:48 13,8 C 10,6 C 69 % 999,7 hPa 0,0 l/m 6,0 km/h (2 Bft) O-SO 113 0 min 0,000 mm 0,0 UV-I 0 W/m 8,2 C 13,8 C 8,0 km/h (2 Bft) 95,83 %
13.04.2018 03:49 13,8 C 10,6 C 69 % 999,7 hPa 0,0 l/m 8,3 km/h (2 Bft) SO 128 0 min 0,000 mm 0,0 UV-I 0 W/m 8,2 C 12,7 C 14,5 km/h (3 Bft) 100,00 %
13.04.2018 03:50 13,9 C 10,6 C 68 % 999,7 hPa 0,0 l/m 8,9 km/h (2 Bft) SO 132 0 min 0,000 mm 0,0 UV-I 0 W/m 8,1 C 12,5 C 12,9 km/h (3 Bft) 93,33 %
13.04.2018 03:51 13,9 C 10,6 C 68 % 999,7 hPa 0,0 l/m 6,6 km/h (2 Bft) SO 145 0 min 0,000 mm 0,0 UV-I 0 W/m 8,1 C 13,8 C 12,9 km/h (3 Bft) 95,65 %
13.04.2018 03:52 14,0 C 10,6 C 68 % 999,7 hPa 0,0 l/m 4,2 km/h (1 Bft) O-SO 119 0 min 0,000 mm 0,0 UV-I 0 W/m 8,2 C 14,0 C 8,0 km/h (2 Bft) 95,83 %
13.04.2018 03:53 13,9 C 10,6 C 68 % 999,7 hPa 0,0 l/m 4,7 km/h (1 Bft) SO 129 0 min 0,000 mm 0,0 UV-I 0 W/m 8,1 C 13,9 C 6,4 km/h (2 Bft) 90,91 %
13.04.2018 03:54 13,9 C 10,6 C 68 % 999,8 hPa 0,0 l/m 4,2 km/h (1 Bft) O-SO 103 0 min 0,000 mm 0,0 UV-I 0 W/m 8,1 C 13,9 C 8,0 km/h (2 Bft) 100,00 %
13.04.2018 03:55 13,9 C 10,6 C 68 % 999,8 hPa 0,0 l/m 11,1 km/h (2 Bft) SO 134 0 min 0,000 mm 0,0 UV-I 0 W/m 8,1 C 11,4 C 14,5 km/h (3 Bft) 96,15 %
13.04.2018 03:56 13,9 C 10,6 C 68 % 999,8 hPa 0,0 l/m 5,7 km/h (1 Bft) SO 139 0 min 0,000 mm 0,0 UV-I 0 W/m 8,1 C 13,9 C 9,7 km/h (2 Bft) 100,00 %
13.04.2018 03:57 13,9 C 10,6 C 68 % 999,8 hPa 0,0 l/m 2,2 km/h (1 Bft) SO 139 0 min 0,000 mm 0,0 UV-I 0 W/m 8,1 C 13,9 C 4,8 km/h (1 Bft) 95,65 %
13.04.2018 03:58 13,9 C 10,6 C 68 % 999,8 hPa 0,0 l/m 2,6 km/h (1 Bft) SO 139 0 min 0,000 mm 0,0 UV-I 0 W/m 8,1 C 13,9 C 4,8 km/h (1 Bft) 100,00 %
13.04.2018 03:59 13,9 C 10,6 C 68 % 999,8 hPa 0,0 l/m 2,5 km/h (1 Bft) SO 139 0 min 0,000 mm 0,0 UV-I 0 W/m 8,1 C 13,9 C 4,8 km/h (1 Bft) 96,15 %
13.04.2018 04:00 13,9 C 10,6 C 68 % 999,8 hPa 0,0 l/m 1,7 km/h (1 Bft) SO 139 0 min 0,051 mm 0,0 UV-I 0 W/m 8,1 C 13,9 C 3,2 km/h (1 Bft) 100,00 %
13.04.2018 04:03 13,9 C 10,6 C 68 % 999,9 hPa 0,0 l/m 1,7 km/h (1 Bft) SO 139 0 min 0,000 mm 0,0 UV-I 0 W/m 8,1 C 13,9 C 4,8 km/h (1 Bft) 100,00 %
13.04.2018 04:04 13,9 C 10,6 C 68 % 999,9 hPa 0,0 l/m 2,5 km/h (1 Bft) SO 139 0 min 0,000 mm 0,0 UV-I 0 W/m 8,1 C 13,9 C 3,2 km/h (1 Bft) 100,00 %
13.04.2018 04:05 13,8 C 10,6 C 68 % 999,8 hPa 0,0 l/m 2,8 km/h (1 Bft) SO 139 0 min 0,000 mm 0,0 UV-I 0 W/m 8,0 C 13,8 C 3,2 km/h (1 Bft) 100,00 %
13.04.2018 04:06 13,8 C 10,6 C 68 % 999,8 hPa 0,0 l/m 1,5 km/h (1 Bft) S 189 0 min 0,000 mm 0,0 UV-I 0 W/m 8,0 C 13,8 C 3,2 km/h (1 Bft) 100,00 %
13.04.2018 04:07 13,7 C 10,6 C 69 % 999,8 hPa 0,0 l/m 0,1 km/h (0 Bft) S 189 0 min 0,000 mm 0,0 UV-I 0 W/m 8,1 C 13,7 C 1,6 km/h (1 Bft) 100,00 %
13.04.2018 04:08 13,6 C 10,6 C 69 % 999,8 hPa 0,0 l/m 2,1 km/h (1 Bft) S 188 0 min 0,000 mm 0,0 UV-I 0 W/m 8,0 C 13,6 C 4,8 km/h (1 Bft) 100,00 %
13.04.2018 04:09 13,7 C 10,6 C 69 % 999,8 hPa 0,0 l/m 6,4 km/h (2 Bft) O-SO 109 0 min 0,000 mm 0,0 UV-I 0 W/m 8,1 C 13,7 C 11,3 km/h (2 Bft) 95,83 %
13.04.2018 04:10 13,7 C 10,6 C 69 % 999,8 hPa 0,0 l/m 9,6 km/h (2 Bft) SO 125 0 min 0,000 mm 0,0 UV-I 0 W/m 8,1 C 11,9 C 12,9 km/h (3 Bft) 100,00 %
13.04.2018 04:11 13,7 C 10,6 C 69 % 999,9 hPa 0,0 l/m 11,1 km/h (2 Bft) O 90 0 min 0,000 mm 0,0 UV-I 0 W/m 8,1 C 11,2 C 14,5 km/h (3 Bft) 100,00 %
13.04.2018 04:12 13,7 C 10,6 C 69 % 999,9 hPa 0,0 l/m 10,7 km/h (2 Bft) O-SO 113 0 min 0,000 mm 0,0 UV-I 0 W/m 8,1 C 11,3 C 14,5 km/h (3 Bft) 100,00 %
13.04.2018 04:13 13,8 C 10,6 C 68 % 999,9 hPa 0,0 l/m 5,6 km/h (1 Bft) O-SO 109 0 min 0,000 mm 0,0 UV-I 0 W/m 8,0 C 13,8 C 6,4 km/h (2 Bft) 100,00 %
13.04.2018 04:14 13,7 C 10,6 C 69 % 999,8 hPa 0,0 l/m 3,6 km/h (1 Bft) O-SO 109 0 min 0,000 mm 0,0 UV-I 0 W/m 8,1 C 13,7 C 4,8 km/h (1 Bft) 100,00 %
13.04.2018 04:15 13,7 C 10,6 C 69 % 999,8 hPa 0,0 l/m 5,1 km/h (1 Bft) O-SO 115 0 min 0,000 mm 0,0 UV-I 0 W/m 8,1 C 13,7 C 9,7 km/h (2 Bft) 100,00 %
13.04.2018 04:16 13,6 C 10,6 C 69 % 999,8 hPa 0,0 l/m 8,4 km/h (2 Bft) O 92 0 min 0,000 mm 0,0 UV-I 0 W/m 8,0 C 12,4 C 11,3 km/h (2 Bft) 100,00 %
13.04.2018 04:17 13,6 C 10,6 C 69 % 999,8 hPa 0,0 l/m 10,8 km/h (2 Bft) O-SO 119 0 min 0,000 mm 0,0 UV-I 0 W/m 8,0 C 11,2 C 16,1 km/h (3 Bft) 95,83 %
13.04.2018 04:18 13,7 C 10,6 C 69 % 999,8 hPa 0,0 l/m 7,0 km/h (2 Bft) O 91 0 min 0,000 mm 0,0 UV-I 0 W/m 8,1 C 13,3 C 11,3 km/h (2 Bft) 100,00 %
13.04.2018 04:19 13,7 C 10,6 C 69 % 999,8 hPa 0,0 l/m 6,7 km/h (2 Bft) O-SO 115 0 min 0,000 mm 0,0 UV-I 0 W/m 8,1 C 13,5 C 9,7 km/h (2 Bft) 100,00 %
13.04.2018 04:20 13,7 C 10,6 C 69 % 999,8 hPa 0,0 l/m 7,7 km/h (2 Bft) O-SO 111 0 min 0,000 mm 0,0 UV-I 0 W/m 8,1 C 12,9 C 11,3 km/h (2 Bft) 100,00 %
13.04.2018 04:21 13,7 C 10,6 C 69 % 999,8 hPa 0,0 l/m 7,8 km/h (2 Bft) O-SO 110 0 min 0,000 mm 0,0 UV-I 0 W/m 8,1 C 12,9 C 11,3 km/h (2 Bft) 100,00 %
13.04.2018 04:22 13,7 C 10,6 C 69 % 999,8 hPa 0,0 l/m 6,2 km/h (2 Bft) O-SO 104 0 min 0,000 mm 0,0 UV-I 0 W/m 8,1 C 13,7 C 9,7 km/h (2 Bft) 100,00 %
13.04.2018 04:23 13,7 C 10,6 C 69 % 999,8 hPa 0,0 l/m 6,8 km/h (2 Bft) O-SO 104 0 min 0,000 mm 0,0 UV-I 0 W/m 8,1 C 13,5 C 9,7 km/h (2 Bft) 99,58 %
13.04.2018 04:24 13,6 C 10,6 C 69 % 999,7 hPa 0,0 l/m 9,6 km/h (2 Bft) O-SO 113 0 min 0,000 mm 0,0 UV-I 0 W/m 8,0 C 11,8 C 11,3 km/h (2 Bft) 100,00 %
13.04.2018 04:25 13,6 C 10,6 C 69 % 999,7 hPa 0,0 l/m 7,8 km/h (2 Bft) O-SO 117 0 min 0,000 mm 0,0 UV-I 0 W/m 8,0 C 12,7 C 11,3 km/h (2 Bft) 96,15 %
13.04.2018 04:26 13,5 C 10,6 C 69 % 999,7 hPa 0,0 l/m 10,2 km/h (2 Bft) O 90 0 min 0,000 mm 0,0 UV-I 0 W/m 7,9 C 11,4 C 14,5 km/h (3 Bft) 100,00 %
13.04.2018 04:27 13,5 C 10,6 C 70 % 999,7 hPa 0,0 l/m 8,9 km/h (2 Bft) O 90 0 min 0,000 mm 0,0 UV-I 0 W/m 8,1 C 12,0 C 12,9 km/h (3 Bft) 100,00 %
13.04.2018 04:28 13,5 C 10,6 C 70 % 999,7 hPa 0,0 l/m 10,8 km/h (2 Bft) O 91 0 min 0,000 mm 0,0 UV-I 0 W/m 8,1 C 11,1 C 14,5 km/h (3 Bft) 100,00 %
13.04.2018 04:29 13,4 C 10,6 C 70 % 999,7 hPa 0,0 l/m 11,6 km/h (2 Bft) O 91 0 min 0,000 mm 0,0 UV-I 0 W/m 8,0 C 10,6 C 14,5 km/h (3 Bft) 100,00 %
13.04.2018 04:30 13,4 C 10,6 C 70 % 999,7 hPa 0,0 l/m 10,0 km/h (2 Bft) O-NO 68 0 min 0,000 mm 0,0 UV-I 0 W/m 8,0 C 11,4 C 12,9 km/h (3 Bft) 96,97 %
13.04.2018 04:31 13,4 C 10,6 C 70 % 999,6 hPa 0,0 l/m 11,0 km/h (2 Bft) O 94 0 min 0,000 mm 0,0 UV-I 0 W/m 8,0 C 10,9 C 14,5 km/h (3 Bft) 100,00 %
13.04.2018 04:32 13,4 C 10,6 C 70 % 999,6 hPa 0,0 l/m 10,5 km/h (2 Bft) O-NO 69 0 min 0,000 mm 0,0 UV-I 0 W/m 8,0 C 11,1 C 14,5 km/h (3 Bft) 100,00 %
13.04.2018 04:33 13,4 C 10,6 C 70 % 999,6 hPa 0,0 l/m 10,5 km/h (2 Bft) O 98 0 min 0,000 mm 0,0 UV-I 0 W/m 8,0 C 11,1 C 12,9 km/h (3 Bft) 100,00 %
13.04.2018 04:34 13,4 C 10,6 C 70 % 999,6 hPa 0,0 l/m 11,8 km/h (2 Bft) O-NO 78 0 min 0,000 mm 0,0 UV-I 0 W/m 8,0 C 10,5 C 14,5 km/h (3 Bft) 100,00 %
13.04.2018 04:35 13,3 C 10,6 C 70 % 999,7 hPa 0,0 l/m 11,1 km/h (2 Bft) O-SO 110 0 min 0,000 mm 0,0 UV-I 0 W/m 7,9 C 10,7 C 14,5 km/h (3 Bft) 100,00 %
13.04.2018 04:36 13,2 C 10,6 C 71 % 999,8 hPa 0,0 l/m 8,0 km/h (2 Bft) SO 124 0 min 0,000 mm 0,0 UV-I 0 W/m 8,1 C 12,2 C 11,3 km/h (2 Bft) 100,00 %
13.04.2018 04:37 13,1 C 10,6 C 72 % 999,8 hPa 0,0 l/m 5,8 km/h (2 Bft) O 86 0 min 0,000 mm 0,0 UV-I 0 W/m 8,2 C 13,1 C 9,7 km/h (2 Bft) 96,15 %
13.04.2018 04:38 13,1 C 10,6 C 72 % 999,7 hPa 0,0 l/m 10,7 km/h (2 Bft) O 96 0 min 0,000 mm 0,0 UV-I 0 W/m 8,2 C 10,7 C 16,1 km/h (3 Bft) 100,00 %
13.04.2018 04:39 13,1 C 10,6 C 72 % 999,8 hPa 0,0 l/m 14,2 km/h (3 Bft) O-SO 107 0 min 0,000 mm 0,0 UV-I 0 W/m 8,2 C 9,2 C 16,1 km/h (3 Bft) 100,00 %
13.04.2018 04:40 13,2 C 10,6 C 72 % 999,8 hPa 0,0 l/m 13,2 km/h (3 Bft) O 88 0 min 0,000 mm 0,0 UV-I 0 W/m 8,3 C 9,7 C 16,1 km/h (3 Bft) 100,00 %
13.04.2018 04:41 13,3 C 10,6 C 71 % 999,7 hPa 0,0 l/m 13,1 km/h (3 Bft) O-SO 107 0 min 0,000 mm 0,0 UV-I 0 W/m 8,2 C 9,9 C 16,1 km/h (3 Bft) 100,00 %
13.04.2018 04:42 13,3 C 10,6 C 71 % 999,7 hPa 0,0 l/m 14,6 km/h (3 Bft) O-NO 78 0 min 0,000 mm 0,0 UV-I 0 W/m 8,2 C 9,3 C 17,7 km/h (3 Bft) 100,00 %
13.04.2018 04:43 13,3 C 10,6 C 71 % 999,7 hPa 0,0 l/m 14,3 km/h (3 Bft) O-NO 62 0 min 0,000 mm 0,0 UV-I 0 W/m 8,2 C 9,4 C 17,7 km/h (3 Bft) 100,00 %
13.04.2018 04:44 13,4 C 10,6 C 71 % 999,6 hPa 0,0 l/m 14,0 km/h (3 Bft) O 96 0 min 0,000 mm 0,0 UV-I 0 W/m 8,3 C 9,6 C 16,1 km/h (3 Bft) 100,00 %
13.04.2018 04:45 13,4 C 10,6 C 71 % 999,6 hPa 0,0 l/m 13,0 km/h (3 Bft) O 82 0 min 0,000 mm 0,0 UV-I 0 W/m 8,3 C 10,0 C 19,3 km/h (3 Bft) 100,00 %
13.04.2018 04:46 13,3 C 10,6 C 71 % 999,6 hPa 0,0 l/m 15,7 km/h (3 Bft) O 80 0 min 0,000 mm 0,0 UV-I 0 W/m 8,2 C 8,9 C 19,3 km/h (3 Bft) 91,30 %
13.04.2018 04:47 13,3 C 10,6 C 71 % 999,6 hPa 0,0 l/m 15,9 km/h (3 Bft) O 80 0 min 0,000 mm 0,0 UV-I 0 W/m 8,2 C 8,8 C 19,3 km/h (3 Bft) 100,00 %
13.04.2018 04:48 13,2 C 10,6 C 72 % 999,5 hPa 0,0 l/m 15,7 km/h (3 Bft) O 88 0 min 0,000 mm 0,0 UV-I 0 W/m 8,3 C 8,8 C 17,7 km/h (3 Bft) 100,00 %
13.04.2018 04:49 13,2 C 10,6 C 72 % 999,6 hPa 0,0 l/m 15,4 km/h (3 Bft) O 79 0 min 0,000 mm 0,0 UV-I 0 W/m 8,3 C 8,9 C 19,3 km/h (3 Bft) 100,00 %
13.04.2018 04:50 13,2 C 10,6 C 72 % 999,6 hPa 0,0 l/m 15,7 km/h (3 Bft) O-NO 77 0 min 0,000 mm 0,0 UV-I 0 W/m 8,3 C 8,8 C 17,7 km/h (3 Bft) 100,00 %
13.04.2018 04:51 13,1 C 10,6 C 72 % 999,7 hPa 0,0 l/m 15,2 km/h (3 Bft) O 84 0 min 0,000 mm 0,0 UV-I 0 W/m 8,2 C 8,8 C 17,7 km/h (3 Bft) 100,00 %
13.04.2018 04:52 13,1 C 10,6 C 73 % 999,7 hPa 0,0 l/m 12,8 km/h (3 Bft) O-NO 70 0 min 0,000 mm 0,0 UV-I 0 W/m 8,4 C 9,7 C 14,5 km/h (3 Bft) 100,00 %
13.04.2018 04:53 12,9 C 10,6 C 73 % 999,8 hPa 0,0 l/m 13,0 km/h (3 Bft) O 81 0 min 0,000 mm 0,0 UV-I 0 W/m 8,2 C 9,4 C 16,1 km/h (3 Bft) 100,00 %
13.04.2018 04:54 12,9 C 10,6 C 73 % 999,8 hPa 0,0 l/m 12,7 km/h (3 Bft) O-NO 63 0 min 0,000 mm 0,0 UV-I 0 W/m 8,2 C 9,6 C 14,5 km/h (3 Bft) 100,00 %
13.04.2018 04:55 12,8 C 10,6 C 74 % 999,8 hPa 0,0 l/m 11,7 km/h (2 Bft) O-NO 78 0 min 0,000 mm 0,0 UV-I 0 W/m 8,3 C 9,9 C 16,1 km/h (3 Bft) 100,00 %
13.04.2018 04:56 12,8 C 10,6 C 74 % 999,8 hPa 0,0 l/m 12,3 km/h (3 Bft) O-SO 107 0 min 0,000 mm 0,0 UV-I 0 W/m 8,3 C 9,6 C 16,1 km/h (3 Bft) 100,00 %
13.04.2018 04:57 12,8 C 10,6 C 74 % 999,8 hPa 0,0 l/m 12,1 km/h (2 Bft) O-NO 71 0 min 0,000 mm 0,0 UV-I 0 W/m 8,3 C 9,7 C 14,5 km/h (3 Bft) 100,00 %
13.04.2018 04:58 12,8 C 10,6 C 74 % 999,9 hPa 0,0 l/m 11,9 km/h (2 Bft) O 88 0 min 0,000 mm 0,0 UV-I 0 W/m 8,3 C 9,8 C 17,7 km/h (3 Bft) 100,00 %
13.04.2018 04:59 12,8 C 10,6 C 74 % 999,8 hPa 0,0 l/m 11,7 km/h (2 Bft) O 87 0 min 0,000 mm 0,0 UV-I 0 W/m 8,3 C 9,9 C 16,1 km/h (3 Bft) 100,00 %
13.04.2018 05:00 12,8 C 10,6 C 74 % 999,8 hPa 0,0 l/m 11,2 km/h (2 Bft) O 99 0 min 0,051 mm 0,0 UV-I 0 W/m 8,3 C 10,1 C 14,5 km/h (3 Bft) 96,30 %
13.04.2018 05:01 12,9 C 10,6 C 74 % 999,8 hPa 0,0 l/m 13,2 km/h (3 Bft) O 94 0 min 0,000 mm 0,0 UV-I 0 W/m 8,4 C 9,3 C 16,1 km/h (3 Bft) 100,00 %
13.04.2018 05:02 12,9 C 10,6 C 74 % 999,8 hPa 0,0 l/m 13,6 km/h (3 Bft) O-SO 105 0 min 0,000 mm 0,0 UV-I 0 W/m 8,4 C 9,2 C 16,1 km/h (3 Bft) 100,00 %
13.04.2018 05:03 12,9 C 10,6 C 74 % 999,8 hPa 0,0 l/m 13,0 km/h (3 Bft) O 91 0 min 0,000 mm 0,0 UV-I 0 W/m 8,4 C 9,4 C 16,1 km/h (3 Bft) 100,00 %
13.04.2018 05:04 12,9 C 10,6 C 74 % 999,8 hPa 0,0 l/m 12,4 km/h (3 Bft) O-SO 112 0 min 0,000 mm 0,0 UV-I 0 W/m 8,4 C 9,7 C 16,1 km/h (3 Bft) 100,00 %
13.04.2018 05:05 12,9 C 10,6 C 74 % 999,8 hPa 0,0 l/m 14,2 km/h (3 Bft) O-SO 108 0 min 0,000 mm 0,0 UV-I 0 W/m 8,4 C 8,9 C 17,7 km/h (3 Bft) 100,00 %
13.04.2018 05:06 12,9 C 10,6 C 74 % 999,8 hPa 0,0 l/m 15,0 km/h (3 Bft) O-NO 73 0 min 0,000 mm 0,0 UV-I 0 W/m 8,4 C 8,6 C 19,3 km/h (3 Bft) 100,00 %
13.04.2018 05:07 12,9 C 10,6 C 74 % 999,9 hPa 0,0 l/m 12,3 km/h (3 Bft) O-SO 103 0 min 0,000 mm 0,0 UV-I 0 W/m 8,4 C 9,7 C 20,9 km/h (4 Bft) 100,00 %
13.04.2018 05:08 13,0 C 10,6 C 74 % 999,9 hPa 0,0 l/m 16,0 km/h (3 Bft) O-SO 107 0 min 0,000 mm 0,0 UV-I 0 W/m 8,5 C 8,4 C 20,9 km/h (4 Bft) 93,33 %
13.04.2018 05:09 13,1 C 10,6 C 73 % 999,9 hPa 0,0 l/m 14,0 km/h (3 Bft) O 98 0 min 0,000 mm 0,0 UV-I 0 W/m 8,4 C 9,3 C 17,7 km/h (3 Bft) 96,15 %
13.04.2018 05:10 13,2 C 10,6 C 73 % 999,9 hPa 0,0 l/m 15,2 km/h (3 Bft) O-SO 110 0 min 0,000 mm 0,0 UV-I 0 W/m 8,5 C 8,9 C 20,9 km/h (4 Bft) 91,67 %
13.04.2018 05:11 13,2 C 10,6 C 73 % 1000,0 hPa 0,0 l/m 12,9 km/h (3 Bft) O 92 0 min 0,000 mm 0,0 UV-I 0 W/m 8,5 C 9,8 C 17,7 km/h (3 Bft) 95,65 %
13.04.2018 05:12 13,2 C 10,6 C 73 % 1000,0 hPa 0,0 l/m 17,4 km/h (3 Bft) O-SO 116 0 min 0,000 mm 0,0 UV-I 0 W/m 8,5 C 8,2 C 22,5 km/h (4 Bft) 95,83 %
13.04.2018 05:13 13,3 C 10,6 C 73 % 1000,0 hPa 0,0 l/m 14,2 km/h (3 Bft) O-SO 104 0 min 0,000 mm 0,0 UV-I 0 W/m 8,6 C 9,4 C 19,3 km/h (3 Bft) 96,15 %
13.04.2018 05:14 13,3 C 10,6 C 73 % 1000,0 hPa 0,0 l/m 14,0 km/h (3 Bft) O 89 0 min 0,000 mm 0,0 UV-I 0 W/m 8,6 C 9,5 C 17,7 km/h (3 Bft) 100,00 %
13.04.2018 05:15 13,3 C 10,6 C 73 % 1000,0 hPa 0,0 l/m 13,4 km/h (3 Bft) O 98 0 min 0,000 mm 0,0 UV-I 0 W/m 8,6 C 9,7 C 17,7 km/h (3 Bft) 94,12 %
13.04.2018 05:16 13,3 C 10,6 C 73 % 1000,1 hPa 0,0 l/m 12,4 km/h (3 Bft) O 84 0 min 0,000 mm 0,0 UV-I 0 W/m 8,6 C 10,1 C 17,7 km/h (3 Bft) 96,30 %
13.04.2018 05:17 13,3 C 10,6 C 73 % 1000,1 hPa 0,0 l/m 14,6 km/h (3 Bft) O-SO 103 0 min 0,000 mm 0,0 UV-I 0 W/m 8,6 C 9,3 C 19,3 km/h (3 Bft) 96,15 %
13.04.2018 05:18 13,2 C 10,6 C 73 % 1000,1 hPa 0,0 l/m 11,3 km/h (2 Bft) O 91 0 min 0,000 mm 0,0 UV-I 0 W/m 8,5 C 10,5 C 16,1 km/h (3 Bft) 91,67 %
13.04.2018 05:19 13,2 C 10,6 C 73 % 1000,1 hPa 0,0 l/m 10,2 km/h (2 Bft) O 101 0 min 0,000 mm 0,0 UV-I 0 W/m 8,5 C 11,0 C 12,9 km/h (3 Bft) 100,00 %
13.04.2018 05:20 13,2 C 10,6 C 73 % 1000,0 hPa 0,0 l/m 11,3 km/h (2 Bft) O 91 0 min 0,000 mm 0,0 UV-I 0 W/m 8,5 C 10,5 C 16,1 km/h (3 Bft) 93,33 %
13.04.2018 05:21 13,2 C 10,6 C 73 % 1000,1 hPa 0,0 l/m 11,5 km/h (2 Bft) O 98 0 min 0,000 mm 0,0 UV-I 0 W/m 8,5 C 10,4 C 14,5 km/h (3 Bft) 100,00 %
13.04.2018 05:22 13,1 C 10,6 C 74 % 1000,1 hPa 0,0 l/m 12,1 km/h (2 Bft) O 86 0 min 0,000 mm 0,0 UV-I 0 W/m 8,6 C 10,0 C 16,1 km/h (3 Bft) 96,15 %
13.04.2018 05:23 13,1 C 10,6 C 74 % 1000,1 hPa 0,0 l/m 12,7 km/h (3 Bft) O 88 0 min 0,000 mm 0,0 UV-I 0 W/m 8,6 C 9,8 C 19,3 km/h (3 Bft) 100,00 %
13.04.2018 05:24 13,1 C 10,6 C 74 % 1000,1 hPa 0,0 l/m 10,9 km/h (2 Bft) O 92 0 min 0,000 mm 0,0 UV-I 0 W/m 8,6 C 10,6 C 14,5 km/h (3 Bft) 95,65 %
13.04.2018 05:25 13,1 C 10,6 C 74 % 1000,1 hPa 0,0 l/m 10,8 km/h (2 Bft) O-SO 106 0 min 0,000 mm 0,0 UV-I 0 W/m 8,6 C 10,6 C 12,9 km/h (3 Bft) 95,83 %
13.04.2018 05:26 13,1 C 10,6 C 74 % 1000,1 hPa 0,0 l/m 10,8 km/h (2 Bft) O 98 0 min 0,000 mm 0,0 UV-I 0 W/m 8,6 C 10,6 C 16,1 km/h (3 Bft) 100,00 %
13.04.2018 05:27 13,1 C 10,6 C 74 % 1000,2 hPa 0,0 l/m 10,0 km/h (2 Bft) O 90 0 min 0,000 mm 0,0 UV-I 0 W/m 8,6 C 11,0 C 12,9 km/h (3 Bft) 100,00 %
13.04.2018 05:28 13,1 C 10,6 C 74 % 1000,2 hPa 0,0 l/m 10,3 km/h (2 Bft) O 87 0 min 0,000 mm 0,0 UV-I 0 W/m 8,6 C 10,9 C 12,9 km/h (3 Bft) 96,15 %
13.04.2018 05:29 13,1 C 10,6 C 74 % 1000,2 hPa 0,0 l/m 8,6 km/h (2 Bft) SO 126 0 min 0,000 mm 0,0 UV-I 0 W/m 8,6 C 11,8 C 11,3 km/h (2 Bft) 95,83 %
13.04.2018 05:30 13,1 C 10,6 C 74 % 1000,2 hPa 0,0 l/m 10,7 km/h (2 Bft) O-SO 107 0 min 0,000 mm 0,0 UV-I 0 W/m 8,6 C 10,7 C 12,9 km/h (3 Bft) 100,00 %
13.04.2018 05:31 13,1 C 10,6 C 74 % 1000,2 hPa 0,0 l/m 11,2 km/h (2 Bft) O-SO 115 0 min 0,000 mm 0,0 UV-I 0 W/m 8,6 C 10,4 C 12,9 km/h (3 Bft) 96,30 %
13.04.2018 05:32 13,1 C 10,6 C 74 % 1000,2 hPa 0,0 l/m 8,1 km/h (2 Bft) O-SO 111 0 min 0,000 mm 0,0 UV-I 0 W/m 8,6 C 12,0 C 11,3 km/h (2 Bft) 100,00 %
13.04.2018 05:33 13,1 C 10,6 C 74 % 1000,2 hPa 0,0 l/m 9,4 km/h (2 Bft) O 81 0 min 0,000 mm 0,0 UV-I 0 W/m 8,6 C 11,3 C 11,3 km/h (2 Bft) 91,67 %
13.04.2018 05:34 13,1 C 10,6 C 74 % 1000,2 hPa 0,0 l/m 9,3 km/h (2 Bft) O-SO 102 0 min 0,000 mm 0,0 UV-I 0 W/m 8,6 C 11,4 C 12,9 km/h (3 Bft) 96,88 %
13.04.2018 05:35 13,1 C 10,6 C 74 % 1000,2 hPa 0,0 l/m 9,7 km/h (2 Bft) O 97 0 min 0,000 mm 0,0 UV-I 0 W/m 8,6 C 11,2 C 11,3 km/h (2 Bft) 100,00 %
13.04.2018 05:36 13,1 C 10,6 C 74 % 1000,1 hPa 0,0 l/m 12,0 km/h (2 Bft) O-SO 103 0 min 0,000 mm 0,0 UV-I 0 W/m 8,6 C 10,1 C 14,5 km/h (3 Bft) 98,68 %
13.04.2018 05:37 13,1 C 10,6 C 74 % 1000,1 hPa 0,0 l/m 11,3 km/h (2 Bft) O 90 0 min 0,000 mm 0,0 UV-I 0 W/m 8,6 C 10,4 C 12,9 km/h (3 Bft) 97,37 %
13.04.2018 05:38 13,1 C 10,6 C 73 % 1000,1 hPa 0,0 l/m 9,3 km/h (2 Bft) O-SO 105 0 min 0,000 mm 0,0 UV-I 0 W/m 8,4 C 11,4 C 12,9 km/h (3 Bft) 95,83 %
13.04.2018 05:39 13,1 C 10,6 C 73 % 1000,1 hPa 0,0 l/m 11,2 km/h (2 Bft) O 97 0 min 0,000 mm 0,0 UV-I 0 W/m 8,4 C 10,4 C 16,1 km/h (3 Bft) 100,00 %
13.04.2018 05:40 13,1 C 10,6 C 73 % 1000,0 hPa 0,0 l/m 10,1 km/h (2 Bft) O 93 0 min 0,000 mm 0,0 UV-I 0 W/m 8,4 C 11,0 C 11,3 km/h (2 Bft) 93,10 %
13.04.2018 05:41 13,1 C 10,6 C 74 % 1000,0 hPa 0,0 l/m 9,1 km/h (2 Bft) O-SO 119 0 min 0,000 mm 0,0 UV-I 0 W/m 8,6 C 11,5 C 11,3 km/h (2 Bft) 100,00 %
13.04.2018 05:42 13,1 C 10,6 C 74 % 1000,1 hPa 0,0 l/m 5,4 km/h (1 Bft) SO 128 0 min 0,000 mm 0,0 UV-I 0 W/m 8,6 C 13,1 C 6,4 km/h (2 Bft) 100,00 %
13.04.2018 05:43 13,0 C 10,6 C 74 % 1000,1 hPa 0,0 l/m 4,8 km/h (1 Bft) O 94 0 min 0,000 mm 0,0 UV-I 0 W/m 8,5 C 13,0 C 9,7 km/h (2 Bft) 100,00 %
13.04.2018 05:44 13,0 C 10,6 C 74 % 1000,2 hPa 0,0 l/m 4,3 km/h (1 Bft) O-SO 105 0 min 0,000 mm 0,0 UV-I 0 W/m 8,5 C 13,0 C 6,4 km/h (2 Bft) 100,00 %
13.04.2018 05:45 13,0 C 10,6 C 74 % 1000,2 hPa 0,0 l/m 3,8 km/h (1 Bft) O-SO 105 0 min 0,000 mm 0,0 UV-I 0 W/m 8,5 C 13,0 C 4,8 km/h (1 Bft) 100,00 %
13.04.2018 05:46 12,9 C 10,6 C 74 % 1000,2 hPa 0,0 l/m 4,8 km/h (1 Bft) O 90 0 min 0,000 mm 0,0 UV-I 0 W/m 8,4 C 12,9 C 6,4 km/h (2 Bft) 100,00 %
13.04.2018 05:47 12,9 C 10,6 C 74 % 1000,2 hPa 0,0 l/m 6,3 km/h (2 Bft) O 90 0 min 0,000 mm 0,0 UV-I 0 W/m 8,4 C 12,9 C 9,7 km/h (2 Bft) 100,00 %
13.04.2018 05:48 12,8 C 10,6 C 74 % 1000,3 hPa 0,0 l/m 6,2 km/h (2 Bft) O 97 0 min 0,000 mm 0,0 UV-I 0 W/m 8,3 C 12,8 C 11,3 km/h (2 Bft) 100,00 %
13.04.2018 05:49 12,8 C 10,6 C 75 % 1000,3 hPa 0,0 l/m 9,3 km/h (2 Bft) O 93 0 min 0,000 mm 0,0 UV-I 0 W/m 8,5 C 11,1 C 12,9 km/h (3 Bft) 96,15 %
13.04.2018 05:50 12,8 C 10,6 C 75 % 1000,2 hPa 0,0 l/m 7,9 km/h (2 Bft) O 90 0 min 0,000 mm 0,0 UV-I 0 W/m 8,5 C 11,9 C 11,3 km/h (2 Bft) 100,00 %
13.04.2018 05:51 12,8 C 10,6 C 75 % 1000,2 hPa 0,0 l/m 6,8 km/h (2 Bft) O 82 0 min 0,000 mm 0,0 UV-I 0 W/m 8,5 C 12,6 C 8,0 km/h (2 Bft) 100,00 %
13.04.2018 05:52 12,7 C 10,6 C 75 % 1000,3 hPa 0,0 l/m 5,5 km/h (1 Bft) O-NO 75 0 min 0,000 mm 0,0 UV-I 0 W/m 8,4 C 12,7 C 6,4 km/h (2 Bft) 100,00 %
13.04.2018 05:53 12,7 C 10,6 C 75 % 1000,2 hPa 0,0 l/m 5,8 km/h (2 Bft) O 82 0 min 0,000 mm 0,0 UV-I 0 W/m 8,4 C 12,7 C 6,4 km/h (2 Bft) 100,00 %
13.04.2018 05:54 12,6 C 10,6 C 75 % 1000,3 hPa 0,0 l/m 6,0 km/h (2 Bft) O 80 0 min 0,000 mm 0,0 UV-I 0 W/m 8,3 C 12,6 C 8,0 km/h (2 Bft) 100,00 %
13.04.2018 05:55 12,6 C 10,6 C 76 % 1000,3 hPa 0,0 l/m 4,8 km/h (1 Bft) O 80 0 min 0,000 mm 0,0 UV-I 0 W/m 8,5 C 12,6 C 6,4 km/h (2 Bft) 100,00 %
13.04.2018 05:56 12,5 C 10,6 C 76 % 1000,3 hPa 0,0 l/m 4,8 km/h (1 Bft) O-NO 71 0 min 0,000 mm 0,0 UV-I 0 W/m 8,4 C 12,5 C 6,4 km/h (2 Bft) 96,30 %
13.04.2018 05:57 12,4 C 10,6 C 76 % 1000,4 hPa 0,0 l/m 5,8 km/h (2 Bft) O 88 0 min 0,000 mm 0,0 UV-I 0 W/m 8,3 C 12,4 C 11,3 km/h (2 Bft) 100,00 %
13.04.2018 05:58 12,4 C 10,6 C 77 % 1000,4 hPa 0,0 l/m 8,1 km/h (2 Bft) O-SO 111 0 min 0,000 mm 0,0 UV-I 0 W/m 8,5 C 11,3 C 9,7 km/h (2 Bft) 100,00 %
13.04.2018 05:59 12,3 C 10,6 C 77 % 1000,4 hPa 0,0 l/m 6,4 km/h (2 Bft) O-SO 115 0 min 0,000 mm 0,0 UV-I 0 W/m 8,4 C 12,3 C 9,7 km/h (2 Bft) 100,00 %
13.04.2018 06:00 12,3 C 10,6 C 77 % 1000,3 hPa 0,0 l/m 7,7 km/h (2 Bft) O-SO 118 0 min 0,025 mm 0,0 UV-I 0 W/m 8,4 C 11,5 C 11,3 km/h (2 Bft) 100,00 %
13.04.2018 06:01 12,4 C 10,6 C 77 % 1000,3 hPa 0,0 l/m 8,8 km/h (2 Bft) O-SO 112 0 min 0,000 mm 0,0 UV-I 0 W/m 8,5 C 10,9 C 11,3 km/h (2 Bft) 100,00 %
13.04.2018 06:02 12,4 C 10,6 C 77 % 1000,3 hPa 0,0 l/m 9,6 km/h (2 Bft) O-SO 115 0 min 0,000 mm 0,0 UV-I 0 W/m 8,5 C 10,5 C 12,9 km/h (3 Bft) 96,55 %
13.04.2018 06:03 12,4 C 10,6 C 77 % 1000,3 hPa 0,0 l/m 5,7 km/h (1 Bft) O 88 0 min 0,000 mm 0,0 UV-I 0 W/m 8,5 C 12,4 C 8,0 km/h (2 Bft) 100,00 %
13.04.2018 06:04 12,4 C 10,6 C 77 % 1000,2 hPa 0,0 l/m 9,5 km/h (2 Bft) O-SO 119 0 min 0,000 mm 0,0 UV-I 0 W/m 8,5 C 10,5 C 12,9 km/h (3 Bft) 100,00 %
13.04.2018 06:05 12,5 C 10,6 C 77 % 1000,2 hPa 0,0 l/m 10,8 km/h (2 Bft) O-SO 118 0 min 0,000 mm 0,0 UV-I 0 W/m 8,6 C 10,0 C 14,5 km/h (3 Bft) 100,00 %
13.04.2018 06:06 12,5 C 10,6 C 76 % 1000,2 hPa 0,0 l/m 10,7 km/h (2 Bft) O 92 0 min 0,000 mm 0,0 UV-I 0 W/m 8,4 C 10,0 C 14,5 km/h (3 Bft) 93,10 %
13.04.2018 06:07 12,5 C 10,6 C 76 % 1000,1 hPa 0,0 l/m 10,7 km/h (2 Bft) O-SO 107 0 min 0,000 mm 0,0 UV-I 0 W/m 8,4 C 10,0 C 17,7 km/h (3 Bft) 100,00 %
13.04.2018 06:08 12,6 C 10,6 C 76 % 1000,2 hPa 0,0 l/m 13,6 km/h (3 Bft) O-SO 113 0 min 0,000 mm 0,0 UV-I 0 W/m 8,5 C 8,8 C 16,1 km/h (3 Bft) 100,00 %
13.04.2018 06:09 12,6 C 10,6 C 76 % 1000,2 hPa 0,0 l/m 11,6 km/h (2 Bft) O-SO 115 0 min 0,000 mm 0,0 UV-I 0 W/m 8,5 C 9,7 C 14,5 km/h (3 Bft) 100,00 %
13.04.2018 06:10 12,6 C 10,6 C 76 % 1000,2 hPa 0,0 l/m 8,5 km/h (2 Bft) O-SO 118 0 min 0,000 mm 0,0 UV-I 0 W/m 8,5 C 11,3 C 11,3 km/h (2 Bft) 90,91 %
13.04.2018 06:11 12,6 C 10,6 C 76 % 1000,2 hPa 0,0 l/m 7,1 km/h (2 Bft) O-SO 120 0 min 0,000 mm 0,0 UV-I 0 W/m 8,5 C 12,2 C 11,3 km/h (2 Bft) 100,00 %
13.04.2018 06:12 12,6 C 10,6 C 76 % 1000,2 hPa 0,0 l/m 7,3 km/h (2 Bft) O 96 0 min 0,000 mm 0,0 UV-I 0 W/m 8,5 C 12,0 C 11,3 km/h (2 Bft) 100,00 %
13.04.2018 06:13 12,6 C 10,6 C 76 % 1000,2 hPa 0,0 l/m 7,2 km/h (2 Bft) O-SO 105 0 min 0,000 mm 0,0 UV-I 3 W/m 8,5 C 12,1 C 11,3 km/h (2 Bft) 100,00 %
13.04.2018 06:14 12,7 C 10,6 C 76 % 1000,2 hPa 0,0 l/m 6,9 km/h (2 Bft) O-SO 105 0 min 0,000 mm 0,0 UV-I 5 W/m 8,6 C 12,4 C 9,7 km/h (2 Bft) 100,00 %
13.04.2018 06:15 12,7 C 10,6 C 76 % 1000,2 hPa 0,0 l/m 4,9 km/h (1 Bft) O-SO 102 0 min 0,000 mm 0,0 UV-I 5 W/m 8,6 C 12,7 C 6,4 km/h (2 Bft) 93,33 %
13.04.2018 06:16 12,7 C 10,6 C 76 % 1000,3 hPa 0,0 l/m 7,7 km/h (2 Bft) O 90 0 min 0,000 mm 0,0 UV-I 5 W/m 8,6 C 11,9 C 11,3 km/h (2 Bft) 100,00 %
13.04.2018 06:17 12,7 C 10,6 C 75 % 1000,3 hPa 0,0 l/m 7,3 km/h (2 Bft) O 82 0 min 0,000 mm 0,0 UV-I 5 W/m 8,4 C 12,1 C 11,3 km/h (2 Bft) 100,00 %
13.04.2018 06:18 12,8 C 10,6 C 75 % 1000,3 hPa 0,0 l/m 9,0 km/h (2 Bft) O 101 0 min 0,000 mm 0,0 UV-I 5 W/m 8,5 C 11,2 C 11,3 km/h (2 Bft) 100,00 %
13.04.2018 06:19 12,8 C 10,6 C 75 % 1000,3 hPa 0,0 l/m 9,7 km/h (2 Bft) O-NO 77 0 min 0,000 mm 0,0 UV-I 5 W/m 8,5 C 10,8 C 12,9 km/h (3 Bft) 100,00 %
13.04.2018 06:20 12,8 C 10,6 C 75 % 1000,3 hPa 0,0 l/m 10,0 km/h (2 Bft) O-NO 71 0 min 0,000 mm 0,0 UV-I 5 W/m 8,5 C 10,7 C 11,3 km/h (2 Bft) 100,00 %
13.04.2018 06:21 12,8 C 10,6 C 75 % 1000,3 hPa 0,0 l/m 12,0 km/h (2 Bft) O-NO 68 0 min 0,000 mm 0,0 UV-I 5 W/m 8,5 C 9,7 C 14,5 km/h (3 Bft) 100,00 %
13.04.2018 06:22 12,8 C 10,6 C 75 % 1000,3 hPa 0,0 l/m 7,6 km/h (2 Bft) O-NO 61 0 min 0,000 mm 0,0 UV-I 5 W/m 8,5 C 12,0 C 9,7 km/h (2 Bft) 100,00 %
13.04.2018 06:23 12,6 C 10,6 C 75 % 1000,3 hPa 0,0 l/m 7,6 km/h (2 Bft) O-NO 65 0 min 0,000 mm 0,0 UV-I 7 W/m 8,3 C 11,8 C 9,7 km/h (2 Bft) 100,00 %
13.04.2018 06:24 12,4 C 10,6 C 76 % 1000,3 hPa 0,0 l/m 8,9 km/h (2 Bft) O-NO 65 0 min 0,000 mm 0,0 UV-I 7 W/m 8,3 C 10,8 C 12,9 km/h (3 Bft) 100,00 %
13.04.2018 06:25 12,3 C 10,6 C 77 % 1000,3 hPa 0,0 l/m 8,2 km/h (2 Bft) O-NO 65 0 min 0,000 mm 0,0 UV-I 7 W/m 8,4 C 11,1 C 11,3 km/h (2 Bft) 100,00 %
13.04.2018 06:26 12,2 C 10,6 C 77 % 1000,3 hPa 0,0 l/m 8,9 km/h (2 Bft) NO 42 0 min 0,000 mm 0,0 UV-I 7 W/m 8,3 C 10,6 C 11,3 km/h (2 Bft) 100,00 %
13.04.2018 06:27 12,2 C 10,6 C 78 % 1000,4 hPa 0,0 l/m 6,2 km/h (2 Bft) O-NO 63 0 min 0,000 mm 0,0 UV-I 9 W/m 8,5 C 12,2 C 8,0 km/h (2 Bft) 96,55 %
13.04.2018 06:28 12,2 C 10,6 C 78 % 1000,4 hPa 0,0 l/m 5,0 km/h (1 Bft) O-NO 74 0 min 0,000 mm 0,0 UV-I 9 W/m 8,5 C 12,2 C 6,4 km/h (2 Bft) 100,00 %
13.04.2018 06:29 12,2 C 10,6 C 78 % 1000,4 hPa 0,0 l/m 5,1 km/h (1 Bft) O-NO 62 1 min 0,000 mm 0,0 UV-I 10 W/m 8,5 C 12,2 C 8,0 km/h (2 Bft) 100,00 %
13.04.2018 06:30 12,2 C 10,6 C 78 % 1000,4 hPa 0,0 l/m 7,1 km/h (2 Bft) O-NO 77 1 min 0,000 mm 0,0 UV-I 11 W/m 8,5 C 11,7 C 9,7 km/h (2 Bft) 100,00 %
13.04.2018 06:31 12,3 C 10,6 C 77 % 1000,4 hPa 0,0 l/m 6,7 km/h (2 Bft) O-NO 78 0 min 0,000 mm 0,0 UV-I 11 W/m 8,4 C 12,1 C 9,7 km/h (2 Bft) 100,00 %
13.04.2018 06:32 12,4 C 10,6 C 77 % 1000,4 hPa 0,0 l/m 6,7 km/h (2 Bft) O-NO 69 0 min 0,000 mm 0,0 UV-I 12 W/m 8,5 C 12,2 C 9,7 km/h (2 Bft) 100,00 %
13.04.2018 06:33 12,4 C 10,6 C 77 % 1000,4 hPa 0,0 l/m 10,5 km/h (2 Bft) O 86 0 min 0,000 mm 0,0 UV-I 12 W/m 8,5 C 10,0 C 16,1 km/h (3 Bft) 100,00 %
13.04.2018 06:34 12,5 C 10,6 C 76 % 1000,4 hPa 0,0 l/m 10,9 km/h (2 Bft) O 97 0 min 0,000 mm 0,0 UV-I 14 W/m 8,4 C 9,9 C 14,5 km/h (3 Bft) 96,55 %
13.04.2018 06:35 12,4 C 10,6 C 76 % 1000,3 hPa 0,0 l/m 11,9 km/h (2 Bft) O 92 0 min 0,000 mm 0,0 UV-I 15 W/m 8,3 C 9,3 C 16,1 km/h (3 Bft) 96,55 %
13.04.2018 06:36 12,4 C 10,6 C 76 % 1000,3 hPa 0,0 l/m 12,1 km/h (2 Bft) SO 125 0 min 0,000 mm 0,0 UV-I 16 W/m 8,3 C 9,2 C 16,1 km/h (3 Bft) 100,00 %
13.04.2018 06:37 12,4 C 10,6 C 76 % 1000,4 hPa 0,0 l/m 11,6 km/h (2 Bft) O 98 0 min 0,000 mm 0,0 UV-I 18 W/m 8,3 C 9,5 C 17,7 km/h (3 Bft) 100,00 %
13.04.2018 06:38 12,4 C 10,6 C 76 % 1000,3 hPa 0,0 l/m 15,8 km/h (3 Bft) O-SO 121 0 min 0,000 mm 0,0 UV-I 19 W/m 8,3 C 7,7 C 19,3 km/h (3 Bft) 100,00 %
13.04.2018 06:39 12,5 C 10,6 C 76 % 1000,4 hPa 0,0 l/m 14,8 km/h (3 Bft) O-SO 119 0 min 0,000 mm 0,0 UV-I 20 W/m 8,4 C 8,2 C 16,1 km/h (3 Bft) 100,00 %
13.04.2018 06:40 12,5 C 10,6 C 76 % 1000,5 hPa 0,0 l/m 12,9 km/h (3 Bft) SO 124 0 min 0,000 mm 0,0 UV-I 21 W/m 8,4 C 9,0 C 16,1 km/h (3 Bft) 100,00 %
13.04.2018 06:41 12,6 C 10,6 C 76 % 1000,5 hPa 0,0 l/m 12,7 km/h (3 Bft) O-SO 115 0 min 0,000 mm 0,0 UV-I 21 W/m 8,5 C 9,2 C 16,1 km/h (3 Bft) 95,83 %
13.04.2018 06:42 12,6 C 10,6 C 75 % 1000,5 hPa 0,0 l/m 12,5 km/h (3 Bft) O-SO 106 0 min 0,000 mm 0,0 UV-I 22 W/m 8,3 C 9,3 C 19,3 km/h (3 Bft) 100,00 %
13.04.2018 06:43 12,6 C 10,6 C 75 % 1000,6 hPa 0,0 l/m 10,5 km/h (2 Bft) O 86 0 min 0,000 mm 0,0 UV-I 25 W/m 8,3 C 10,2 C 14,5 km/h (3 Bft) 100,00 %
13.04.2018 06:44 12,6 C 10,6 C 75 % 1000,6 hPa 0,0 l/m 11,0 km/h (2 Bft) O-SO 105 0 min 0,000 mm 0,0 UV-I 26 W/m 8,3 C 10,0 C 16,1 km/h (3 Bft) 100,00 %
13.04.2018 06:45 12,6 C 10,6 C 75 % 1000,5 hPa 0,0 l/m 12,9 km/h (3 Bft) O 91 0 min 0,000 mm 0,0 UV-I 28 W/m 8,3 C 9,1 C 19,3 km/h (3 Bft) 100,00 %
13.04.2018 06:46 12,7 C 10,6 C 75 % 1000,6 hPa 0,0 l/m 13,9 km/h (3 Bft) SO 128 0 min 0,000 mm 0,0 UV-I 29 W/m 8,4 C 8,8 C 17,7 km/h (3 Bft) 96,15 %
13.04.2018 06:47 12,7 C 10,6 C 75 % 1000,6 hPa 0,0 l/m 11,5 km/h (2 Bft) O-SO 106 0 min 0,000 mm 0,0 UV-I 31 W/m 8,4 C 9,8 C 16,1 km/h (3 Bft) 100,00 %
13.04.2018 06:48 12,8 C 10,6 C 74 % 1000,6 hPa 0,0 l/m 12,9 km/h (3 Bft) O 99 0 min 0,000 mm 0,0 UV-I 33 W/m 8,3 C 9,4 C 16,1 km/h (3 Bft) 100,00 %
13.04.2018 06:49 12,8 C 10,6 C 74 % 1000,6 hPa 0,0 l/m 13,2 km/h (3 Bft) O-SO 110 0 min 0,000 mm 0,0 UV-I 33 W/m 8,3 C 9,2 C 17,7 km/h (3 Bft) 100,00 %
13.04.2018 06:50 12,8 C 10,6 C 74 % 1000,7 hPa 0,0 l/m 14,7 km/h (3 Bft) O-SO 113 0 min 0,000 mm 0,0 UV-I 35 W/m 8,3 C 8,6 C 19,3 km/h (3 Bft) 100,00 %
13.04.2018 06:51 12,8 C 10,6 C 74 % 1000,7 hPa 0,0 l/m 12,2 km/h (2 Bft) O-SO 109 0 min 0,000 mm 0,0 UV-I 38 W/m 8,3 C 9,7 C 19,3 km/h (3 Bft) 100,00 %
13.04.2018 06:53 12,8 C 10,6 C 74 % 1000,7 hPa 0,0 l/m 15,1 km/h (3 Bft) O-SO 113 0 min 0,000 mm 0,0 UV-I 39 W/m 8,3 C 8,5 C 19,3 km/h (3 Bft) 100,00 %
13.04.2018 06:54 12,8 C 10,6 C 74 % 1000,7 hPa 0,0 l/m 9,7 km/h (2 Bft) O-SO 120 0 min 0,000 mm 0,0 UV-I 42 W/m 8,3 C 10,8 C 12,9 km/h (3 Bft) 100,00 %
13.04.2018 06:55 12,9 C 10,6 C 74 % 1000,8 hPa 0,0 l/m 12,9 km/h (3 Bft) SO 126 0 min 0,000 mm 0,0 UV-I 42 W/m 8,4 C 9,5 C 14,5 km/h (3 Bft) 95,65 %
13.04.2018 06:56 12,8 C 10,6 C 74 % 1000,8 hPa 0,0 l/m 12,7 km/h (3 Bft) SO 126 0 min 0,000 mm 0,0 UV-I 44 W/m 8,3 C 9,4 C 17,7 km/h (3 Bft) 100,00 %
13.04.2018 06:57 12,8 C 10,6 C 74 % 1000,8 hPa 0,0 l/m 13,9 km/h (3 Bft) O-SO 122 0 min 0,000 mm 0,0 UV-I 46 W/m 8,3 C 8,9 C 16,1 km/h (3 Bft) 100,00 %
13.04.2018 06:58 12,8 C 10,6 C 74 % 1000,8 hPa 0,0 l/m 13,8 km/h (3 Bft) SO 132 0 min 0,000 mm 0,0 UV-I 47 W/m 8,3 C 9,0 C 17,7 km/h (3 Bft) 100,00 %
13.04.2018 06:59 12,8 C 10,6 C 74 % 1000,8 hPa 0,0 l/m 12,4 km/h (3 Bft) SO 130 0 min 0,000 mm 0,0 UV-I 48 W/m 8,3 C 9,6 C 14,5 km/h (3 Bft) 100,00 %
13.04.2018 07:00 12,8 C 10,6 C 74 % 1000,9 hPa 0,0 l/m 10,2 km/h (2 Bft) O-SO 123 0 min 0,000 mm 0,0 UV-I 50 W/m 8,3 C 10,6 C 12,9 km/h (3 Bft) 100,00 %
13.04.2018 07:01 12,8 C 10,6 C 74 % 1000,8 hPa 0,0 l/m 8,2 km/h (2 Bft) SO 138 0 min 0,051 mm 0,0 UV-I 53 W/m 8,3 C 11,7 C 11,3 km/h (2 Bft) 100,00 %
13.04.2018 07:02 12,7 C 10,6 C 74 % 1000,8 hPa 0,0 l/m 8,4 km/h (2 Bft) SO 141 0 min 0,000 mm 0,0 UV-I 53 W/m 8,2 C 11,5 C 11,3 km/h (2 Bft) 92,59 %
13.04.2018 07:03 12,5 C 10,6 C 75 % 1000,8 hPa 0,0 l/m 9,4 km/h (2 Bft) SO 140 0 min 0,000 mm 0,0 UV-I 54 W/m 8,2 C 10,7 C 11,3 km/h (2 Bft) 93,75 %
13.04.2018 07:04 12,4 C 10,6 C 75 % 1000,9 hPa 0,0 l/m 8,4 km/h (2 Bft) SO 136 0 min 0,000 mm 0,0 UV-I 55 W/m 8,1 C 11,1 C 12,9 km/h (3 Bft) 96,97 %
13.04.2018 07:05 12,3 C 10,6 C 76 % 1000,9 hPa 0,0 l/m 11,8 km/h (2 Bft) O-SO 115 0 min 0,000 mm 0,0 UV-I 57 W/m 8,2 C 9,3 C 14,5 km/h (3 Bft) 96,15 %
13.04.2018 07:06 12,4 C 10,6 C 76 % 1001,0 hPa 0,0 l/m 9,7 km/h (2 Bft) SO 141 0 min 0,000 mm 0,0 UV-I 58 W/m 8,3 C 10,4 C 12,9 km/h (3 Bft) 100,00 %
13.04.2018 07:07 12,4 C 10,6 C 76 % 1001,0 hPa 0,0 l/m 7,8 km/h (2 Bft) SO 136 0 min 0,000 mm 0,0 UV-I 60 W/m 8,3 C 11,5 C 11,3 km/h (2 Bft) 92,31 %
13.04.2018 07:08 12,4 C 10,6 C 76 % 1001,0 hPa 0,0 l/m 9,0 km/h (2 Bft) O-SO 120 0 min 0,000 mm 0,0 UV-I 62 W/m 8,3 C 10,8 C 12,9 km/h (3 Bft) 100,00 %
13.04.2018 07:09 12,4 C 10,6 C 76 % 1001,0 hPa 0,0 l/m 8,7 km/h (2 Bft) SO 128 0 min 0,000 mm 0,0 UV-I 62 W/m 8,3 C 11,0 C 11,3 km/h (2 Bft) 92,86 %
13.04.2018 07:10 12,4 C 10,6 C 76 % 1001,0 hPa 0,0 l/m 9,2 km/h (2 Bft) O-SO 115 0 min 0,000 mm 0,0 UV-I 63 W/m 8,3 C 10,7 C 12,9 km/h (3 Bft) 95,83 %
13.04.2018 07:11 12,4 C 10,6 C 76 % 1001,1 hPa 0,0 l/m 9,7 km/h (2 Bft) O-SO 123 0 min 0,000 mm 0,0 UV-I 64 W/m 8,3 C 10,4 C 12,9 km/h (3 Bft) 95,65 %
13.04.2018 07:12 12,4 C 10,6 C 76 % 1001,2 hPa 0,0 l/m 7,3 km/h (2 Bft) O-SO 116 0 min 0,000 mm 0,0 UV-I 65 W/m 8,3 C 11,8 C 9,7 km/h (2 Bft) 96,30 %
13.04.2018 07:13 12,4 C 10,6 C 76 % 1001,2 hPa 0,0 l/m 7,7 km/h (2 Bft) SO 128 0 min 0,000 mm 0,0 UV-I 67 W/m 8,3 C 11,6 C 12,9 km/h (3 Bft) 91,30 %
13.04.2018 07:14 12,5 C 10,6 C 75 % 1001,2 hPa 0,0 l/m 9,0 km/h (2 Bft) O-SO 118 0 min 0,000 mm 0,0 UV-I 67 W/m 8,2 C 10,9 C 12,9 km/h (3 Bft) 96,30 %
13.04.2018 07:15 12,6 C 10,6 C 75 % 1001,2 hPa 0,0 l/m 9,0 km/h (2 Bft) O-SO 120 0 min 0,000 mm 0,0 UV-I 67 W/m 8,3 C 11,0 C 11,3 km/h (2 Bft) 83,33 %
13.04.2018 07:16 12,7 C 10,6 C 75 % 1001,2 hPa 0,0 l/m 9,7 km/h (2 Bft) O 95 0 min 0,000 mm 0,0 UV-I 68 W/m 8,4 C 10,7 C 12,9 km/h (3 Bft) 96,55 %
13.04.2018 07:17 12,7 C 10,6 C 74 % 1001,2 hPa 0,0 l/m 9,7 km/h (2 Bft) O 94 0 min 0,000 mm 0,0 UV-I 69 W/m 8,2 C 10,7 C 12,9 km/h (3 Bft) 92,59 %
13.04.2018 07:18 12,8 C 10,6 C 74 % 1001,2 hPa 0,0 l/m 11,2 km/h (2 Bft) O 98 0 min 0,000 mm 0,0 UV-I 69 W/m 8,3 C 10,1 C 14,5 km/h (3 Bft) 92,31 %
13.04.2018 07:19 12,8 C 10,6 C 74 % 1001,2 hPa 0,0 l/m 9,5 km/h (2 Bft) O 83 0 min 0,000 mm 0,0 UV-I 70 W/m 8,3 C 10,9 C 12,9 km/h (3 Bft) 100,00 %
13.04.2018 07:20 12,8 C 10,6 C 74 % 1001,2 hPa 0,0 l/m 9,0 km/h (2 Bft) O-NO 74 0 min 0,000 mm 0,0 UV-I 73 W/m 8,3 C 11,2 C 11,3 km/h (2 Bft) 86,67 %
13.04.2018 07:21 12,7 C 10,6 C 74 % 1001,2 hPa 0,0 l/m 7,2 km/h (2 Bft) O-NO 78 0 min 0,000 mm 0,0 UV-I 75 W/m 8,2 C 12,2 C 9,7 km/h (2 Bft) 100,00 %
13.04.2018 07:22 12,7 C 10,6 C 74 % 1001,2 hPa 0,0 l/m 5,8 km/h (2 Bft) O 82 0 min 0,000 mm 0,0 UV-I 76 W/m 8,2 C 12,7 C 8,0 km/h (2 Bft) 82,35 %
13.04.2018 07:23 12,6 C 10,6 C 75 % 1001,3 hPa 0,0 l/m 5,4 km/h (1 Bft) O-NO 76 0 min 0,000 mm 0,0 UV-I 78 W/m 8,3 C 12,6 C 6,4 km/h (2 Bft) 100,00 %
13.04.2018 07:24 12,4 C 10,6 C 76 % 1001,3 hPa 0,0 l/m 3,0 km/h (1 Bft) O-NO 76 0 min 0,000 mm 0,0 UV-I 83 W/m 8,3 C 12,4 C 4,8 km/h (1 Bft) 88,46 %
13.04.2018 07:25 12,3 C 10,6 C 76 % 1001,3 hPa 0,0 l/m 3,4 km/h (1 Bft) O 84 0 min 0,000 mm 0,0 UV-I 86 W/m 8,2 C 12,3 C 4,8 km/h (1 Bft) 95,83 %
13.04.2018 07:26 12,2 C 10,6 C 77 % 1001,3 hPa 0,0 l/m 3,8 km/h (1 Bft) O 84 0 min 0,000 mm 0,0 UV-I 90 W/m 8,3 C 12,2 C 6,4 km/h (2 Bft) 91,30 %
13.04.2018 07:27 12,1 C 10,6 C 78 % 1001,3 hPa 0,0 l/m 4,8 km/h (1 Bft) O 93 0 min 0,000 mm 0,0 UV-I 93 W/m 8,4 C 12,1 C 6,4 km/h (2 Bft) 91,67 %
13.04.2018 07:28 11,9 C 10,6 C 79 % 1001,3 hPa 0,0 l/m 4,0 km/h (1 Bft) O 95 0 min 0,000 mm 0,0 UV-I 99 W/m 8,4 C 11,9 C 4,8 km/h (1 Bft) 100,00 %
13.04.2018 07:29 11,9 C 10,6 C 79 % 1001,3 hPa 0,0 l/m 4,5 km/h (1 Bft) O 95 0 min 0,000 mm 0,0 UV-I 103 W/m 8,4 C 11,9 C 6,4 km/h (2 Bft) 91,67 %
13.04.2018 07:30 12,1 C 10,6 C 79 % 1001,3 hPa 0,0 l/m 4,3 km/h (1 Bft) O 95 1 min 0,000 mm 0,0 UV-I 105 W/m 8,6 C 12,1 C 6,4 km/h (2 Bft) 100,00 %
13.04.2018 07:31 12,1 C 10,6 C 78 % 1001,3 hPa 0,0 l/m 4,8 km/h (1 Bft) O-SO 117 0 min 0,000 mm 0,0 UV-I 102 W/m 8,4 C 12,1 C 6,4 km/h (2 Bft) 83,33 %
13.04.2018 07:32 12,2 C 10,6 C 78 % 1001,3 hPa 0,0 l/m 4,6 km/h (1 Bft) O-SO 118 0 min 0,000 mm 0,0 UV-I 104 W/m 8,5 C 12,2 C 6,4 km/h (2 Bft) 96,43 %
13.04.2018 07:33 12,2 C 10,6 C 78 % 1001,4 hPa 0,0 l/m 4,8 km/h (1 Bft) SO 130 0 min 0,000 mm 0,0 UV-I 106 W/m 8,5 C 12,2 C 6,4 km/h (2 Bft) 92,59 %
13.04.2018 07:34 12,3 C 10,6 C 77 % 1001,4 hPa 0,0 l/m 6,2 km/h (2 Bft) SO 141 0 min 0,000 mm 0,0 UV-I 110 W/m 8,4 C 12,3 C 8,0 km/h (2 Bft) 93,10 %
13.04.2018 07:35 12,4 C 10,6 C 77 % 1001,4 hPa 0,0 l/m 7,1 km/h (2 Bft) SO 128 1 min 0,000 mm 0,0 UV-I 116 W/m 8,5 C 11,9 C 11,3 km/h (2 Bft) 100,00 %
13.04.2018 07:36 12,5 C 10,6 C 77 % 1001,4 hPa 0,0 l/m 6,0 km/h (2 Bft) SO 138 1 min 0,000 mm 0,0 UV-I 127 W/m 8,6 C 12,5 C 8,0 km/h (2 Bft) 86,96 %
13.04.2018 07:37 12,6 C 10,6 C 77 % 1001,4 hPa 0,0 l/m 6,1 km/h (2 Bft) SO 145 1 min 0,000 mm 0,0 UV-I 129 W/m 8,7 C 12,6 C 8,0 km/h (2 Bft) 100,00 %
13.04.2018 07:38 12,6 C 10,6 C 77 % 1001,4 hPa 0,0 l/m 5,6 km/h (1 Bft) SO 142 1 min 0,000 mm 0,0 UV-I 127 W/m 8,7 C 12,6 C 8,0 km/h (2 Bft) 92,59 %
13.04.2018 07:39 12,6 C 10,6 C 77 % 1001,5 hPa 0,0 l/m 6,2 km/h (2 Bft) SO 141 1 min 0,000 mm 0,0 UV-I 147 W/m 8,7 C 12,6 C 8,0 km/h (2 Bft) 100,00 %
13.04.2018 07:40 12,6 C 10,6 C 77 % 1001,5 hPa 0,0 l/m 6,2 km/h (2 Bft) SO 146 1 min 0,000 mm 0,0 UV-I 144 W/m 8,7 C 12,6 C 9,7 km/h (2 Bft) 88,89 %
13.04.2018 07:41 12,6 C 10,6 C 77 % 1001,5 hPa 0,0 l/m 7,6 km/h (2 Bft) SO 136 1 min 0,000 mm 0,0 UV-I 129 W/m 8,7 C 11,8 C 11,3 km/h (2 Bft) 100,00 %
13.04.2018 07:42 12,7 C 10,6 C 76 % 1001,5 hPa 0,0 l/m 8,0 km/h (2 Bft) SO 141 0 min 0,000 mm 0,0 UV-I 123 W/m 8,6 C 11,7 C 11,3 km/h (2 Bft) 95,83 %
13.04.2018 07:43 12,8 C 10,6 C 76 % 1001,6 hPa 0,0 l/m 7,2 km/h (2 Bft) SO 140 0 min 0,000 mm 0,0 UV-I 118 W/m 8,7 C 12,3 C 11,3 km/h (2 Bft) 100,00 %
13.04.2018 07:44 12,8 C 10,6 C 76 % 1001,6 hPa 0,0 l/m 6,3 km/h (2 Bft) SO 145 0 min 0,000 mm 0,0 UV-I 117 W/m 8,7 C 12,8 C 11,3 km/h (2 Bft) 95,83 %
13.04.2018 07:45 12,8 C 10,6 C 76 % 1001,6 hPa 0,0 l/m 3,9 km/h (1 Bft) SO 144 0 min 0,000 mm 0,0 UV-I 115 W/m 8,7 C 12,8 C 4,8 km/h (1 Bft) 100,00 %
13.04.2018 07:46 12,8 C 10,6 C 75 % 1001,6 hPa 0,0 l/m 7,1 km/h (2 Bft) SO 138 0 min 0,000 mm 0,0 UV-I 114 W/m 8,5 C 12,4 C 8,0 km/h (2 Bft) 92,59 %
13.04.2018 07:47 12,9 C 10,6 C 75 % 1001,7 hPa 0,0 l/m 6,7 km/h (2 Bft) SO 137 0 min 0,000 mm 0,0 UV-I 114 W/m 8,6 C 12,7 C 8,0 km/h (2 Bft) 91,30 %
13.04.2018 07:48 12,9 C 10,6 C 76 % 1001,7 hPa 0,0 l/m 7,5 km/h (2 Bft) SO 142 0 min 0,000 mm 0,0 UV-I 132 W/m 8,8 C 12,2 C 8,0 km/h (2 Bft) 100,00 %
13.04.2018 07:49 12,9 C 10,6 C 76 % 1001,7 hPa 0,0 l/m 6,8 km/h (2 Bft) SO 146 1 min 0,000 mm 0,0 UV-I 168 W/m 8,8 C 12,7 C 8,0 km/h (2 Bft) 100,00 %
13.04.2018 07:50 12,9 C 10,6 C 75 % 1001,7 hPa 0,0 l/m 6,4 km/h (2 Bft) SO 142 1 min 0,000 mm 0,0 UV-I 172 W/m 8,6 C 12,9 C 8,0 km/h (2 Bft) 96,55 %
13.04.2018 07:51 13,0 C 10,6 C 75 % 1001,7 hPa 0,0 l/m 5,2 km/h (1 Bft) SO 142 1 min 0,000 mm 0,0 UV-I 232 W/m 8,7 C 13,0 C 6,4 km/h (2 Bft) 96,30 %
13.04.2018 07:52 13,1 C 10,6 C 75 % 1001,7 hPa 0,0 l/m 5,5 km/h (1 Bft) SO 129 1 min 0,000 mm 0,0 UV-I 272 W/m 8,8 C 13,1 C 8,0 km/h (2 Bft) 100,00 %
13.04.2018 07:53 13,2 C 10,6 C 74 % 1001,7 hPa 0,0 l/m 3,5 km/h (1 Bft) SO 134 1 min 0,000 mm 0,0 UV-I 278 W/m 8,7 C 13,2 C 4,8 km/h (1 Bft) 96,15 %
13.04.2018 07:54 13,3 C 10,6 C 75 % 1001,7 hPa 0,0 l/m 3,7 km/h (1 Bft) SO 141 1 min 0,000 mm 0,0 UV-I 281 W/m 9,0 C 13,3 C 4,8 km/h (1 Bft) 91,67 %
13.04.2018 07:55 13,4 C 10,6 C 75 % 1001,7 hPa 0,0 l/m 3,3 km/h (1 Bft) SO 142 1 min 0,000 mm 0,0 UV-I 281 W/m 9,1 C 13,4 C 4,8 km/h (1 Bft) 100,00 %
13.04.2018 07:56 13,6 C 10,6 C 74 % 1001,7 hPa 0,0 l/m 4,2 km/h (1 Bft) SO 141 1 min 0,000 mm 0,0 UV-I 287 W/m 9,1 C 13,6 C 6,4 km/h (2 Bft) 100,00 %
13.04.2018 07:57 13,7 C 10,6 C 74 % 1001,7 hPa 0,0 l/m 6,4 km/h (2 Bft) SO 142 1 min 0,000 mm 0,0 UV-I 278 W/m 9,2 C 13,7 C 8,0 km/h (2 Bft) 95,83 %
13.04.2018 07:58 13,9 C 10,6 C 72 % 1001,8 hPa 0,0 l/m 8,8 km/h (2 Bft) SO 135 1 min 0,000 mm 0,0 UV-I 241 W/m 8,9 C 12,5 C 12,9 km/h (3 Bft) 95,65 %
13.04.2018 07:59 13,9 C 10,6 C 70 % 1001,8 hPa 0,0 l/m 10,0 km/h (2 Bft) O-SO 120 1 min 0,000 mm 0,0 UV-I 251 W/m 8,5 C 11,9 C 12,9 km/h (3 Bft) 100,00 %
13.04.2018 08:00 14,1 C 10,6 C 70 % 1001,8 hPa 0,0 l/m 8,0 km/h (2 Bft) SO 127 1 min 0,076 mm 0,0 UV-I 273 W/m 8,7 C 13,2 C 11,3 km/h (2 Bft) 95,65 %
13.04.2018 08:01 14,2 C 10,6 C 71 % 1001,8 hPa 0,0 l/m 7,6 km/h (2 Bft) SO 144 1 min 0,000 mm 0,0 UV-I 297 W/m 9,0 C 13,5 C 11,3 km/h (2 Bft) 91,67 %
13.04.2018 08:02 14,2 C 10,6 C 69 % 1001,8 hPa 0,0 l/m 5,1 km/h (1 Bft) SO 143 1 min 0,000 mm 0,0 UV-I 299 W/m 8,6 C 14,2 C 6,4 km/h (2 Bft) 96,55 %
13.04.2018 08:03 14,3 C 10,6 C 69 % 1001,8 hPa 0,0 l/m 3,2 km/h (1 Bft) SO 143 1 min 0,000 mm 0,0 UV-I 278 W/m 8,7 C 14,3 C 4,8 km/h (1 Bft) 100,00 %
13.04.2018 08:04 14,4 C 10,6 C 69 % 1001,8 hPa 0,0 l/m 4,6 km/h (1 Bft) O-SO 120 1 min 0,000 mm 0,0 UV-I 252 W/m 8,8 C 14,4 C 6,4 km/h (2 Bft) 92,86 %
13.04.2018 08:05 14,4 C 10,6 C 68 % 1001,8 hPa 0,0 l/m 6,0 km/h (2 Bft) O-SO 106 1 min 0,000 mm 0,0 UV-I 232 W/m 8,6 C 14,4 C 9,7 km/h (2 Bft) 100,00 %
13.04.2018 08:06 14,4 C 10,6 C 67 % 1001,8 hPa 0,0 l/m 3,7 km/h (1 Bft) O-SO 105 1 min 0,000 mm 0,0 UV-I 273 W/m 8,4 C 14,4 C 6,4 km/h (2 Bft) 86,96 %
13.04.2018 08:07 14,4 C 10,6 C 68 % 1001,8 hPa 0,0 l/m 5,3 km/h (1 Bft) O-SO 105 1 min 0,000 mm 0,0 UV-I 327 W/m 8,6 C 14,4 C 6,4 km/h (2 Bft) 100,00 %
13.04.2018 08:08 14,4 C 10,6 C 70 % 1001,8 hPa 0,0 l/m 4,5 km/h (1 Bft) O 96 1 min 0,000 mm 0,0 UV-I 280 W/m 9,0 C 14,4 C 6,4 km/h (2 Bft) 96,30 %
13.04.2018 08:09 14,3 C 10,6 C 72 % 1001,7 hPa 0,0 l/m 4,6 km/h (1 Bft) O 93 1 min 0,000 mm 0,0 UV-I 173 W/m 9,3 C 14,3 C 6,4 km/h (2 Bft) 97,14 %
13.04.2018 08:10 14,2 C 10,6 C 72 % 1001,7 hPa 0,0 l/m 6,6 km/h (2 Bft) O-NO 76 0 min 0,000 mm 0,0 UV-I 138 W/m 9,2 C 14,1 C 9,7 km/h (2 Bft) 100,00 %
13.04.2018 08:11 14,1 C 10,6 C 72 % 1001,8 hPa 0,0 l/m 5,2 km/h (1 Bft) O 90 0 min 0,000 mm 0,0 UV-I 129 W/m 9,1 C 14,1 C 6,4 km/h (2 Bft) 100,00 %
13.04.2018 08:12 13,9 C 10,6 C 73 % 1001,8 hPa 0,0 l/m 5,3 km/h (1 Bft) O 86 0 min 0,000 mm 0,0 UV-I 126 W/m 9,1 C 13,9 C 8,0 km/h (2 Bft) 100,00 %
13.04.2018 08:13 13,9 C 10,6 C 72 % 1001,8 hPa 0,0 l/m 4,6 km/h (1 Bft) O 86 0 min 0,000 mm 0,0 UV-I 157 W/m 8,9 C 13,9 C 6,4 km/h (2 Bft) 95,83 %
13.04.2018 08:14 13,9 C 10,6 C 71 % 1001,8 hPa 0,0 l/m 3,8 km/h (1 Bft) O 86 1 min 0,000 mm 0,0 UV-I 198 W/m 8,7 C 13,9 C 4,8 km/h (1 Bft) 100,00 %
13.04.2018 08:15 13,9 C 10,6 C 72 % 1001,8 hPa 0,0 l/m 1,7 km/h (1 Bft) O 86 0 min 0,000 mm 0,0 UV-I 154 W/m 8,9 C 13,9 C 3,2 km/h (1 Bft) 100,00 %
13.04.2018 08:16 13,9 C 10,6 C 72 % 1001,9 hPa 0,0 l/m 2,9 km/h (1 Bft) O 86 0 min 0,000 mm 0,0 UV-I 153 W/m 8,9 C 13,9 C 4,8 km/h (1 Bft) 100,00 %
13.04.2018 08:17 14,1 C 10,6 C 73 % 1001,9 hPa 0,0 l/m 3,9 km/h (1 Bft) O 86 0 min 0,000 mm 0,0 UV-I 127 W/m 9,3 C 14,1 C 4,8 km/h (1 Bft) 100,00 %
13.04.2018 08:18 14,1 C 10,6 C 73 % 1001,9 hPa 0,0 l/m 4,2 km/h (1 Bft) O 86 0 min 0,000 mm 0,0 UV-I 131 W/m 9,3 C 14,1 C 4,8 km/h (1 Bft) 100,00 %
13.04.2018 08:19 14,1 C 10,6 C 73 % 1001,9 hPa 0,0 l/m 3,6 km/h (1 Bft) O 86 0 min 0,000 mm 0,0 UV-I 130 W/m 9,3 C 14,1 C 4,8 km/h (1 Bft) 100,00 %
13.04.2018 08:20 14,1 C 10,6 C 73 % 1001,9 hPa 0,0 l/m 3,4 km/h (1 Bft) O 86 0 min 0,000 mm 0,0 UV-I 162 W/m 9,3 C 14,1 C 4,8 km/h (1 Bft) 96,30 %
13.04.2018 08:21 14,1 C 10,6 C 74 % 1001,9 hPa 0,0 l/m 3,0 km/h (1 Bft) O 86 1 min 0,000 mm 0,0 UV-I 205 W/m 9,5 C 14,1 C 4,8 km/h (1 Bft) 100,00 %
13.04.2018 08:22 14,1 C 10,6 C 74 % 1001,9 hPa 0,0 l/m 3,4 km/h (1 Bft) O 86 1 min 0,000 mm 0,3 UV-I 247 W/m 9,5 C 14,1 C 4,8 km/h (1 Bft) 100,00 %
13.04.2018 08:23 14,1 C 10,6 C 74 % 1001,9 hPa 0,0 l/m 3,7 km/h (1 Bft) O 86 1 min 0,000 mm 0,5 UV-I 253 W/m 9,5 C 14,1 C 4,8 km/h (1 Bft) 100,00 %
13.04.2018 08:24 14,2 C 10,6 C 74 % 1001,9 hPa 0,0 l/m 3,5 km/h (1 Bft) O 86 1 min 0,000 mm 0,5 UV-I 306 W/m 9,6 C 14,2 C 4,8 km/h (1 Bft) 100,00 %
13.04.2018 08:25 14,3 C 10,6 C 73 % 1001,9 hPa 0,0 l/m 3,8 km/h (1 Bft) O 86 1 min 0,000 mm 0,5 UV-I 234 W/m 9,5 C 14,3 C 4,8 km/h (1 Bft) 100,00 %
13.04.2018 08:26 14,3 C 10,6 C 73 % 1001,9 hPa 0,0 l/m 4,0 km/h (1 Bft) O 86 1 min 0,000 mm 0,5 UV-I 195 W/m 9,5 C 14,3 C 4,8 km/h (1 Bft) 95,83 %
13.04.2018 08:27 14,3 C 10,6 C 72 % 1001,9 hPa 0,0 l/m 3,8 km/h (1 Bft) O 86 1 min 0,000 mm 0,5 UV-I 220 W/m 9,3 C 14,3 C 4,8 km/h (1 Bft) 100,00 %
13.04.2018 08:28 14,3 C 10,6 C 72 % 1001,9 hPa 0,0 l/m 3,8 km/h (1 Bft) O 86 1 min 0,000 mm 0,6 UV-I 307 W/m 9,3 C 14,3 C 4,8 km/h (1 Bft) 100,00 %
13.04.2018 08:29 14,4 C 10,6 C 72 % 1002,0 hPa 0,0 l/m 2,5 km/h (1 Bft) O 86 1 min 0,000 mm 0,6 UV-I 334 W/m 9,4 C 14,4 C 3,2 km/h (1 Bft) 100,00 %
13.04.2018 08:30 14,4 C 10,6 C 71 % 1002,0 hPa 0,0 l/m 1,9 km/h (1 Bft) O 86 1 min 0,000 mm 0,6 UV-I 334 W/m 9,2 C 14,4 C 3,2 km/h (1 Bft) 96,30 %
13.04.2018 08:31 14,5 C 10,6 C 71 % 1002,0 hPa 0,0 l/m 2,2 km/h (1 Bft) O 86 1 min 0,000 mm 0,6 UV-I 334 W/m 9,3 C 14,5 C 3,2 km/h (1 Bft) 100,00 %
13.04.2018 08:32 14,6 C 10,6 C 71 % 1002,0 hPa 0,0 l/m 3,8 km/h (1 Bft) O 86 1 min 0,000 mm 0,6 UV-I 335 W/m 9,4 C 14,6 C 4,8 km/h (1 Bft) 100,00 %
13.04.2018 08:33 14,7 C 10,6 C 71 % 1002,0 hPa 0,0 l/m 2,7 km/h (1 Bft) O 86 1 min 0,000 mm 0,6 UV-I 337 W/m 9,5 C 14,7 C 3,2 km/h (1 Bft) 100,00 %
13.04.2018 08:34 14,7 C 10,6 C 71 % 1002,0 hPa 0,0 l/m 3,0 km/h (1 Bft) O 86 1 min 0,000 mm 0,6 UV-I 339 W/m 9,5 C 14,7 C 4,8 km/h (1 Bft) 100,00 %
13.04.2018 08:35 14,8 C 10,6 C 69 % 1002,0 hPa 0,0 l/m 2,2 km/h (1 Bft) O 86 1 min 0,000 mm 0,6 UV-I 339 W/m 9,2 C 14,8 C 3,2 km/h (1 Bft) 100,00 %
13.04.2018 08:36 14,8 C 10,6 C 69 % 1002,0 hPa 0,0 l/m 0,8 km/h (0 Bft) O 86 1 min 0,000 mm 0,6 UV-I 341 W/m 9,2 C 14,8 C 1,6 km/h (1 Bft) 100,00 %
13.04.2018 08:37 14,9 C 10,6 C 70 % 1002,0 hPa 0,0 l/m 3,2 km/h (1 Bft) O 86 1 min 0,000 mm 0,6 UV-I 344 W/m 9,5 C 14,9 C 4,8 km/h (1 Bft) 100,00 %
13.04.2018 08:38 14,9 C 10,6 C 68 % 1002,1 hPa 0,0 l/m 2,7 km/h (1 Bft) O 86 1 min 0,000 mm 0,7 UV-I 346 W/m 9,0 C 14,9 C 3,2 km/h (1 Bft) 100,00 %
13.04.2018 08:39 14,9 C 10,6 C 70 % 1002,1 hPa 0,0 l/m 2,1 km/h (1 Bft) O 86 1 min 0,000 mm 0,7 UV-I 349 W/m 9,5 C 14,9 C 3,2 km/h (1 Bft) 100,00 %
13.04.2018 08:40 14,9 C 10,6 C 71 % 1002,1 hPa 0,0 l/m 1,7 km/h (1 Bft) O 86 1 min 0,000 mm 0,7 UV-I 352 W/m 9,7 C 14,9 C 3,2 km/h (1 Bft) 100,00 %
13.04.2018 08:41 14,9 C 10,6 C 70 % 1002,1 hPa 0,0 l/m 1,4 km/h (1 Bft) O 86 1 min 0,000 mm 0,7 UV-I 353 W/m 9,5 C 14,9 C 3,2 km/h (1 Bft) 100,00 %
13.04.2018 08:42 14,9 C 10,6 C 69 % 1002,1 hPa 0,0 l/m 1,7 km/h (1 Bft) O 86 1 min 0,000 mm 0,7 UV-I 356 W/m 9,3 C 14,9 C 3,2 km/h (1 Bft) 95,65 %
13.04.2018 08:43 14,9 C 10,6 C 70 % 1002,1 hPa 0,0 l/m 2,5 km/h (1 Bft) O 86 1 min 0,000 mm 0,7 UV-I 360 W/m 9,5 C 14,9 C 3,2 km/h (1 Bft) 95,83 %
13.04.2018 08:44 15,0 C 10,6 C 70 % 1002,1 hPa 0,0 l/m 2,5 km/h (1 Bft) O 86 1 min 0,000 mm 0,7 UV-I 363 W/m 9,6 C 15,0 C 3,2 km/h (1 Bft) 100,00 %
13.04.2018 08:45 15,1 C 10,6 C 69 % 1002,1 hPa 0,0 l/m 2,0 km/h (1 Bft) O 86 1 min 0,000 mm 0,7 UV-I 365 W/m 9,5 C 15,1 C 3,2 km/h (1 Bft) 100,00 %
13.04.2018 08:46 15,2 C 10,6 C 70 % 1002,1 hPa 0,0 l/m 2,3 km/h (1 Bft) O 86 1 min 0,000 mm 0,8 UV-I 368 W/m 9,8 C 15,2 C 3,2 km/h (1 Bft) 95,65 %
13.04.2018 08:47 15,3 C 10,6 C 69 % 1002,2 hPa 0,0 l/m 0,9 km/h (0 Bft) O 86 1 min 0,000 mm 0,8 UV-I 371 W/m 9,6 C 15,3 C 1,6 km/h (1 Bft) 100,00 %
13.04.2018 08:48 15,3 C 10,6 C 68 % 1002,1 hPa 0,0 l/m 1,3 km/h (1 Bft) O 86 1 min 0,000 mm 0,8 UV-I 374 W/m 9,4 C 15,3 C 3,2 km/h (1 Bft) 100,00 %
13.04.2018 08:49 15,3 C 10,6 C 69 % 1002,2 hPa 0,0 l/m 3,4 km/h (1 Bft) O 86 1 min 0,000 mm 0,8 UV-I 377 W/m 9,6 C 15,3 C 4,8 km/h (1 Bft) 100,00 %
13.04.2018 08:50 15,4 C 10,6 C 69 % 1002,2 hPa 0,0 l/m 4,1 km/h (1 Bft) O 86 1 min 0,000 mm 0,8 UV-I 379 W/m 9,7 C 15,4 C 4,8 km/h (1 Bft) 100,00 %
13.04.2018 08:51 15,6 C 10,6 C 68 % 1002,1 hPa 0,0 l/m 3,1 km/h (1 Bft) O 86 1 min 0,000 mm 0,8 UV-I 381 W/m 9,7 C 15,6 C 4,8 km/h (1 Bft) 95,83 %
13.04.2018 08:52 15,7 C 10,6 C 68 % 1002,2 hPa 0,0 l/m 1,5 km/h (1 Bft) O 86 1 min 0,000 mm 0,8 UV-I 384 W/m 9,8 C 15,7 C 3,2 km/h (1 Bft) 100,00 %
13.04.2018 08:53 15,7 C 10,6 C 68 % 1002,2 hPa 0,0 l/m 0,4 km/h (0 Bft) O 86 1 min 0,000 mm 0,8 UV-I 387 W/m 9,8 C 15,7 C 1,6 km/h (1 Bft) 100,00 %
13.04.2018 08:54 15,7 C 10,6 C 68 % 1002,3 hPa 0,0 l/m 2,5 km/h (1 Bft) O 86 1 min 0,000 mm 0,9 UV-I 389 W/m 9,8 C 15,7 C 3,2 km/h (1 Bft) 100,00 %
13.04.2018 08:55 15,6 C 10,6 C 66 % 1002,3 hPa 0,0 l/m 1,8 km/h (1 Bft) O 86 1 min 0,000 mm 0,9 UV-I 392 W/m 9,3 C 15,6 C 3,2 km/h (1 Bft) 100,00 %
13.04.2018 08:56 15,7 C 10,6 C 66 % 1002,3 hPa 0,0 l/m 1,5 km/h (1 Bft) O 86 1 min 0,000 mm 0,9 UV-I 394 W/m 9,4 C 15,7 C 3,2 km/h (1 Bft) 100,00 %
13.04.2018 08:57 15,8 C 10,6 C 66 % 1002,3 hPa 0,0 l/m 1,9 km/h (1 Bft) O 86 1 min 0,000 mm 0,9 UV-I 396 W/m 9,5 C 15,8 C 3,2 km/h (1 Bft) 100,00 %
13.04.2018 08:58 15,9 C 10,6 C 66 % 1002,3 hPa 0,0 l/m 2,9 km/h (1 Bft) O 86 1 min 0,000 mm 0,9 UV-I 399 W/m 9,6 C 15,9 C 4,8 km/h (1 Bft) 100,00 %
13.04.2018 08:59 16,1 C 10,6 C 67 % 1002,3 hPa 0,0 l/m 3,9 km/h (1 Bft) O 86 1 min 0,000 mm 0,9 UV-I 401 W/m 10,0 C 16,1 C 4,8 km/h (1 Bft) 100,00 %
13.04.2018 09:00 16,2 C 10,6 C 66 % 1002,3 hPa 0,0 l/m 3,8 km/h (1 Bft) O 86 1 min 0,178 mm 0,9 UV-I 405 W/m 9,8 C 16,2 C 4,8 km/h (1 Bft) 100,00 %
13.04.2018 09:01 16,2 C 10,6 C 65 % 1002,3 hPa 0,0 l/m 3,2 km/h (1 Bft) N 11 1 min 0,000 mm 0,9 UV-I 407 W/m 9,6 C 16,2 C 4,8 km/h (1 Bft) 95,65 %
13.04.2018 09:02 16,3 C 10,6 C 65 % 1002,4 hPa 0,0 l/m 0,9 km/h (0 Bft) N 11 1 min 0,000 mm 0,9 UV-I 409 W/m 9,7 C 16,3 C 3,2 km/h (1 Bft) 100,00 %
13.04.2018 09:03 16,3 C 10,6 C 65 % 1002,4 hPa 0,0 l/m 1,6 km/h (1 Bft) N 11 1 min 0,000 mm 1,0 UV-I 411 W/m 9,7 C 16,3 C 3,2 km/h (1 Bft) 95,83 %
13.04.2018 09:04 16,2 C 10,6 C 65 % 1002,4 hPa 0,0 l/m 0,5 km/h (0 Bft) N 11 1 min 0,000 mm 1,0 UV-I 415 W/m 9,6 C 16,2 C 1,6 km/h (1 Bft) 96,55 %
13.04.2018 09:05 16,2 C 10,6 C 64 % 1002,3 hPa 0,0 l/m 1,2 km/h (1 Bft) N 11 1 min 0,000 mm 1,0 UV-I 415 W/m 9,4 C 16,2 C 1,6 km/h (1 Bft) 96,15 %
13.04.2018 09:06 16,3 C 10,6 C 64 % 1002,4 hPa 0,0 l/m 1,0 km/h (0 Bft) N 11 1 min 0,000 mm 1,0 UV-I 418 W/m 9,5 C 16,3 C 1,6 km/h (1 Bft) 91,67 %
13.04.2018 09:07 16,2 C 10,6 C 64 % 1002,3 hPa 0,0 l/m 2,8 km/h (1 Bft) N 11 1 min 0,000 mm 1,0 UV-I 421 W/m 9,4 C 16,2 C 3,2 km/h (1 Bft) 100,00 %
13.04.2018 09:08 16,2 C 10,6 C 65 % 1002,3 hPa 0,0 l/m 2,4 km/h (1 Bft) N 11 1 min 0,000 mm 1,0 UV-I 424 W/m 9,6 C 16,2 C 3,2 km/h (1 Bft) 93,10 %
13.04.2018 09:09 16,3 C 10,6 C 65 % 1002,4 hPa 0,0 l/m 2,3 km/h (1 Bft) N 11 1 min 0,000 mm 1,0 UV-I 426 W/m 9,7 C 16,3 C 3,2 km/h (1 Bft) 95,65 %
13.04.2018 09:10 16,3 C 10,6 C 64 % 1002,4 hPa 0,0 l/m 3,0 km/h (1 Bft) N 5 1 min 0,000 mm 1,0 UV-I 427 W/m 9,5 C 16,3 C 4,8 km/h (1 Bft) 87,50 %
13.04.2018 09:11 16,4 C 10,6 C 64 % 1002,4 hPa 0,0 l/m 2,8 km/h (1 Bft) N-NO 15 1 min 0,000 mm 1,1 UV-I 431 W/m 9,6 C 16,4 C 4,8 km/h (1 Bft) 98,08 %
13.04.2018 09:12 16,5 C 10,6 C 66 % 1002,4 hPa 0,0 l/m 4,0 km/h (1 Bft) N-NO 15 1 min 0,000 mm 1,1 UV-I 433 W/m 10,1 C 16,5 C 6,4 km/h (2 Bft) 97,37 %
13.04.2018 09:13 16,7 C 10,6 C 65 % 1002,4 hPa 0,0 l/m 4,4 km/h (1 Bft) N 11 1 min 0,000 mm 1,1 UV-I 436 W/m 10,1 C 16,7 C 6,4 km/h (2 Bft) 95,83 %
13.04.2018 09:14 16,8 C 10,6 C 63 % 1002,4 hPa 0,0 l/m 4,2 km/h (1 Bft) N-NO 14 1 min 0,000 mm 1,1 UV-I 439 W/m 9,7 C 16,8 C 4,8 km/h (1 Bft) 100,00 %
13.04.2018 09:15 16,8 C 10,6 C 63 % 1002,4 hPa 0,0 l/m 1,9 km/h (1 Bft) N-NO 13 1 min 0,000 mm 1,1 UV-I 442 W/m 9,7 C 16,8 C 3,2 km/h (1 Bft) 95,83 %
13.04.2018 09:16 16,9 C 10,6 C 63 % 1002,4 hPa 0,0 l/m 2,3 km/h (1 Bft) N-NO 13 1 min 0,000 mm 1,1 UV-I 445 W/m 9,8 C 16,9 C 3,2 km/h (1 Bft) 100,00 %
13.04.2018 09:17 17,0 C 10,6 C 62 % 1002,5 hPa 0,0 l/m 2,2 km/h (1 Bft) N-NO 13 1 min 0,000 mm 1,1 UV-I 448 W/m 9,7 C 17,0 C 4,8 km/h (1 Bft) 96,30 %
13.04.2018 09:18 17,1 C 10,6 C 62 % 1002,5 hPa 0,0 l/m 2,8 km/h (1 Bft) N-NO 13 1 min 0,000 mm 1,1 UV-I 451 W/m 9,8 C 17,1 C 4,8 km/h (1 Bft) 100,00 %
13.04.2018 09:19 17,2 C 10,6 C 62 % 1002,5 hPa 0,0 l/m 0,5 km/h (0 Bft) N-NO 13 1 min 0,000 mm 1,2 UV-I 454 W/m 9,9 C 17,2 C 1,6 km/h (1 Bft) 95,83 %
13.04.2018 09:20 17,2 C 10,6 C 61 % 1002,5 hPa 0,0 l/m 3,5 km/h (1 Bft) N-NW 346 1 min 0,000 mm 1,2 UV-I 456 W/m 9,6 C 17,2 C 4,8 km/h (1 Bft) 95,65 %
13.04.2018 09:21 17,2 C 10,6 C 61 % 1002,5 hPa 0,0 l/m 3,0 km/h (1 Bft) N-NW 346 1 min 0,000 mm 1,2 UV-I 459 W/m 9,6 C 17,2 C 4,8 km/h (1 Bft) 100,00 %
13.04.2018 09:22 17,2 C 10,6 C 61 % 1002,5 hPa 0,0 l/m 3,1 km/h (1 Bft) N-NW 346 1 min 0,000 mm 1,2 UV-I 461 W/m 9,6 C 17,2 C 4,8 km/h (1 Bft) 95,65 %
13.04.2018 09:23 17,2 C 10,6 C 60 % 1002,5 hPa 0,0 l/m 1,3 km/h (1 Bft) N-NW 346 1 min 0,000 mm 1,2 UV-I 466 W/m 9,4 C 17,2 C 3,2 km/h (1 Bft) 100,00 %
13.04.2018 09:24 17,3 C 10,6 C 63 % 1002,5 hPa 0,0 l/m 3,8 km/h (1 Bft) N-NW 346 1 min 0,000 mm 1,2 UV-I 467 W/m 10,2 C 17,3 C 4,8 km/h (1 Bft) 95,65 %
13.04.2018 09:25 17,4 C 10,6 C 64 % 1002,5 hPa 0,0 l/m 3,2 km/h (1 Bft) N-NW 346 1 min 0,000 mm 1,2 UV-I 469 W/m 10,5 C 17,4 C 4,8 km/h (1 Bft) 100,00 %
13.04.2018 09:26 17,5 C 10,6 C 60 % 1002,5 hPa 0,0 l/m 2,6 km/h (1 Bft) N-NW 346 1 min 0,000 mm 1,3 UV-I 470 W/m 9,6 C 17,5 C 3,2 km/h (1 Bft) 95,65 %
13.04.2018 09:27 17,6 C 10,6 C 61 % 1002,6 hPa 0,0 l/m 2,0 km/h (1 Bft) N-NW 346 1 min 0,000 mm 1,3 UV-I 473 W/m 10,0 C 17,6 C 3,2 km/h (1 Bft) 95,83 %
13.04.2018 09:28 17,5 C 10,6 C 57 % 1002,6 hPa 0,0 l/m 2,2 km/h (1 Bft) N-NW 346 1 min 0,000 mm 1,3 UV-I 476 W/m 8,9 C 17,5 C 3,2 km/h (1 Bft) 100,00 %
13.04.2018 09:29 17,6 C 10,6 C 61 % 1002,6 hPa 0,0 l/m 3,1 km/h (1 Bft) NW 316 1 min 0,000 mm 1,3 UV-I 480 W/m 10,0 C 17,6 C 4,8 km/h (1 Bft) 100,00 %
13.04.2018 09:30 17,6 C 10,6 C 59 % 1002,6 hPa 0,0 l/m 4,0 km/h (1 Bft) NW 316 1 min 0,000 mm 1,3 UV-I 481 W/m 9,5 C 17,6 C 4,8 km/h (1 Bft) 96,30 %
13.04.2018 09:31 17,7 C 10,6 C 55 % 1002,7 hPa 0,0 l/m 2,9 km/h (1 Bft) N 355 1 min 0,000 mm 1,3 UV-I 484 W/m 8,5 C 17,7 C 3,2 km/h (1 Bft) 100,00 %
13.04.2018 09:32 17,8 C 10,6 C 54 % 1002,7 hPa 0,0 l/m 3,9 km/h (1 Bft) SO 144 1 min 0,000 mm 1,3 UV-I 485 W/m 8,4 C 17,8 C 8,0 km/h (2 Bft) 100,00 %
13.04.2018 09:33 17,9 C 10,6 C 50 % 1002,7 hPa 0,0 l/m 7,4 km/h (2 Bft) S 178 1 min 0,000 mm 1,3 UV-I 489 W/m 7,3 C 17,4 C 9,7 km/h (2 Bft) 95,65 %
13.04.2018 09:34 17,9 C 10,6 C 48 % 1002,7 hPa 0,0 l/m 7,0 km/h (2 Bft) S 169 1 min 0,000 mm 1,3 UV-I 492 W/m 6,7 C 17,6 C 8,0 km/h (2 Bft) 100,00 %
13.04.2018 09:35 17,8 C 10,6 C 47 % 1002,7 hPa 0,0 l/m 6,4 km/h (2 Bft) S-SO 161 1 min 0,000 mm 1,4 UV-I 495 W/m 6,3 C 17,8 C 9,7 km/h (2 Bft) 100,00 %
13.04.2018 09:36 17,8 C 10,6 C 47 % 1002,7 hPa 0,0 l/m 3,2 km/h (1 Bft) S-SO 161 1 min 0,000 mm 1,4 UV-I 498 W/m 6,3 C 17,8 C 6,4 km/h (2 Bft) 100,00 %
13.04.2018 09:37 17,7 C 10,6 C 47 % 1002,8 hPa 0,0 l/m 2,5 km/h (1 Bft) S-SO 161 1 min 0,000 mm 1,4 UV-I 500 W/m 6,2 C 17,7 C 3,2 km/h (1 Bft) 100,00 %
13.04.2018 09:38 17,7 C 10,6 C 46 % 1002,7 hPa 0,0 l/m 2,0 km/h (1 Bft) S-SO 161 1 min 0,000 mm 1,4 UV-I 502 W/m 5,9 C 17,7 C 3,2 km/h (1 Bft) 95,83 %
13.04.2018 09:39 17,7 C 10,6 C 48 % 1002,8 hPa 0,0 l/m 1,3 km/h (1 Bft) S-SO 161 1 min 0,000 mm 1,4 UV-I 504 W/m 6,6 C 17,7 C 3,2 km/h (1 Bft) 96,15 %
13.04.2018 09:40 17,7 C 10,6 C 47 % 1002,8 hPa 0,0 l/m 2,3 km/h (1 Bft) S-SO 161 1 min 0,000 mm 1,4 UV-I 508 W/m 6,2 C 17,7 C 6,4 km/h (2 Bft) 100,00 %
13.04.2018 09:41 17,8 C 10,6 C 55 % 1002,8 hPa 0,0 l/m 5,1 km/h (1 Bft) NO 34 1 min 0,000 mm 1,4 UV-I 508 W/m 8,6 C 17,8 C 8,0 km/h (2 Bft) 98,07 %
13.04.2018 09:42 17,8 C 10,6 C 58 % 1002,8 hPa 0,0 l/m 5,5 km/h (1 Bft) NO 47 1 min 0,000 mm 1,4 UV-I 511 W/m 9,4 C 17,8 C 6,4 km/h (2 Bft) 100,00 %
13.04.2018 09:43 17,8 C 10,6 C 60 % 1002,9 hPa 0,0 l/m 3,5 km/h (1 Bft) NO 47 1 min 0,000 mm 1,5 UV-I 514 W/m 9,9 C 17,8 C 4,8 km/h (1 Bft) 95,65 %
13.04.2018 09:44 17,9 C 10,6 C 59 % 1002,8 hPa 0,0 l/m 2,7 km/h (1 Bft) NO 47 1 min 0,000 mm 1,5 UV-I 518 W/m 9,8 C 17,9 C 4,8 km/h (1 Bft) 100,00 %
13.04.2018 09:45 17,9 C 10,6 C 57 % 1002,9 hPa 0,0 l/m 2,9 km/h (1 Bft) NO 51 1 min 0,000 mm 1,5 UV-I 519 W/m 9,3 C 17,9 C 4,8 km/h (1 Bft) 100,00 %
13.04.2018 09:46 17,9 C 10,6 C 60 % 1002,9 hPa 0,0 l/m 4,3 km/h (1 Bft) O-NO 70 1 min 0,000 mm 1,5 UV-I 522 W/m 10,0 C 17,9 C 8,0 km/h (2 Bft) 100,00 %
13.04.2018 09:47 17,8 C 10,6 C 59 % 1002,9 hPa 0,0 l/m 5,4 km/h (1 Bft) O 101 1 min 0,000 mm 1,5 UV-I 524 W/m 9,7 C 17,8 C 8,0 km/h (2 Bft) 96,30 %
13.04.2018 09:48 17,7 C 10,6 C 57 % 1002,9 hPa 0,0 l/m 4,9 km/h (1 Bft) O-SO 109 1 min 0,000 mm 1,5 UV-I 525 W/m 9,1 C 17,7 C 6,4 km/h (2 Bft) 100,00 %
13.04.2018 09:49 17,6 C 10,6 C 55 % 1002,9 hPa 0,0 l/m 3,4 km/h (1 Bft) O-SO 109 1 min 0,000 mm 1,5 UV-I 527 W/m 8,5 C 17,6 C 4,8 km/h (1 Bft) 100,00 %
13.04.2018 09:50 17,7 C 10,6 C 48 % 1003,0 hPa 0,0 l/m 1,6 km/h (1 Bft) O-SO 109 1 min 0,000 mm 1,6 UV-I 530 W/m 6,6 C 17,7 C 3,2 km/h (1 Bft) 96,55 %
13.04.2018 09:51 17,7 C 10,6 C 47 % 1003,0 hPa 0,0 l/m 0,7 km/h (0 Bft) O-SO 109 1 min 0,000 mm 1,6 UV-I 536 W/m 6,2 C 17,7 C 3,2 km/h (1 Bft) 100,00 %
13.04.2018 09:52 17,8 C 10,6 C 47 % 1003,0 hPa 0,0 l/m 1,7 km/h (1 Bft) O-SO 109 1 min 0,000 mm 1,6 UV-I 536 W/m 6,3 C 17,8 C 3,2 km/h (1 Bft) 100,00 %
13.04.2018 09:53 17,7 C 10,6 C 45 % 1003,0 hPa 0,0 l/m 1,6 km/h (1 Bft) O-SO 109 1 min 0,000 mm 1,6 UV-I 539 W/m 5,6 C 17,7 C 3,2 km/h (1 Bft) 100,00 %
13.04.2018 09:54 17,8 C 10,6 C 46 % 1003,0 hPa 0,0 l/m 0,8 km/h (0 Bft) O-SO 109 1 min 0,000 mm 1,6 UV-I 541 W/m 6,0 C 17,8 C 3,2 km/h (1 Bft) 98,10 %
13.04.2018 09:55 17,8 C 10,6 C 44 % 1003,0 hPa 0,0 l/m 3,1 km/h (1 Bft) NW 324 1 min 0,000 mm 1,6 UV-I 542 W/m 5,4 C 17,8 C 6,4 km/h (2 Bft) 100,00 %
13.04.2018 09:56 17,9 C 10,6 C 50 % 1003,0 hPa 0,0 l/m 4,5 km/h (1 Bft) N 11 1 min 0,000 mm 1,7 UV-I 544 W/m 7,3 C 17,9 C 6,4 km/h (2 Bft) 100,00 %
13.04.2018 09:57 18,0 C 10,6 C 55 % 1003,0 hPa 0,0 l/m 2,3 km/h (1 Bft) N 11 1 min 0,000 mm 1,7 UV-I 545 W/m 8,8 C 18,0 C 3,2 km/h (1 Bft) 100,00 %
13.04.2018 09:58 18,1 C 10,6 C 56 % 1003,0 hPa 0,0 l/m 0,7 km/h (0 Bft) N 360 1 min 0,000 mm 1,7 UV-I 548 W/m 9,2 C 18,1 C 1,6 km/h (1 Bft) 100,00 %
13.04.2018 09:59 17,9 C 10,6 C 54 % 1003,0 hPa 0,0 l/m 4,8 km/h (1 Bft) S-SW 207 1 min 0,000 mm 1,7 UV-I 552 W/m 8,5 C 17,9 C 6,4 km/h (2 Bft) 100,00 %
13.04.2018 10:00 17,9 C 10,6 C 47 % 1003,0 hPa 0,0 l/m 3,6 km/h (1 Bft) S-SW 208 1 min 0,000 mm 1,7 UV-I 555 W/m 6,4 C 17,9 C 6,4 km/h (2 Bft) 92,86 %
13.04.2018 10:01 17,8 C 10,6 C 45 % 1003,0 hPa 0,0 l/m 0,3 km/h (0 Bft) S-SW 208 1 min 0,279 mm 1,7 UV-I 556 W/m 5,7 C 17,8 C 1,6 km/h (1 Bft) 100,00 %
13.04.2018 10:02 17,9 C 10,6 C 46 % 1003,0 hPa 0,0 l/m 2,8 km/h (1 Bft) SW 224 1 min 0,000 mm 1,7 UV-I 558 W/m 6,1 C 17,9 C 9,7 km/h (2 Bft) 100,00 %
13.04.2018 10:03 18,1 C 10,6 C 45 % 1003,0 hPa 0,0 l/m 6,4 km/h (2 Bft) SW 226 1 min 0,000 mm 1,8 UV-I 561 W/m 6,0 C 18,1 C 9,7 km/h (2 Bft) 100,00 %
13.04.2018 10:04 18,1 C 10,6 C 45 % 1003,0 hPa 0,0 l/m 1,0 km/h (0 Bft) SW 226 1 min 0,000 mm 1,8 UV-I 563 W/m 6,0 C 18,1 C 3,2 km/h (1 Bft) 100,00 %
13.04.2018 10:05 18,0 C 10,6 C 44 % 1003,0 hPa 0,0 l/m 1,4 km/h (1 Bft) S-SW 200 1 min 0,000 mm 1,8 UV-I 565 W/m 5,6 C 18,0 C 3,2 km/h (1 Bft) 100,00 %
13.04.2018 10:06 18,1 C 10,6 C 45 % 1003,0 hPa 0,0 l/m 1,5 km/h (1 Bft) S-SW 200 1 min 0,000 mm 1,8 UV-I 569 W/m 6,0 C 18,1 C 4,8 km/h (1 Bft) 92,31 %
13.04.2018 10:07 18,1 C 10,6 C 46 % 1003,0 hPa 0,0 l/m 3,9 km/h (1 Bft) S-SW 200 1 min 0,000 mm 1,8 UV-I 571 W/m 6,3 C 18,1 C 4,8 km/h (1 Bft) 100,00 %
13.04.2018 10:08 18,2 C 10,6 C 45 % 1003,1 hPa 0,0 l/m 4,2 km/h (1 Bft) SW 229 1 min 0,000 mm 1,8 UV-I 576 W/m 6,1 C 18,2 C 6,4 km/h (2 Bft) 100,00 %
13.04.2018 10:09 18,3 C 10,6 C 47 % 1003,0 hPa 0,0 l/m 6,5 km/h (2 Bft) W-SW 253 1 min 0,000 mm 1,8 UV-I 580 W/m 6,8 C 18,3 C 8,0 km/h (2 Bft) 100,00 %
13.04.2018 10:10 18,4 C 10,6 C 45 % 1003,1 hPa 0,0 l/m 6,2 km/h (2 Bft) W-SW 254 1 min 0,000 mm 1,9 UV-I 583 W/m 6,3 C 18,4 C 8,0 km/h (2 Bft) 100,00 %
13.04.2018 10:11 18,4 C 10,6 C 44 % 1003,1 hPa 0,0 l/m 4,1 km/h (1 Bft) W-SW 254 1 min 0,000 mm 1,9 UV-I 586 W/m 5,9 C 18,4 C 4,8 km/h (1 Bft) 100,00 %
13.04.2018 10:12 18,3 C 10,6 C 45 % 1003,1 hPa 0,0 l/m 3,8 km/h (1 Bft) W-SW 242 1 min 0,000 mm 1,9 UV-I 592 W/m 6,2 C 18,3 C 6,4 km/h (2 Bft) 100,00 %
13.04.2018 10:13 18,4 C 10,6 C 46 % 1003,1 hPa 0,0 l/m 1,3 km/h (1 Bft) W-SW 242 1 min 0,000 mm 1,9 UV-I 597 W/m 6,6 C 18,4 C 4,8 km/h (1 Bft) 100,00 %
13.04.2018 10:14 18,4 C 10,6 C 44 % 1003,2 hPa 0,0 l/m 1,6 km/h (1 Bft) W-SW 242 1 min 0,000 mm 1,9 UV-I 604 W/m 5,9 C 18,4 C 3,2 km/h (1 Bft) 100,00 %
13.04.2018 10:15 18,4 C 10,6 C 46 % 1003,2 hPa 0,0 l/m 3,8 km/h (1 Bft) S 189 1 min 0,000 mm 1,9 UV-I 607 W/m 6,6 C 18,4 C 8,0 km/h (2 Bft) 100,00 %
13.04.2018 10:16 18,6 C 10,6 C 44 % 1003,3 hPa 0,0 l/m 7,9 km/h (2 Bft) SW 215 1 min 0,000 mm 1,9 UV-I 617 W/m 6,1 C 17,9 C 9,7 km/h (2 Bft) 96,30 %
13.04.2018 10:17 18,7 C 10,6 C 47 % 1003,3 hPa 0,0 l/m 5,3 km/h (1 Bft) SW 234 1 min 0,000 mm 2,0 UV-I 628 W/m 7,2 C 18,7 C 8,0 km/h (2 Bft) 100,00 %
13.04.2018 10:19 18,7 C 10,6 C 42 % 1003,3 hPa 0,0 l/m 3,1 km/h (1 Bft) SW 234 2 min 0,000 mm 2,0 UV-I 635 W/m 5,5 C 18,7 C 6,4 km/h (2 Bft) 95,74 %
13.04.2018 10:20 18,6 C 10,6 C 44 % 1003,3 hPa 0,0 l/m 4,5 km/h (1 Bft) W 269 1 min 0,000 mm 2,0 UV-I 624 W/m 6,1 C 18,6 C 6,4 km/h (2 Bft) 100,00 %
13.04.2018 10:21 18,6 C 10,6 C 43 % 1003,3 hPa 0,0 l/m 1,9 km/h (1 Bft) W 269 1 min 0,000 mm 2,1 UV-I 642 W/m 5,8 C 18,6 C 4,8 km/h (1 Bft) 100,00 %
13.04.2018 10:22 18,5 C 10,6 C 43 % 1003,3 hPa 0,0 l/m 3,8 km/h (1 Bft) W 269 1 min 0,000 mm 2,1 UV-I 643 W/m 5,7 C 18,5 C 4,8 km/h (1 Bft) 100,00 %
13.04.2018 10:23 18,6 C 10,6 C 44 % 1003,3 hPa 0,0 l/m 3,8 km/h (1 Bft) W 271 1 min 0,000 mm 2,1 UV-I 643 W/m 6,1 C 18,6 C 9,7 km/h (2 Bft) 96,30 %
13.04.2018 10:24 18,5 C 10,6 C 44 % 1003,3 hPa 0,0 l/m 4,4 km/h (1 Bft) W-NW 282 1 min 0,000 mm 2,1 UV-I 646 W/m 6,0 C 18,5 C 6,4 km/h (2 Bft) 100,00 %
13.04.2018 10:25 18,5 C 10,6 C 44 % 1003,3 hPa 0,0 l/m 3,3 km/h (1 Bft) NW 313 1 min 0,000 mm 2,1 UV-I 656 W/m 6,0 C 18,5 C 4,8 km/h (1 Bft) 100,00 %
13.04.2018 10:26 18,6 C 10,6 C 45 % 1003,4 hPa 0,0 l/m 5,3 km/h (1 Bft) W 263 1 min 0,000 mm 2,1 UV-I 660 W/m 6,4 C 18,6 C 11,3 km/h (2 Bft) 100,00 %
13.04.2018 10:27 18,7 C 10,6 C 44 % 1003,4 hPa 0,0 l/m 5,8 km/h (2 Bft) W 278 1 min 0,000 mm 2,0 UV-I 659 W/m 6,2 C 18,7 C 11,3 km/h (2 Bft) 100,00 %
13.04.2018 10:28 18,8 C 10,6 C 43 % 1003,4 hPa 0,0 l/m 3,6 km/h (1 Bft) SW 232 1 min 0,000 mm 1,9 UV-I 592 W/m 6,0 C 18,8 C 6,4 km/h (2 Bft) 100,00 %
13.04.2018 10:29 18,9 C 10,6 C 43 % 1003,4 hPa 0,0 l/m 11,1 km/h (2 Bft) W-SW 241 1 min 0,000 mm 2,0 UV-I 592 W/m 6,0 C 17,0 C 14,5 km/h (3 Bft) 100,00 %
13.04.2018 10:30 19,1 C 10,6 C 42 % 1003,4 hPa 0,0 l/m 9,8 km/h (2 Bft) SW 223 1 min 0,000 mm 1,7 UV-I 389 W/m 5,9 C 17,7 C 12,9 km/h (3 Bft) 100,00 %
13.04.2018 10:31 19,1 C 10,6 C 43 % 1003,4 hPa 0,0 l/m 7,4 km/h (2 Bft) S-SW 204 0 min 0,000 mm 1,9 UV-I 302 W/m 6,2 C 18,7 C 11,3 km/h (2 Bft) 100,00 %
13.04.2018 10:32 19,2 C 10,6 C 41 % 1003,5 hPa 0,0 l/m 8,9 km/h (2 Bft) S 169 0 min 0,000 mm 2,2 UV-I 302 W/m 5,6 C 18,2 C 11,3 km/h (2 Bft) 100,00 %
13.04.2018 10:33 19,1 C 10,6 C 40 % 1003,5 hPa 0,0 l/m 5,6 km/h (1 Bft) S 178 0 min 0,000 mm 2,0 UV-I 302 W/m 5,2 C 19,1 C 8,0 km/h (2 Bft) 95,83 %
13.04.2018 10:34 19,0 C 10,6 C 40 % 1003,5 hPa 0,0 l/m 6,0 km/h (2 Bft) S-SO 155 1 min 0,000 mm 2,3 UV-I 464 W/m 5,1 C 19,0 C 11,3 km/h (2 Bft) 100,00 %
13.04.2018 10:35 18,9 C 10,6 C 40 % 1003,5 hPa 0,0 l/m 9,7 km/h (2 Bft) S 171 1 min 0,000 mm 2,2 UV-I 708 W/m 5,0 C 17,5 C 12,9 km/h (3 Bft) 96,30 %
13.04.2018 10:36 18,8 C 10,6 C 41 % 1003,5 hPa 0,0 l/m 7,7 km/h (2 Bft) S-SW 199 1 min 0,000 mm 1,9 UV-I 555 W/m 5,3 C 18,2 C 11,3 km/h (2 Bft) 100,00 %
13.04.2018 10:38 18,8 C 10,6 C 44 % 1003,5 hPa 0,0 l/m 8,0 km/h (2 Bft) W-NW 292 2 min 0,000 mm 2,0 UV-I 451 W/m 6,3 C 18,1 C 14,5 km/h (3 Bft) 100,00 %
13.04.2018 10:39 18,8 C 10,6 C 45 % 1003,5 hPa 0,0 l/m 5,1 km/h (1 Bft) W-SW 246 1 min 0,000 mm 1,8 UV-I 693 W/m 6,6 C 18,8 C 6,4 km/h (2 Bft) 100,00 %
13.04.2018 10:40 18,8 C 10,6 C 44 % 1003,5 hPa 0,0 l/m 3,5 km/h (1 Bft) W 260 1 min 0,000 mm 1,4 UV-I 505 W/m 6,3 C 18,8 C 4,8 km/h (1 Bft) 96,15 %
13.04.2018 10:41 18,8 C 10,6 C 44 % 1003,5 hPa 0,0 l/m 7,6 km/h (2 Bft) W 278 0 min 0,000 mm 1,4 UV-I 223 W/m 6,3 C 18,3 C 11,3 km/h (2 Bft) 100,00 %
13.04.2018 10:42 18,7 C 10,6 C 43 % 1003,6 hPa 0,0 l/m 5,6 km/h (1 Bft) W-SW 241 0 min 0,000 mm 1,4 UV-I 227 W/m 5,9 C 18,7 C 9,7 km/h (2 Bft) 95,65 %
13.04.2018 10:43 18,7 C 10,6 C 45 % 1003,6 hPa 0,0 l/m 6,9 km/h (2 Bft) SW 214 0 min 0,000 mm 1,4 UV-I 238 W/m 6,5 C 18,5 C 8,0 km/h (2 Bft) 100,00 %
13.04.2018 10:44 18,6 C 10,6 C 45 % 1003,6 hPa 0,0 l/m 5,5 km/h (1 Bft) SW 234 0 min 0,000 mm 1,4 UV-I 258 W/m 6,4 C 18,6 C 8,0 km/h (2 Bft) 95,65 %
13.04.2018 10:45 18,6 C 10,6 C 45 % 1003,6 hPa 0,0 l/m 7,2 km/h (2 Bft) SW 236 0 min 0,000 mm 1,5 UV-I 283 W/m 6,4 C 18,2 C 9,7 km/h (2 Bft) 100,00 %
13.04.2018 10:46 18,6 C 10,6 C 45 % 1003,6 hPa 0,0 l/m 3,9 km/h (1 Bft) SW 236 0 min 0,000 mm 1,5 UV-I 302 W/m 6,4 C 18,6 C 6,4 km/h (2 Bft) 100,00 %
13.04.2018 10:47 18,6 C 10,6 C 46 % 1003,7 hPa 0,0 l/m 4,2 km/h (1 Bft) W 273 0 min 0,000 mm 1,5 UV-I 312 W/m 6,8 C 18,6 C 6,4 km/h (2 Bft) 100,00 %
13.04.2018 10:48 18,6 C 10,6 C 45 % 1003,7 hPa 0,0 l/m 7,0 km/h (2 Bft) W 265 0 min 0,000 mm 1,5 UV-I 316 W/m 6,4 C 18,3 C 9,7 km/h (2 Bft) 100,00 %
13.04.2018 10:49 18,7 C 10,6 C 45 % 1003,7 hPa 0,0 l/m 8,5 km/h (2 Bft) W 280 0 min 0,000 mm 1,4 UV-I 311 W/m 6,5 C 17,8 C 9,7 km/h (2 Bft) 100,00 %
13.04.2018 10:50 18,6 C 10,6 C 44 % 1003,7 hPa 0,0 l/m 5,7 km/h (1 Bft) W 279 0 min 0,000 mm 1,4 UV-I 307 W/m 6,1 C 18,6 C 6,4 km/h (2 Bft) 96,67 %
13.04.2018 10:51 18,5 C 10,6 C 44 % 1003,7 hPa 0,0 l/m 3,8 km/h (1 Bft) W 277 0 min 0,000 mm 1,4 UV-I 309 W/m 6,0 C 18,5 C 4,8 km/h (1 Bft) 100,00 %
13.04.2018 10:52 18,5 C 10,6 C 45 % 1003,8 hPa 0,0 l/m 5,6 km/h (1 Bft) W-SW 248 0 min 0,000 mm 1,4 UV-I 316 W/m 6,3 C 18,5 C 9,7 km/h (2 Bft) 96,30 %
13.04.2018 10:53 18,6 C 10,6 C 43 % 1003,8 hPa 0,0 l/m 8,4 km/h (2 Bft) W 271 0 min 0,000 mm 1,5 UV-I 332 W/m 5,8 C 17,7 C 11,3 km/h (2 Bft) 100,00 %
13.04.2018 10:54 18,6 C 10,6 C 45 % 1003,8 hPa 0,0 l/m 9,0 km/h (2 Bft) W 273 0 min 0,000 mm 1,5 UV-I 349 W/m 6,4 C 17,5 C 11,3 km/h (2 Bft) 90,00 %
13.04.2018 10:55 18,6 C 10,6 C 43 % 1003,8 hPa 0,0 l/m 6,8 km/h (2 Bft) W 273 1 min 0,000 mm 1,7 UV-I 390 W/m 5,8 C 18,4 C 9,7 km/h (2 Bft) 93,10 %
13.04.2018 10:56 18,7 C 10,6 C 43 % 1003,8 hPa 0,0 l/m 4,4 km/h (1 Bft) W-SW 239 1 min 0,000 mm 1,7 UV-I 373 W/m 5,9 C 18,7 C 6,4 km/h (2 Bft) 100,00 %
13.04.2018 10:57 18,7 C 10,6 C 43 % 1003,8 hPa 0,0 l/m 4,3 km/h (1 Bft) SW 234 0 min 0,000 mm 1,6 UV-I 356 W/m 5,9 C 18,7 C 8,0 km/h (2 Bft) 91,30 %
13.04.2018 10:58 18,7 C 10,6 C 43 % 1003,8 hPa 0,0 l/m 5,8 km/h (2 Bft) W 277 0 min 0,000 mm 1,6 UV-I 347 W/m 5,9 C 18,7 C 9,7 km/h (2 Bft) 100,00 %
13.04.2018 10:59 18,7 C 10,6 C 44 % 1003,8 hPa 0,0 l/m 7,5 km/h (2 Bft) W-SW 252 0 min 0,000 mm 1,6 UV-I 350 W/m 6,2 C 18,2 C 11,3 km/h (2 Bft) 100,00 %
13.04.2018 11:00 18,7 C 10,6 C 43 % 1003,8 hPa 0,0 l/m 5,1 km/h (1 Bft) W-SW 256 0 min 0,330 mm 1,6 UV-I 348 W/m 5,9 C 18,7 C 6,4 km/h (2 Bft) 93,75 %
13.04.2018 11:02 18,7 C 10,6 C 44 % 1003,8 hPa 0,0 l/m 6,4 km/h (2 Bft) W 262 0 min 0,000 mm 1,6 UV-I 338 W/m 6,2 C 18,7 C 11,3 km/h (2 Bft) 95,74 %
13.04.2018 11:03 18,7 C 10,6 C 43 % 1003,8 hPa 0,0 l/m 6,4 km/h (2 Bft) W-SW 253 0 min 0,000 mm 1,7 UV-I 336 W/m 5,9 C 18,7 C 11,3 km/h (2 Bft) 93,10 %
13.04.2018 11:04 18,7 C 10,6 C 43 % 1003,8 hPa 0,0 l/m 7,4 km/h (2 Bft) W-SW 240 1 min 0,000 mm 1,9 UV-I 396 W/m 5,9 C 18,2 C 12,9 km/h (3 Bft) 100,00 %
13.04.2018 11:05 18,7 C 10,6 C 45 % 1003,8 hPa 0,0 l/m 5,9 km/h (2 Bft) W-SW 237 1 min 0,000 mm 2,0 UV-I 396 W/m 6,5 C 18,7 C 9,7 km/h (2 Bft) 92,59 %
13.04.2018 11:06 18,7 C 10,6 C 45 % 1003,8 hPa 0,0 l/m 5,5 km/h (1 Bft) W-NW 285 1 min 0,000 mm 2,0 UV-I 396 W/m 6,5 C 18,7 C 6,4 km/h (2 Bft) 96,15 %
13.04.2018 11:07 18,8 C 10,6 C 44 % 1003,8 hPa 0,0 l/m 6,2 km/h (2 Bft) W 269 1 min 0,000 mm 1,6 UV-I 389 W/m 6,3 C 18,8 C 9,7 km/h (2 Bft) 94,44 %
13.04.2018 11:08 18,8 C 10,6 C 44 % 1003,9 hPa 0,0 l/m 13,2 km/h (3 Bft) W 260 0 min 0,000 mm 1,6 UV-I 274 W/m 6,3 C 16,3 C 17,7 km/h (3 Bft) 96,15 %
13.04.2018 11:09 18,8 C 10,6 C 45 % 1003,9 hPa 0,0 l/m 9,4 km/h (2 Bft) W 271 0 min 0,000 mm 1,5 UV-I 277 W/m 6,6 C 17,5 C 16,1 km/h (3 Bft) 96,67 %
13.04.2018 11:10 18,7 C 10,6 C 43 % 1003,8 hPa 0,0 l/m 9,4 km/h (2 Bft) W 267 0 min 0,000 mm 1,6 UV-I 281 W/m 5,9 C 17,4 C 12,9 km/h (3 Bft) 85,71 %
13.04.2018 11:11 18,7 C 10,6 C 43 % 1003,9 hPa 0,0 l/m 3,3 km/h (1 Bft) W-NW 293 0 min 0,000 mm 1,8 UV-I 281 W/m 5,9 C 18,7 C 6,4 km/h (2 Bft) 100,00 %
13.04.2018 11:12 18,7 C 10,6 C 43 % 1003,9 hPa 0,0 l/m 3,5 km/h (1 Bft) W-SW 242 0 min 0,000 mm 1,9 UV-I 281 W/m 5,9 C 18,7 C 6,4 km/h (2 Bft) 91,30 %
13.04.2018 11:13 18,7 C 10,6 C 44 % 1003,9 hPa 0,0 l/m 7,0 km/h (2 Bft) W-SW 254 0 min 0,000 mm 1,9 UV-I 298 W/m 6,2 C 18,4 C 9,7 km/h (2 Bft) 100,00 %
13.04.2018 11:14 18,7 C 10,6 C 43 % 1003,9 hPa 0,0 l/m 4,3 km/h (1 Bft) W-SW 253 1 min 0,000 mm 1,8 UV-I 496 W/m 5,9 C 18,7 C 4,8 km/h (1 Bft) 92,31 %
13.04.2018 11:15 18,8 C 10,6 C 44 % 1003,9 hPa 0,0 l/m 5,2 km/h (1 Bft) W-SW 257 1 min 0,000 mm 1,5 UV-I 425 W/m 6,3 C 18,8 C 11,3 km/h (2 Bft) 95,83 %
13.04.2018 11:16 18,8 C 10,6 C 43 % 1003,9 hPa 0,0 l/m 3,0 km/h (1 Bft) W-SW 255 0 min 0,000 mm 1,5 UV-I 277 W/m 6,0 C 18,8 C 6,4 km/h (2 Bft) 96,15 %
13.04.2018 11:17 18,8 C 10,6 C 43 % 1004,0 hPa 0,0 l/m 12,1 km/h (2 Bft) W-SW 244 0 min 0,000 mm 1,4 UV-I 269 W/m 6,0 C 16,6 C 17,7 km/h (3 Bft) 95,83 %
13.04.2018 11:18 18,7 C 10,6 C 42 % 1004,0 hPa 0,0 l/m 8,1 km/h (2 Bft) W 259 0 min 0,000 mm 1,4 UV-I 266 W/m 5,5 C 17,9 C 14,5 km/h (3 Bft) 92,31 %
13.04.2018 11:19 18,6 C 10,6 C 43 % 1004,0 hPa 0,0 l/m 7,8 km/h (2 Bft) SW 230 0 min 0,000 mm 1,4 UV-I 265 W/m 5,8 C 18,0 C 11,3 km/h (2 Bft) 91,67 %
13.04.2018 11:20 18,6 C 10,6 C 42 % 1004,0 hPa 0,0 l/m 12,4 km/h (3 Bft) W 275 0 min 0,000 mm 1,3 UV-I 265 W/m 5,4 C 16,3 C 16,1 km/h (3 Bft) 96,30 %
13.04.2018 11:21 18,5 C 10,6 C 41 % 1004,0 hPa 0,0 l/m 6,2 km/h (2 Bft) W-SW 244 0 min 0,000 mm 1,3 UV-I 264 W/m 5,0 C 18,5 C 9,7 km/h (2 Bft) 86,96 %
13.04.2018 11:22 18,4 C 10,6 C 42 % 1004,0 hPa 0,0 l/m 4,2 km/h (1 Bft) W-SW 247 0 min 0,000 mm 1,3 UV-I 260 W/m 5,3 C 18,4 C 6,4 km/h (2 Bft) 100,00 %
13.04.2018 11:23 18,4 C 10,6 C 44 % 1004,0 hPa 0,0 l/m 3,1 km/h (1 Bft) W-SW 254 0 min 0,000 mm 1,3 UV-I 255 W/m 5,9 C 18,4 C 6,4 km/h (2 Bft) 100,00 %
13.04.2018 11:24 18,4 C 10,6 C 44 % 1004,0 hPa 0,0 l/m 6,3 km/h (2 Bft) W-SW 247 0 min 0,000 mm 1,2 UV-I 249 W/m 5,9 C 18,4 C 8,0 km/h (2 Bft) 96,30 %
13.04.2018 11:25 18,4 C 10,6 C 44 % 1004,0 hPa 0,0 l/m 4,7 km/h (1 Bft) W-SW 251 0 min 0,000 mm 1,2 UV-I 243 W/m 5,9 C 18,4 C 6,4 km/h (2 Bft) 96,55 %
13.04.2018 11:26 18,4 C 10,6 C 44 % 1004,0 hPa 0,0 l/m 2,4 km/h (1 Bft) W-SW 251 0 min 0,000 mm 1,2 UV-I 237 W/m 5,9 C 18,4 C 4,8 km/h (1 Bft) 100,00 %
13.04.2018 11:27 18,4 C 10,6 C 44 % 1004,1 hPa 0,0 l/m 4,8 km/h (1 Bft) W 262 0 min 0,000 mm 1,1 UV-I 236 W/m 5,9 C 18,4 C 6,4 km/h (2 Bft) 96,15 %
13.04.2018 11:28 18,3 C 10,6 C 46 % 1004,1 hPa 0,0 l/m 3,1 km/h (1 Bft) W 263 0 min 0,000 mm 1,1 UV-I 236 W/m 6,5 C 18,3 C 4,8 km/h (1 Bft) 95,83 %
13.04.2018 11:29 18,4 C 10,6 C 45 % 1004,1 hPa 0,0 l/m 3,4 km/h (1 Bft) W 261 0 min 0,000 mm 1,1 UV-I 237 W/m 6,3 C 18,4 C 4,8 km/h (1 Bft) 95,65 %
13.04.2018 11:30 18,4 C 10,6 C 46 % 1004,1 hPa 0,0 l/m 3,7 km/h (1 Bft) W 261 0 min 0,000 mm 1,1 UV-I 239 W/m 6,6 C 18,4 C 4,8 km/h (1 Bft) 95,83 %
13.04.2018 11:31 18,4 C 10,6 C 48 % 1004,1 hPa 0,0 l/m 5,7 km/h (1 Bft) W 263 0 min 0,000 mm 1,1 UV-I 237 W/m 7,2 C 18,4 C 6,4 km/h (2 Bft) 100,00 %
13.04.2018 11:32 18,3 C 10,6 C 48 % 1004,1 hPa 0,0 l/m 4,6 km/h (1 Bft) W 262 0 min 0,000 mm 1,0 UV-I 235 W/m 7,1 C 18,3 C 6,4 km/h (2 Bft) 91,67 %
13.04.2018 11:33 18,3 C 10,6 C 48 % 1004,1 hPa 0,0 l/m 2,7 km/h (1 Bft) W 265 0 min 0,000 mm 1,0 UV-I 235 W/m 7,1 C 18,3 C 4,8 km/h (1 Bft) 100,00 %
13.04.2018 11:34 18,3 C 10,6 C 49 % 1004,2 hPa 0,0 l/m 4,8 km/h (1 Bft) W-NW 291 0 min 0,000 mm 1,0 UV-I 237 W/m 7,4 C 18,3 C 8,0 km/h (2 Bft) 95,83 %
13.04.2018 11:35 18,2 C 10,6 C 45 % 1004,2 hPa 0,0 l/m 3,6 km/h (1 Bft) W-NW 291 0 min 0,000 mm 1,1 UV-I 242 W/m 6,1 C 18,2 C 6,4 km/h (2 Bft) 100,00 %
13.04.2018 11:36 18,2 C 10,6 C 45 % 1004,2 hPa 0,0 l/m 4,1 km/h (1 Bft) W-NW 290 0 min 0,000 mm 1,1 UV-I 249 W/m 6,1 C 18,2 C 6,4 km/h (2 Bft) 95,83 %
13.04.2018 11:37 18,2 C 10,6 C 46 % 1004,2 hPa 0,0 l/m 3,4 km/h (1 Bft) W 260 0 min 0,000 mm 1,1 UV-I 239 W/m 6,4 C 18,2 C 6,4 km/h (2 Bft) 100,00 %
13.04.2018 11:38 18,2 C 10,6 C 48 % 1004,2 hPa 0,0 l/m 8,2 km/h (2 Bft) N 9 0 min 0,000 mm 1,0 UV-I 227 W/m 7,0 C 17,4 C 11,3 km/h (2 Bft) 88,46 %
13.04.2018 11:39 18,1 C 10,6 C 48 % 1004,3 hPa 0,0 l/m 9,1 km/h (2 Bft) W 267 0 min 0,000 mm 0,9 UV-I 197 W/m 6,9 C 16,9 C 11,3 km/h (2 Bft) 100,00 %
13.04.2018 11:40 17,9 C 10,6 C 56 % 1004,3 hPa 0,0 l/m 4,8 km/h (1 Bft) NW 321 0 min 0,000 mm 0,9 UV-I 182 W/m 9,0 C 17,9 C 6,4 km/h (2 Bft) 95,83 %
13.04.2018 11:41 17,7 C 10,6 C 58 % 1004,3 hPa 0,0 l/m 5,7 km/h (1 Bft) W 262 0 min 0,000 mm 0,7 UV-I 164 W/m 9,3 C 17,7 C 11,3 km/h (2 Bft) 92,31 %
13.04.2018 11:42 17,3 C 10,6 C 54 % 1004,4 hPa 0,0 l/m 6,7 km/h (2 Bft) W 271 0 min 0,000 mm 0,7 UV-I 149 W/m 7,9 C 17,2 C 11,3 km/h (2 Bft) 100,00 %
13.04.2018 11:43 17,3 C 10,6 C 56 % 1004,4 hPa 0,0 l/m 5,4 km/h (1 Bft) W 281 0 min 0,000 mm 0,6 UV-I 134 W/m 8,4 C 17,3 C 6,4 km/h (2 Bft) 95,83 %
13.04.2018 11:44 17,1 C 10,6 C 55 % 1004,5 hPa 0,0 l/m 9,0 km/h (2 Bft) W-NW 290 0 min 0,000 mm 0,5 UV-I 120 W/m 8,0 C 15,9 C 17,7 km/h (3 Bft) 100,00 %
13.04.2018 11:45 16,9 C 10,6 C 56 % 1004,5 hPa 0,0 l/m 5,2 km/h (1 Bft) W-NW 292 0 min 0,000 mm 0,4 UV-I 109 W/m 8,1 C 16,9 C 8,0 km/h (2 Bft) 95,83 %
13.04.2018 11:46 16,8 C 10,6 C 59 % 1004,5 hPa 0,0 l/m 6,9 km/h (2 Bft) NW 313 0 min 0,000 mm 0,0 UV-I 100 W/m 8,7 C 16,5 C 11,3 km/h (2 Bft) 100,00 %
13.04.2018 11:47 16,7 C 10,6 C 60 % 1004,6 hPa 0,0 l/m 6,0 km/h (2 Bft) W 275 0 min 0,000 mm 0,0 UV-I 97 W/m 8,9 C 16,7 C 9,7 km/h (2 Bft) 96,30 %
13.04.2018 11:48 16,6 C 10,6 C 60 % 1004,6 hPa 0,0 l/m 4,2 km/h (1 Bft) W-NW 298 0 min 0,000 mm 0,0 UV-I 87 W/m 8,8 C 16,6 C 6,4 km/h (2 Bft) 100,00 %
13.04.2018 11:49 16,4 C 10,6 C 62 % 1004,6 hPa 0,0 l/m 3,4 km/h (1 Bft) NW 309 0 min 0,000 mm 0,0 UV-I 80 W/m 9,1 C 16,4 C 4,8 km/h (1 Bft) 95,83 %
13.04.2018 11:50 16,3 C 10,6 C 63 % 1004,7 hPa 0,0 l/m 4,3 km/h (1 Bft) W 279 0 min 0,000 mm 0,0 UV-I 75 W/m 9,2 C 16,3 C 6,4 km/h (2 Bft) 100,00 %
13.04.2018 11:51 16,3 C 10,6 C 61 % 1004,7 hPa 0,0 l/m 3,7 km/h (1 Bft) W-SW 238 0 min 0,000 mm 0,0 UV-I 70 W/m 8,8 C 16,3 C 6,4 km/h (2 Bft) 96,30 %
13.04.2018 11:52 16,3 C 10,6 C 61 % 1004,7 hPa 0,0 l/m 3,8 km/h (1 Bft) W-SW 254 0 min 0,000 mm 0,0 UV-I 65 W/m 8,8 C 16,3 C 4,8 km/h (1 Bft) 97,94 %
13.04.2018 11:53 16,2 C 10,6 C 59 % 1004,7 hPa 0,0 l/m 8,1 km/h (2 Bft) W-NW 293 0 min 0,000 mm 0,0 UV-I 59 W/m 8,2 C 15,3 C 11,3 km/h (2 Bft) 97,73 %
13.04.2018 11:54 16,3 C 10,6 C 59 % 1004,8 hPa 0,0 l/m 6,7 km/h (2 Bft) W 268 0 min 0,000 mm 0,0 UV-I 53 W/m 8,3 C 16,2 C 11,3 km/h (2 Bft) 96,55 %
13.04.2018 11:55 16,2 C 10,6 C 61 % 1004,8 hPa 0,2 l/m 6,1 km/h (2 Bft) W 279 0 min 0,000 mm 0,0 UV-I 47 W/m 8,7 C 16,2 C 6,4 km/h (2 Bft) 93,33 %
13.04.2018 11:56 16,2 C 10,6 C 62 % 1004,9 hPa 0,0 l/m 8,0 km/h (2 Bft) SW 229 0 min 0,000 mm 0,0 UV-I 42 W/m 8,9 C 15,4 C 11,3 km/h (2 Bft) 96,15 %
13.04.2018 11:57 16,2 C 10,6 C 60 % 1004,9 hPa 0,0 l/m 15,3 km/h (3 Bft) W 263 0 min 0,000 mm 0,0 UV-I 40 W/m 8,4 C 12,6 C 20,9 km/h (4 Bft) 100,00 %
13.04.2018 11:58 16,1 C 10,6 C 61 % 1004,9 hPa 0,0 l/m 13,5 km/h (3 Bft) W 263 0 min 0,000 mm 0,0 UV-I 37 W/m 8,6 C 13,0 C 19,3 km/h (3 Bft) 91,67 %
13.04.2018 11:59 16,0 C 10,6 C 58 % 1005,0 hPa 0,0 l/m 22,8 km/h (4 Bft) W 259 0 min 0,000 mm 0,0 UV-I 34 W/m 7,7 C 10,4 C 35,4 km/h (5 Bft) 100,00 %
13.04.2018 12:00 15,9 C 10,6 C 57 % 1005,0 hPa 0,0 l/m 20,4 km/h (4 Bft) W-SW 257 0 min 0,178 mm 0,0 UV-I 33 W/m 7,4 C 10,8 C 27,4 km/h (4 Bft) 97,62 %
13.04.2018 12:01 15,7 C 10,6 C 57 % 1005,2 hPa 0,0 l/m 21,7 km/h (4 Bft) W 266 0 min 0,000 mm 0,0 UV-I 32 W/m 7,2 C 10,3 C 27,4 km/h (4 Bft) 95,65 %
13.04.2018 12:02 15,5 C 10,6 C 58 % 1005,1 hPa 0,0 l/m 17,8 km/h (3 Bft) W 279 0 min 0,000 mm 0,0 UV-I 31 W/m 7,3 C 11,0 C 22,5 km/h (4 Bft) 95,83 %
13.04.2018 12:03 15,2 C 10,6 C 60 % 1005,1 hPa 0,0 l/m 17,5 km/h (3 Bft) W 261 0 min 0,000 mm 0,0 UV-I 30 W/m 7,5 C 10,7 C 22,5 km/h (4 Bft) 95,65 %
13.04.2018 12:04 14,9 C 10,6 C 62 % 1005,3 hPa 0,2 l/m 13,7 km/h (3 Bft) W 259 0 min 0,000 mm 0,0 UV-I 29 W/m 7,7 C 11,5 C 16,1 km/h (3 Bft) 100,00 %
13.04.2018 12:05 14,6 C 10,6 C 64 % 1005,4 hPa 0,0 l/m 12,8 km/h (3 Bft) W-SW 248 0 min 0,000 mm 0,0 UV-I 28 W/m 7,9 C 11,5 C 16,1 km/h (3 Bft) 100,00 %
13.04.2018 12:06 14,4 C 10,6 C 63 % 1005,4 hPa 0,0 l/m 17,5 km/h (3 Bft) W 261 0 min 0,000 mm 0,0 UV-I 28 W/m 7,4 C 9,7 C 20,9 km/h (4 Bft) 100,00 %
13.04.2018 12:07 14,3 C 10,6 C 64 % 1005,5 hPa 0,0 l/m 18,4 km/h (3 Bft) S-SW 213 0 min 0,000 mm 0,0 UV-I 26 W/m 7,6 C 9,3 C 24,1 km/h (4 Bft) 100,00 %
13.04.2018 12:08 14,3 C 10,6 C 64 % 1005,5 hPa 0,0 l/m 18,7 km/h (3 Bft) W-SW 254 0 min 0,000 mm 0,0 UV-I 26 W/m 7,6 C 9,2 C 24,1 km/h (4 Bft) 100,00 %
13.04.2018 12:09 14,3 C 10,6 C 63 % 1005,6 hPa 0,0 l/m 18,6 km/h (3 Bft) SW 223 0 min 0,000 mm 0,0 UV-I 25 W/m 7,4 C 9,2 C 29,0 km/h (5 Bft) 100,00 %
13.04.2018 12:10 14,2 C 10,6 C 63 % 1005,7 hPa 0,0 l/m 20,4 km/h (4 Bft) W 275 0 min 0,000 mm 0,0 UV-I 25 W/m 7,3 C 8,6 C 25,7 km/h (4 Bft) 100,00 %
13.04.2018 12:11 14,2 C 10,6 C 64 % 1005,6 hPa 0,2 l/m 17,7 km/h (3 Bft) SW 222 0 min 0,000 mm 0,0 UV-I 23 W/m 7,5 C 9,4 C 33,8 km/h (5 Bft) 96,15 %
13.04.2018 12:13 14,3 C 10,6 C 61 % 1005,8 hPa 0,0 l/m 20,1 km/h (4 Bft) SW 235 0 min 0,000 mm 0,0 UV-I 23 W/m 6,9 C 8,8 C 30,6 km/h (5 Bft) 100,00 %
13.04.2018 12:14 14,4 C 10,6 C 61 % 1005,8 hPa 0,0 l/m 16,2 km/h (3 Bft) SW 236 0 min 0,000 mm 0,0 UV-I 23 W/m 7,0 C 10,1 C 20,9 km/h (4 Bft) 96,67 %
13.04.2018 12:15 14,4 C 10,6 C 61 % 1006,0 hPa 0,0 l/m 12,7 km/h (3 Bft) W 260 0 min 0,000 mm 0,0 UV-I 24 W/m 7,0 C 11,3 C 16,1 km/h (3 Bft) 100,00 %
13.04.2018 12:16 14,3 C 10,6 C 64 % 1005,9 hPa 0,0 l/m 9,1 km/h (2 Bft) W 275 0 min 0,000 mm 0,0 UV-I 25 W/m 7,6 C 12,8 C 12,9 km/h (3 Bft) 93,33 %
13.04.2018 12:17 14,2 C 10,6 C 65 % 1006,0 hPa 0,0 l/m 12,1 km/h (2 Bft) W 266 0 min 0,000 mm 0,0 UV-I 25 W/m 7,7 C 11,3 C 14,5 km/h (3 Bft) 92,59 %
13.04.2018 12:18 14,1 C 10,6 C 65 % 1006,0 hPa 0,0 l/m 15,1 km/h (3 Bft) W 266 0 min 0,000 mm 0,0 UV-I 26 W/m 7,6 C 10,1 C 22,5 km/h (4 Bft) 95,65 %
13.04.2018 12:19 14,0 C 10,6 C 63 % 1005,9 hPa 0,0 l/m 8,7 km/h (2 Bft) SW 236 0 min 0,000 mm 0,0 UV-I 29 W/m 7,1 C 12,7 C 12,9 km/h (3 Bft) 100,00 %
13.04.2018 12:20 13,9 C 10,6 C 65 % 1005,9 hPa 0,2 l/m 4,8 km/h (1 Bft) W 266 0 min 0,000 mm 0,0 UV-I 31 W/m 7,4 C 13,9 C 6,4 km/h (2 Bft) 100,00 %
13.04.2018 12:21 13,8 C 10,6 C 68 % 1005,8 hPa 0,0 l/m 7,2 km/h (2 Bft) W-NW 288 0 min 0,000 mm 0,0 UV-I 34 W/m 8,0 C 13,3 C 12,9 km/h (3 Bft) 100,00 %
13.04.2018 12:22 13,6 C 10,6 C 69 % 1005,8 hPa 0,2 l/m 11,4 km/h (2 Bft) W-SW 257 0 min 0,000 mm 0,0 UV-I 38 W/m 8,0 C 10,9 C 14,5 km/h (3 Bft) 100,00 %
13.04.2018 12:23 13,4 C 10,6 C 71 % 1005,8 hPa 0,0 l/m 11,5 km/h (2 Bft) W-NW 294 0 min 0,000 mm 0,0 UV-I 42 W/m 8,3 C 10,6 C 17,7 km/h (3 Bft) 100,00 %
13.04.2018 12:24 13,2 C 10,6 C 72 % 1005,7 hPa 0,2 l/m 7,8 km/h (2 Bft) NW 304 0 min 0,000 mm 0,0 UV-I 50 W/m 8,3 C 12,3 C 12,9 km/h (3 Bft) 100,00 %
13.04.2018 12:25 12,9 C 10,6 C 74 % 1005,6 hPa 0,0 l/m 8,0 km/h (2 Bft) NW 324 0 min 0,000 mm 0,0 UV-I 55 W/m 8,4 C 11,9 C 12,9 km/h (3 Bft) 100,00 %
13.04.2018 12:26 12,7 C 10,6 C 75 % 1005,6 hPa 0,0 l/m 6,3 km/h (2 Bft) NW 313 0 min 0,000 mm 0,0 UV-I 64 W/m 8,4 C 12,7 C 9,7 km/h (2 Bft) 100,00 %
13.04.2018 12:27 12,3 C 10,6 C 79 % 1005,6 hPa 0,0 l/m 5,6 km/h (1 Bft) NW 305 0 min 0,000 mm 0,0 UV-I 70 W/m 8,8 C 12,3 C 8,0 km/h (2 Bft) 100,00 %
13.04.2018 12:28 12,1 C 10,6 C 81 % 1005,6 hPa 0,0 l/m 5,6 km/h (1 Bft) NW 317 0 min 0,000 mm 0,0 UV-I 77 W/m 8,9 C 12,1 C 12,9 km/h (3 Bft) 100,00 %
13.04.2018 12:29 11,9 C 10,6 C 82 % 1005,6 hPa 0,0 l/m 3,9 km/h (1 Bft) NW 317 0 min 0,000 mm 0,0 UV-I 85 W/m 8,9 C 11,9 C 6,4 km/h (2 Bft) 96,30 %
13.04.2018 12:30 11,8 C 10,6 C 83 % 1005,7 hPa 0,2 l/m 2,0 km/h (1 Bft) NW 317 0 min 0,000 mm 0,0 UV-I 92 W/m 9,0 C 11,8 C 3,2 km/h (1 Bft) 100,00 %
13.04.2018 12:31 11,7 C 10,6 C 84 % 1005,6 hPa 0,0 l/m 2,1 km/h (1 Bft) NW 317 0 min 0,000 mm 0,1 UV-I 100 W/m 9,1 C 11,7 C 3,2 km/h (1 Bft) 100,00 %
13.04.2018 12:32 11,6 C 10,6 C 85 % 1005,6 hPa 0,0 l/m 1,3 km/h (1 Bft) NW 317 0 min 0,000 mm 0,5 UV-I 108 W/m 9,2 C 11,6 C 3,2 km/h (1 Bft) 100,00 %
13.04.2018 12:33 11,6 C 10,6 C 86 % 1005,6 hPa 0,0 l/m 1,3 km/h (1 Bft) NW 317 0 min 0,000 mm 0,5 UV-I 116 W/m 9,3 C 11,6 C 3,2 km/h (1 Bft) 100,00 %
13.04.2018 12:34 11,6 C 10,6 C 85 % 1005,5 hPa 0,0 l/m 1,3 km/h (1 Bft) NW 317 0 min 0,000 mm 0,5 UV-I 122 W/m 9,2 C 11,6 C 3,2 km/h (1 Bft) 100,00 %
13.04.2018 12:35 11,5 C 10,6 C 85 % 1005,5 hPa 0,0 l/m 2,1 km/h (1 Bft) NW 317 0 min 0,000 mm 0,6 UV-I 130 W/m 9,1 C 11,5 C 3,2 km/h (1 Bft) 100,00 %
13.04.2018 12:36 11,5 C 10,6 C 86 % 1005,5 hPa 0,0 l/m 3,6 km/h (1 Bft) N 355 0 min 0,000 mm 0,6 UV-I 138 W/m 9,2 C 11,5 C 4,8 km/h (1 Bft) 100,00 %
13.04.2018 12:37 11,6 C 10,6 C 87 % 1005,5 hPa 0,0 l/m 1,0 km/h (0 Bft) N 355 0 min 0,000 mm 0,6 UV-I 146 W/m 9,5 C 11,6 C 3,2 km/h (1 Bft) 100,00 %
13.04.2018 12:38 11,7 C 10,6 C 87 % 1005,5 hPa 0,0 l/m 1,4 km/h (1 Bft) N 351 0 min 0,000 mm 0,6 UV-I 154 W/m 9,6 C 11,7 C 3,2 km/h (1 Bft) 100,00 %
13.04.2018 12:39 11,7 C 10,6 C 87 % 1005,5 hPa 0,0 l/m 1,0 km/h (0 Bft) N 351 0 min 0,000 mm 0,7 UV-I 163 W/m 9,6 C 11,7 C 1,6 km/h (1 Bft) 100,00 %
13.04.2018 12:40 11,8 C 10,6 C 87 % 1005,5 hPa 0,0 l/m 1,9 km/h (1 Bft) N-NW 344 0 min 0,000 mm 0,8 UV-I 174 W/m 9,7 C 11,8 C 3,2 km/h (1 Bft) 100,00 %
13.04.2018 12:41 11,8 C 10,6 C 86 % 1005,5 hPa 0,0 l/m 1,7 km/h (1 Bft) N-NW 344 0 min 0,000 mm 0,8 UV-I 185 W/m 9,5 C 11,8 C 3,2 km/h (1 Bft) 100,00 %
13.04.2018 12:42 11,8 C 10,6 C 87 % 1005,5 hPa 0,0 l/m 1,9 km/h (1 Bft) N-NW 344 0 min 0,000 mm 0,9 UV-I 195 W/m 9,7 C 11,8 C 3,2 km/h (1 Bft) 100,00 %
13.04.2018 12:43 11,9 C 10,6 C 86 % 1005,5 hPa 0,0 l/m 2,6 km/h (1 Bft) N-NW 344 0 min 0,000 mm 0,9 UV-I 207 W/m 9,6 C 11,9 C 3,2 km/h (1 Bft) 96,55 %
13.04.2018 12:44 12,0 C 10,6 C 86 % 1005,5 hPa 0,0 l/m 1,8 km/h (1 Bft) N-NW 344 0 min 0,000 mm 0,9 UV-I 217 W/m 9,7 C 12,0 C 3,2 km/h (1 Bft) 100,00 %
13.04.2018 12:45 12,1 C 10,6 C 86 % 1005,5 hPa 0,0 l/m 2,1 km/h (1 Bft) N-NW 344 0 min 0,000 mm 1,0 UV-I 227 W/m 9,8 C 12,1 C 3,2 km/h (1 Bft) 92,86 %
13.04.2018 12:46 12,1 C 10,6 C 86 % 1005,5 hPa 0,0 l/m 2,6 km/h (1 Bft) N-NW 334 0 min 0,000 mm 1,1 UV-I 234 W/m 9,8 C 12,1 C 3,2 km/h (1 Bft) 100,00 %
13.04.2018 12:47 12,3 C 10,6 C 87 % 1005,5 hPa 0,0 l/m 4,0 km/h (1 Bft) W 279 0 min 0,000 mm 1,1 UV-I 241 W/m 10,2 C 12,3 C 4,8 km/h (1 Bft) 100,00 %
13.04.2018 12:48 12,4 C 10,6 C 87 % 1005,5 hPa 0,0 l/m 4,8 km/h (1 Bft) W 279 0 min 0,000 mm 1,1 UV-I 250 W/m 10,3 C 12,4 C 6,4 km/h (2 Bft) 100,00 %
13.04.2018 12:49 12,5 C 10,6 C 86 % 1005,6 hPa 0,0 l/m 4,4 km/h (1 Bft) W 279 0 min 0,000 mm 1,2 UV-I 255 W/m 10,2 C 12,5 C 6,4 km/h (2 Bft) 100,00 %
13.04.2018 12:50 12,7 C 10,6 C 84 % 1005,6 hPa 0,0 l/m 5,4 km/h (1 Bft) W-NW 282 0 min 0,000 mm 1,2 UV-I 258 W/m 10,1 C 12,7 C 6,4 km/h (2 Bft) 93,33 %
13.04.2018 12:51 12,8 C 10,6 C 82 % 1005,6 hPa 0,0 l/m 5,5 km/h (1 Bft) W 274 0 min 0,000 mm 1,3 UV-I 266 W/m 9,8 C 12,8 C 6,4 km/h (2 Bft) 100,00 %
13.04.2018 12:52 13,0 C 10,6 C 80 % 1005,6 hPa 0,0 l/m 4,5 km/h (1 Bft) W-NW 288 0 min 0,000 mm 1,3 UV-I 277 W/m 9,6 C 13,0 C 4,8 km/h (1 Bft) 96,30 %
13.04.2018 12:53 13,2 C 10,6 C 78 % 1005,7 hPa 0,0 l/m 5,5 km/h (1 Bft) W-NW 284 0 min 0,000 mm 1,3 UV-I 281 W/m 9,4 C 13,2 C 6,4 km/h (2 Bft) 100,00 %
13.04.2018 12:54 13,4 C 10,6 C 76 % 1005,7 hPa 0,0 l/m 8,3 km/h (2 Bft) W 270 0 min 0,000 mm 1,3 UV-I 287 W/m 9,3 C 12,2 C 11,3 km/h (2 Bft) 95,83 %
13.04.2018 12:55 13,6 C 10,6 C 73 % 1005,7 hPa 0,0 l/m 6,6 km/h (2 Bft) W 269 0 min 0,000 mm 1,3 UV-I 295 W/m 8,9 C 13,5 C 9,7 km/h (2 Bft) 100,00 %
13.04.2018 12:56 13,8 C 10,6 C 74 % 1005,8 hPa 0,0 l/m 8,2 km/h (2 Bft) W 275 0 min 0,000 mm 1,4 UV-I 305 W/m 9,2 C 12,7 C 11,3 km/h (2 Bft) 96,55 %
13.04.2018 12:57 13,9 C 10,6 C 72 % 1005,8 hPa 0,0 l/m 8,1 km/h (2 Bft) W-SW 248 0 min 0,000 mm 1,4 UV-I 327 W/m 8,9 C 12,9 C 11,3 km/h (2 Bft) 96,55 %
13.04.2018 12:58 14,0 C 10,6 C 71 % 1005,8 hPa 0,0 l/m 8,6 km/h (2 Bft) W 275 0 min 0,000 mm 1,5 UV-I 334 W/m 8,8 C 12,7 C 12,9 km/h (3 Bft) 100,00 %
13.04.2018 12:59 14,1 C 10,6 C 71 % 1005,8 hPa 0,0 l/m 8,0 km/h (2 Bft) W 273 0 min 0,000 mm 1,7 UV-I 378 W/m 8,9 C 13,2 C 11,3 km/h (2 Bft) 93,33 %
13.04.2018 13:00 14,2 C 10,6 C 71 % 1005,8 hPa 0,0 l/m 8,1 km/h (2 Bft) W 280 0 min 0,000 mm 1,8 UV-I 402 W/m 9,0 C 13,2 C 11,3 km/h (2 Bft) 100,00 %
13.04.2018 13:01 14,3 C 10,6 C 72 % 1005,9 hPa 0,0 l/m 6,3 km/h (2 Bft) W 281 1 min 0,102 mm 2,1 UV-I 446 W/m 9,3 C 14,3 C 9,7 km/h (2 Bft) 96,30 %
13.04.2018 13:02 14,3 C 10,6 C 71 % 1005,9 hPa 0,0 l/m 5,8 km/h (2 Bft) W 269 1 min 0,000 mm 2,4 UV-I 446 W/m 9,1 C 14,3 C 8,0 km/h (2 Bft) 100,00 %
13.04.2018 13:03 14,5 C 10,6 C 70 % 1005,9 hPa 0,0 l/m 3,6 km/h (1 Bft) W-NW 293 1 min 0,000 mm 3,1 UV-I 446 W/m 9,1 C 14,5 C 6,4 km/h (2 Bft) 96,30 %
13.04.2018 13:04 14,8 C 10,6 C 74 % 1005,9 hPa 0,0 l/m 3,8 km/h (1 Bft) W-NW 293 1 min 0,000 mm 3,4 UV-I 1067 W/m 10,2 C 14,8 C 6,4 km/h (2 Bft) 96,55 %
13.04.2018 13:05 15,2 C 10,6 C 74 % 1005,9 hPa 0,0 l/m 4,5 km/h (1 Bft) W-NW 286 1 min 0,000 mm 3,4 UV-I 1072 W/m 10,6 C 15,2 C 6,4 km/h (2 Bft) 100,00 %
13.04.2018 13:06 15,4 C 10,6 C 73 % 1005,9 hPa 0,0 l/m 4,6 km/h (1 Bft) W 269 1 min 0,000 mm 3,4 UV-I 1076 W/m 10,6 C 15,4 C 11,3 km/h (2 Bft) 100,00 %
13.04.2018 13:08 15,8 C 10,6 C 68 % 1005,9 hPa 0,0 l/m 8,8 km/h (2 Bft) W-NW 301 2 min 0,000 mm 3,1 UV-I 1076 W/m 9,9 C 14,5 C 16,1 km/h (3 Bft) 96,43 %
13.04.2018 13:09 15,9 C 10,6 C 62 % 1005,9 hPa 0,0 l/m 10,2 km/h (2 Bft) W-NW 293 1 min 0,000 mm 3,4 UV-I 1076 W/m 8,6 C 14,0 C 12,9 km/h (3 Bft) 100,00 %
13.04.2018 13:10 16,1 C 10,6 C 64 % 1005,9 hPa 0,0 l/m 7,7 km/h (2 Bft) W 279 1 min 0,000 mm 3,4 UV-I 1055 W/m 9,3 C 15,4 C 11,3 km/h (2 Bft) 92,31 %
13.04.2018 13:11 16,3 C 10,6 C 63 % 1005,9 hPa 0,0 l/m 4,7 km/h (1 Bft) W 264 1 min 0,000 mm 3,4 UV-I 1043 W/m 9,2 C 16,3 C 9,7 km/h (2 Bft) 100,00 %
13.04.2018 13:12 16,5 C 10,6 C 65 % 1006,0 hPa 0,0 l/m 6,8 km/h (2 Bft) W-NW 293 1 min 0,000 mm 3,4 UV-I 1040 W/m 9,9 C 16,3 C 11,3 km/h (2 Bft) 95,83 %
13.04.2018 13:13 16,7 C 10,6 C 62 % 1005,9 hPa 0,0 l/m 5,2 km/h (1 Bft) NW 313 1 min 0,000 mm 3,4 UV-I 1043 W/m 9,4 C 16,7 C 6,4 km/h (2 Bft) 100,00 %
13.04.2018 13:14 16,8 C 10,6 C 59 % 1005,9 hPa 0,0 l/m 4,8 km/h (1 Bft) NW 317 1 min 0,000 mm 3,4 UV-I 1059 W/m 8,7 C 16,8 C 14,5 km/h (3 Bft) 96,15 %
13.04.2018 13:15 16,9 C 10,6 C 59 % 1005,9 hPa 0,0 l/m 2,3 km/h (1 Bft) NW 317 1 min 0,000 mm 3,3 UV-I 1063 W/m 8,8 C 16,9 C 3,2 km/h (1 Bft) 95,83 %
13.04.2018 13:16 17,1 C 10,6 C 60 % 1005,9 hPa 0,0 l/m 5,7 km/h (1 Bft) NW 321 1 min 0,000 mm 3,1 UV-I 1063 W/m 9,3 C 17,1 C 8,0 km/h (2 Bft) 100,00 %
13.04.2018 13:17 17,1 C 10,6 C 61 % 1005,9 hPa 0,0 l/m 4,8 km/h (1 Bft) NW 323 1 min 0,000 mm 3,4 UV-I 1063 W/m 9,5 C 17,1 C 8,0 km/h (2 Bft) 95,83 %
13.04.2018 13:18 17,3 C 10,6 C 63 % 1005,9 hPa 0,0 l/m 4,6 km/h (1 Bft) NW 318 1 min 0,000 mm 3,6 UV-I 1069 W/m 10,2 C 17,3 C 6,4 km/h (2 Bft) 93,33 %
13.04.2018 13:19 17,5 C 10,6 C 64 % 1005,9 hPa 0,0 l/m 5,8 km/h (2 Bft) W-NW 289 1 min 0,000 mm 3,3 UV-I 854 W/m 10,6 C 17,5 C 8,0 km/h (2 Bft) 96,15 %
13.04.2018 13:20 17,5 C 10,6 C 57 % 1006,0 hPa 0,0 l/m 5,6 km/h (1 Bft) NW 325 1 min 0,000 mm 3,6 UV-I 599 W/m 8,9 C 17,5 C 6,4 km/h (2 Bft) 100,00 %
13.04.2018 13:21 17,5 C 10,6 C 61 % 1006,0 hPa 0,0 l/m 3,9 km/h (1 Bft) NW 317 1 min 0,000 mm 3,5 UV-I 599 W/m 9,9 C 17,5 C 6,4 km/h (2 Bft) 92,31 %
13.04.2018 13:22 17,6 C 10,6 C 59 % 1006,0 hPa 0,0 l/m 9,6 km/h (2 Bft) W 279 1 min 0,000 mm 2,8 UV-I 652 W/m 9,5 C 16,1 C 16,1 km/h (3 Bft) 100,00 %
13.04.2018 13:23 17,6 C 10,6 C 55 % 1006,0 hPa 0,0 l/m 9,8 km/h (2 Bft) W 279 1 min 0,000 mm 3,5 UV-I 652 W/m 8,5 C 16,1 C 14,5 km/h (3 Bft) 100,00 %
13.04.2018 13:24 17,6 C 10,6 C 59 % 1006,0 hPa 0,0 l/m 6,2 km/h (2 Bft) W-NW 293 1 min 0,000 mm 3,5 UV-I 694 W/m 9,5 C 17,6 C 11,3 km/h (2 Bft) 100,00 %
13.04.2018 13:25 17,6 C 10,6 C 55 % 1006,0 hPa 0,0 l/m 3,9 km/h (1 Bft) W-NW 288 1 min 0,000 mm 2,8 UV-I 810 W/m 8,5 C 17,6 C 6,4 km/h (2 Bft) 100,00 %
13.04.2018 13:26 17,6 C 10,6 C 53 % 1006,0 hPa 0,0 l/m 9,9 km/h (2 Bft) W-NW 303 1 min 0,000 mm 2,5 UV-I 810 W/m 7,9 C 16,0 C 16,1 km/h (3 Bft) 91,67 %
13.04.2018 13:27 17,4 C 10,6 C 52 % 1005,9 hPa 0,0 l/m 7,9 km/h (2 Bft) W 277 1 min 0,000 mm 2,8 UV-I 624 W/m 7,4 C 16,7 C 11,3 km/h (2 Bft) 100,00 %
13.04.2018 13:28 17,4 C 10,6 C 52 % 1005,9 hPa 0,0 l/m 4,8 km/h (1 Bft) W-NW 291 1 min 0,000 mm 2,8 UV-I 459 W/m 7,4 C 17,4 C 8,0 km/h (2 Bft) 91,67 %
13.04.2018 13:29 17,3 C 10,6 C 51 % 1006,0 hPa 0,0 l/m 4,3 km/h (1 Bft) NW 318 1 min 0,000 mm 2,6 UV-I 450 W/m 7,1 C 17,3 C 6,4 km/h (2 Bft) 100,00 %
13.04.2018 13:30 17,3 C 10,6 C 53 % 1005,9 hPa 0,0 l/m 2,0 km/h (1 Bft) W-SW 250 1 min 0,000 mm 2,6 UV-I 450 W/m 7,6 C 17,3 C 4,8 km/h (1 Bft) 100,00 %
13.04.2018 13:31 17,4 C 10,6 C 54 % 1006,0 hPa 0,0 l/m 3,2 km/h (1 Bft) W 261 0 min 0,000 mm 1,8 UV-I 377 W/m 8,0 C 17,4 C 6,4 km/h (2 Bft) 96,15 %
13.04.2018 13:32 17,4 C 10,6 C 49 % 1006,0 hPa 0,0 l/m 3,4 km/h (1 Bft) W 281 0 min 0,000 mm 2,5 UV-I 288 W/m 6,6 C 17,4 C 6,4 km/h (2 Bft) 100,00 %
13.04.2018 13:33 17,3 C 10,6 C 54 % 1006,0 hPa 0,0 l/m 6,6 km/h (2 Bft) NW 313 0 min 0,000 mm 3,0 UV-I 288 W/m 7,9 C 17,2 C 12,9 km/h (3 Bft) 100,00 %
13.04.2018 13:34 17,3 C 10,6 C 52 % 1006,0 hPa 0,0 l/m 5,3 km/h (1 Bft) NW 304 1 min 0,000 mm 3,0 UV-I 902 W/m 7,3 C 17,3 C 8,0 km/h (2 Bft) 100,00 %
13.04.2018 13:35 17,3 C 10,6 C 53 % 1006,0 hPa 0,0 l/m 7,2 km/h (2 Bft) W-SW 246 1 min 0,000 mm 2,1 UV-I 761 W/m 7,6 C 16,9 C 9,7 km/h (2 Bft) 96,30 %
13.04.2018 13:36 17,4 C 10,6 C 52 % 1006,0 hPa 0,0 l/m 5,0 km/h (1 Bft) NW 321 0 min 0,000 mm 2,3 UV-I 366 W/m 7,4 C 17,4 C 8,0 km/h (2 Bft) 100,00 %
13.04.2018 13:37 17,3 C 10,6 C 51 % 1006,0 hPa 0,0 l/m 4,6 km/h (1 Bft) W-NW 287 1 min 0,000 mm 2,6 UV-I 563 W/m 7,1 C 17,3 C 6,4 km/h (2 Bft) 100,00 %
13.04.2018 13:38 17,4 C 10,6 C 54 % 1006,0 hPa 0,0 l/m 3,8 km/h (1 Bft) W-NW 289 1 min 0,000 mm 3,1 UV-I 729 W/m 8,0 C 17,4 C 4,8 km/h (1 Bft) 100,00 %
13.04.2018 13:39 17,6 C 10,6 C 53 % 1006,0 hPa 0,0 l/m 4,8 km/h (1 Bft) W-NW 302 1 min 0,000 mm 3,6 UV-I 958 W/m 7,9 C 17,6 C 6,4 km/h (2 Bft) 100,00 %
13.04.2018 13:40 17,7 C 10,6 C 52 % 1006,0 hPa 0,0 l/m 4,4 km/h (1 Bft) N 10 1 min 0,000 mm 3,5 UV-I 1000 W/m 7,7 C 17,7 C 6,4 km/h (2 Bft) 95,65 %
13.04.2018 13:41 17,8 C 10,6 C 52 % 1006,0 hPa 0,0 l/m 5,2 km/h (1 Bft) N-NW 334 1 min 0,000 mm 3,5 UV-I 969 W/m 7,8 C 17,8 C 8,0 km/h (2 Bft) 100,00 %
13.04.2018 13:42 18,0 C 10,6 C 52 % 1006,0 hPa 0,0 l/m 5,7 km/h (1 Bft) NW 321 1 min 0,000 mm 3,4 UV-I 956 W/m 8,0 C 18,0 C 8,0 km/h (2 Bft) 100,00 %
13.04.2018 13:43 18,1 C 10,6 C 49 % 1006,0 hPa 0,0 l/m 6,9 km/h (2 Bft) W 270 1 min 0,000 mm 2,8 UV-I 956 W/m 7,2 C 17,9 C 11,3 km/h (2 Bft) 100,00 %
13.04.2018 13:44 18,1 C 10,6 C 49 % 1006,0 hPa 0,0 l/m 6,4 km/h (2 Bft) W-SW 249 1 min 0,000 mm 2,2 UV-I 591 W/m 7,2 C 18,1 C 11,3 km/h (2 Bft) 100,00 %
13.04.2018 13:45 18,0 C 10,6 C 49 % 1006,0 hPa 0,0 l/m 5,9 km/h (2 Bft) N 9 1 min 0,000 mm 3,1 UV-I 432 W/m 7,1 C 18,0 C 8,0 km/h (2 Bft) 100,00 %
13.04.2018 13:46 18,0 C 10,6 C 52 % 1005,9 hPa 0,0 l/m 5,6 km/h (1 Bft) N 5 1 min 0,000 mm 3,3 UV-I 937 W/m 8,0 C 18,0 C 11,3 km/h (2 Bft) 100,00 %
13.04.2018 13:48 17,9 C 10,6 C 47 % 1006,0 hPa 0,0 l/m 6,7 km/h (2 Bft) W 259 2 min 0,000 mm 2,3 UV-I 815 W/m 6,4 C 17,8 C 11,3 km/h (2 Bft) 100,00 %
13.04.2018 13:49 17,8 C 10,6 C 46 % 1006,0 hPa 0,0 l/m 4,4 km/h (1 Bft) N-NW 327 1 min 0,000 mm 1,9 UV-I 438 W/m 6,0 C 17,8 C 4,8 km/h (1 Bft) 100,00 %
13.04.2018 13:50 17,7 C 10,6 C 46 % 1006,0 hPa 0,0 l/m 6,9 km/h (2 Bft) N 5 0 min 0,000 mm 1,8 UV-I 323 W/m 5,9 C 17,5 C 8,0 km/h (2 Bft) 100,00 %
13.04.2018 13:51 17,6 C 10,6 C 50 % 1006,0 hPa 0,0 l/m 2,5 km/h (1 Bft) N 9 0 min 0,000 mm 1,7 UV-I 280 W/m 7,1 C 17,6 C 6,4 km/h (2 Bft) 95,83 %
13.04.2018 13:52 17,5 C 10,6 C 51 % 1006,0 hPa 0,0 l/m 2,1 km/h (1 Bft) N 9 0 min 0,000 mm 1,7 UV-I 271 W/m 7,3 C 17,5 C 4,8 km/h (1 Bft) 100,00 %
13.04.2018 13:53 17,5 C 10,6 C 49 % 1006,0 hPa 0,0 l/m 2,7 km/h (1 Bft) N 350 0 min 0,000 mm 1,7 UV-I 307 W/m 6,7 C 17,5 C 8,0 km/h (2 Bft) 100,00 %
13.04.2018 13:54 17,4 C 10,6 C 52 % 1006,0 hPa 0,0 l/m 9,5 km/h (2 Bft) N-NW 344 0 min 0,000 mm 2,0 UV-I 394 W/m 7,4 C 16,0 C 11,3 km/h (2 Bft) 100,00 %
13.04.2018 13:55 17,4 C 10,6 C 52 % 1006,0 hPa 0,0 l/m 6,9 km/h (2 Bft) NW 307 1 min 0,000 mm 2,1 UV-I 462 W/m 7,4 C 17,2 C 9,7 km/h (2 Bft) 100,00 %
13.04.2018 13:56 17,4 C 10,6 C 55 % 1006,1 hPa 0,0 l/m 3,8 km/h (1 Bft) NW 306 1 min 0,000 mm 2,7 UV-I 492 W/m 8,3 C 17,4 C 4,8 km/h (1 Bft) 100,00 %
13.04.2018 13:57 17,5 C 10,6 C 51 % 1006,1 hPa 0,0 l/m 3,2 km/h (1 Bft) NW 313 1 min 0,000 mm 2,9 UV-I 512 W/m 7,3 C 17,5 C 4,8 km/h (1 Bft) 95,83 %
13.04.2018 13:58 17,6 C 10,6 C 52 % 1006,1 hPa 0,0 l/m 3,1 km/h (1 Bft) W 271 1 min 0,000 mm 3,2 UV-I 974 W/m 7,6 C 17,6 C 6,4 km/h (2 Bft) 100,00 %
13.04.2018 13:59 17,7 C 10,6 C 48 % 1006,0 hPa 0,0 l/m 5,7 km/h (1 Bft) N-NW 327 1 min 0,000 mm 3,1 UV-I 1042 W/m 6,6 C 17,7 C 9,7 km/h (2 Bft) 100,00 %
13.04.2018 14:00 17,7 C 10,6 C 48 % 1006,0 hPa 0,0 l/m 6,1 km/h (2 Bft) N-NW 340 1 min 0,432 mm 2,2 UV-I 783 W/m 6,6 C 17,7 C 8,0 km/h (2 Bft) 100,00 %
13.04.2018 14:01 17,7 C 10,6 C 48 % 1006,0 hPa 0,0 l/m 7,6 km/h (2 Bft) NW 325 0 min 0,000 mm 2,3 UV-I 394 W/m 6,6 C 17,1 C 12,9 km/h (3 Bft) 100,00 %
13.04.2018 14:02 17,7 C 10,6 C 47 % 1006,0 hPa 0,0 l/m 4,8 km/h (1 Bft) N 355 0 min 0,000 mm 2,3 UV-I 394 W/m 6,2 C 17,7 C 8,0 km/h (2 Bft) 100,00 %
13.04.2018 14:03 17,6 C 10,6 C 47 % 1006,0 hPa 0,0 l/m 6,4 km/h (2 Bft) NW 307 0 min 0,000 mm 1,9 UV-I 337 W/m 6,2 C 17,6 C 9,7 km/h (2 Bft) 100,00 %
13.04.2018 14:04 17,6 C 10,6 C 47 % 1005,9 hPa 0,0 l/m 7,3 km/h (2 Bft) N-NW 336 0 min 0,000 mm 2,2 UV-I 334 W/m 6,2 C 17,2 C 9,7 km/h (2 Bft) 96,67 %
13.04.2018 14:05 17,6 C 10,6 C 51 % 1005,9 hPa 0,0 l/m 7,9 km/h (2 Bft) N-NW 329 0 min 0,000 mm 2,7 UV-I 334 W/m 7,3 C 16,9 C 9,7 km/h (2 Bft) 100,00 %
13.04.2018 14:06 17,7 C 10,6 C 49 % 1005,8 hPa 0,0 l/m 7,4 km/h (2 Bft) N-NW 336 1 min 0,000 mm 3,3 UV-I 677 W/m 6,9 C 17,2 C 12,9 km/h (3 Bft) 100,00 %
13.04.2018 14:07 17,8 C 10,6 C 50 % 1005,8 hPa 0,0 l/m 11,9 km/h (2 Bft) N-NW 342 1 min 0,000 mm 2,8 UV-I 981 W/m 7,2 C 15,5 C 14,5 km/h (3 Bft) 100,00 %
13.04.2018 14:08 17,9 C 10,6 C 47 % 1005,8 hPa 0,0 l/m 9,7 km/h (2 Bft) N-NW 344 1 min 0,000 mm 2,1 UV-I 947 W/m 6,4 C 16,4 C 14,5 km/h (3 Bft) 100,00 %
13.04.2018 14:09 18,0 C 10,6 C 47 % 1005,9 hPa 0,0 l/m 7,6 km/h (2 Bft) W 271 0 min 0,000 mm 2,1 UV-I 393 W/m 6,5 C 17,4 C 12,9 km/h (3 Bft) 100,00 %
13.04.2018 14:10 17,9 C 10,6 C 48 % 1005,9 hPa 0,0 l/m 7,6 km/h (2 Bft) NW 306 0 min 0,000 mm 1,9 UV-I 353 W/m 6,7 C 17,3 C 14,5 km/h (3 Bft) 100,00 %
13.04.2018 14:11 17,9 C 10,6 C 48 % 1005,9 hPa 0,0 l/m 4,8 km/h (1 Bft) W-NW 293 0 min 0,000 mm 2,0 UV-I 374 W/m 6,7 C 17,9 C 6,4 km/h (2 Bft) 100,00 %
13.04.2018 14:12 17,9 C 10,6 C 48 % 1006,0 hPa 0,0 l/m 3,5 km/h (1 Bft) NW 317 1 min 0,000 mm 2,2 UV-I 413 W/m 6,7 C 17,9 C 6,4 km/h (2 Bft) 96,88 %
13.04.2018 14:13 17,9 C 10,6 C 47 % 1006,0 hPa 0,0 l/m 3,1 km/h (1 Bft) N-NW 327 1 min 0,000 mm 2,6 UV-I 413 W/m 6,4 C 17,9 C 4,8 km/h (1 Bft) 100,00 %
13.04.2018 14:14 17,9 C 10,6 C 46 % 1006,0 hPa 0,0 l/m 3,0 km/h (1 Bft) W 277 1 min 0,000 mm 3,2 UV-I 551 W/m 6,1 C 17,9 C 6,4 km/h (2 Bft) 100,00 %
13.04.2018 14:15 18,1 C 10,6 C 50 % 1006,0 hPa 0,0 l/m 2,7 km/h (1 Bft) N-NW 348 1 min 0,000 mm 3,3 UV-I 585 W/m 7,5 C 18,1 C 4,8 km/h (1 Bft) 100,00 %
13.04.2018 14:16 18,3 C 10,6 C 51 % 1006,1 hPa 0,0 l/m 3,9 km/h (1 Bft) N 11 1 min 0,000 mm 3,3 UV-I 692 W/m 8,0 C 18,3 C 4,8 km/h (1 Bft) 92,31 %
13.04.2018 14:17 18,5 C 10,6 C 50 % 1006,0 hPa 0,0 l/m 7,0 km/h (2 Bft) N-NO 24 1 min 0,000 mm 3,3 UV-I 931 W/m 7,9 C 18,2 C 12,9 km/h (3 Bft) 95,83 %
13.04.2018 14:18 18,6 C 10,6 C 49 % 1006,1 hPa 0,0 l/m 13,0 km/h (3 Bft) N 10 1 min 0,000 mm 3,2 UV-I 910 W/m 7,7 C 16,1 C 17,7 km/h (3 Bft) 100,00 %
13.04.2018 14:19 18,7 C 10,6 C 46 % 1006,1 hPa 0,0 l/m 7,3 km/h (2 Bft) W-SW 250 1 min 0,000 mm 3,1 UV-I 908 W/m 6,8 C 18,3 C 11,3 km/h (2 Bft) 100,00 %
13.04.2018 14:20 18,7 C 10,6 C 47 % 1006,1 hPa 0,0 l/m 6,0 km/h (2 Bft) N 5 1 min 0,000 mm 3,0 UV-I 892 W/m 7,2 C 18,7 C 8,0 km/h (2 Bft) 95,65 %
13.04.2018 14:21 18,8 C 10,6 C 46 % 1006,1 hPa 0,0 l/m 11,5 km/h (2 Bft) N-NO 21 1 min 0,000 mm 2,0 UV-I 807 W/m 6,9 C 16,8 C 14,5 km/h (3 Bft) 95,83 %
13.04.2018 14:22 18,7 C 10,6 C 46 % 1006,1 hPa 0,0 l/m 9,4 km/h (2 Bft) N 355 0 min 0,000 mm 1,8 UV-I 273 W/m 6,8 C 17,4 C 16,1 km/h (3 Bft) 95,65 %
13.04.2018 14:23 18,6 C 10,6 C 45 % 1006,2 hPa 0,0 l/m 3,4 km/h (1 Bft) W-NW 292 0 min 0,000 mm 2,1 UV-I 320 W/m 6,4 C 18,6 C 6,4 km/h (2 Bft) 100,00 %
13.04.2018 14:24 18,3 C 10,6 C 41 % 1006,2 hPa 0,0 l/m 5,1 km/h (1 Bft) N 355 1 min 0,000 mm 2,5 UV-I 455 W/m 4,8 C 18,3 C 6,4 km/h (2 Bft) 100,00 %
13.04.2018 14:25 18,2 C 10,6 C 46 % 1006,2 hPa 0,0 l/m 4,5 km/h (1 Bft) N-NO 26 1 min 0,000 mm 3,0 UV-I 527 W/m 6,4 C 18,2 C 6,4 km/h (2 Bft) 95,83 %
13.04.2018 14:26 18,3 C 10,6 C 46 % 1006,3 hPa 0,0 l/m 3,4 km/h (1 Bft) N-NW 327 1 min 0,000 mm 3,1 UV-I 527 W/m 6,5 C 18,3 C 4,8 km/h (1 Bft) 96,15 %
13.04.2018 14:27 18,3 C 10,6 C 45 % 1006,2 hPa 0,0 l/m 5,8 km/h (2 Bft) W-NW 300 1 min 0,000 mm 2,1 UV-I 512 W/m 6,2 C 18,3 C 8,0 km/h (2 Bft) 100,00 %
13.04.2018 14:28 18,3 C 10,6 C 43 % 1006,2 hPa 0,0 l/m 5,0 km/h (1 Bft) NW 309 0 min 0,000 mm 1,8 UV-I 217 W/m 5,5 C 18,3 C 6,4 km/h (2 Bft) 100,00 %
13.04.2018 14:29 18,3 C 10,6 C 45 % 1006,2 hPa 0,0 l/m 5,6 km/h (1 Bft) N 360 0 min 0,000 mm 2,7 UV-I 216 W/m 6,2 C 18,3 C 11,3 km/h (2 Bft) 100,00 %
13.04.2018 14:30 18,4 C 10,6 C 47 % 1006,2 hPa 0,0 l/m 10,0 km/h (2 Bft) N 5 1 min 0,000 mm 3,0 UV-I 545 W/m 6,9 C 16,9 C 12,9 km/h (3 Bft) 96,15 %
13.04.2018 14:31 18,6 C 10,6 C 47 % 1006,2 hPa 0,0 l/m 9,2 km/h (2 Bft) N 5 1 min 0,000 mm 3,0 UV-I 832 W/m 7,1 C 17,4 C 12,9 km/h (3 Bft) 100,00 %
13.04.2018 14:32 18,6 C 10,6 C 44 % 1006,2 hPa 0,0 l/m 7,4 km/h (2 Bft) N-NO 26 1 min 0,000 mm 2,9 UV-I 819 W/m 6,1 C 18,1 C 12,9 km/h (3 Bft) 100,00 %
13.04.2018 14:33 18,7 C 10,6 C 49 % 1006,2 hPa 0,0 l/m 9,7 km/h (2 Bft) N-NO 13 1 min 0,000 mm 2,9 UV-I 797 W/m 7,8 C 17,3 C 12,9 km/h (3 Bft) 100,00 %
13.04.2018 14:34 18,7 C 10,6 C 44 % 1006,3 hPa 0,0 l/m 6,6 km/h (2 Bft) N-NO 26 1 min 0,000 mm 2,9 UV-I 775 W/m 6,2 C 18,6 C 12,9 km/h (3 Bft) 100,00 %
13.04.2018 14:35 18,7 C 10,6 C 44 % 1006,2 hPa 0,0 l/m 8,4 km/h (2 Bft) N 10 1 min 0,000 mm 2,8 UV-I 760 W/m 6,2 C 17,8 C 9,7 km/h (2 Bft) 100,00 %
13.04.2018 14:36 18,7 C 10,6 C 42 % 1006,3 hPa 0,0 l/m 6,1 km/h (2 Bft) N-NO 29 1 min 0,000 mm 2,8 UV-I 746 W/m 5,5 C 18,7 C 12,9 km/h (3 Bft) 100,00 %
13.04.2018 14:37 18,7 C 10,6 C 46 % 1006,3 hPa 0,0 l/m 5,2 km/h (1 Bft) N-NO 24 1 min 0,000 mm 2,8 UV-I 738 W/m 6,8 C 18,7 C 6,4 km/h (2 Bft) 97,37 %
13.04.2018 14:38 18,8 C 10,6 C 43 % 1006,3 hPa 0,0 l/m 5,1 km/h (1 Bft) NW 321 1 min 0,000 mm 2,7 UV-I 730 W/m 6,0 C 18,8 C 6,4 km/h (2 Bft) 100,00 %
13.04.2018 14:39 18,8 C 10,6 C 46 % 1006,3 hPa 0,0 l/m 4,5 km/h (1 Bft) N-NW 336 1 min 0,000 mm 2,7 UV-I 725 W/m 6,9 C 18,8 C 6,4 km/h (2 Bft) 100,00 %
13.04.2018 14:40 18,9 C 10,6 C 45 % 1006,3 hPa 0,0 l/m 8,4 km/h (2 Bft) N-NO 17 1 min 0,000 mm 2,7 UV-I 721 W/m 6,7 C 18,0 C 12,9 km/h (3 Bft) 100,00 %
13.04.2018 14:41 19,0 C 10,6 C 48 % 1006,3 hPa 0,0 l/m 7,0 km/h (2 Bft) N 9 1 min 0,000 mm 2,7 UV-I 718 W/m 7,7 C 18,7 C 11,3 km/h (2 Bft) 100,00 %
13.04.2018 14:42 18,9 C 10,6 C 41 % 1006,3 hPa 0,0 l/m 1,4 km/h (1 Bft) N 9 1 min 0,000 mm 2,7 UV-I 715 W/m 5,4 C 18,9 C 3,2 km/h (1 Bft) 100,00 %
13.04.2018 14:43 18,8 C 10,6 C 44 % 1006,2 hPa 0,0 l/m 0,5 km/h (0 Bft) N-NO 15 1 min 0,000 mm 2,7 UV-I 714 W/m 6,3 C 18,8 C 1,6 km/h (1 Bft) 100,00 %
13.04.2018 14:44 18,9 C 10,6 C 47 % 1006,2 hPa 0,0 l/m 7,0 km/h (2 Bft) N-NO 19 1 min 0,000 mm 2,7 UV-I 710 W/m 7,3 C 18,6 C 12,9 km/h (3 Bft) 100,00 %
13.04.2018 14:45 19,1 C 10,6 C 49 % 1006,2 hPa 0,0 l/m 12,4 km/h (3 Bft) N-NO 13 1 min 0,000 mm 2,7 UV-I 707 W/m 8,1 C 16,9 C 16,1 km/h (3 Bft) 96,55 %
13.04.2018 14:46 19,1 C 10,6 C 42 % 1006,2 hPa 0,0 l/m 9,7 km/h (2 Bft) N-NO 15 1 min 0,000 mm 2,6 UV-I 707 W/m 5,9 C 17,8 C 12,9 km/h (3 Bft) 100,00 %
13.04.2018 14:47 19,1 C 10,6 C 43 % 1006,2 hPa 0,0 l/m 5,3 km/h (1 Bft) NO 40 1 min 0,000 mm 2,6 UV-I 706 W/m 6,2 C 19,1 C 9,7 km/h (2 Bft) 92,31 %
13.04.2018 14:48 19,1 C 10,6 C 40 % 1006,3 hPa 0,0 l/m 5,3 km/h (1 Bft) NO 56 1 min 0,000 mm 2,6 UV-I 705 W/m 5,2 C 19,1 C 9,7 km/h (2 Bft) 95,83 %
13.04.2018 14:49 19,1 C 10,6 C 45 % 1006,3 hPa 0,0 l/m 6,0 km/h (2 Bft) NO 51 1 min 0,000 mm 2,6 UV-I 704 W/m 6,9 C 19,1 C 8,0 km/h (2 Bft) 93,33 %
13.04.2018 14:50 19,1 C 10,6 C 40 % 1006,3 hPa 0,0 l/m 4,9 km/h (1 Bft) O-NO 61 1 min 0,000 mm 2,6 UV-I 703 W/m 5,2 C 19,1 C 6,4 km/h (2 Bft) 96,15 %
13.04.2018 14:51 19,2 C 10,6 C 44 % 1006,3 hPa 0,0 l/m 4,1 km/h (1 Bft) O-NO 63 1 min 0,000 mm 2,6 UV-I 700 W/m 6,7 C 19,2 C 6,4 km/h (2 Bft) 100,00 %
13.04.2018 14:52 19,2 C 10,6 C 43 % 1006,3 hPa 0,0 l/m 2,3 km/h (1 Bft) O-NO 62 1 min 0,000 mm 2,6 UV-I 696 W/m 6,3 C 19,2 C 4,8 km/h (1 Bft) 95,65 %
13.04.2018 14:53 19,3 C 10,6 C 43 % 1006,3 hPa 0,0 l/m 4,3 km/h (1 Bft) W-NW 300 1 min 0,000 mm 2,6 UV-I 701 W/m 6,4 C 19,3 C 6,4 km/h (2 Bft) 100,00 %
13.04.2018 14:54 19,3 C 10,6 C 40 % 1006,3 hPa 0,0 l/m 3,6 km/h (1 Bft) N-NW 342 1 min 0,000 mm 2,6 UV-I 701 W/m 5,4 C 19,3 C 4,8 km/h (1 Bft) 75,00 %
13.04.2018 14:55 19,3 C 10,6 C 39 % 1006,3 hPa 0,0 l/m 2,8 km/h (1 Bft) O-NO 76 1 min 0,000 mm 2,6 UV-I 701 W/m 5,0 C 19,3 C 4,8 km/h (1 Bft) 100,00 %
13.04.2018 14:56 19,4 C 10,6 C 46 % 1006,3 hPa 0,0 l/m 5,7 km/h (1 Bft) O 99 1 min 0,000 mm 2,6 UV-I 696 W/m 7,5 C 19,4 C 8,0 km/h (2 Bft) 96,15 %
13.04.2018 14:57 19,3 C 10,6 C 41 % 1006,3 hPa 0,0 l/m 7,3 km/h (2 Bft) O-NO 57 1 min 0,000 mm 2,5 UV-I 692 W/m 5,7 C 18,9 C 9,7 km/h (2 Bft) 96,30 %
13.04.2018 14:58 19,3 C 10,6 C 42 % 1006,3 hPa 0,0 l/m 6,8 km/h (2 Bft) O-NO 61 1 min 0,000 mm 2,5 UV-I 689 W/m 6,1 C 19,1 C 9,7 km/h (2 Bft) 100,00 %
13.04.2018 14:59 19,4 C 10,6 C 43 % 1006,3 hPa 0,0 l/m 7,6 km/h (2 Bft) O 82 1 min 0,000 mm 2,5 UV-I 688 W/m 6,5 C 18,9 C 11,3 km/h (2 Bft) 100,00 %
13.04.2018 15:00 19,3 C 10,6 C 41 % 1006,3 hPa 0,0 l/m 2,0 km/h (1 Bft) O 82 1 min 0,406 mm 2,5 UV-I 687 W/m 5,7 C 19,3 C 4,8 km/h (1 Bft) 95,65 %
13.04.2018 15:02 19,3 C 10,6 C 42 % 1006,4 hPa 0,0 l/m 5,2 km/h (1 Bft) NO 46 2 min 0,000 mm 2,5 UV-I 685 W/m 6,1 C 19,3 C 12,9 km/h (3 Bft) 95,74 %
13.04.2018 15:03 19,3 C 10,6 C 43 % 1006,3 hPa 0,0 l/m 9,9 km/h (2 Bft) O 87 1 min 0,000 mm 2,5 UV-I 684 W/m 6,4 C 17,9 C 14,5 km/h (3 Bft) 96,30 %
13.04.2018 15:04 19,2 C 10,6 C 41 % 1006,3 hPa 0,0 l/m 7,5 km/h (2 Bft) O-NO 64 1 min 0,000 mm 2,5 UV-I 684 W/m 5,6 C 18,7 C 12,9 km/h (3 Bft) 96,55 %
13.04.2018 15:05 19,2 C 10,6 C 42 % 1006,3 hPa 0,0 l/m 9,8 km/h (2 Bft) NO 55 1 min 0,000 mm 2,4 UV-I 684 W/m 6,0 C 17,8 C 14,5 km/h (3 Bft) 95,83 %
13.04.2018 15:06 19,3 C 10,6 C 45 % 1006,3 hPa 0,0 l/m 9,1 km/h (2 Bft) N-NO 30 1 min 0,000 mm 2,4 UV-I 684 W/m 7,1 C 18,2 C 11,3 km/h (2 Bft) 95,65 %
13.04.2018 15:07 19,4 C 10,6 C 40 % 1006,3 hPa 0,0 l/m 6,2 km/h (2 Bft) N-NO 19 1 min 0,000 mm 2,4 UV-I 684 W/m 5,5 C 19,4 C 9,7 km/h (2 Bft) 100,00 %
13.04.2018 15:08 19,3 C 10,6 C 40 % 1006,3 hPa 0,0 l/m 7,2 km/h (2 Bft) N-NO 30 1 min 0,000 mm 2,4 UV-I 686 W/m 5,4 C 19,0 C 9,7 km/h (2 Bft) 100,00 %
13.04.2018 15:09 19,4 C 10,6 C 46 % 1006,3 hPa 0,0 l/m 7,2 km/h (2 Bft) O 91 1 min 0,000 mm 2,4 UV-I 672 W/m 7,5 C 19,1 C 9,7 km/h (2 Bft) 92,31 %
13.04.2018 15:10 19,5 C 10,6 C 41 % 1006,3 hPa 0,0 l/m 4,2 km/h (1 Bft) N-NO 16 1 min 0,000 mm 2,2 UV-I 611 W/m 5,9 C 19,5 C 6,4 km/h (2 Bft) 95,83 %
13.04.2018 15:11 19,4 C 10,6 C 39 % 1006,3 hPa 0,0 l/m 6,0 km/h (2 Bft) NO 41 1 min 0,000 mm 1,9 UV-I 589 W/m 5,1 C 19,4 C 9,7 km/h (2 Bft) 100,00 %
13.04.2018 15:12 19,3 C 10,6 C 41 % 1006,3 hPa 0,0 l/m 6,6 km/h (2 Bft) NO 42 0 min 0,000 mm 1,3 UV-I 246 W/m 5,7 C 19,2 C 9,7 km/h (2 Bft) 91,67 %
13.04.2018 15:13 19,2 C 10,6 C 39 % 1006,3 hPa 0,0 l/m 4,2 km/h (1 Bft) O-NO 64 0 min 0,000 mm 1,5 UV-I 195 W/m 4,9 C 19,2 C 6,4 km/h (2 Bft) 95,65 %
13.04.2018 15:14 19,1 C 10,6 C 40 % 1006,3 hPa 0,0 l/m 4,3 km/h (1 Bft) O-NO 63 0 min 0,000 mm 1,9 UV-I 264 W/m 5,2 C 19,1 C 4,8 km/h (1 Bft) 95,83 %
13.04.2018 15:15 19,1 C 10,6 C 42 % 1006,4 hPa 0,0 l/m 4,8 km/h (1 Bft) N-NO 26 1 min 0,000 mm 2,0 UV-I 561 W/m 5,9 C 19,1 C 6,4 km/h (2 Bft) 100,00 %
13.04.2018 15:16 19,1 C 10,6 C 40 % 1006,4 hPa 0,0 l/m 2,5 km/h (1 Bft) N-NO 26 1 min 0,000 mm 1,9 UV-I 468 W/m 5,2 C 19,1 C 4,8 km/h (1 Bft) 100,00 %
13.04.2018 15:18 18,9 C 10,6 C 40 % 1006,4 hPa 0,0 l/m 2,1 km/h (1 Bft) S 182 2 min 0,000 mm 1,6 UV-I 392 W/m 5,0 C 18,9 C 3,2 km/h (1 Bft) 98,00 %
13.04.2018 15:19 18,8 C 10,6 C 43 % 1006,4 hPa 0,0 l/m 3,1 km/h (1 Bft) N-NO 23 1 min 0,000 mm 1,6 UV-I 394 W/m 6,0 C 18,8 C 4,8 km/h (1 Bft) 100,00 %
13.04.2018 15:20 18,8 C 10,6 C 40 % 1006,4 hPa 0,0 l/m 3,3 km/h (1 Bft) W-NW 291 1 min 0,000 mm 1,7 UV-I 440 W/m 4,9 C 18,8 C 4,8 km/h (1 Bft) 100,00 %
13.04.2018 15:21 18,9 C 10,6 C 41 % 1006,5 hPa 0,0 l/m 3,3 km/h (1 Bft) SW 225 1 min 0,000 mm 1,5 UV-I 450 W/m 5,4 C 18,9 C 4,8 km/h (1 Bft) 100,00 %
13.04.2018 15:22 18,8 C 10,6 C 39 % 1006,4 hPa 0,0 l/m 4,8 km/h (1 Bft) NO 38 0 min 0,000 mm 1,4 UV-I 341 W/m 4,6 C 18,8 C 6,4 km/h (2 Bft) 100,00 %
13.04.2018 15:23 18,7 C 10,6 C 43 % 1006,4 hPa 0,0 l/m 6,4 km/h (2 Bft) O-NO 71 0 min 0,000 mm 1,3 UV-I 230 W/m 5,9 C 18,7 C 9,7 km/h (2 Bft) 92,31 %
13.04.2018 15:24 18,7 C 10,6 C 40 % 1006,4 hPa 0,0 l/m 3,6 km/h (1 Bft) O-NO 71 0 min 0,000 mm 1,3 UV-I 236 W/m 4,8 C 18,7 C 4,8 km/h (1 Bft) 100,00 %
13.04.2018 15:25 18,7 C 10,6 C 43 % 1006,4 hPa 0,0 l/m 3,5 km/h (1 Bft) NO 49 0 min 0,000 mm 1,4 UV-I 330 W/m 5,9 C 18,7 C 6,4 km/h (2 Bft) 100,00 %
13.04.2018 15:26 18,8 C 10,6 C 42 % 1006,4 hPa 0,0 l/m 6,8 km/h (2 Bft) N 355 1 min 0,000 mm 1,7 UV-I 417 W/m 5,6 C 18,6 C 8,0 km/h (2 Bft) 100,00 %
13.04.2018 15:27 18,9 C 10,6 C 43 % 1006,4 hPa 0,0 l/m 5,9 km/h (2 Bft) N-NW 344 1 min 0,000 mm 1,8 UV-I 456 W/m 6,0 C 18,9 C 8,0 km/h (2 Bft) 100,00 %
13.04.2018 15:28 18,9 C 10,6 C 40 % 1006,4 hPa 0,0 l/m 6,4 km/h (2 Bft) NO 39 1 min 0,000 mm 1,7 UV-I 520 W/m 5,0 C 18,9 C 8,0 km/h (2 Bft) 100,00 %
13.04.2018 15:29 19,0 C 10,6 C 39 % 1006,4 hPa 0,0 l/m 7,5 km/h (2 Bft) NW 322 1 min 0,000 mm 2,0 UV-I 520 W/m 4,7 C 18,5 C 12,9 km/h (3 Bft) 100,00 %
13.04.2018 15:30 19,1 C 10,6 C 38 % 1006,4 hPa 0,0 l/m 6,2 km/h (2 Bft) N-NW 335 1 min 0,000 mm 2,2 UV-I 727 W/m 4,4 C 19,1 C 9,7 km/h (2 Bft) 100,00 %
13.04.2018 15:31 19,2 C 10,6 C 39 % 1006,4 hPa 0,0 l/m 5,0 km/h (1 Bft) N-NW 340 1 min 0,000 mm 2,2 UV-I 750 W/m 4,9 C 19,2 C 8,0 km/h (2 Bft) 100,00 %
13.04.2018 15:32 19,3 C 10,6 C 39 % 1006,4 hPa 0,0 l/m 5,0 km/h (1 Bft) N-NO 17 1 min 0,000 mm 2,3 UV-I 793 W/m 5,0 C 19,3 C 8,0 km/h (2 Bft) 100,00 %
13.04.2018 15:33 19,4 C 10,6 C 37 % 1006,4 hPa 0,0 l/m 3,6 km/h (1 Bft) N 11 1 min 0,000 mm 2,1 UV-I 788 W/m 4,3 C 19,4 C 4,8 km/h (1 Bft) 100,00 %
13.04.2018 15:34 19,6 C 10,6 C 41 % 1006,4 hPa 0,0 l/m 5,4 km/h (1 Bft) W 272 1 min 0,000 mm 1,5 UV-I 788 W/m 6,0 C 19,6 C 9,7 km/h (2 Bft) 100,00 %
13.04.2018 15:35 19,5 C 10,6 C 37 % 1006,4 hPa 0,0 l/m 5,8 km/h (2 Bft) W-NW 288 1 min 0,000 mm 1,7 UV-I 788 W/m 4,4 C 19,5 C 9,7 km/h (2 Bft) 100,00 %
13.04.2018 15:36 19,4 C 10,6 C 37 % 1006,4 hPa 0,0 l/m 4,6 km/h (1 Bft) N-NW 333 1 min 0,000 mm 2,1 UV-I 788 W/m 4,3 C 19,4 C 6,4 km/h (2 Bft) 100,00 %
13.04.2018 15:37 19,4 C 10,6 C 38 % 1006,5 hPa 0,0 l/m 3,5 km/h (1 Bft) NW 310 1 min 0,000 mm 2,1 UV-I 693 W/m 4,7 C 19,4 C 4,8 km/h (1 Bft) 100,00 %
13.04.2018 15:38 19,4 C 10,6 C 40 % 1006,4 hPa 0,0 l/m 4,9 km/h (1 Bft) N 355 1 min 0,000 mm 2,1 UV-I 691 W/m 5,5 C 19,4 C 8,0 km/h (2 Bft) 100,00 %
13.04.2018 15:39 19,5 C 10,6 C 37 % 1006,5 hPa 0,0 l/m 5,8 km/h (2 Bft) N-NW 337 1 min 0,000 mm 2,1 UV-I 684 W/m 4,4 C 19,5 C 8,0 km/h (2 Bft) 100,00 %
13.04.2018 15:40 19,5 C 10,6 C 39 % 1006,4 hPa 0,0 l/m 5,9 km/h (2 Bft) N-NO 32 1 min 0,000 mm 2,1 UV-I 655 W/m 5,2 C 19,5 C 9,7 km/h (2 Bft) 100,00 %
13.04.2018 15:41 19,6 C 10,6 C 42 % 1006,4 hPa 0,0 l/m 9,8 km/h (2 Bft) NO 35 1 min 0,000 mm 2,0 UV-I 651 W/m 6,3 C 18,3 C 12,9 km/h (3 Bft) 100,00 %
13.04.2018 15:42 19,8 C 10,6 C 44 % 1006,5 hPa 0,0 l/m 6,8 km/h (2 Bft) N-NO 23 1 min 0,000 mm 2,0 UV-I 650 W/m 7,2 C 19,6 C 8,0 km/h (2 Bft) 98,08 %
13.04.2018 15:43 19,9 C 10,6 C 42 % 1006,4 hPa 0,0 l/m 11,4 km/h (2 Bft) N 5 1 min 0,000 mm 2,0 UV-I 656 W/m 6,6 C 18,1 C 14,5 km/h (3 Bft) 100,00 %
13.04.2018 15:44 20,0 C 10,6 C 42 % 1006,4 hPa 0,0 l/m 8,0 km/h (2 Bft) N 10 1 min 0,000 mm 1,9 UV-I 661 W/m 6,7 C 19,4 C 12,9 km/h (3 Bft) 100,00 %
13.04.2018 15:45 20,0 C 10,6 C 44 % 1006,4 hPa 0,0 l/m 13,6 km/h (3 Bft) N 11 1 min 0,000 mm 1,2 UV-I 661 W/m 7,4 C 17,6 C 16,1 km/h (3 Bft) 100,00 %
13.04.2018 15:46 19,8 C 10,6 C 39 % 1006,5 hPa 0,0 l/m 9,4 km/h (2 Bft) N-NO 22 1 min 0,000 mm 1,7 UV-I 661 W/m 5,4 C 18,6 C 14,5 km/h (3 Bft) 100,00 %
13.04.2018 15:47 19,7 C 10,6 C 40 % 1006,5 hPa 0,0 l/m 5,7 km/h (1 Bft) N 349 1 min 0,000 mm 1,6 UV-I 661 W/m 5,7 C 19,7 C 9,7 km/h (2 Bft) 96,30 %
13.04.2018 15:48 19,6 C 10,6 C 41 % 1006,5 hPa 0,0 l/m 6,6 km/h (2 Bft) N-NW 338 0 min 0,000 mm 1,3 UV-I 287 W/m 6,0 C 19,5 C 12,9 km/h (3 Bft) 100,00 %
13.04.2018 15:49 19,5 C 10,6 C 43 % 1006,5 hPa 0,0 l/m 5,8 km/h (2 Bft) N-NO 15 0 min 0,000 mm 1,1 UV-I 152 W/m 6,6 C 19,5 C 6,4 km/h (2 Bft) 95,83 %
13.04.2018 15:50 19,4 C 10,6 C 41 % 1006,5 hPa 0,0 l/m 5,7 km/h (1 Bft) N-NO 24 0 min 0,000 mm 1,1 UV-I 162 W/m 5,8 C 19,4 C 8,0 km/h (2 Bft) 100,00 %
13.04.2018 15:51 19,3 C 10,6 C 42 % 1006,6 hPa 0,0 l/m 6,1 km/h (2 Bft) NO 53 1 min 0,000 mm 1,8 UV-I 353 W/m 6,1 C 19,3 C 8,0 km/h (2 Bft) 100,00 %
13.04.2018 15:52 19,3 C 10,6 C 43 % 1006,6 hPa 0,0 l/m 5,3 km/h (1 Bft) O 95 1 min 0,000 mm 1,9 UV-I 692 W/m 6,4 C 19,3 C 9,7 km/h (2 Bft) 100,00 %
13.04.2018 15:53 19,4 C 10,6 C 43 % 1006,6 hPa 0,0 l/m 6,3 km/h (2 Bft) O 93 1 min 0,000 mm 1,9 UV-I 690 W/m 6,5 C 19,4 C 9,7 km/h (2 Bft) 92,86 %
13.04.2018 15:54 19,4 C 10,6 C 41 % 1006,6 hPa 0,0 l/m 6,7 km/h (2 Bft) O-NO 67 1 min 0,000 mm 1,9 UV-I 706 W/m 5,8 C 19,3 C 9,7 km/h (2 Bft) 96,30 %
13.04.2018 15:55 19,6 C 10,6 C 44 % 1006,6 hPa 0,0 l/m 9,8 km/h (2 Bft) O-NO 59 1 min 0,000 mm 1,9 UV-I 708 W/m 7,0 C 18,3 C 14,5 km/h (3 Bft) 100,00 %
13.04.2018 15:56 19,5 C 10,6 C 41 % 1006,7 hPa 0,0 l/m 7,2 km/h (2 Bft) O-NO 60 1 min 0,000 mm 1,9 UV-I 700 W/m 5,9 C 19,2 C 9,7 km/h (2 Bft) 96,30 %
13.04.2018 15:57 19,6 C 10,6 C 41 % 1006,6 hPa 0,0 l/m 8,7 km/h (2 Bft) O-NO 69 1 min 0,000 mm 1,7 UV-I 689 W/m 6,0 C 18,7 C 9,7 km/h (2 Bft) 94,12 %
13.04.2018 15:58 19,7 C 10,6 C 42 % 1006,7 hPa 0,0 l/m 8,7 km/h (2 Bft) O-NO 72 1 min 0,000 mm 1,7 UV-I 689 W/m 6,4 C 18,8 C 12,9 km/h (3 Bft) 96,30 %
13.04.2018 15:59 19,8 C 10,6 C 42 % 1006,6 hPa 0,0 l/m 6,5 km/h (2 Bft) NO 50 1 min 0,000 mm 1,8 UV-I 668 W/m 6,5 C 19,8 C 9,7 km/h (2 Bft) 96,55 %
13.04.2018 16:00 19,8 C 10,6 C 40 % 1006,7 hPa 0,0 l/m 5,4 km/h (1 Bft) O-NO 64 1 min 0,356 mm 1,8 UV-I 651 W/m 5,8 C 19,8 C 9,7 km/h (2 Bft) 100,00 %
13.04.2018 16:01 19,8 C 10,6 C 37 % 1006,7 hPa 0,0 l/m 3,3 km/h (1 Bft) O-NO 61 1 min 0,000 mm 1,8 UV-I 642 W/m 4,7 C 19,8 C 4,8 km/h (1 Bft) 96,15 %
13.04.2018 16:02 19,7 C 10,6 C 39 % 1006,6 hPa 0,0 l/m 4,7 km/h (1 Bft) NO 38 1 min 0,000 mm 1,8 UV-I 640 W/m 5,4 C 19,7 C 6,4 km/h (2 Bft) 100,00 %
13.04.2018 16:03 19,8 C 10,6 C 42 % 1006,6 hPa 0,0 l/m 9,4 km/h (2 Bft) NO 51 1 min 0,000 mm 1,7 UV-I 640 W/m 6,5 C 18,6 C 14,5 km/h (3 Bft) 96,15 %
13.04.2018 16:04 19,8 C 10,6 C 39 % 1006,7 hPa 0,0 l/m 5,6 km/h (1 Bft) NO 42 1 min 0,000 mm 1,6 UV-I 640 W/m 5,4 C 19,8 C 8,0 km/h (2 Bft) 100,00 %
13.04.2018 16:05 19,7 C 10,6 C 39 % 1006,7 hPa 0,0 l/m 4,2 km/h (1 Bft) NO 44 1 min 0,000 mm 1,6 UV-I 612 W/m 5,4 C 19,7 C 4,8 km/h (1 Bft) 86,96 %
13.04.2018 16:06 19,7 C 10,6 C 39 % 1006,7 hPa 0,0 l/m 3,1 km/h (1 Bft) NO 51 1 min 0,000 mm 1,7 UV-I 617 W/m 5,4 C 19,7 C 4,8 km/h (1 Bft) 100,00 %
13.04.2018 16:07 19,6 C 10,6 C 40 % 1006,7 hPa 0,0 l/m 2,7 km/h (1 Bft) O-SO 113 1 min 0,000 mm 1,7 UV-I 610 W/m 5,6 C 19,6 C 6,4 km/h (2 Bft) 91,67 %
13.04.2018 16:08 19,4 C 10,6 C 38 % 1006,7 hPa 0,0 l/m 4,1 km/h (1 Bft) SO 136 1 min 0,000 mm 1,6 UV-I 612 W/m 4,7 C 19,4 C 6,4 km/h (2 Bft) 100,00 %
13.04.2018 16:09 19,3 C 10,6 C 41 % 1006,7 hPa 0,0 l/m 2,4 km/h (1 Bft) SO 136 1 min 0,000 mm 1,6 UV-I 609 W/m 5,7 C 19,3 C 3,2 km/h (1 Bft) 92,59 %
13.04.2018 16:10 19,3 C 10,6 C 40 % 1006,7 hPa 0,0 l/m 7,2 km/h (2 Bft) O-NO 74 1 min 0,000 mm 1,5 UV-I 606 W/m 5,4 C 19,0 C 9,7 km/h (2 Bft) 96,15 %
13.04.2018 16:11 19,4 C 10,6 C 42 % 1006,7 hPa 0,0 l/m 8,5 km/h (2 Bft) O-NO 76 1 min 0,000 mm 1,5 UV-I 595 W/m 6,2 C 18,5 C 11,3 km/h (2 Bft) 100,00 %
13.04.2018 16:12 19,5 C 10,6 C 42 % 1006,8 hPa 0,0 l/m 7,7 km/h (2 Bft) O 82 1 min 0,000 mm 1,5 UV-I 585 W/m 6,2 C 18,9 C 11,3 km/h (2 Bft) 100,00 %
13.04.2018 16:13 19,6 C 10,6 C 40 % 1006,8 hPa 0,0 l/m 10,1 km/h (2 Bft) O 90 1 min 0,000 mm 1,5 UV-I 589 W/m 5,6 C 18,2 C 12,9 km/h (3 Bft) 96,97 %
13.04.2018 16:14 19,6 C 10,6 C 39 % 1006,8 hPa 0,0 l/m 6,3 km/h (2 Bft) O-NO 73 1 min 0,000 mm 1,4 UV-I 554 W/m 5,3 C 19,6 C 9,7 km/h (2 Bft) 92,31 %
13.04.2018 16:15 19,5 C 10,6 C 42 % 1006,8 hPa 0,0 l/m 5,8 km/h (2 Bft) O-NO 71 1 min 0,000 mm 1,3 UV-I 497 W/m 6,2 C 19,5 C 12,9 km/h (3 Bft) 98,05 %
13.04.2018 16:16 19,5 C 10,6 C 41 % 1006,8 hPa 0,0 l/m 12,4 km/h (3 Bft) O-SO 115 1 min 0,000 mm 1,3 UV-I 497 W/m 5,9 C 17,3 C 14,5 km/h (3 Bft) 97,37 %
13.04.2018 16:17 19,4 C 10,6 C 40 % 1006,8 hPa 0,0 l/m 12,2 km/h (2 Bft) O 101 1 min 0,000 mm 1,0 UV-I 497 W/m 5,5 C 17,3 C 16,1 km/h (3 Bft) 100,00 %
13.04.2018 16:18 19,3 C 10,6 C 40 % 1006,8 hPa 0,0 l/m 11,7 km/h (2 Bft) O 79 0 min 0,000 mm 0,9 UV-I 161 W/m 5,4 C 17,3 C 14,5 km/h (3 Bft) 95,65 %
13.04.2018 16:19 19,2 C 10,6 C 39 % 1006,8 hPa 0,0 l/m 6,7 km/h (2 Bft) O-NO 76 0 min 0,000 mm 0,9 UV-I 148 W/m 4,9 C 19,1 C 9,7 km/h (2 Bft) 100,00 %
13.04.2018 16:20 19,1 C 10,6 C 40 % 1006,8 hPa 0,0 l/m 9,3 km/h (2 Bft) O 95 0 min 0,000 mm 0,9 UV-I 150 W/m 5,2 C 17,9 C 12,9 km/h (3 Bft) 86,21 %
13.04.2018 16:21 19,0 C 10,6 C 41 % 1006,8 hPa 0,0 l/m 9,5 km/h (2 Bft) O-SO 108 0 min 0,000 mm 0,9 UV-I 154 W/m 5,4 C 17,7 C 11,3 km/h (2 Bft) 100,00 %
13.04.2018 16:22 18,8 C 10,6 C 42 % 1006,8 hPa 0,0 l/m 7,9 km/h (2 Bft) O-SO 116 0 min 0,000 mm 0,9 UV-I 155 W/m 5,6 C 18,1 C 12,9 km/h (3 Bft) 96,88 %
13.04.2018 16:23 18,8 C 10,6 C 43 % 1006,8 hPa 0,0 l/m 6,4 km/h (2 Bft) O-SO 107 0 min 0,000 mm 0,8 UV-I 155 W/m 6,0 C 18,8 C 11,3 km/h (2 Bft) 100,00 %
13.04.2018 16:24 18,7 C 10,6 C 43 % 1006,9 hPa 0,0 l/m 8,2 km/h (2 Bft) O-SO 113 0 min 0,000 mm 0,8 UV-I 151 W/m 5,9 C 17,9 C 11,3 km/h (2 Bft) 95,83 %
13.04.2018 16:25 18,6 C 10,6 C 42 % 1006,9 hPa 0,0 l/m 6,4 km/h (2 Bft) O-SO 123 0 min 0,000 mm 0,8 UV-I 147 W/m 5,4 C 18,6 C 11,3 km/h (2 Bft) 92,31 %
13.04.2018 16:26 18,6 C 10,6 C 40 % 1006,9 hPa 0,0 l/m 5,6 km/h (1 Bft) O-SO 119 0 min 0,000 mm 0,8 UV-I 144 W/m 4,7 C 18,6 C 8,0 km/h (2 Bft) 100,00 %
13.04.2018 16:27 18,4 C 10,6 C 43 % 1006,9 hPa 0,0 l/m 7,4 km/h (2 Bft) O-SO 104 0 min 0,000 mm 0,8 UV-I 140 W/m 5,6 C 17,9 C 9,7 km/h (2 Bft) 95,83 %
13.04.2018 16:28 18,4 C 10,6 C 41 % 1006,9 hPa 0,0 l/m 7,8 km/h (2 Bft) O 98 0 min 0,000 mm 0,7 UV-I 138 W/m 4,9 C 17,8 C 11,3 km/h (2 Bft) 100,00 %
13.04.2018 16:29 18,4 C 10,6 C 42 % 1006,9 hPa 0,0 l/m 6,9 km/h (2 Bft) O 92 0 min 0,000 mm 0,7 UV-I 139 W/m 5,3 C 18,2 C 9,7 km/h (2 Bft) 96,15 %
13.04.2018 16:30 18,4 C 10,6 C 44 % 1006,9 hPa 0,0 l/m 6,2 km/h (2 Bft) O 101 0 min 0,000 mm 0,7 UV-I 139 W/m 5,9 C 18,4 C 9,7 km/h (2 Bft) 100,00 %
13.04.2018 16:31 18,4 C 10,6 C 44 % 1006,9 hPa 0,0 l/m 5,0 km/h (1 Bft) O 100 0 min 0,000 mm 0,7 UV-I 139 W/m 5,9 C 18,4 C 9,7 km/h (2 Bft) 100,00 %
13.04.2018 16:32 18,4 C 10,6 C 44 % 1006,9 hPa 0,0 l/m 5,3 km/h (1 Bft) O-SO 111 0 min 0,000 mm 0,7 UV-I 138 W/m 5,9 C 18,4 C 9,7 km/h (2 Bft) 100,00 %
13.04.2018 16:33 18,3 C 10,6 C 46 % 1006,9 hPa 0,0 l/m 7,5 km/h (2 Bft) O-SO 110 0 min 0,000 mm 0,7 UV-I 138 W/m 6,5 C 17,8 C 11,3 km/h (2 Bft) 96,15 %
13.04.2018 16:34 18,3 C 10,6 C 45 % 1006,9 hPa 0,0 l/m 6,3 km/h (2 Bft) O-SO 113 0 min 0,000 mm 0,7 UV-I 143 W/m 6,2 C 18,3 C 9,7 km/h (2 Bft) 92,59 %
13.04.2018 16:35 18,3 C 10,6 C 45 % 1006,9 hPa 0,0 l/m 4,8 km/h (1 Bft) O-SO 108 0 min 0,000 mm 0,7 UV-I 152 W/m 6,2 C 18,3 C 6,4 km/h (2 Bft) 100,00 %
13.04.2018 16:36 18,3 C 10,6 C 45 % 1006,9 hPa 0,0 l/m 4,1 km/h (1 Bft) O-SO 106 0 min 0,000 mm 0,7 UV-I 166 W/m 6,2 C 18,3 C 6,4 km/h (2 Bft) 92,59 %
13.04.2018 16:37 18,3 C 10,6 C 45 % 1006,9 hPa 0,0 l/m 3,5 km/h (1 Bft) O-SO 109 0 min 0,000 mm 0,7 UV-I 178 W/m 6,2 C 18,3 C 4,8 km/h (1 Bft) 100,00 %
13.04.2018 16:38 18,3 C 10,6 C 45 % 1006,9 hPa 0,0 l/m 3,8 km/h (1 Bft) O-SO 109 1 min 0,000 mm 0,8 UV-I 281 W/m 6,2 C 18,3 C 6,4 km/h (2 Bft) 93,10 %
13.04.2018 16:39 18,3 C 10,6 C 44 % 1007,0 hPa 0,0 l/m 7,8 km/h (2 Bft) O 97 1 min 0,000 mm 0,8 UV-I 399 W/m 5,8 C 17,7 C 9,7 km/h (2 Bft) 100,00 %
13.04.2018 16:40 18,5 C 10,6 C 45 % 1007,0 hPa 0,0 l/m 6,9 km/h (2 Bft) O 95 1 min 0,000 mm 1,0 UV-I 508 W/m 6,3 C 18,3 C 9,7 km/h (2 Bft) 93,75 %
13.04.2018 16:41 18,7 C 10,6 C 42 % 1007,0 hPa 0,0 l/m 7,7 km/h (2 Bft) O 100 1 min 0,000 mm 1,1 UV-I 572 W/m 5,5 C 18,1 C 11,3 km/h (2 Bft) 93,10 %
13.04.2018 16:42 18,8 C 10,6 C 42 % 1007,0 hPa 0,0 l/m 6,2 km/h (2 Bft) O-SO 108 1 min 0,000 mm 1,1 UV-I 561 W/m 5,6 C 18,8 C 9,7 km/h (2 Bft) 95,83 %
13.04.2018 16:43 18,9 C 10,6 C 43 % 1007,0 hPa 0,0 l/m 6,2 km/h (2 Bft) O-NO 67 1 min 0,000 mm 0,8 UV-I 488 W/m 6,0 C 18,9 C 8,0 km/h (2 Bft) 100,00 %
13.04.2018 16:44 18,9 C 10,6 C 43 % 1007,0 hPa 0,0 l/m 7,1 km/h (2 Bft) O 88 0 min 0,000 mm 0,7 UV-I 213 W/m 6,0 C 18,6 C 9,7 km/h (2 Bft) 93,75 %
13.04.2018 16:45 18,9 C 10,6 C 43 % 1007,0 hPa 0,0 l/m 7,7 km/h (2 Bft) O-SO 105 0 min 0,000 mm 0,7 UV-I 204 W/m 6,0 C 18,3 C 11,3 km/h (2 Bft) 91,67 %
13.04.2018 16:46 18,8 C 10,6 C 41 % 1007,0 hPa 0,0 l/m 6,3 km/h (2 Bft) O 96 0 min 0,000 mm 0,7 UV-I 189 W/m 5,3 C 18,8 C 9,7 km/h (2 Bft) 97,06 %
13.04.2018 16:47 18,8 C 10,6 C 40 % 1007,0 hPa 0,0 l/m 5,0 km/h (1 Bft) O-SO 103 0 min 0,000 mm 0,7 UV-I 176 W/m 4,9 C 18,8 C 6,4 km/h (2 Bft) 91,67 %
13.04.2018 16:48 18,7 C 10,6 C 42 % 1007,0 hPa 0,0 l/m 5,4 km/h (1 Bft) O 79 0 min 0,000 mm 0,6 UV-I 160 W/m 5,5 C 18,7 C 8,0 km/h (2 Bft) 96,15 %
13.04.2018 16:49 18,7 C 10,6 C 41 % 1007,0 hPa 0,0 l/m 6,2 km/h (2 Bft) O 94 0 min 0,000 mm 0,6 UV-I 145 W/m 5,2 C 18,7 C 6,4 km/h (2 Bft) 95,83 %
13.04.2018 16:50 18,7 C 10,6 C 41 % 1007,1 hPa 0,0 l/m 5,0 km/h (1 Bft) O 83 0 min 0,000 mm 0,6 UV-I 134 W/m 5,2 C 18,7 C 6,4 km/h (2 Bft) 100,00 %
13.04.2018 16:51 18,7 C 10,6 C 41 % 1007,0 hPa 0,0 l/m 6,1 km/h (2 Bft) O-NO 73 0 min 0,000 mm 0,6 UV-I 123 W/m 5,2 C 18,7 C 8,0 km/h (2 Bft) 92,59 %
13.04.2018 16:52 18,6 C 10,6 C 43 % 1007,0 hPa 0,0 l/m 6,2 km/h (2 Bft) O-NO 72 0 min 0,000 mm 0,5 UV-I 113 W/m 5,8 C 18,6 C 8,0 km/h (2 Bft) 96,15 %
13.04.2018 16:53 18,6 C 10,6 C 43 % 1007,1 hPa 0,0 l/m 6,1 km/h (2 Bft) O-NO 74 0 min 0,000 mm 0,5 UV-I 110 W/m 5,8 C 18,6 C 8,0 km/h (2 Bft) 95,83 %
13.04.2018 16:54 18,5 C 10,6 C 45 % 1007,1 hPa 0,0 l/m 6,1 km/h (2 Bft) O-NO 78 0 min 0,000 mm 0,5 UV-I 97 W/m 6,3 C 18,5 C 8,0 km/h (2 Bft) 96,15 %
13.04.2018 16:55 18,4 C 10,6 C 45 % 1007,1 hPa 0,0 l/m 5,9 km/h (2 Bft) O 84 0 min 0,000 mm 0,5 UV-I 93 W/m 6,3 C 18,4 C 8,0 km/h (2 Bft) 97,94 %
13.04.2018 16:56 18,4 C 10,6 C 44 % 1007,1 hPa 0,0 l/m 6,1 km/h (2 Bft) O-NO 73 0 min 0,000 mm 0,5 UV-I 90 W/m 5,9 C 18,4 C 8,0 km/h (2 Bft) 95,24 %
13.04.2018 16:57 18,3 C 10,6 C 45 % 1007,1 hPa 0,0 l/m 5,6 km/h (1 Bft) O-NO 75 0 min 0,000 mm 0,5 UV-I 89 W/m 6,2 C 18,3 C 6,4 km/h (2 Bft) 91,30 %
13.04.2018 16:58 18,3 C 10,6 C 44 % 1007,1 hPa 0,0 l/m 4,7 km/h (1 Bft) O-NO 76 0 min 0,000 mm 0,2 UV-I 88 W/m 5,8 C 18,3 C 6,4 km/h (2 Bft) 91,67 %
13.04.2018 16:59 18,3 C 10,6 C 45 % 1007,1 hPa 0,0 l/m 4,1 km/h (1 Bft) O-NO 76 0 min 0,000 mm 0,0 UV-I 88 W/m 6,2 C 18,3 C 6,4 km/h (2 Bft) 100,00 %
13.04.2018 17:00 18,2 C 10,6 C 45 % 1007,2 hPa 0,0 l/m 3,8 km/h (1 Bft) O-NO 76 0 min 0,000 mm 0,0 UV-I 86 W/m 6,1 C 18,2 C 4,8 km/h (1 Bft) 91,67 %
13.04.2018 17:01 18,2 C 10,6 C 45 % 1007,2 hPa 0,0 l/m 3,5 km/h (1 Bft) O 81 0 min 0,228 mm 0,0 UV-I 84 W/m 6,1 C 18,2 C 4,8 km/h (1 Bft) 95,65 %
13.04.2018 17:02 18,2 C 10,6 C 49 % 1007,2 hPa 0,0 l/m 4,4 km/h (1 Bft) O 79 0 min 0,000 mm 0,0 UV-I 82 W/m 7,3 C 18,2 C 6,4 km/h (2 Bft) 95,83 %
13.04.2018 17:03 18,2 C 10,6 C 48 % 1007,2 hPa 0,0 l/m 5,5 km/h (1 Bft) O 82 0 min 0,000 mm 0,0 UV-I 81 W/m 7,0 C 18,2 C 8,0 km/h (2 Bft) 91,30 %
13.04.2018 17:04 18,2 C 10,6 C 46 % 1007,2 hPa 0,0 l/m 5,1 km/h (1 Bft) O 98 0 min 0,000 mm 0,0 UV-I 79 W/m 6,4 C 18,2 C 6,4 km/h (2 Bft) 96,67 %
13.04.2018 17:05 18,1 C 10,6 C 48 % 1007,2 hPa 0,0 l/m 3,5 km/h (1 Bft) O 100 0 min 0,000 mm 0,0 UV-I 79 W/m 6,9 C 18,1 C 4,8 km/h (1 Bft) 91,30 %
13.04.2018 17:06 18,1 C 10,6 C 47 % 1007,2 hPa 0,0 l/m 2,9 km/h (1 Bft) O 100 0 min 0,000 mm 0,0 UV-I 79 W/m 6,6 C 18,1 C 4,8 km/h (1 Bft) 91,67 %
13.04.2018 17:08 17,9 C 10,6 C 48 % 1007,3 hPa 0,0 l/m 3,2 km/h (1 Bft) O 99 0 min 0,000 mm 0,0 UV-I 76 W/m 6,7 C 17,9 C 4,8 km/h (1 Bft) 96,23 %
13.04.2018 17:09 17,9 C 10,6 C 48 % 1007,3 hPa 0,0 l/m 3,8 km/h (1 Bft) O 99 0 min 0,000 mm 0,0 UV-I 72 W/m 6,7 C 17,9 C 4,8 km/h (1 Bft) 95,65 %
13.04.2018 17:10 17,8 C 10,6 C 49 % 1007,3 hPa 0,0 l/m 2,3 km/h (1 Bft) O 99 0 min 0,000 mm 0,0 UV-I 70 W/m 6,9 C 17,8 C 3,2 km/h (1 Bft) 95,83 %
13.04.2018 17:11 17,8 C 10,6 C 49 % 1007,3 hPa 0,0 l/m 3,6 km/h (1 Bft) O 79 0 min 0,000 mm 0,0 UV-I 65 W/m 6,9 C 17,8 C 6,4 km/h (2 Bft) 95,65 %
13.04.2018 17:12 17,8 C 10,6 C 51 % 1007,3 hPa 0,0 l/m 3,6 km/h (1 Bft) O 79 0 min 0,000 mm 0,0 UV-I 62 W/m 7,5 C 17,8 C 6,4 km/h (2 Bft) 100,00 %
13.04.2018 17:13 17,8 C 10,6 C 49 % 1007,3 hPa 0,0 l/m 2,0 km/h (1 Bft) O 79 0 min 0,000 mm 0,0 UV-I 59 W/m 6,9 C 17,8 C 3,2 km/h (1 Bft) 95,65 %
13.04.2018 17:14 17,8 C 10,6 C 50 % 1007,3 hPa 0,0 l/m 2,7 km/h (1 Bft) O 79 0 min 0,000 mm 0,0 UV-I 56 W/m 7,2 C 17,8 C 3,2 km/h (1 Bft) 100,00 %
13.04.2018 17:15 17,7 C 10,6 C 50 % 1007,3 hPa 0,0 l/m 3,3 km/h (1 Bft) O-NO 78 0 min 0,000 mm 0,0 UV-I 53 W/m 7,1 C 17,7 C 4,8 km/h (1 Bft) 95,83 %
13.04.2018 17:16 17,7 C 10,6 C 50 % 1007,3 hPa 0,0 l/m 3,0 km/h (1 Bft) O-NO 78 0 min 0,000 mm 0,0 UV-I 51 W/m 7,1 C 17,7 C 4,8 km/h (1 Bft) 100,00 %
13.04.2018 17:17 17,7 C 10,6 C 51 % 1007,4 hPa 0,0 l/m 1,5 km/h (1 Bft) O-NO 78 0 min 0,000 mm 0,0 UV-I 49 W/m 7,4 C 17,7 C 3,2 km/h (1 Bft) 91,67 %
13.04.2018 17:18 17,7 C 10,6 C 52 % 1007,4 hPa 0,0 l/m 0,1 km/h (0 Bft) O-NO 78 0 min 0,000 mm 0,0 UV-I 48 W/m 7,7 C 17,7 C 1,6 km/h (1 Bft) 96,15 %
13.04.2018 17:19 17,7 C 10,6 C 52 % 1007,4 hPa 0,0 l/m 1,2 km/h (1 Bft) O-NO 78 0 min 0,000 mm 0,0 UV-I 47 W/m 7,7 C 17,7 C 3,2 km/h (1 Bft) 100,00 %
13.04.2018 17:20 17,7 C 10,6 C 52 % 1007,5 hPa 0,0 l/m 0,6 km/h (0 Bft) O-NO 78 0 min 0,000 mm 0,0 UV-I 48 W/m 7,7 C 17,7 C 1,6 km/h (1 Bft) 96,15 %
13.04.2018 17:21 17,7 C 10,6 C 52 % 1007,5 hPa 0,0 l/m 1,0 km/h (0 Bft) O-NO 78 0 min 0,000 mm 0,0 UV-I 50 W/m 7,7 C 17,7 C 3,2 km/h (1 Bft) 100,00 %
13.04.2018 17:22 17,7 C 10,6 C 52 % 1007,5 hPa 0,0 l/m 1,6 km/h (1 Bft) O-NO 78 0 min 0,000 mm 0,0 UV-I 54 W/m 7,7 C 17,7 C 3,2 km/h (1 Bft) 100,00 %
13.04.2018 17:23 17,7 C 10,6 C 51 % 1007,5 hPa 0,0 l/m 2,1 km/h (1 Bft) O-NO 78 0 min 0,000 mm 0,0 UV-I 59 W/m 7,4 C 17,7 C 3,2 km/h (1 Bft) 100,00 %
13.04.2018 17:24 17,7 C 10,6 C 52 % 1007,5 hPa 0,0 l/m 1,9 km/h (1 Bft) O-NO 78 0 min 0,000 mm 0,0 UV-I 63 W/m 7,7 C 17,7 C 3,2 km/h (1 Bft) 100,00 %
13.04.2018 17:25 17,7 C 10,6 C 52 % 1007,5 hPa 0,0 l/m 2,3 km/h (1 Bft) O-NO 78 0 min 0,000 mm 0,0 UV-I 66 W/m 7,7 C 17,7 C 3,2 km/h (1 Bft) 100,00 %
13.04.2018 17:26 17,6 C 10,6 C 52 % 1007,5 hPa 0,0 l/m 2,9 km/h (1 Bft) O-NO 78 0 min 0,000 mm 0,0 UV-I 66 W/m 7,6 C 17,6 C 3,2 km/h (1 Bft) 100,00 %
13.04.2018 17:27 17,6 C 10,6 C 50 % 1007,5 hPa 0,0 l/m 3,8 km/h (1 Bft) O-NO 78 0 min 0,000 mm 0,0 UV-I 63 W/m 7,1 C 17,6 C 4,8 km/h (1 Bft) 100,00 %
13.04.2018 17:28 17,6 C 10,6 C 51 % 1007,5 hPa 0,0 l/m 4,8 km/h (1 Bft) NO 39 0 min 0,000 mm 0,0 UV-I 60 W/m 7,3 C 17,6 C 6,4 km/h (2 Bft) 100,00 %
13.04.2018 17:29 17,6 C 10,6 C 51 % 1007,5 hPa 0,0 l/m 5,2 km/h (1 Bft) NO 39 0 min 0,000 mm 0,0 UV-I 58 W/m 7,3 C 17,6 C 6,4 km/h (2 Bft) 100,00 %
13.04.2018 17:30 17,5 C 10,6 C 51 % 1007,5 hPa 0,0 l/m 5,5 km/h (1 Bft) NO 39 0 min 0,000 mm 0,0 UV-I 56 W/m 7,3 C 17,5 C 6,4 km/h (2 Bft) 96,55 %
13.04.2018 17:31 17,5 C 10,6 C 52 % 1007,5 hPa 0,0 l/m 4,6 km/h (1 Bft) NO 39 0 min 0,000 mm 0,0 UV-I 55 W/m 7,5 C 17,5 C 6,4 km/h (2 Bft) 100,00 %
13.04.2018 17:32 17,4 C 10,6 C 51 % 1007,5 hPa 0,0 l/m 4,8 km/h (1 Bft) NO 39 0 min 0,000 mm 0,0 UV-I 53 W/m 7,2 C 17,4 C 6,4 km/h (2 Bft) 100,00 %
13.04.2018 17:33 17,4 C 10,6 C 49 % 1007,5 hPa 0,0 l/m 6,6 km/h (2 Bft) NO 39 0 min 0,000 mm 0,0 UV-I 51 W/m 6,6 C 17,3 C 8,0 km/h (2 Bft) 100,00 %
13.04.2018 17:34 17,4 C 10,6 C 50 % 1007,5 hPa 0,0 l/m 5,7 km/h (1 Bft) NO 40 0 min 0,000 mm 0,0 UV-I 49 W/m 6,9 C 17,4 C 6,4 km/h (2 Bft) 100,00 %
13.04.2018 17:35 17,4 C 10,6 C 49 % 1007,5 hPa 0,0 l/m 5,7 km/h (1 Bft) NO 50 0 min 0,000 mm 0,0 UV-I 45 W/m 6,6 C 17,4 C 6,4 km/h (2 Bft) 93,10 %
13.04.2018 17:36 17,4 C 10,6 C 49 % 1007,5 hPa 0,0 l/m 5,5 km/h (1 Bft) NO 49 0 min 0,000 mm 0,0 UV-I 44 W/m 6,6 C 17,4 C 6,4 km/h (2 Bft) 100,00 %
13.04.2018 17:37 17,4 C 10,6 C 49 % 1007,5 hPa 0,0 l/m 6,0 km/h (2 Bft) NO 46 0 min 0,000 mm 0,0 UV-I 44 W/m 6,6 C 17,4 C 6,4 km/h (2 Bft) 96,15 %
13.04.2018 17:38 17,4 C 10,6 C 49 % 1007,6 hPa 0,0 l/m 6,2 km/h (2 Bft) NO 50 0 min 0,000 mm 0,0 UV-I 44 W/m 6,6 C 17,4 C 8,0 km/h (2 Bft) 100,00 %
13.04.2018 17:39 17,4 C 10,6 C 50 % 1007,6 hPa 0,0 l/m 5,4 km/h (1 Bft) NO 36 0 min 0,000 mm 0,0 UV-I 44 W/m 6,9 C 17,4 C 6,4 km/h (2 Bft) 100,00 %
13.04.2018 17:40 17,3 C 10,6 C 51 % 1007,6 hPa 0,0 l/m 6,2 km/h (2 Bft) NO 36 0 min 0,000 mm 0,0 UV-I 44 W/m 7,1 C 17,3 C 8,0 km/h (2 Bft) 100,00 %
13.04.2018 17:41 17,3 C 10,6 C 51 % 1007,6 hPa 0,0 l/m 5,1 km/h (1 Bft) NO 36 0 min 0,000 mm 0,0 UV-I 43 W/m 7,1 C 17,3 C 6,4 km/h (2 Bft) 100,00 %
13.04.2018 17:42 17,2 C 10,6 C 52 % 1007,7 hPa 0,0 l/m 6,3 km/h (2 Bft) N-NO 33 0 min 0,000 mm 0,0 UV-I 41 W/m 7,3 C 17,2 C 8,0 km/h (2 Bft) 100,00 %
13.04.2018 17:43 17,2 C 10,6 C 52 % 1007,7 hPa 0,0 l/m 5,3 km/h (1 Bft) N-NW 333 0 min 0,000 mm 0,0 UV-I 40 W/m 7,3 C 17,2 C 6,4 km/h (2 Bft) 100,00 %
13.04.2018 17:44 17,2 C 10,6 C 51 % 1007,7 hPa 0,0 l/m 5,3 km/h (1 Bft) N-NW 334 0 min 0,000 mm 0,0 UV-I 31 W/m 7,0 C 17,2 C 6,4 km/h (2 Bft) 100,00 %
13.04.2018 17:45 17,1 C 10,6 C 51 % 1007,8 hPa 0,0 l/m 5,8 km/h (2 Bft) N 355 0 min 0,000 mm 0,0 UV-I 35 W/m 6,9 C 17,1 C 8,0 km/h (2 Bft) 92,86 %
13.04.2018 17:46 17,1 C 10,6 C 53 % 1007,8 hPa 0,0 l/m 2,9 km/h (1 Bft) N 355 0 min 0,000 mm 0,0 UV-I 35 W/m 7,4 C 17,1 C 4,8 km/h (1 Bft) 94,44 %
13.04.2018 17:47 16,9 C 10,6 C 57 % 1007,8 hPa 0,0 l/m 1,7 km/h (1 Bft) N 355 0 min 0,000 mm 0,0 UV-I 35 W/m 8,3 C 16,9 C 3,2 km/h (1 Bft) 100,00 %
13.04.2018 17:48 16,7 C 10,6 C 58 % 1007,9 hPa 0,0 l/m 1,3 km/h (1 Bft) SW 227 0 min 0,000 mm 0,0 UV-I 35 W/m 8,4 C 16,7 C 3,2 km/h (1 Bft) 100,00 %
13.04.2018 17:49 16,6 C 10,6 C 59 % 1007,9 hPa 0,0 l/m 0,1 km/h (0 Bft) SW 227 0 min 0,000 mm 0,0 UV-I 36 W/m 8,6 C 16,6 C 1,6 km/h (1 Bft) 100,00 %
13.04.2018 17:50 16,5 C 10,6 C 59 % 1007,9 hPa 0,0 l/m 0,0 km/h (0 Bft) SW 227 0 min 0,000 mm 0,0 UV-I 37 W/m 8,5 C 16,5 C 0,0 km/h (0 Bft) 100,00 %
13.04.2018 17:51 16,4 C 10,6 C 59 % 1007,9 hPa 0,0 l/m 0,1 km/h (0 Bft) SW 227 0 min 0,000 mm 0,0 UV-I 39 W/m 8,4 C 16,4 C 1,6 km/h (1 Bft) 96,55 %
13.04.2018 17:52 16,4 C 10,6 C 59 % 1007,9 hPa 0,0 l/m 1,3 km/h (1 Bft) SW 227 0 min 0,000 mm 0,0 UV-I 41 W/m 8,4 C 16,4 C 3,2 km/h (1 Bft) 100,00 %
13.04.2018 17:53 16,3 C 10,6 C 59 % 1007,9 hPa 0,0 l/m 2,4 km/h (1 Bft) N-NW 342 0 min 0,000 mm 0,0 UV-I 45 W/m 8,3 C 16,3 C 4,8 km/h (1 Bft) 100,00 %
13.04.2018 17:54 16,4 C 10,6 C 57 % 1007,9 hPa 0,0 l/m 3,4 km/h (1 Bft) N 355 0 min 0,000 mm 0,0 UV-I 47 W/m 7,9 C 16,4 C 4,8 km/h (1 Bft) 100,00 %
13.04.2018 17:55 16,4 C 10,6 C 55 % 1007,9 hPa 0,0 l/m 4,3 km/h (1 Bft) N 355 0 min 0,000 mm 0,0 UV-I 47 W/m 7,3 C 16,4 C 6,4 km/h (2 Bft) 100,00 %
13.04.2018 17:56 16,6 C 10,6 C 55 % 1007,9 hPa 0,0 l/m 2,7 km/h (1 Bft) N 355 0 min 0,000 mm 0,0 UV-I 46 W/m 7,5 C 16,6 C 4,8 km/h (1 Bft) 100,00 %
13.04.2018 17:57 16,7 C 10,6 C 55 % 1007,9 hPa 0,0 l/m 1,9 km/h (1 Bft) N 355 0 min 0,000 mm 0,0 UV-I 46 W/m 7,6 C 16,7 C 3,2 km/h (1 Bft) 100,00 %
13.04.2018 17:58 16,7 C 10,6 C 55 % 1007,9 hPa 0,0 l/m 2,5 km/h (1 Bft) N 355 0 min 0,000 mm 0,0 UV-I 46 W/m 7,6 C 16,7 C 3,2 km/h (1 Bft) 100,00 %
13.04.2018 17:59 16,8 C 10,6 C 53 % 1007,9 hPa 0,0 l/m 3,1 km/h (1 Bft) N 355 0 min 0,000 mm 0,0 UV-I 47 W/m 7,2 C 16,8 C 4,8 km/h (1 Bft) 100,00 %
13.04.2018 18:00 16,8 C 10,6 C 52 % 1007,9 hPa 0,0 l/m 3,1 km/h (1 Bft) N 355 0 min 0,051 mm 0,0 UV-I 47 W/m 6,9 C 16,8 C 3,2 km/h (1 Bft) 100,00 %
13.04.2018 18:01 16,9 C 10,6 C 52 % 1007,9 hPa 0,0 l/m 2,7 km/h (1 Bft) N 355 0 min 0,000 mm 0,0 UV-I 47 W/m 7,0 C 16,9 C 3,2 km/h (1 Bft) 100,00 %
13.04.2018 18:03 16,7 C 10,6 C 57 % 1007,9 hPa 0,0 l/m 5,1 km/h (1 Bft) SO 124 0 min 0,000 mm 0,0 UV-I 47 W/m 8,1 C 16,7 C 6,4 km/h (2 Bft) 100,00 %
13.04.2018 18:04 16,7 C 10,6 C 57 % 1007,9 hPa 0,0 l/m 5,0 km/h (1 Bft) SO 124 0 min 0,000 mm 0,0 UV-I 49 W/m 8,1 C 16,7 C 6,4 km/h (2 Bft) 92,86 %
13.04.2018 18:05 16,6 C 10,6 C 55 % 1008,0 hPa 0,0 l/m 5,0 km/h (1 Bft) SO 125 0 min 0,000 mm 0,0 UV-I 52 W/m 7,5 C 16,6 C 6,4 km/h (2 Bft) 100,00 %
13.04.2018 18:06 16,6 C 10,6 C 54 % 1008,0 hPa 0,0 l/m 5,4 km/h (1 Bft) SO 126 0 min 0,000 mm 0,0 UV-I 53 W/m 7,3 C 16,6 C 6,4 km/h (2 Bft) 100,00 %
13.04.2018 18:07 16,5 C 10,6 C 58 % 1008,0 hPa 0,0 l/m 5,8 km/h (2 Bft) SO 126 0 min 0,000 mm 0,0 UV-I 56 W/m 8,2 C 16,5 C 6,4 km/h (2 Bft) 100,00 %
13.04.2018 18:08 16,4 C 10,6 C 62 % 1008,0 hPa 0,0 l/m 4,3 km/h (1 Bft) SO 126 0 min 0,000 mm 0,0 UV-I 58 W/m 9,1 C 16,4 C 6,4 km/h (2 Bft) 100,00 %
13.04.2018 18:09 16,2 C 10,6 C 61 % 1008,0 hPa 0,0 l/m 3,2 km/h (1 Bft) SO 126 0 min 0,000 mm 0,0 UV-I 56 W/m 8,7 C 16,2 C 4,8 km/h (1 Bft) 95,83 %
13.04.2018 18:10 16,1 C 10,6 C 58 % 1008,1 hPa 0,2 l/m 2,7 km/h (1 Bft) SO 126 0 min 0,000 mm 0,0 UV-I 51 W/m 7,8 C 16,1 C 3,2 km/h (1 Bft) 100,00 %
13.04.2018 18:11 16,2 C 10,6 C 56 % 1008,1 hPa 0,0 l/m 2,5 km/h (1 Bft) SO 126 0 min 0,000 mm 0,0 UV-I 45 W/m 7,4 C 16,2 C 4,8 km/h (1 Bft) 100,00 %
13.04.2018 18:12 16,2 C 10,6 C 59 % 1008,2 hPa 0,0 l/m 4,9 km/h (1 Bft) NW 311 0 min 0,000 mm 0,0 UV-I 40 W/m 8,2 C 16,2 C 6,4 km/h (2 Bft) 100,00 %
13.04.2018 18:13 16,1 C 10,6 C 63 % 1008,2 hPa 0,0 l/m 6,0 km/h (2 Bft) NW 311 0 min 0,000 mm 0,0 UV-I 35 W/m 9,1 C 16,1 C 6,4 km/h (2 Bft) 100,00 %
13.04.2018 18:14 15,8 C 10,6 C 63 % 1008,4 hPa 0,0 l/m 4,8 km/h (1 Bft) W-NW 302 0 min 0,000 mm 0,0 UV-I 30 W/m 8,8 C 15,8 C 6,4 km/h (2 Bft) 100,00 %
13.04.2018 18:15 15,8 C 10,6 C 64 % 1008,4 hPa 0,0 l/m 5,7 km/h (1 Bft) W-SW 257 0 min 0,000 mm 0,0 UV-I 26 W/m 9,0 C 15,8 C 8,0 km/h (2 Bft) 100,00 %
13.04.2018 18:16 15,7 C 10,6 C 64 % 1008,4 hPa 0,0 l/m 4,7 km/h (1 Bft) SW 231 0 min 0,000 mm 0,0 UV-I 22 W/m 8,9 C 15,7 C 6,4 km/h (2 Bft) 100,00 %
13.04.2018 18:17 15,6 C 10,6 C 65 % 1008,5 hPa 0,0 l/m 5,5 km/h (1 Bft) SW 223 0 min 0,000 mm 0,0 UV-I 19 W/m 9,0 C 15,6 C 6,4 km/h (2 Bft) 100,00 %
13.04.2018 18:18 15,6 C 10,6 C 66 % 1008,5 hPa 0,0 l/m 6,6 km/h (2 Bft) S-SW 199 0 min 0,000 mm 0,0 UV-I 17 W/m 9,3 C 15,5 C 8,0 km/h (2 Bft) 100,00 %
13.04.2018 18:19 15,6 C 10,6 C 71 % 1008,6 hPa 0,0 l/m 7,2 km/h (2 Bft) S-SW 195 0 min 0,000 mm 0,0 UV-I 15 W/m 10,4 C 15,2 C 9,7 km/h (2 Bft) 100,00 %
13.04.2018 18:20 15,4 C 10,6 C 71 % 1008,8 hPa 0,0 l/m 7,3 km/h (2 Bft) S-SW 207 0 min 0,000 mm 0,0 UV-I 12 W/m 10,2 C 14,9 C 9,7 km/h (2 Bft) 100,00 %
13.04.2018 18:21 15,4 C 10,6 C 70 % 1008,8 hPa 0,0 l/m 8,9 km/h (2 Bft) S-SW 199 0 min 0,000 mm 0,0 UV-I 12 W/m 10,0 C 14,1 C 11,3 km/h (2 Bft) 100,00 %
13.04.2018 18:23 15,4 C 10,6 C 67 % 1009,0 hPa 0,0 l/m 10,6 km/h (2 Bft) S-SW 204 0 min 0,000 mm 0,0 UV-I 11 W/m 9,3 C 13,3 C 17,7 km/h (3 Bft) 100,00 %
13.04.2018 18:24 15,5 C 10,6 C 65 % 1009,0 hPa 0,0 l/m 9,1 km/h (2 Bft) SW 214 0 min 0,000 mm 0,0 UV-I 11 W/m 8,9 C 14,1 C 16,1 km/h (3 Bft) 100,00 %
13.04.2018 18:25 15,6 C 10,6 C 63 % 1009,0 hPa 0,0 l/m 12,1 km/h (2 Bft) SW 235 0 min 0,000 mm 0,0 UV-I 11 W/m 8,6 C 12,9 C 12,9 km/h (3 Bft) 100,00 %
13.04.2018 18:26 15,7 C 10,6 C 55 % 1009,0 hPa 0,0 l/m 10,5 km/h (2 Bft) W-SW 249 0 min 0,000 mm 0,0 UV-I 11 W/m 6,7 C 13,7 C 14,5 km/h (3 Bft) 100,00 %
13.04.2018 18:27 16,0 C 10,6 C 50 % 1009,0 hPa 0,0 l/m 13,0 km/h (3 Bft) W 281 0 min 0,000 mm 0,0 UV-I 11 W/m 5,6 C 13,1 C 17,7 km/h (3 Bft) 100,00 %
13.04.2018 18:28 16,2 C 10,6 C 53 % 1009,1 hPa 0,0 l/m 10,0 km/h (2 Bft) NW 308 0 min 0,000 mm 0,0 UV-I 11 W/m 6,6 C 14,4 C 16,1 km/h (3 Bft) 100,00 %
13.04.2018 18:29 16,1 C 10,6 C 58 % 1009,1 hPa 0,0 l/m 14,1 km/h (3 Bft) W 266 0 min 0,000 mm 0,0 UV-I 11 W/m 7,8 C 12,8 C 22,5 km/h (4 Bft) 100,00 %
13.04.2018 18:30 16,0 C 10,6 C 60 % 1009,2 hPa 0,0 l/m 15,2 km/h (3 Bft) N-NW 342 0 min 0,000 mm 0,0 UV-I 11 W/m 8,2 C 12,3 C 19,3 km/h (3 Bft) 100,00 %
13.04.2018 18:31 15,8 C 10,6 C 61 % 1009,2 hPa 0,0 l/m 13,2 km/h (3 Bft) W-NW 300 0 min 0,000 mm 0,0 UV-I 11 W/m 8,3 C 12,8 C 19,3 km/h (3 Bft) 100,00 %
13.04.2018 18:33 15,6 C 10,6 C 59 % 1009,4 hPa 0,0 l/m 13,1 km/h (3 Bft) W-NW 284 0 min 0,000 mm 0,0 UV-I 11 W/m 7,6 C 12,6 C 24,1 km/h (4 Bft) 98,00 %
13.04.2018 18:34 15,4 C 10,6 C 58 % 1009,5 hPa 0,0 l/m 8,3 km/h (2 Bft) W 264 0 min 0,000 mm 0,0 UV-I 11 W/m 7,2 C 14,4 C 14,5 km/h (3 Bft) 100,00 %
13.04.2018 18:35 15,4 C 10,6 C 59 % 1009,6 hPa 0,0 l/m 8,4 km/h (2 Bft) N-NW 329 0 min 0,000 mm 0,0 UV-I 11 W/m 7,4 C 14,3 C 12,9 km/h (3 Bft) 100,00 %
13.04.2018 18:36 15,2 C 10,6 C 60 % 1009,6 hPa 0,0 l/m 7,8 km/h (2 Bft) NW 313 0 min 0,000 mm 0,0 UV-I 11 W/m 7,5 C 14,4 C 12,9 km/h (3 Bft) 100,00 %
13.04.2018 18:37 15,2 C 10,6 C 60 % 1009,7 hPa 0,0 l/m 12,2 km/h (2 Bft) N 5 0 min 0,000 mm 0,0 UV-I 11 W/m 7,5 C 12,4 C 25,7 km/h (4 Bft) 100,00 %
13.04.2018 18:38 15,0 C 10,6 C 60 % 1009,7 hPa 0,0 l/m 14,7 km/h (3 Bft) N 355 0 min 0,000 mm 0,0 UV-I 11 W/m 7,3 C 11,3 C 22,5 km/h (4 Bft) 93,75 %
13.04.2018 18:39 15,0 C 10,6 C 60 % 1009,8 hPa 0,0 l/m 10,1 km/h (2 Bft) W-NW 302 0 min 0,000 mm 0,0 UV-I 11 W/m 7,3 C 13,1 C 19,3 km/h (3 Bft) 100,00 %
13.04.2018 18:40 14,9 C 10,6 C 60 % 1009,9 hPa 0,0 l/m 11,9 km/h (2 Bft) NW 306 0 min 0,000 mm 0,0 UV-I 10 W/m 7,2 C 12,2 C 17,7 km/h (3 Bft) 96,15 %
13.04.2018 18:41 14,9 C 10,6 C 59 % 1010,0 hPa 0,0 l/m 3,2 km/h (1 Bft) NW 311 0 min 0,000 mm 0,0 UV-I 9 W/m 7,0 C 14,9 C 11,3 km/h (2 Bft) 100,00 %
13.04.2018 18:42 14,8 C 10,6 C 63 % 1010,1 hPa 0,0 l/m 8,6 km/h (2 Bft) W-NW 286 0 min 0,000 mm 0,0 UV-I 9 W/m 7,8 C 13,6 C 14,5 km/h (3 Bft) 95,65 %
13.04.2018 18:43 14,8 C 10,6 C 62 % 1010,1 hPa 0,0 l/m 5,5 km/h (1 Bft) N-NW 336 0 min 0,000 mm 0,0 UV-I 9 W/m 7,6 C 14,8 C 12,9 km/h (3 Bft) 96,30 %
13.04.2018 18:44 14,7 C 10,6 C 63 % 1010,2 hPa 0,0 l/m 9,0 km/h (2 Bft) NW 323 0 min 0,000 mm 0,0 UV-I 9 W/m 7,7 C 13,3 C 16,1 km/h (3 Bft) 100,00 %
13.04.2018 18:45 14,6 C 10,6 C 63 % 1010,3 hPa 0,0 l/m 9,9 km/h (2 Bft) SW 233 0 min 0,000 mm 0,0 UV-I 9 W/m 7,6 C 12,7 C 16,1 km/h (3 Bft) 93,33 %
13.04.2018 18:46 14,5 C 10,6 C 64 % 1010,3 hPa 0,0 l/m 9,4 km/h (2 Bft) W 261 0 min 0,000 mm 0,0 UV-I 7 W/m 7,8 C 12,9 C 12,9 km/h (3 Bft) 100,00 %
13.04.2018 18:47 14,4 C 10,6 C 65 % 1010,4 hPa 0,0 l/m 12,6 km/h (3 Bft) W 261 0 min 0,000 mm 0,0 UV-I 7 W/m 7,9 C 11,3 C 19,3 km/h (3 Bft) 95,83 %
13.04.2018 18:48 14,3 C 10,6 C 66 % 1010,5 hPa 0,2 l/m 11,7 km/h (2 Bft) W 281 0 min 0,000 mm 0,0 UV-I 7 W/m 8,0 C 11,6 C 19,3 km/h (3 Bft) 100,00 %
13.04.2018 18:49 14,2 C 10,6 C 68 % 1010,6 hPa 0,0 l/m 9,6 km/h (2 Bft) W-NW 284 0 min 0,000 mm 0,0 UV-I 7 W/m 8,4 C 12,4 C 14,5 km/h (3 Bft) 93,33 %
13.04.2018 18:50 13,9 C 10,6 C 71 % 1010,7 hPa 0,2 l/m 8,0 km/h (2 Bft) NW 306 0 min 0,000 mm 0,0 UV-I 7 W/m 8,7 C 12,9 C 14,5 km/h (3 Bft) 100,00 %
13.04.2018 18:51 13,7 C 10,6 C 71 % 1010,8 hPa 0,0 l/m 11,9 km/h (2 Bft) W 277 0 min 0,000 mm 0,0 UV-I 7 W/m 8,5 C 10,8 C 14,5 km/h (3 Bft) 96,67 %
13.04.2018 18:52 13,4 C 10,6 C 72 % 1010,9 hPa 0,2 l/m 13,3 km/h (3 Bft) W 270 0 min 0,000 mm 0,0 UV-I 7 W/m 8,5 C 9,9 C 16,1 km/h (3 Bft) 95,65 %
13.04.2018 18:53 13,3 C 10,6 C 73 % 1011,1 hPa 0,2 l/m 14,0 km/h (3 Bft) SW 228 0 min 0,000 mm 0,0 UV-I 7 W/m 8,6 C 9,5 C 17,7 km/h (3 Bft) 100,00 %
13.04.2018 18:54 13,2 C 10,6 C 72 % 1011,1 hPa 0,4 l/m 9,0 km/h (2 Bft) W 261 0 min 0,000 mm 0,0 UV-I 8 W/m 8,3 C 11,6 C 14,5 km/h (3 Bft) 96,30 %
13.04.2018 18:55 13,2 C 10,6 C 72 % 1011,0 hPa 0,2 l/m 4,4 km/h (1 Bft) W 261 0 min 0,000 mm 0,0 UV-I 9 W/m 8,3 C 13,2 C 4,8 km/h (1 Bft) 100,00 %
13.04.2018 18:56 13,2 C 10,6 C 73 % 1010,9 hPa 0,2 l/m 3,7 km/h (1 Bft) W 261 0 min 0,000 mm 0,0 UV-I 9 W/m 8,5 C 13,2 C 4,8 km/h (1 Bft) 91,67 %
13.04.2018 18:57 13,1 C 10,6 C 74 % 1010,9 hPa 0,0 l/m 3,7 km/h (1 Bft) NW 306 0 min 0,000 mm 0,0 UV-I 10 W/m 8,6 C 13,1 C 4,8 km/h (1 Bft) 96,55 %
13.04.2018 18:58 13,1 C 10,6 C 74 % 1010,9 hPa 0,0 l/m 2,7 km/h (1 Bft) NW 306 0 min 0,000 mm 0,0 UV-I 11 W/m 8,6 C 13,1 C 4,8 km/h (1 Bft) 96,30 %
13.04.2018 18:59 13,1 C 10,6 C 75 % 1011,0 hPa 0,0 l/m 6,0 km/h (2 Bft) N-NW 347 0 min 0,000 mm 0,0 UV-I 11 W/m 8,8 C 13,1 C 9,7 km/h (2 Bft) 92,31 %
13.04.2018 19:00 13,1 C 10,6 C 70 % 1010,9 hPa 0,0 l/m 9,3 km/h (2 Bft) N 355 0 min 0,000 mm 0,0 UV-I 11 W/m 7,8 C 11,4 C 16,1 km/h (3 Bft) 100,00 %
13.04.2018 19:02 13,1 C 10,6 C 71 % 1010,9 hPa 0,0 l/m 4,8 km/h (1 Bft) NW 323 0 min 0,051 mm 0,0 UV-I 11 W/m 8,0 C 13,1 C 8,0 km/h (2 Bft) 97,87 %
13.04.2018 19:03 13,1 C 10,6 C 71 % 1011,0 hPa 0,2 l/m 5,3 km/h (1 Bft) N 5 0 min 0,000 mm 0,0 UV-I 11 W/m 8,0 C 13,1 C 8,0 km/h (2 Bft) 95,65 %
13.04.2018 19:04 13,2 C 10,6 C 69 % 1011,0 hPa 0,0 l/m 3,2 km/h (1 Bft) N 5 0 min 0,000 mm 0,0 UV-I 12 W/m 7,6 C 13,2 C 4,8 km/h (1 Bft) 100,00 %
13.04.2018 19:05 13,1 C 10,6 C 70 % 1011,1 hPa 0,0 l/m 2,9 km/h (1 Bft) N 5 0 min 0,000 mm 0,0 UV-I 12 W/m 7,8 C 13,1 C 4,8 km/h (1 Bft) 72,73 %
13.04.2018 19:06 13,0 C 10,6 C 74 % 1011,1 hPa 0,0 l/m 6,2 km/h (2 Bft) N 349 0 min 0,000 mm 0,0 UV-I 12 W/m 8,5 C 13,0 C 12,9 km/h (3 Bft) 100,00 %
13.04.2018 19:08 12,6 C 10,6 C 75 % 1011,1 hPa 0,0 l/m 9,7 km/h (2 Bft) N 11 0 min 0,000 mm 0,0 UV-I 12 W/m 8,3 C 10,6 C 14,5 km/h (3 Bft) 97,73 %
13.04.2018 19:09 12,6 C 10,6 C 75 % 1011,1 hPa 0,0 l/m 9,3 km/h (2 Bft) N-NO 17 0 min 0,000 mm 0,0 UV-I 12 W/m 8,3 C 10,8 C 11,3 km/h (2 Bft) 95,65 %
13.04.2018 19:10 12,4 C 10,6 C 78 % 1011,1 hPa 0,0 l/m 10,7 km/h (2 Bft) N 10 0 min 0,000 mm 0,0 UV-I 12 W/m 8,7 C 9,9 C 12,9 km/h (3 Bft) 93,33 %
13.04.2018 19:11 12,2 C 10,6 C 79 % 1011,1 hPa 0,0 l/m 12,7 km/h (3 Bft) N-NO 19 0 min 0,000 mm 0,0 UV-I 11 W/m 8,7 C 8,7 C 14,5 km/h (3 Bft) 95,65 %
13.04.2018 19:12 12,2 C 10,6 C 79 % 1011,1 hPa 0,0 l/m 11,6 km/h (2 Bft) N-NO 12 0 min 0,000 mm 0,0 UV-I 11 W/m 8,7 C 9,2 C 14,5 km/h (3 Bft) 100,00 %
13.04.2018 19:13 12,2 C 10,6 C 77 % 1011,1 hPa 0,0 l/m 9,3 km/h (2 Bft) N 355 0 min 0,000 mm 0,0 UV-I 11 W/m 8,3 C 10,4 C 14,5 km/h (3 Bft) 100,00 %
13.04.2018 19:14 12,2 C 10,6 C 77 % 1011,2 hPa 0,0 l/m 9,3 km/h (2 Bft) N 350 0 min 0,000 mm 0,0 UV-I 11 W/m 8,3 C 10,4 C 12,9 km/h (3 Bft) 100,00 %
13.04.2018 19:15 12,3 C 10,6 C 77 % 1011,2 hPa 0,0 l/m 11,5 km/h (2 Bft) N-NW 340 0 min 0,000 mm 0,0 UV-I 12 W/m 8,4 C 9,4 C 16,1 km/h (3 Bft) 100,00 %
13.04.2018 19:16 12,3 C 10,6 C 77 % 1011,2 hPa 0,0 l/m 9,7 km/h (2 Bft) N 360 0 min 0,000 mm 0,0 UV-I 14 W/m 8,4 C 10,3 C 12,9 km/h (3 Bft) 90,91 %
13.04.2018 19:17 12,3 C 10,6 C 77 % 1011,2 hPa 0,0 l/m 10,9 km/h (2 Bft) N-NW 344 0 min 0,000 mm 0,0 UV-I 18 W/m 8,4 C 9,7 C 17,7 km/h (3 Bft) 100,00 %
13.04.2018 19:18 12,3 C 10,6 C 78 % 1011,2 hPa 0,0 l/m 11,3 km/h (2 Bft) N-NW 342 0 min 0,000 mm 0,0 UV-I 18 W/m 8,6 C 9,5 C 16,1 km/h (3 Bft) 91,30 %
13.04.2018 19:19 12,3 C 10,6 C 77 % 1011,2 hPa 0,0 l/m 11,1 km/h (2 Bft) N 5 0 min 0,000 mm 0,0 UV-I 14 W/m 8,4 C 9,6 C 16,1 km/h (3 Bft) 100,00 %
13.04.2018 19:20 12,2 C 10,6 C 80 % 1011,2 hPa 0,0 l/m 10,9 km/h (2 Bft) N 355 0 min 0,000 mm 0,0 UV-I 12 W/m 8,9 C 9,6 C 16,1 km/h (3 Bft) 100,00 %
13.04.2018 19:21 12,2 C 10,6 C 79 % 1011,2 hPa 0,0 l/m 10,9 km/h (2 Bft) N-NW 341 0 min 0,000 mm 0,0 UV-I 12 W/m 8,7 C 9,6 C 14,5 km/h (3 Bft) 100,00 %
13.04.2018 19:22 12,2 C 10,6 C 80 % 1011,2 hPa 0,0 l/m 10,4 km/h (2 Bft) N 350 0 min 0,000 mm 0,0 UV-I 12 W/m 8,9 C 9,8 C 14,5 km/h (3 Bft) 100,00 %
13.04.2018 19:23 12,2 C 10,6 C 78 % 1011,2 hPa 0,0 l/m 8,5 km/h (2 Bft) N 355 0 min 0,000 mm 0,0 UV-I 13 W/m 8,5 C 10,9 C 12,9 km/h (3 Bft) 100,00 %
13.04.2018 19:24 12,2 C 10,6 C 78 % 1011,2 hPa 0,0 l/m 10,1 km/h (2 Bft) N-NW 329 0 min 0,000 mm 0,0 UV-I 14 W/m 8,5 C 10,0 C 16,1 km/h (3 Bft) 96,55 %
13.04.2018 19:25 12,3 C 10,6 C 78 % 1011,3 hPa 0,0 l/m 9,1 km/h (2 Bft) NW 318 0 min 0,000 mm 0,0 UV-I 16 W/m 8,6 C 10,6 C 14,5 km/h (3 Bft) 96,30 %
13.04.2018 19:26 12,3 C 10,6 C 77 % 1011,3 hPa 0,0 l/m 12,0 km/h (2 Bft) N-NW 332 0 min 0,000 mm 0,0 UV-I 16 W/m 8,4 C 9,2 C 16,1 km/h (3 Bft) 100,00 %
13.04.2018 19:27 12,4 C 10,6 C 77 % 1011,4 hPa 0,0 l/m 8,1 km/h (2 Bft) N-NW 340 0 min 0,000 mm 0,0 UV-I 18 W/m 8,5 C 11,3 C 11,3 km/h (2 Bft) 100,00 %
13.04.2018 19:28 12,4 C 10,6 C 78 % 1011,4 hPa 0,0 l/m 8,9 km/h (2 Bft) NW 321 0 min 0,000 mm 0,0 UV-I 20 W/m 8,7 C 10,8 C 14,5 km/h (3 Bft) 100,00 %
13.04.2018 19:29 12,4 C 10,6 C 77 % 1011,5 hPa 0,0 l/m 7,0 km/h (2 Bft) W-NW 300 0 min 0,000 mm 0,0 UV-I 20 W/m 8,5 C 12,0 C 9,7 km/h (2 Bft) 100,00 %
13.04.2018 19:30 12,4 C 10,6 C 78 % 1011,5 hPa 0,0 l/m 4,3 km/h (1 Bft) W-NW 301 0 min 0,000 mm 0,0 UV-I 19 W/m 8,7 C 12,4 C 6,4 km/h (2 Bft) 96,55 %
13.04.2018 19:31 12,3 C 10,6 C 78 % 1011,5 hPa 0,0 l/m 3,1 km/h (1 Bft) W 276 0 min 0,000 mm 0,0 UV-I 19 W/m 8,6 C 12,3 C 6,4 km/h (2 Bft) 100,00 %
13.04.2018 19:32 12,3 C 10,6 C 80 % 1011,6 hPa 0,0 l/m 4,4 km/h (1 Bft) W 275 0 min 0,000 mm 0,0 UV-I 16 W/m 8,9 C 12,3 C 6,4 km/h (2 Bft) 100,00 %
13.04.2018 19:33 12,2 C 10,6 C 79 % 1011,6 hPa 0,0 l/m 3,5 km/h (1 Bft) W-NW 286 0 min 0,000 mm 0,0 UV-I 15 W/m 8,7 C 12,2 C 4,8 km/h (1 Bft) 100,00 %
13.04.2018 19:34 12,2 C 10,6 C 80 % 1011,8 hPa 0,0 l/m 2,7 km/h (1 Bft) W-NW 286 0 min 0,000 mm 0,0 UV-I 14 W/m 8,9 C 12,2 C 4,8 km/h (1 Bft) 100,00 %
13.04.2018 19:35 12,1 C 10,6 C 82 % 1011,8 hPa 0,0 l/m 4,8 km/h (1 Bft) W 264 0 min 0,000 mm 0,0 UV-I 14 W/m 9,1 C 12,1 C 6,4 km/h (2 Bft) 95,65 %
13.04.2018 19:36 11,9 C 10,6 C 83 % 1011,8 hPa 0,0 l/m 5,6 km/h (1 Bft) W-SW 257 0 min 0,000 mm 0,0 UV-I 12 W/m 9,1 C 11,9 C 11,3 km/h (2 Bft) 100,00 %
13.04.2018 19:37 11,8 C 10,6 C 83 % 1011,9 hPa 0,0 l/m 4,8 km/h (1 Bft) W-SW 258 0 min 0,000 mm 0,0 UV-I 12 W/m 9,0 C 11,8 C 8,0 km/h (2 Bft) 100,00 %
13.04.2018 19:38 11,8 C 10,6 C 83 % 1011,9 hPa 0,0 l/m 8,4 km/h (2 Bft) W-SW 254 0 min 0,000 mm 0,0 UV-I 12 W/m 9,0 C 10,5 C 11,3 km/h (2 Bft) 100,00 %
13.04.2018 19:39 11,9 C 10,6 C 82 % 1012,0 hPa 0,0 l/m 9,9 km/h (2 Bft) W-SW 250 1 min 0,000 mm 0,0 UV-I 12 W/m 8,9 C 9,7 C 12,9 km/h (3 Bft) 100,00 %
13.04.2018 19:40 12,0 C 10,6 C 81 % 1012,0 hPa 0,0 l/m 13,3 km/h (3 Bft) W 261 1 min 0,000 mm 0,0 UV-I 11 W/m 8,8 C 8,2 C 19,3 km/h (3 Bft) 96,30 %
13.04.2018 19:41 12,0 C 10,6 C 81 % 1012,1 hPa 0,0 l/m 12,9 km/h (3 Bft) W 280 0 min 0,000 mm 0,0 UV-I 11 W/m 8,8 C 8,4 C 14,5 km/h (3 Bft) 95,65 %
13.04.2018 19:42 12,1 C 10,6 C 81 % 1012,1 hPa 0,0 l/m 10,9 km/h (2 Bft) W 277 0 min 0,000 mm 0,0 UV-I 11 W/m 8,9 C 9,5 C 12,9 km/h (3 Bft) 95,83 %
13.04.2018 19:43 12,1 C 10,6 C 82 % 1012,2 hPa 0,0 l/m 10,5 km/h (2 Bft) W 281 0 min 0,000 mm 0,0 UV-I 11 W/m 9,1 C 9,7 C 14,5 km/h (3 Bft) 92,86 %
13.04.2018 19:44 12,0 C 10,6 C 82 % 1012,1 hPa 0,0 l/m 11,0 km/h (2 Bft) W 263 0 min 0,000 mm 0,0 UV-I 10 W/m 9,0 C 9,3 C 14,5 km/h (3 Bft) 100,00 %
13.04.2018 19:45 11,9 C 10,6 C 82 % 1012,2 hPa 0,0 l/m 9,9 km/h (2 Bft) W-NW 288 0 min 0,000 mm 0,0 UV-I 9 W/m 8,9 C 9,7 C 14,5 km/h (3 Bft) 96,55 %
13.04.2018 19:46 12,1 C 10,6 C 79 % 1012,3 hPa 0,0 l/m 10,1 km/h (2 Bft) W 269 0 min 0,000 mm 0,0 UV-I 8 W/m 8,6 C 9,9 C 14,5 km/h (3 Bft) 100,00 %
13.04.2018 19:47 12,2 C 10,6 C 79 % 1012,3 hPa 0,0 l/m 5,6 km/h (1 Bft) NW 324 0 min 0,000 mm 0,0 UV-I 7 W/m 8,7 C 12,2 C 8,0 km/h (2 Bft) 100,00 %
13.04.2018 19:48 12,2 C 10,6 C 80 % 1012,4 hPa 0,0 l/m 7,0 km/h (2 Bft) W-NW 290 0 min 0,000 mm 0,0 UV-I 7 W/m 8,9 C 11,8 C 11,3 km/h (2 Bft) 100,00 %
13.04.2018 19:49 12,2 C 10,6 C 80 % 1012,5 hPa 0,0 l/m 8,0 km/h (2 Bft) W 280 0 min 0,000 mm 0,0 UV-I 7 W/m 8,9 C 11,2 C 11,3 km/h (2 Bft) 95,65 %
13.04.2018 19:50 12,1 C 10,6 C 80 % 1012,5 hPa 0,0 l/m 10,6 km/h (2 Bft) W-NW 300 0 min 0,000 mm 0,0 UV-I 7 W/m 8,8 C 9,6 C 22,5 km/h (4 Bft) 94,44 %
13.04.2018 19:51 12,1 C 10,6 C 79 % 1012,6 hPa 0,0 l/m 16,2 km/h (3 Bft) NW 311 0 min 0,000 mm 0,0 UV-I 7 W/m 8,6 C 7,2 C 30,6 km/h (5 Bft) 96,30 %
13.04.2018 19:52 12,2 C 10,6 C 75 % 1012,6 hPa 0,0 l/m 11,0 km/h (2 Bft) W 275 0 min 0,000 mm 0,0 UV-I 6 W/m 7,9 C 9,5 C 14,5 km/h (3 Bft) 100,00 %
13.04.2018 19:53 12,3 C 10,6 C 72 % 1012,6 hPa 0,0 l/m 19,1 km/h (3 Bft) W 274 0 min 0,000 mm 0,0 UV-I 5 W/m 7,4 C 6,5 C 29,0 km/h (5 Bft) 100,00 %
13.04.2018 19:54 12,3 C 10,6 C 71 % 1012,6 hPa 0,0 l/m 15,6 km/h (3 Bft) W-NW 283 0 min 0,000 mm 0,0 UV-I 5 W/m 7,2 C 7,7 C 24,1 km/h (4 Bft) 100,00 %
13.04.2018 19:55 12,4 C 10,6 C 69 % 1012,7 hPa 0,0 l/m 13,0 km/h (3 Bft) W 281 0 min 0,000 mm 0,0 UV-I 5 W/m 6,9 C 8,8 C 19,3 km/h (3 Bft) 100,00 %
13.04.2018 19:56 12,4 C 10,6 C 69 % 1012,7 hPa 0,0 l/m 12,5 km/h (3 Bft) W-SW 248 0 min 0,000 mm 0,0 UV-I 5 W/m 6,9 C 9,1 C 20,9 km/h (4 Bft) 100,00 %
13.04.2018 19:57 12,4 C 10,6 C 68 % 1012,7 hPa 0,0 l/m 17,1 km/h (3 Bft) NW 309 0 min 0,000 mm 0,0 UV-I 5 W/m 6,7 C 7,3 C 33,8 km/h (5 Bft) 100,00 %
13.04.2018 19:58 12,4 C 10,6 C 67 % 1012,7 hPa 0,0 l/m 19,1 km/h (3 Bft) NW 322 0 min 0,000 mm 0,0 UV-I 5 W/m 6,4 C 6,7 C 32,2 km/h (5 Bft) 92,86 %
13.04.2018 19:59 12,4 C 10,6 C 67 % 1012,9 hPa 0,0 l/m 15,4 km/h (3 Bft) N 5 0 min 0,000 mm 0,0 UV-I 5 W/m 6,4 C 7,9 C 25,7 km/h (4 Bft) 100,00 %
13.04.2018 20:00 12,4 C 10,6 C 67 % 1012,9 hPa 0,0 l/m 10,9 km/h (2 Bft) W-NW 291 0 min 0,000 mm 0,0 UV-I 5 W/m 6,4 C 9,8 C 20,9 km/h (4 Bft) 100,00 %
13.04.2018 20:02 12,3 C 10,6 C 67 % 1013,0 hPa 0,0 l/m 13,5 km/h (3 Bft) NW 320 0 min 0,025 mm 0,0 UV-I 2 W/m 6,4 C 8,5 C 33,8 km/h (5 Bft) 100,00 %
13.04.2018 20:03 12,3 C 10,6 C 67 % 1012,9 hPa 0,0 l/m 16,5 km/h (3 Bft) W 279 0 min 0,000 mm 0,0 UV-I 0 W/m 6,4 C 7,4 C 32,2 km/h (5 Bft) 100,00 %
13.04.2018 20:04 12,3 C 10,6 C 66 % 1013,0 hPa 0,0 l/m 15,3 km/h (3 Bft) W-SW 246 0 min 0,000 mm 0,0 UV-I 0 W/m 6,1 C 7,8 C 25,7 km/h (4 Bft) 100,00 %
13.04.2018 20:05 12,3 C 10,6 C 66 % 1013,1 hPa 0,0 l/m 14,5 km/h (3 Bft) W-SW 252 0 min 0,000 mm 0,0 UV-I 0 W/m 6,1 C 8,1 C 22,5 km/h (4 Bft) 100,00 %
13.04.2018 20:06 12,3 C 10,6 C 67 % 1013,1 hPa 0,0 l/m 14,3 km/h (3 Bft) SW 229 0 min 0,000 mm 0,0 UV-I 0 W/m 6,4 C 8,2 C 17,7 km/h (3 Bft) 100,00 %
13.04.2018 20:07 12,3 C 10,6 C 66 % 1013,1 hPa 0,0 l/m 8,6 km/h (2 Bft) W-SW 241 0 min 0,000 mm 0,0 UV-I 0 W/m 6,1 C 10,9 C 11,3 km/h (2 Bft) 100,00 %
13.04.2018 20:08 12,2 C 10,6 C 67 % 1013,2 hPa 0,0 l/m 8,6 km/h (2 Bft) W 281 0 min 0,000 mm 0,0 UV-I 0 W/m 6,3 C 10,8 C 17,7 km/h (3 Bft) 96,15 %
13.04.2018 20:09 12,2 C 10,6 C 67 % 1013,2 hPa 0,0 l/m 14,8 km/h (3 Bft) W 270 0 min 0,000 mm 0,0 UV-I 0 W/m 6,3 C 7,9 C 24,1 km/h (4 Bft) 100,00 %
13.04.2018 20:10 12,2 C 10,6 C 67 % 1013,2 hPa 0,0 l/m 13,8 km/h (3 Bft) W-NW 296 0 min 0,000 mm 0,0 UV-I 0 W/m 6,3 C 8,3 C 22,5 km/h (4 Bft) 100,00 %
13.04.2018 20:11 12,2 C 10,6 C 65 % 1013,3 hPa 0,0 l/m 14,3 km/h (3 Bft) W-NW 294 0 min 0,000 mm 0,0 UV-I 0 W/m 5,8 C 8,1 C 25,7 km/h (4 Bft) 93,33 %
13.04.2018 20:12 12,2 C 10,6 C 67 % 1013,3 hPa 0,0 l/m 7,0 km/h (2 Bft) NW 306 0 min 0,000 mm 0,0 UV-I 0 W/m 6,3 C 11,8 C 14,5 km/h (3 Bft) 100,00 %
13.04.2018 20:13 12,2 C 10,6 C 67 % 1013,3 hPa 0,0 l/m 9,3 km/h (2 Bft) N-NW 344 0 min 0,000 mm 0,0 UV-I 0 W/m 6,3 C 10,4 C 14,5 km/h (3 Bft) 100,00 %
13.04.2018 20:14 12,1 C 10,6 C 66 % 1013,4 hPa 0,0 l/m 8,2 km/h (2 Bft) W 263 0 min 0,000 mm 0,0 UV-I 0 W/m 5,9 C 10,9 C 14,5 km/h (3 Bft) 100,00 %
13.04.2018 20:15 12,2 C 11,1 C 67 % 1013,3 hPa 0,0 l/m 9,6 km/h (2 Bft) NW 306 0 min 0,000 mm 0,0 UV-I 0 W/m 6,3 C 10,2 C 14,5 km/h (3 Bft) 100,00 %
13.04.2018 20:16 12,1 C 10,6 C 67 % 1013,4 hPa 0,0 l/m 6,4 km/h (2 Bft) W-NW 283 0 min 0,000 mm 0,0 UV-I 0 W/m 6,2 C 12,1 C 11,3 km/h (2 Bft) 93,33 %
13.04.2018 20:17 12,1 C 10,6 C 68 % 1013,5 hPa 0,0 l/m 14,6 km/h (3 Bft) W 277 0 min 0,000 mm 0,0 UV-I 0 W/m 6,4 C 7,8 C 20,9 km/h (4 Bft) 100,00 %
13.04.2018 20:18 12,0 C 10,6 C 67 % 1013,4 hPa 0,0 l/m 11,0 km/h (2 Bft) SW 223 0 min 0,000 mm 0,0 UV-I 0 W/m 6,1 C 9,3 C 25,7 km/h (4 Bft) 96,30 %
13.04.2018 20:19 12,1 C 10,6 C 67 % 1013,5 hPa 0,0 l/m 11,1 km/h (2 Bft) W 280 0 min 0,000 mm 0,0 UV-I 0 W/m 6,2 C 9,4 C 14,5 km/h (3 Bft) 100,00 %
13.04.2018 20:20 12,0 C 10,6 C 67 % 1013,5 hPa 0,0 l/m 6,9 km/h (2 Bft) W 281 0 min 0,000 mm 0,0 UV-I 0 W/m 6,1 C 11,7 C 12,9 km/h (3 Bft) 96,30 %
13.04.2018 20:21 12,0 C 10,6 C 68 % 1013,6 hPa 0,0 l/m 7,5 km/h (2 Bft) W 263 0 min 0,000 mm 0,0 UV-I 0 W/m 6,3 C 11,3 C 16,1 km/h (3 Bft) 95,65 %
13.04.2018 20:22 12,0 C 10,6 C 67 % 1013,6 hPa 0,0 l/m 15,2 km/h (3 Bft) W-NW 283 0 min 0,000 mm 0,0 UV-I 0 W/m 6,1 C 7,5 C 20,9 km/h (4 Bft) 100,00 %
13.04.2018 20:23 12,1 C 10,6 C 66 % 1013,6 hPa 0,0 l/m 8,3 km/h (2 Bft) W 264 0 min 0,000 mm 0,0 UV-I 0 W/m 5,9 C 10,9 C 12,9 km/h (3 Bft) 96,15 %
13.04.2018 20:24 12,1 C 10,6 C 65 % 1013,7 hPa 0,0 l/m 11,4 km/h (2 Bft) W 277 0 min 0,000 mm 0,0 UV-I 0 W/m 5,7 C 9,2 C 14,5 km/h (3 Bft) 100,00 %
13.04.2018 20:25 12,1 C 10,6 C 66 % 1013,7 hPa 0,0 l/m 10,2 km/h (2 Bft) W-NW 296 0 min 0,000 mm 0,0 UV-I 0 W/m 5,9 C 9,8 C 17,7 km/h (3 Bft) 96,15 %
13.04.2018 20:26 12,1 C 10,6 C 66 % 1013,7 hPa 0,0 l/m 5,6 km/h (1 Bft) W 268 0 min 0,000 mm 0,0 UV-I 0 W/m 5,9 C 12,1 C 6,4 km/h (2 Bft) 100,00 %
13.04.2018 20:28 12,0 C 10,6 C 67 % 1013,8 hPa 0,0 l/m 5,7 km/h (1 Bft) W 268 0 min 0,000 mm 0,0 UV-I 0 W/m 6,1 C 12,0 C 11,3 km/h (2 Bft) 92,11 %
13.04.2018 20:29 11,9 C 10,6 C 68 % 1013,7 hPa 0,0 l/m 8,5 km/h (2 Bft) W 267 0 min 0,000 mm 0,0 UV-I 0 W/m 6,2 C 10,5 C 11,3 km/h (2 Bft) 90,62 %
13.04.2018 20:30 11,9 C 10,6 C 67 % 1013,8 hPa 0,0 l/m 12,0 km/h (2 Bft) W-NW 287 0 min 0,000 mm 0,0 UV-I 0 W/m 6,0 C 8,7 C 17,7 km/h (3 Bft) 96,30 %
13.04.2018 20:31 11,9 C 10,6 C 66 % 1013,8 hPa 0,0 l/m 9,5 km/h (2 Bft) W-SW 246 0 min 0,000 mm 0,0 UV-I 0 W/m 5,8 C 10,0 C 12,9 km/h (3 Bft) 91,67 %
13.04.2018 20:32 12,0 C 10,6 C 66 % 1013,8 hPa 0,0 l/m 6,0 km/h (2 Bft) W 261 0 min 0,000 mm 0,0 UV-I 0 W/m 5,8 C 12,0 C 11,3 km/h (2 Bft) 96,88 %
13.04.2018 20:33 12,0 C 10,6 C 66 % 1013,8 hPa 0,0 l/m 5,4 km/h (1 Bft) W 263 0 min 0,000 mm 0,0 UV-I 0 W/m 5,8 C 12,0 C 9,7 km/h (2 Bft) 100,00 %
13.04.2018 20:34 11,9 C 10,6 C 67 % 1013,8 hPa 0,0 l/m 7,3 km/h (2 Bft) W 271 0 min 0,000 mm 0,0 UV-I 0 W/m 6,0 C 11,3 C 11,3 km/h (2 Bft) 100,00 %
13.04.2018 20:35 11,9 C 10,6 C 67 % 1013,7 hPa 0,0 l/m 7,2 km/h (2 Bft) W 268 0 min 0,000 mm 0,0 UV-I 0 W/m 6,0 C 11,4 C 11,3 km/h (2 Bft) 100,00 %
13.04.2018 20:36 11,9 C 10,6 C 67 % 1013,7 hPa 0,0 l/m 5,3 km/h (1 Bft) W 269 0 min 0,000 mm 0,0 UV-I 0 W/m 6,0 C 11,9 C 9,7 km/h (2 Bft) 97,99 %
13.04.2018 20:37 11,8 C 10,6 C 67 % 1013,7 hPa 0,0 l/m 6,9 km/h (2 Bft) W 269 0 min 0,000 mm 0,0 UV-I 0 W/m 5,9 C 11,5 C 11,3 km/h (2 Bft) 97,73 %
13.04.2018 20:38 11,8 C 10,6 C 68 % 1013,7 hPa 0,0 l/m 7,4 km/h (2 Bft) W 263 0 min 0,000 mm 0,0 UV-I 0 W/m 6,1 C 11,1 C 9,7 km/h (2 Bft) 96,15 %
13.04.2018 20:39 11,8 C 10,6 C 67 % 1013,7 hPa 0,0 l/m 6,5 km/h (2 Bft) W 263 0 min 0,000 mm 0,0 UV-I 0 W/m 5,9 C 11,8 C 9,7 km/h (2 Bft) 100,00 %
13.04.2018 20:40 11,8 C 10,6 C 67 % 1013,7 hPa 0,0 l/m 4,5 km/h (1 Bft) W 261 0 min 0,000 mm 0,0 UV-I 0 W/m 5,9 C 11,8 C 6,4 km/h (2 Bft) 96,15 %
13.04.2018 20:41 11,8 C 10,6 C 67 % 1013,7 hPa 0,0 l/m 4,2 km/h (1 Bft) W-SW 254 0 min 0,000 mm 0,0 UV-I 0 W/m 5,9 C 11,8 C 6,4 km/h (2 Bft) 95,83 %
13.04.2018 20:42 11,8 C 10,6 C 68 % 1013,6 hPa 0,0 l/m 3,2 km/h (1 Bft) W-SW 254 0 min 0,000 mm 0,0 UV-I 0 W/m 6,1 C 11,8 C 4,8 km/h (1 Bft) 100,00 %
13.04.2018 20:45 11,8 C 10,6 C 68 % 1013,6 hPa 0,0 l/m 3,2 km/h (1 Bft) W-SW 247 0 min 0,000 mm 0,0 UV-I 0 W/m 6,1 C 11,8 C 6,4 km/h (2 Bft) 100,00 %
13.04.2018 20:50 11,3 C 10,6 C 72 % 1013,7 hPa 0,0 l/m 1,6 km/h (1 Bft) W-SW 247 0 min 0,000 mm 0,0 UV-I 0 W/m 6,4 C 11,3 C 3,2 km/h (1 Bft) 100,00 %
13.04.2018 20:52 10,9 C 10,6 C 75 % 1013,7 hPa 0,0 l/m 2,3 km/h (1 Bft) W-SW 254 0 min 0,000 mm 0,0 UV-I 0 W/m 6,6 C 10,9 C 3,2 km/h (1 Bft) 96,64 %
13.04.2018 20:53 10,8 C 10,6 C 75 % 1013,7 hPa 0,0 l/m 2,4 km/h (1 Bft) W-SW 254 0 min 0,000 mm 0,0 UV-I 0 W/m 6,5 C 10,8 C 3,2 km/h (1 Bft) 91,67 %
13.04.2018 20:54 10,7 C 10,6 C 77 % 1013,7 hPa 0,0 l/m 1,9 km/h (1 Bft) W-SW 254 0 min 0,000 mm 0,0 UV-I 0 W/m 6,8 C 10,7 C 3,2 km/h (1 Bft) 91,30 %
13.04.2018 20:55 10,6 C 10,6 C 77 % 1013,7 hPa 0,0 l/m 2,7 km/h (1 Bft) W-SW 254 0 min 0,000 mm 0,0 UV-I 0 W/m 6,7 C 10,6 C 3,2 km/h (1 Bft) 100,00 %
13.04.2018 20:56 10,5 C 10,6 C 79 % 1013,8 hPa 0,0 l/m 2,3 km/h (1 Bft) W-SW 254 0 min 0,000 mm 0,0 UV-I 0 W/m 7,0 C 10,5 C 3,2 km/h (1 Bft) 95,65 %
13.04.2018 20:57 10,3 C 10,6 C 81 % 1013,7 hPa 0,0 l/m 2,3 km/h (1 Bft) W-SW 254 0 min 0,000 mm 0,0 UV-I 0 W/m 7,2 C 10,3 C 3,2 km/h (1 Bft) 95,83 %
13.04.2018 20:58 10,2 C 10,6 C 81 % 1013,7 hPa 0,0 l/m 1,9 km/h (1 Bft) W-SW 254 0 min 0,000 mm 0,0 UV-I 0 W/m 7,1 C 10,2 C 3,2 km/h (1 Bft) 92,31 %
13.04.2018 20:59 10,1 C 10,6 C 82 % 1013,7 hPa 0,0 l/m 1,7 km/h (1 Bft) W-SW 254 0 min 0,000 mm 0,0 UV-I 0 W/m 7,2 C 10,1 C 3,2 km/h (1 Bft) 100,00 %
13.04.2018 21:00 10,1 C 10,6 C 83 % 1013,7 hPa 0,0 l/m 2,8 km/h (1 Bft) W-SW 254 0 min 0,000 mm 0,0 UV-I 0 W/m 7,3 C 10,1 C 3,2 km/h (1 Bft) 86,96 %
13.04.2018 21:01 10,0 C 10,6 C 83 % 1013,7 hPa 0,0 l/m 3,3 km/h (1 Bft) W-SW 254 0 min 0,026 mm 0,0 UV-I 0 W/m 7,2 C 10,0 C 4,8 km/h (1 Bft) 95,83 %
13.04.2018 21:02 10,0 C 10,6 C 82 % 1013,8 hPa 0,0 l/m 3,5 km/h (1 Bft) W-SW 254 0 min 0,000 mm 0,0 UV-I 0 W/m 7,1 C 10,0 C 4,8 km/h (1 Bft) 95,65 %
13.04.2018 21:03 10,0 C 10,6 C 81 % 1013,8 hPa 0,0 l/m 3,9 km/h (1 Bft) W-SW 254 0 min 0,000 mm 0,0 UV-I 0 W/m 6,9 C 10,0 C 4,8 km/h (1 Bft) 92,59 %
13.04.2018 21:04 10,0 C 10,6 C 80 % 1013,7 hPa 0,0 l/m 3,1 km/h (1 Bft) W-SW 254 0 min 0,000 mm 0,0 UV-I 0 W/m 6,7 C 10,0 C 3,2 km/h (1 Bft) 100,00 %
13.04.2018 21:05 10,1 C 10,6 C 80 % 1013,8 hPa 0,0 l/m 3,0 km/h (1 Bft) W-SW 254 0 min 0,000 mm 0,0 UV-I 0 W/m 6,8 C 10,1 C 3,2 km/h (1 Bft) 92,31 %
13.04.2018 21:06 10,0 C 10,6 C 81 % 1013,8 hPa 0,0 l/m 3,3 km/h (1 Bft) W-SW 254 0 min 0,000 mm 0,0 UV-I 0 W/m 6,9 C 10,0 C 4,8 km/h (1 Bft) 100,00 %
13.04.2018 21:07 9,9 C 10,6 C 81 % 1013,8 hPa 0,0 l/m 4,0 km/h (1 Bft) W-SW 254 0 min 0,000 mm 0,0 UV-I 0 W/m 6,8 C 9,9 C 4,8 km/h (1 Bft) 91,67 %
13.04.2018 21:08 9,9 C 10,6 C 81 % 1013,8 hPa 0,0 l/m 4,3 km/h (1 Bft) W-SW 254 0 min 0,000 mm 0,0 UV-I 0 W/m 6,8 C 9,9 C 4,8 km/h (1 Bft) 100,00 %
13.04.2018 21:09 9,8 C 10,6 C 83 % 1013,9 hPa 0,0 l/m 3,8 km/h (1 Bft) W-SW 254 0 min 0,000 mm 0,0 UV-I 0 W/m 7,1 C 9,8 C 4,8 km/h (1 Bft) 93,10 %
13.04.2018 21:10 9,8 C 10,6 C 84 % 1013,9 hPa 0,0 l/m 3,4 km/h (1 Bft) W-SW 254 0 min 0,000 mm 0,0 UV-I 0 W/m 7,2 C 9,8 C 4,8 km/h (1 Bft) 100,00 %
13.04.2018 21:11 9,8 C 10,6 C 84 % 1013,9 hPa 0,0 l/m 3,7 km/h (1 Bft) W-SW 254 0 min 0,000 mm 0,0 UV-I 0 W/m 7,2 C 9,8 C 4,8 km/h (1 Bft) 91,30 %
13.04.2018 21:12 9,8 C 10,6 C 84 % 1013,9 hPa 0,0 l/m 3,8 km/h (1 Bft) W-SW 254 0 min 0,000 mm 0,0 UV-I 0 W/m 7,2 C 9,8 C 4,8 km/h (1 Bft) 95,83 %
13.04.2018 21:13 9,8 C 10,6 C 84 % 1013,9 hPa 0,0 l/m 3,6 km/h (1 Bft) W-SW 254 0 min 0,000 mm 0,0 UV-I 0 W/m 7,2 C 9,8 C 4,8 km/h (1 Bft) 95,65 %
13.04.2018 21:14 9,8 C 10,6 C 85 % 1013,9 hPa 0,0 l/m 3,4 km/h (1 Bft) W-SW 254 0 min 0,000 mm 0,0 UV-I 0 W/m 7,4 C 9,8 C 4,8 km/h (1 Bft) 88,89 %
13.04.2018 21:15 9,8 C 10,6 C 85 % 1014,0 hPa 0,0 l/m 4,0 km/h (1 Bft) W-SW 254 0 min 0,000 mm 0,0 UV-I 0 W/m 7,4 C 9,8 C 4,8 km/h (1 Bft) 100,00 %
13.04.2018 21:16 9,8 C 10,6 C 85 % 1014,0 hPa 0,0 l/m 4,4 km/h (1 Bft) W-SW 254 0 min 0,000 mm 0,0 UV-I 0 W/m 7,4 C 9,8 C 4,8 km/h (1 Bft) 91,67 %
13.04.2018 21:17 9,8 C 10,6 C 86 % 1014,0 hPa 0,0 l/m 4,2 km/h (1 Bft) W-SW 254 0 min 0,000 mm 0,0 UV-I 0 W/m 7,6 C 9,8 C 4,8 km/h (1 Bft) 100,00 %
13.04.2018 21:18 9,8 C 10,6 C 86 % 1014,0 hPa 0,0 l/m 4,4 km/h (1 Bft) W-SW 254 0 min 0,000 mm 0,0 UV-I 0 W/m 7,6 C 9,8 C 4,8 km/h (1 Bft) 92,59 %
13.04.2018 21:19 9,9 C 10,6 C 85 % 1014,0 hPa 0,0 l/m 4,3 km/h (1 Bft) W-SW 254 0 min 0,000 mm 0,0 UV-I 0 W/m 7,5 C 9,9 C 4,8 km/h (1 Bft) 96,55 %
13.04.2018 21:20 10,0 C 10,6 C 84 % 1014,0 hPa 0,0 l/m 4,6 km/h (1 Bft) W-SW 253 0 min 0,000 mm 0,0 UV-I 0 W/m 7,4 C 10,0 C 6,4 km/h (2 Bft) 95,83 %
13.04.2018 21:21 10,0 C 10,6 C 83 % 1014,1 hPa 0,0 l/m 4,8 km/h (1 Bft) W-SW 253 0 min 0,000 mm 0,0 UV-I 0 W/m 7,2 C 10,0 C 6,4 km/h (2 Bft) 95,65 %
13.04.2018 21:22 10,1 C 10,6 C 82 % 1014,1 hPa 0,0 l/m 4,5 km/h (1 Bft) W-SW 253 0 min 0,000 mm 0,0 UV-I 0 W/m 7,2 C 10,1 C 6,4 km/h (2 Bft) 100,00 %
13.04.2018 21:23 10,1 C 10,6 C 82 % 1014,1 hPa 0,0 l/m 4,5 km/h (1 Bft) W-SW 252 0 min 0,000 mm 0,0 UV-I 0 W/m 7,2 C 10,1 C 6,4 km/h (2 Bft) 95,65 %
13.04.2018 21:24 10,1 C 10,6 C 82 % 1014,1 hPa 0,0 l/m 4,9 km/h (1 Bft) W-SW 240 0 min 0,000 mm 0,0 UV-I 0 W/m 7,2 C 10,1 C 6,4 km/h (2 Bft) 100,00 %
13.04.2018 21:25 10,1 C 10,6 C 82 % 1014,1 hPa 0,0 l/m 5,2 km/h (1 Bft) W-SW 240 0 min 0,000 mm 0,0 UV-I 0 W/m 7,2 C 10,1 C 6,4 km/h (2 Bft) 95,65 %
13.04.2018 21:26 10,1 C 10,6 C 82 % 1014,1 hPa 0,0 l/m 5,7 km/h (1 Bft) SW 227 0 min 0,000 mm 0,0 UV-I 0 W/m 7,2 C 10,1 C 6,4 km/h (2 Bft) 100,00 %
13.04.2018 21:27 10,1 C 10,6 C 82 % 1014,2 hPa 0,0 l/m 5,4 km/h (1 Bft) SW 217 0 min 0,000 mm 0,0 UV-I 0 W/m 7,2 C 10,1 C 6,4 km/h (2 Bft) 100,00 %
13.04.2018 21:28 10,1 C 10,6 C 82 % 1014,2 hPa 0,0 l/m 6,0 km/h (2 Bft) S-SW 198 0 min 0,000 mm 0,0 UV-I 0 W/m 7,2 C 10,1 C 8,0 km/h (2 Bft) 100,00 %
13.04.2018 21:29 10,0 C 10,6 C 82 % 1014,3 hPa 0,0 l/m 6,2 km/h (2 Bft) S-SW 206 0 min 0,000 mm 0,0 UV-I 0 W/m 7,1 C 10,0 C 8,0 km/h (2 Bft) 100,00 %
13.04.2018 21:30 10,0 C 10,6 C 81 % 1014,3 hPa 0,0 l/m 5,6 km/h (1 Bft) S-SW 205 0 min 0,000 mm 0,0 UV-I 0 W/m 6,9 C 10,0 C 6,4 km/h (2 Bft) 95,83 %
13.04.2018 21:31 10,0 C 10,6 C 82 % 1014,3 hPa 0,0 l/m 5,8 km/h (2 Bft) S-SW 207 0 min 0,000 mm 0,0 UV-I 0 W/m 7,1 C 10,0 C 6,4 km/h (2 Bft) 100,00 %
13.04.2018 21:32 10,1 C 10,6 C 81 % 1014,3 hPa 0,0 l/m 4,9 km/h (1 Bft) S-SW 210 0 min 0,000 mm 0,0 UV-I 0 W/m 7,0 C 10,1 C 6,4 km/h (2 Bft) 100,00 %
13.04.2018 21:33 10,1 C 10,6 C 80 % 1014,4 hPa 0,0 l/m 5,8 km/h (2 Bft) SW 217 0 min 0,000 mm 0,0 UV-I 0 W/m 6,8 C 10,1 C 8,0 km/h (2 Bft) 100,00 %
13.04.2018 21:34 10,2 C 10,6 C 80 % 1014,4 hPa 0,0 l/m 5,5 km/h (1 Bft) SW 222 0 min 0,000 mm 0,0 UV-I 0 W/m 6,9 C 10,2 C 8,0 km/h (2 Bft) 92,86 %
13.04.2018 21:35 10,2 C 10,6 C 80 % 1014,4 hPa 0,0 l/m 6,8 km/h (2 Bft) SW 228 0 min 0,000 mm 0,0 UV-I 0 W/m 6,9 C 9,9 C 8,0 km/h (2 Bft) 100,00 %
13.04.2018 21:36 10,2 C 10,6 C 78 % 1014,4 hPa 0,0 l/m 6,5 km/h (2 Bft) SW 234 0 min 0,000 mm 0,0 UV-I 0 W/m 6,5 C 10,2 C 8,0 km/h (2 Bft) 100,00 %
13.04.2018 21:37 10,3 C 10,6 C 78 % 1014,5 hPa 0,0 l/m 7,6 km/h (2 Bft) W-SW 238 0 min 0,000 mm 0,0 UV-I 0 W/m 6,6 C 9,4 C 9,7 km/h (2 Bft) 96,30 %
13.04.2018 21:38 10,4 C 10,6 C 77 % 1014,4 hPa 0,0 l/m 6,4 km/h (2 Bft) SW 218 0 min 0,000 mm 0,0 UV-I 0 W/m 6,5 C 10,4 C 9,7 km/h (2 Bft) 100,00 %
13.04.2018 21:39 10,4 C 10,6 C 77 % 1014,4 hPa 0,0 l/m 6,5 km/h (2 Bft) SW 225 0 min 0,000 mm 0,0 UV-I 0 W/m 6,5 C 10,4 C 8,0 km/h (2 Bft) 96,15 %
13.04.2018 21:40 10,4 C 10,6 C 77 % 1014,4 hPa 0,0 l/m 5,6 km/h (1 Bft) SW 221 0 min 0,000 mm 0,0 UV-I 0 W/m 6,5 C 10,4 C 6,4 km/h (2 Bft) 100,00 %
13.04.2018 21:41 10,5 C 10,6 C 77 % 1014,4 hPa 0,0 l/m 4,6 km/h (1 Bft) W-SW 238 0 min 0,000 mm 0,0 UV-I 0 W/m 6,6 C 10,5 C 6,4 km/h (2 Bft) 93,33 %
13.04.2018 21:42 10,6 C 10,6 C 77 % 1014,5 hPa 0,0 l/m 5,4 km/h (1 Bft) W-SW 240 0 min 0,000 mm 0,0 UV-I 0 W/m 6,7 C 10,6 C 8,0 km/h (2 Bft) 100,00 %
13.04.2018 21:43 10,6 C 10,6 C 76 % 1014,5 hPa 0,0 l/m 5,7 km/h (1 Bft) SW 230 0 min 0,000 mm 0,0 UV-I 0 W/m 6,5 C 10,6 C 8,0 km/h (2 Bft) 100,00 %
13.04.2018 21:44 10,6 C 10,6 C 76 % 1014,5 hPa 0,0 l/m 7,9 km/h (2 Bft) SW 236 0 min 0,000 mm 0,0 UV-I 0 W/m 6,5 C 9,5 C 11,3 km/h (2 Bft) 100,00 %
13.04.2018 21:45 10,6 C 10,6 C 75 % 1014,6 hPa 0,0 l/m 4,7 km/h (1 Bft) SW 233 0 min 0,000 mm 0,0 UV-I 0 W/m 6,4 C 10,6 C 8,0 km/h (2 Bft) 100,00 %
13.04.2018 21:46 10,6 C 10,6 C 76 % 1014,6 hPa 0,0 l/m 6,7 km/h (2 Bft) SW 236 0 min 0,000 mm 0,0 UV-I 0 W/m 6,5 C 10,4 C 8,0 km/h (2 Bft) 96,30 %
13.04.2018 21:47 10,6 C 10,6 C 76 % 1014,6 hPa 0,0 l/m 6,9 km/h (2 Bft) W-SW 247 0 min 0,000 mm 0,0 UV-I 0 W/m 6,5 C 10,3 C 8,0 km/h (2 Bft) 100,00 %
13.04.2018 21:48 10,7 C 10,6 C 75 % 1014,7 hPa 0,0 l/m 8,9 km/h (2 Bft) W-SW 242 0 min 0,000 mm 0,0 UV-I 0 W/m 6,5 C 9,0 C 12,9 km/h (3 Bft) 96,15 %
13.04.2018 21:49 10,7 C 10,6 C 74 % 1014,7 hPa 0,0 l/m 5,8 km/h (2 Bft) SW 227 0 min 0,000 mm 0,0 UV-I 0 W/m 6,3 C 10,7 C 9,7 km/h (2 Bft) 97,90 %
13.04.2018 21:50 10,7 C 10,6 C 75 % 1014,8 hPa 0,0 l/m 5,4 km/h (1 Bft) SW 234 0 min 0,000 mm 0,0 UV-I 0 W/m 6,5 C 10,7 C 8,0 km/h (2 Bft) 100,00 %
13.04.2018 21:51 10,7 C 10,6 C 75 % 1014,8 hPa 0,0 l/m 5,9 km/h (2 Bft) SW 229 0 min 0,000 mm 0,0 UV-I 0 W/m 6,5 C 10,7 C 8,0 km/h (2 Bft) 100,00 %
13.04.2018 21:52 10,7 C 10,6 C 76 % 1014,8 hPa 0,0 l/m 6,1 km/h (2 Bft) SW 220 0 min 0,000 mm 0,0 UV-I 0 W/m 6,6 C 10,7 C 8,0 km/h (2 Bft) 100,00 %
13.04.2018 21:53 10,6 C 10,6 C 75 % 1014,8 hPa 0,0 l/m 5,2 km/h (1 Bft) SW 231 0 min 0,000 mm 0,0 UV-I 0 W/m 6,4 C 10,6 C 6,4 km/h (2 Bft) 100,00 %
13.04.2018 21:54 10,6 C 10,6 C 75 % 1014,8 hPa 0,0 l/m 6,5 km/h (2 Bft) SW 228 0 min 0,000 mm 0,0 UV-I 0 W/m 6,4 C 10,6 C 8,0 km/h (2 Bft) 100,00 %
13.04.2018 21:55 10,6 C 10,6 C 75 % 1014,8 hPa 0,0 l/m 6,4 km/h (2 Bft) S-SW 204 0 min 0,000 mm 0,0 UV-I 0 W/m 6,4 C 10,6 C 9,7 km/h (2 Bft) 92,86 %
13.04.2018 21:56 10,6 C 10,6 C 76 % 1014,9 hPa 0,0 l/m 6,6 km/h (2 Bft) SW 229 0 min 0,000 mm 0,0 UV-I 0 W/m 6,5 C 10,5 C 8,0 km/h (2 Bft) 100,00 %
13.04.2018 21:57 10,6 C 10,6 C 75 % 1014,9 hPa 0,0 l/m 5,0 km/h (1 Bft) SW 221 0 min 0,000 mm 0,0 UV-I 0 W/m 6,4 C 10,6 C 6,4 km/h (2 Bft) 100,00 %
13.04.2018 21:58 10,6 C 10,6 C 75 % 1014,9 hPa 0,0 l/m 4,3 km/h (1 Bft) SW 227 0 min 0,000 mm 0,0 UV-I 0 W/m 6,4 C 10,6 C 6,4 km/h (2 Bft) 96,30 %
13.04.2018 21:59 10,6 C 10,6 C 74 % 1014,9 hPa 0,0 l/m 7,1 km/h (2 Bft) S-SW 206 0 min 0,000 mm 0,0 UV-I 0 W/m 6,2 C 10,1 C 9,7 km/h (2 Bft) 97,91 %
13.04.2018 22:00 10,6 C 10,6 C 74 % 1014,9 hPa 0,0 l/m 6,8 km/h (2 Bft) SW 214 0 min 0,000 mm 0,0 UV-I 0 W/m 6,2 C 10,3 C 8,0 km/h (2 Bft) 100,00 %
13.04.2018 22:02 10,6 C 10,6 C 74 % 1014,9 hPa 0,0 l/m 6,3 km/h (2 Bft) SW 214 0 min 0,025 mm 0,0 UV-I 0 W/m 6,2 C 10,6 C 8,0 km/h (2 Bft) 98,11 %
13.04.2018 22:03 10,6 C 10,6 C 75 % 1014,9 hPa 0,0 l/m 6,0 km/h (2 Bft) SW 217 0 min 0,000 mm 0,0 UV-I 0 W/m 6,4 C 10,6 C 8,0 km/h (2 Bft) 100,00 %
13.04.2018 22:04 10,6 C 10,6 C 75 % 1015,0 hPa 0,0 l/m 3,6 km/h (1 Bft) SW 217 0 min 0,000 mm 0,0 UV-I 0 W/m 6,4 C 10,6 C 4,8 km/h (1 Bft) 100,00 %
13.04.2018 22:05 10,6 C 10,6 C 74 % 1014,9 hPa 0,0 l/m 4,9 km/h (1 Bft) SW 217 0 min 0,000 mm 0,0 UV-I 0 W/m 6,2 C 10,6 C 6,4 km/h (2 Bft) 100,00 %
13.04.2018 22:06 10,6 C 10,6 C 74 % 1014,9 hPa 0,0 l/m 4,7 km/h (1 Bft) SW 220 0 min 0,000 mm 0,0 UV-I 0 W/m 6,2 C 10,6 C 6,4 km/h (2 Bft) 100,00 %
13.04.2018 22:07 10,6 C 10,6 C 75 % 1015,0 hPa 0,0 l/m 3,2 km/h (1 Bft) SW 219 0 min 0,000 mm 0,0 UV-I 0 W/m 6,4 C 10,6 C 3,2 km/h (1 Bft) 95,83 %
13.04.2018 22:08 10,5 C 10,6 C 75 % 1014,9 hPa 0,0 l/m 3,5 km/h (1 Bft) SW 219 0 min 0,000 mm 0,0 UV-I 0 W/m 6,3 C 10,5 C 4,8 km/h (1 Bft) 100,00 %
13.04.2018 22:09 10,3 C 10,6 C 75 % 1015,0 hPa 0,0 l/m 2,3 km/h (1 Bft) SW 219 0 min 0,000 mm 0,0 UV-I 0 W/m 6,1 C 10,3 C 3,2 km/h (1 Bft) 95,65 %
13.04.2018 22:10 10,3 C 10,6 C 75 % 1015,0 hPa 0,0 l/m 4,4 km/h (1 Bft) SW 233 0 min 0,000 mm 0,0 UV-I 0 W/m 6,1 C 10,3 C 6,4 km/h (2 Bft) 100,00 %
13.04.2018 22:11 10,3 C 10,6 C 75 % 1015,0 hPa 0,0 l/m 5,5 km/h (1 Bft) SW 234 0 min 0,000 mm 0,0 UV-I 0 W/m 6,1 C 10,3 C 6,4 km/h (2 Bft) 100,00 %
13.04.2018 22:12 10,3 C 10,6 C 75 % 1015,0 hPa 0,0 l/m 5,1 km/h (1 Bft) SW 218 0 min 0,000 mm 0,0 UV-I 0 W/m 6,1 C 10,3 C 6,4 km/h (2 Bft) 100,00 %
13.04.2018 22:13 10,5 C 10,6 C 73 % 1015,0 hPa 0,0 l/m 6,5 km/h (2 Bft) S-SW 198 0 min 0,000 mm 0,0 UV-I 0 W/m 5,9 C 10,5 C 8,0 km/h (2 Bft) 100,00 %
13.04.2018 22:14 10,6 C 10,6 C 73 % 1015,1 hPa 0,0 l/m 5,4 km/h (1 Bft) S-SW 210 0 min 0,000 mm 0,0 UV-I 0 W/m 6,0 C 10,6 C 6,4 km/h (2 Bft) 96,15 %
13.04.2018 22:15 10,6 C 10,6 C 74 % 1015,0 hPa 0,0 l/m 5,6 km/h (1 Bft) SW 215 0 min 0,000 mm 0,0 UV-I 0 W/m 6,2 C 10,6 C 8,0 km/h (2 Bft) 100,00 %
13.04.2018 22:16 10,4 C 10,6 C 75 % 1015,0 hPa 0,0 l/m 4,7 km/h (1 Bft) SW 215 0 min 0,000 mm 0,0 UV-I 0 W/m 6,2 C 10,4 C 4,8 km/h (1 Bft) 100,00 %
13.04.2018 22:17 10,3 C 10,6 C 76 % 1015,1 hPa 0,0 l/m 4,9 km/h (1 Bft) SW 224 0 min 0,000 mm 0,0 UV-I 0 W/m 6,3 C 10,3 C 6,4 km/h (2 Bft) 100,00 %
13.04.2018 22:18 10,1 C 10,6 C 77 % 1015,1 hPa 0,0 l/m 5,7 km/h (1 Bft) S-SW 208 0 min 0,000 mm 0,0 UV-I 0 W/m 6,3 C 10,1 C 6,4 km/h (2 Bft) 96,88 %
13.04.2018 22:19 9,9 C 10,6 C 78 % 1015,1 hPa 0,0 l/m 3,8 km/h (1 Bft) S-SW 210 0 min 0,000 mm 0,0 UV-I 0 W/m 6,2 C 9,9 C 4,8 km/h (1 Bft) 100,00 %
13.04.2018 22:20 9,8 C 10,6 C 78 % 1015,1 hPa 0,0 l/m 3,5 km/h (1 Bft) S-SW 210 0 min 0,000 mm 0,0 UV-I 0 W/m 6,1 C 9,8 C 4,8 km/h (1 Bft) 88,89 %
13.04.2018 22:21 9,8 C 10,6 C 79 % 1015,0 hPa 0,0 l/m 3,4 km/h (1 Bft) S-SW 210 0 min 0,000 mm 0,0 UV-I 0 W/m 6,3 C 9,8 C 4,8 km/h (1 Bft) 100,00 %
13.04.2018 22:22 9,7 C 10,6 C 79 % 1015,1 hPa 0,0 l/m 3,0 km/h (1 Bft) S-SW 210 0 min 0,000 mm 0,0 UV-I 0 W/m 6,2 C 9,7 C 4,8 km/h (1 Bft) 100,00 %
13.04.2018 22:23 9,6 C 10,6 C 80 % 1015,1 hPa 0,0 l/m 3,3 km/h (1 Bft) S-SW 210 0 min 0,000 mm 0,0 UV-I 0 W/m 6,3 C 9,6 C 4,8 km/h (1 Bft) 100,00 %
13.04.2018 22:24 9,6 C 10,6 C 80 % 1015,1 hPa 0,0 l/m 3,6 km/h (1 Bft) S-SW 213 0 min 0,000 mm 0,0 UV-I 0 W/m 6,3 C 9,6 C 6,4 km/h (2 Bft) 100,00 %
13.04.2018 22:25 9,7 C 10,6 C 79 % 1015,1 hPa 0,0 l/m 3,0 km/h (1 Bft) S-SW 213 0 min 0,000 mm 0,0 UV-I 0 W/m 6,2 C 9,7 C 3,2 km/h (1 Bft) 100,00 %
13.04.2018 22:26 9,8 C 10,6 C 78 % 1015,1 hPa 0,0 l/m 3,7 km/h (1 Bft) S-SW 213 0 min 0,000 mm 0,0 UV-I 0 W/m 6,1 C 9,8 C 4,8 km/h (1 Bft) 100,00 %
13.04.2018 22:27 9,8 C 10,6 C 78 % 1015,1 hPa 0,0 l/m 4,4 km/h (1 Bft) SW 235 0 min 0,000 mm 0,0 UV-I 0 W/m 6,1 C 9,8 C 6,4 km/h (2 Bft) 96,15 %
13.04.2018 22:28 9,9 C 10,6 C 77 % 1015,1 hPa 0,0 l/m 4,4 km/h (1 Bft) SW 235 0 min 0,000 mm 0,0 UV-I 0 W/m 6,1 C 9,9 C 4,8 km/h (1 Bft) 100,00 %
13.04.2018 22:29 9,9 C 10,6 C 77 % 1015,1 hPa 0,0 l/m 5,5 km/h (1 Bft) SW 225 0 min 0,000 mm 0,0 UV-I 0 W/m 6,1 C 9,9 C 6,4 km/h (2 Bft) 100,00 %
13.04.2018 22:30 9,9 C 10,6 C 78 % 1015,2 hPa 0,0 l/m 4,9 km/h (1 Bft) SW 225 0 min 0,000 mm 0,0 UV-I 0 W/m 6,2 C 9,9 C 6,4 km/h (2 Bft) 100,00 %
13.04.2018 22:31 9,9 C 10,6 C 78 % 1015,2 hPa 0,0 l/m 5,7 km/h (1 Bft) SW 225 0 min 0,000 mm 0,0 UV-I 0 W/m 6,2 C 9,9 C 6,4 km/h (2 Bft) 100,00 %
13.04.2018 22:32 9,8 C 10,6 C 78 % 1015,2 hPa 0,0 l/m 5,0 km/h (1 Bft) SW 227 0 min 0,000 mm 0,0 UV-I 0 W/m 6,1 C 9,8 C 6,4 km/h (2 Bft) 100,00 %
13.04.2018 22:33 9,7 C 10,6 C 79 % 1015,2 hPa 0,0 l/m 4,5 km/h (1 Bft) SW 232 0 min 0,000 mm 0,0 UV-I 0 W/m 6,2 C 9,7 C 6,4 km/h (2 Bft) 100,00 %
13.04.2018 22:34 9,7 C 10,6 C 79 % 1015,2 hPa 0,0 l/m 6,1 km/h (2 Bft) SW 236 0 min 0,000 mm 0,0 UV-I 0 W/m 6,2 C 9,7 C 6,4 km/h (2 Bft) 100,00 %
13.04.2018 22:35 9,6 C 10,6 C 79 % 1015,2 hPa 0,0 l/m 6,4 km/h (2 Bft) SW 230 0 min 0,000 mm 0,0 UV-I 0 W/m 6,1 C 9,6 C 8,0 km/h (2 Bft) 100,00 %
13.04.2018 22:36 9,7 C 10,6 C 78 % 1015,3 hPa 0,0 l/m 5,8 km/h (2 Bft) SW 229 0 min 0,000 mm 0,0 UV-I 0 W/m 6,1 C 9,7 C 6,4 km/h (2 Bft) 100,00 %
13.04.2018 22:37 9,7 C 10,6 C 78 % 1015,3 hPa 0,0 l/m 5,3 km/h (1 Bft) SW 225 0 min 0,000 mm 0,0 UV-I 0 W/m 6,1 C 9,7 C 6,4 km/h (2 Bft) 100,00 %
13.04.2018 22:38 9,5 C 10,6 C 79 % 1015,3 hPa 0,0 l/m 4,2 km/h (1 Bft) SW 227 0 min 0,000 mm 0,0 UV-I 0 W/m 6,0 C 9,5 C 4,8 km/h (1 Bft) 100,00 %
13.04.2018 22:39 9,4 C 10,6 C 80 % 1015,3 hPa 0,0 l/m 6,0 km/h (2 Bft) SW 224 0 min 0,000 mm 0,0 UV-I 0 W/m 6,1 C 9,4 C 8,0 km/h (2 Bft) 96,15 %
13.04.2018 22:40 9,4 C 10,6 C 80 % 1015,3 hPa 0,0 l/m 6,3 km/h (2 Bft) SW 227 0 min 0,000 mm 0,0 UV-I 0 W/m 6,1 C 9,4 C 8,0 km/h (2 Bft) 100,00 %
13.04.2018 22:41 9,4 C 10,6 C 80 % 1015,3 hPa 0,0 l/m 5,1 km/h (1 Bft) SW 227 0 min 0,000 mm 0,0 UV-I 0 W/m 6,1 C 9,4 C 6,4 km/h (2 Bft) 100,00 %
13.04.2018 22:42 9,4 C 10,6 C 80 % 1015,4 hPa 0,0 l/m 5,3 km/h (1 Bft) W-SW 244 0 min 0,000 mm 0,0 UV-I 0 W/m 6,1 C 9,4 C 6,4 km/h (2 Bft) 100,00 %
13.04.2018 22:43 9,6 C 10,6 C 79 % 1015,4 hPa 0,0 l/m 4,5 km/h (1 Bft) SW 234 0 min 0,000 mm 0,0 UV-I 0 W/m 6,1 C 9,6 C 6,4 km/h (2 Bft) 100,00 %
13.04.2018 22:44 9,6 C 10,6 C 78 % 1015,4 hPa 0,0 l/m 6,0 km/h (2 Bft) SW 227 0 min 0,000 mm 0,0 UV-I 0 W/m 6,0 C 9,6 C 8,0 km/h (2 Bft) 100,00 %
13.04.2018 22:45 9,7 C 10,6 C 78 % 1015,4 hPa 0,0 l/m 5,9 km/h (2 Bft) SW 225 0 min 0,000 mm 0,0 UV-I 0 W/m 6,1 C 9,7 C 8,0 km/h (2 Bft) 100,00 %
13.04.2018 22:46 9,7 C 10,6 C 77 % 1015,4 hPa 0,0 l/m 6,1 km/h (2 Bft) SW 229 0 min 0,000 mm 0,0 UV-I 0 W/m 5,9 C 9,7 C 8,0 km/h (2 Bft) 100,00 %
13.04.2018 22:47 9,7 C 10,6 C 77 % 1015,4 hPa 0,0 l/m 6,1 km/h (2 Bft) W-SW 249 0 min 0,000 mm 0,0 UV-I 0 W/m 5,9 C 9,7 C 9,7 km/h (2 Bft) 100,00 %
13.04.2018 22:48 9,8 C 10,6 C 77 % 1015,4 hPa 0,0 l/m 6,8 km/h (2 Bft) W-SW 244 0 min 0,000 mm 0,0 UV-I 0 W/m 6,0 C 9,5 C 8,0 km/h (2 Bft) 100,00 %
13.04.2018 22:49 9,8 C 10,6 C 77 % 1015,6 hPa 0,0 l/m 6,2 km/h (2 Bft) W-SW 249 0 min 0,000 mm 0,0 UV-I 0 W/m 6,0 C 9,8 C 8,0 km/h (2 Bft) 100,00 %
13.04.2018 22:50 9,8 C 10,6 C 77 % 1015,6 hPa 0,0 l/m 5,0 km/h (1 Bft) W-SW 250 0 min 0,000 mm 0,0 UV-I 0 W/m 6,0 C 9,8 C 6,4 km/h (2 Bft) 100,00 %
13.04.2018 22:51 9,8 C 10,6 C 76 % 1015,6 hPa 0,0 l/m 5,4 km/h (1 Bft) W-SW 240 0 min 0,000 mm 0,0 UV-I 0 W/m 5,8 C 9,8 C 6,4 km/h (2 Bft) 100,00 %
13.04.2018 22:53 9,7 C 10,6 C 76 % 1015,6 hPa 0,0 l/m 4,9 km/h (1 Bft) W-SW 241 0 min 0,000 mm 0,0 UV-I 0 W/m 5,7 C 9,7 C 6,4 km/h (2 Bft) 100,00 %
13.04.2018 22:54 9,7 C 10,6 C 77 % 1015,6 hPa 0,0 l/m 4,9 km/h (1 Bft) W-SW 240 0 min 0,000 mm 0,0 UV-I 0 W/m 5,9 C 9,7 C 6,4 km/h (2 Bft) 100,00 %
13.04.2018 22:55 9,7 C 10,6 C 77 % 1015,6 hPa 0,0 l/m 6,1 km/h (2 Bft) W-SW 241 0 min 0,000 mm 0,0 UV-I 0 W/m 5,9 C 9,7 C 8,0 km/h (2 Bft) 100,00 %
13.04.2018 22:56 9,7 C 10,6 C 77 % 1015,6 hPa 0,0 l/m 5,9 km/h (2 Bft) SW 235 0 min 0,000 mm 0,0 UV-I 0 W/m 5,9 C 9,7 C 8,0 km/h (2 Bft) 92,59 %
13.04.2018 22:57 9,7 C 10,6 C 77 % 1015,6 hPa 0,0 l/m 5,3 km/h (1 Bft) W-SW 254 0 min 0,000 mm 0,0 UV-I 0 W/m 5,9 C 9,7 C 8,0 km/h (2 Bft) 100,00 %
13.04.2018 22:58 9,7 C 10,6 C 76 % 1015,6 hPa 0,0 l/m 6,2 km/h (2 Bft) W-SW 242 0 min 0,000 mm 0,0 UV-I 0 W/m 5,7 C 9,7 C 8,0 km/h (2 Bft) 100,00 %
13.04.2018 22:59 9,7 C 10,6 C 76 % 1015,6 hPa 0,0 l/m 5,6 km/h (1 Bft) W-SW 252 0 min 0,000 mm 0,0 UV-I 0 W/m 5,7 C 9,7 C 8,0 km/h (2 Bft) 100,00 %
13.04.2018 23:00 9,8 C 10,6 C 75 % 1015,6 hPa 0,0 l/m 5,2 km/h (1 Bft) W 261 0 min 0,000 mm 0,0 UV-I 0 W/m 5,6 C 9,8 C 6,4 km/h (2 Bft) 100,00 %
13.04.2018 23:02 9,8 C 10,6 C 76 % 1015,7 hPa 0,0 l/m 5,8 km/h (2 Bft) W 260 0 min 0,025 mm 0,0 UV-I 0 W/m 5,8 C 9,8 C 9,7 km/h (2 Bft) 100,00 %
13.04.2018 23:03 9,8 C 10,6 C 76 % 1015,7 hPa 0,0 l/m 3,1 km/h (1 Bft) W 260 0 min 0,000 mm 0,0 UV-I 0 W/m 5,8 C 9,8 C 4,8 km/h (1 Bft) 100,00 %
13.04.2018 23:04 9,8 C 10,6 C 76 % 1015,7 hPa 0,0 l/m 2,8 km/h (1 Bft) W 260 0 min 0,000 mm 0,0 UV-I 0 W/m 5,8 C 9,8 C 4,8 km/h (1 Bft) 100,00 %
13.04.2018 23:05 9,7 C 10,6 C 76 % 1015,7 hPa 0,0 l/m 3,0 km/h (1 Bft) W 260 0 min 0,000 mm 0,0 UV-I 0 W/m 5,7 C 9,7 C 3,2 km/h (1 Bft) 100,00 %
13.04.2018 23:06 9,7 C 10,6 C 76 % 1015,7 hPa 0,0 l/m 3,5 km/h (1 Bft) W 260 0 min 0,000 mm 0,0 UV-I 0 W/m 5,7 C 9,7 C 4,8 km/h (1 Bft) 100,00 %
13.04.2018 23:08 9,6 C 10,6 C 77 % 1015,7 hPa 0,0 l/m 3,0 km/h (1 Bft) W 260 0 min 0,000 mm 0,0 UV-I 0 W/m 5,8 C 9,6 C 4,8 km/h (1 Bft) 94,64 %
13.04.2018 23:09 9,6 C 10,6 C 77 % 1015,7 hPa 0,0 l/m 2,4 km/h (1 Bft) W 260 0 min 0,000 mm 0,0 UV-I 0 W/m 5,8 C 9,6 C 3,2 km/h (1 Bft) 96,15 %
13.04.2018 23:10 9,5 C 10,6 C 77 % 1015,7 hPa 0,0 l/m 3,1 km/h (1 Bft) W 260 0 min 0,000 mm 0,0 UV-I 0 W/m 5,7 C 9,5 C 4,8 km/h (1 Bft) 95,83 %
13.04.2018 23:11 9,5 C 10,6 C 77 % 1015,8 hPa 0,0 l/m 4,8 km/h (1 Bft) W 260 0 min 0,000 mm 0,0 UV-I 0 W/m 5,7 C 9,5 C 6,4 km/h (2 Bft) 100,00 %
13.04.2018 23:12 9,6 C 10,6 C 76 % 1015,8 hPa 0,0 l/m 4,0 km/h (1 Bft) W 260 0 min 0,000 mm 0,0 UV-I 0 W/m 5,6 C 9,6 C 6,4 km/h (2 Bft) 95,83 %
13.04.2018 23:13 9,6 C 10,6 C 76 % 1015,8 hPa 0,0 l/m 3,8 km/h (1 Bft) W 260 0 min 0,000 mm 0,0 UV-I 0 W/m 5,6 C 9,6 C 6,4 km/h (2 Bft) 100,00 %
13.04.2018 23:14 9,6 C 10,6 C 77 % 1015,8 hPa 0,0 l/m 2,8 km/h (1 Bft) W 260 0 min 0,000 mm 0,0 UV-I 0 W/m 5,8 C 9,6 C 3,2 km/h (1 Bft) 100,00 %
13.04.2018 23:15 9,6 C 10,6 C 77 % 1015,8 hPa 0,0 l/m 4,1 km/h (1 Bft) W-SW 258 0 min 0,000 mm 0,0 UV-I 0 W/m 5,8 C 9,6 C 4,8 km/h (1 Bft) 92,31 %
13.04.2018 23:16 9,4 C 10,6 C 77 % 1015,8 hPa 0,0 l/m 4,3 km/h (1 Bft) W-SW 258 0 min 0,000 mm 0,0 UV-I 0 W/m 5,6 C 9,4 C 4,8 km/h (1 Bft) 92,59 %
13.04.2018 23:17 9,3 C 10,6 C 78 % 1015,8 hPa 0,0 l/m 4,5 km/h (1 Bft) W-SW 258 0 min 0,000 mm 0,0 UV-I 0 W/m 5,7 C 9,3 C 6,4 km/h (2 Bft) 96,55 %
13.04.2018 23:18 9,2 C 10,6 C 78 % 1015,8 hPa 0,0 l/m 5,0 km/h (1 Bft) SW 232 0 min 0,000 mm 0,0 UV-I 0 W/m 5,6 C 9,2 C 6,4 km/h (2 Bft) 95,83 %
13.04.2018 23:19 9,1 C 10,6 C 79 % 1015,9 hPa 0,0 l/m 5,9 km/h (2 Bft) SW 232 0 min 0,000 mm 0,0 UV-I 0 W/m 5,7 C 9,1 C 6,4 km/h (2 Bft) 91,30 %
13.04.2018 23:20 8,8 C 10,6 C 80 % 1015,8 hPa 0,0 l/m 7,3 km/h (2 Bft) W-SW 241 0 min 0,000 mm 0,0 UV-I 0 W/m 5,5 C 8,1 C 8,0 km/h (2 Bft) 100,00 %
13.04.2018 23:21 8,7 C 10,6 C 80 % 1015,9 hPa 0,0 l/m 6,6 km/h (2 Bft) SW 229 0 min 0,000 mm 0,0 UV-I 0 W/m 5,4 C 8,6 C 8,0 km/h (2 Bft) 100,00 %
13.04.2018 23:22 8,6 C 10,6 C 81 % 1015,9 hPa 0,0 l/m 6,1 km/h (2 Bft) SW 230 0 min 0,000 mm 0,0 UV-I 0 W/m 5,5 C 8,6 C 6,4 km/h (2 Bft) 96,15 %
13.04.2018 23:23 8,6 C 10,6 C 82 % 1015,9 hPa 0,0 l/m 7,0 km/h (2 Bft) SW 234 0 min 0,000 mm 0,0 UV-I 0 W/m 5,7 C 8,1 C 8,0 km/h (2 Bft) 100,00 %
13.04.2018 23:24 8,6 C 10,6 C 82 % 1015,9 hPa 0,0 l/m 7,2 km/h (2 Bft) SW 234 0 min 0,000 mm 0,0 UV-I 0 W/m 5,7 C 8,0 C 8,0 km/h (2 Bft) 97,56 %
13.04.2018 23:25 8,7 C 10,6 C 82 % 1015,9 hPa 0,0 l/m 6,8 km/h (2 Bft) W-SW 242 0 min 0,000 mm 0,0 UV-I 0 W/m 5,8 C 8,4 C 8,0 km/h (2 Bft) 95,83 %
13.04.2018 23:26 8,8 C 10,6 C 81 % 1015,9 hPa 0,0 l/m 7,6 km/h (2 Bft) W-SW 242 0 min 0,000 mm 0,0 UV-I 0 W/m 5,7 C 7,9 C 11,3 km/h (2 Bft) 100,00 %
13.04.2018 23:27 8,9 C 10,6 C 80 % 1015,9 hPa 0,0 l/m 6,8 km/h (2 Bft) SW 234 0 min 0,000 mm 0,0 UV-I 0 W/m 5,6 C 8,6 C 8,0 km/h (2 Bft) 96,67 %
13.04.2018 23:28 9,0 C 10,6 C 80 % 1015,9 hPa 0,0 l/m 7,0 km/h (2 Bft) W-SW 245 0 min 0,000 mm 0,0 UV-I 0 W/m 5,7 C 8,5 C 11,3 km/h (2 Bft) 96,55 %
13.04.2018 23:29 9,0 C 10,6 C 79 % 1016,0 hPa 0,0 l/m 6,4 km/h (2 Bft) W-SW 243 0 min 0,000 mm 0,0 UV-I 0 W/m 5,6 C 9,0 C 8,0 km/h (2 Bft) 100,00 %
13.04.2018 23:30 9,1 C 10,6 C 79 % 1016,0 hPa 0,0 l/m 6,0 km/h (2 Bft) SW 236 0 min 0,000 mm 0,0 UV-I 0 W/m 5,7 C 9,1 C 8,0 km/h (2 Bft) 96,55 %
13.04.2018 23:31 9,0 C 10,6 C 79 % 1015,9 hPa 0,0 l/m 6,8 km/h (2 Bft) SW 236 0 min 0,000 mm 0,0 UV-I 0 W/m 5,6 C 8,7 C 8,0 km/h (2 Bft) 100,00 %
13.04.2018 23:32 9,0 C 10,6 C 79 % 1016,0 hPa 0,0 l/m 8,2 km/h (2 Bft) W-SW 240 0 min 0,000 mm 0,0 UV-I 0 W/m 5,6 C 7,7 C 9,7 km/h (2 Bft) 95,65 %
13.04.2018 23:33 8,9 C 10,6 C 79 % 1016,0 hPa 0,0 l/m 7,3 km/h (2 Bft) SW 234 0 min 0,000 mm 0,0 UV-I 0 W/m 5,5 C 8,2 C 8,0 km/h (2 Bft) 100,00 %
13.04.2018 23:34 8,9 C 10,6 C 79 % 1016,1 hPa 0,0 l/m 8,3 km/h (2 Bft) W-SW 251 0 min 0,000 mm 0,0 UV-I 0 W/m 5,5 C 7,5 C 11,3 km/h (2 Bft) 94,12 %
13.04.2018 23:35 8,9 C 10,6 C 79 % 1016,1 hPa 0,0 l/m 7,2 km/h (2 Bft) W-SW 248 0 min 0,000 mm 0,0 UV-I 0 W/m 5,5 C 8,3 C 11,3 km/h (2 Bft) 100,00 %
13.04.2018 23:36 8,9 C 10,6 C 79 % 1016,1 hPa 0,0 l/m 7,2 km/h (2 Bft) SW 234 0 min 0,000 mm 0,0 UV-I 0 W/m 5,5 C 8,3 C 9,7 km/h (2 Bft) 95,65 %
13.04.2018 23:37 8,9 C 10,6 C 79 % 1016,1 hPa 0,0 l/m 6,3 km/h (2 Bft) W 261 0 min 0,000 mm 0,0 UV-I 0 W/m 5,5 C 8,9 C 9,7 km/h (2 Bft) 96,30 %
13.04.2018 23:38 9,0 C 10,6 C 78 % 1016,1 hPa 0,0 l/m 7,1 km/h (2 Bft) W-SW 257 0 min 0,000 mm 0,0 UV-I 0 W/m 5,4 C 8,5 C 11,3 km/h (2 Bft) 95,65 %
13.04.2018 23:39 9,0 C 10,6 C 78 % 1016,1 hPa 0,0 l/m 7,4 km/h (2 Bft) W-SW 240 0 min 0,000 mm 0,0 UV-I 0 W/m 5,4 C 8,2 C 11,3 km/h (2 Bft) 95,83 %
13.04.2018 23:40 9,1 C 10,6 C 78 % 1016,1 hPa 0,0 l/m 7,3 km/h (2 Bft) W-SW 257 0 min 0,000 mm 0,0 UV-I 0 W/m 5,5 C 8,4 C 11,3 km/h (2 Bft) 91,30 %
13.04.2018 23:41 9,1 C 10,6 C 78 % 1016,1 hPa 0,0 l/m 5,5 km/h (1 Bft) W-SW 257 0 min 0,000 mm 0,0 UV-I 0 W/m 5,5 C 9,1 C 6,4 km/h (2 Bft) 96,30 %
13.04.2018 23:42 9,1 C 10,6 C 78 % 1016,2 hPa 0,0 l/m 5,6 km/h (1 Bft) W-SW 250 0 min 0,000 mm 0,0 UV-I 0 W/m 5,5 C 9,1 C 6,4 km/h (2 Bft) 100,00 %
13.04.2018 23:43 9,2 C 10,6 C 78 % 1016,1 hPa 0,0 l/m 5,0 km/h (1 Bft) W-SW 246 0 min 0,000 mm 0,0 UV-I 0 W/m 5,6 C 9,2 C 6,4 km/h (2 Bft) 95,83 %
13.04.2018 23:44 9,2 C 10,6 C 78 % 1016,1 hPa 0,0 l/m 6,6 km/h (2 Bft) W-SW 246 0 min 0,000 mm 0,0 UV-I 0 W/m 5,6 C 9,1 C 11,3 km/h (2 Bft) 95,83 %
13.04.2018 23:45 9,2 C 10,6 C 78 % 1016,2 hPa 0,0 l/m 5,5 km/h (1 Bft) W-SW 257 0 min 0,000 mm 0,0 UV-I 0 W/m 5,6 C 9,2 C 8,0 km/h (2 Bft) 90,91 %
13.04.2018 23:46 9,2 C 10,6 C 77 % 1016,2 hPa 0,0 l/m 5,2 km/h (1 Bft) W-SW 255 0 min 0,000 mm 0,0 UV-I 0 W/m 5,4 C 9,2 C 8,0 km/h (2 Bft) 97,22 %
13.04.2018 23:48 9,3 C 10,6 C 77 % 1016,2 hPa 0,0 l/m 5,6 km/h (1 Bft) W 264 0 min 0,000 mm 0,0 UV-I 0 W/m 5,5 C 9,3 C 9,7 km/h (2 Bft) 97,56 %
13.04.2018 23:49 9,3 C 10,6 C 77 % 1016,2 hPa 0,0 l/m 5,3 km/h (1 Bft) W-SW 252 0 min 0,000 mm 0,0 UV-I 0 W/m 5,5 C 9,3 C 6,4 km/h (2 Bft) 100,00 %
13.04.2018 23:50 9,3 C 10,6 C 76 % 1016,2 hPa 0,0 l/m 5,5 km/h (1 Bft) SW 236 0 min 0,000 mm 0,0 UV-I 0 W/m 5,3 C 9,3 C 6,4 km/h (2 Bft) 100,00 %
13.04.2018 23:51 9,3 C 10,6 C 76 % 1016,2 hPa 0,0 l/m 5,2 km/h (1 Bft) W 261 0 min 0,000 mm 0,0 UV-I 0 W/m 5,3 C 9,3 C 6,4 km/h (2 Bft) 96,15 %
13.04.2018 23:52 9,3 C 10,6 C 76 % 1016,2 hPa 0,0 l/m 6,8 km/h (2 Bft) W 261 0 min 0,000 mm 0,0 UV-I 0 W/m 5,3 C 9,0 C 9,7 km/h (2 Bft) 100,00 %
13.04.2018 23:53 9,4 C 10,6 C 76 % 1016,2 hPa 0,0 l/m 5,3 km/h (1 Bft) W 263 0 min 0,000 mm 0,0 UV-I 0 W/m 5,4 C 9,4 C 6,4 km/h (2 Bft) 100,00 %
13.04.2018 23:54 9,4 C 10,6 C 76 % 1016,3 hPa 0,0 l/m 7,2 km/h (2 Bft) W 263 0 min 0,000 mm 0,0 UV-I 0 W/m 5,4 C 8,8 C 11,3 km/h (2 Bft) 91,67 %
13.04.2018 23:55 9,4 C 10,6 C 76 % 1016,2 hPa 0,0 l/m 5,6 km/h (1 Bft) W 272 0 min 0,000 mm 0,0 UV-I 0 W/m 5,4 C 9,4 C 8,0 km/h (2 Bft) 100,00 %
13.04.2018 23:56 9,4 C 10,6 C 76 % 1016,3 hPa 0,0 l/m 6,5 km/h (2 Bft) W 259 0 min 0,000 mm 0,0 UV-I 0 W/m 5,4 C 9,4 C 9,7 km/h (2 Bft) 95,65 %
13.04.2018 23:57 9,4 C 10,6 C 76 % 1016,3 hPa 0,0 l/m 5,6 km/h (1 Bft) W 270 0 min 0,000 mm 0,0 UV-I 0 W/m 5,4 C 9,4 C 6,4 km/h (2 Bft) 96,30 %
13.04.2018 23:58 9,3 C 10,6 C 76 % 1016,3 hPa 0,0 l/m 4,2 km/h (1 Bft) W 272 0 min 0,000 mm 0,0 UV-I 0 W/m 5,3 C 9,3 C 4,8 km/h (1 Bft) 100,00 %
13.04.2018 23:59 9,3 C 10,6 C 76 % 1016,3 hPa 0,0 l/m 5,3 km/h (1 Bft) W-SW 254 0 min 0,000 mm 0,0 UV-I 0 W/m 5,3 C 9,3 C 6,4 km/h (2 Bft) 96,15 %
_ Min-Zeit 23:22 01:45 15:33 04:48 - 17:50 - - - - - - 15:33 19:53 17:50 19:05
Minimum _ 8,6 C 10,0 C 37 % 999,5 hPa - 0,0 km/h (0 Bft) - - - - - - 4,3 C 6,5 C 0,0 km/h (0 Bft) 72,73 %
_ Max-Zeit 15:44 20:15 12:37 23:54 18:54 00:03 - - 10:19 14:00 13:18 13:06 13:19 16:00 00:03 00:00
Maximum _ 20,0 C 11,1 C 87 % 1016,3 hPa 0,4 l/m 27,0 km/h
O (4 Bft)
- - 2 min 0,432 mm 3,6 UV-I 1076 W/m 10,6 C 19,8 C 38,6 km/h
O-SO (5 Bft)
100,00 %
Durchschnitt _ 14,6 C 10,6 C 64 % 1005,6 hPa #3,4 l/m 8,3 km/h (2 Bft) O - #5:51 h #3,200 mm 1,7 UV-I 293 W/m 7,5 C 13,3 C 11,7 km/h (2 Bft) 97,95 %